<?xml version="1.0" encoding="UTF-8" standalone="no" ?>
<gpx xmlns="http://www.topografix.com/GPX/1/1" xmlns:xsi="http://www.w3.org/2001/XMLSchema-instance" xsi:schemaLocation="http://www.topografix.com/GPX/1/1 http://www.topografix.com/GPX/1/1/gpx.xsd" version="1.1" creator="VisuGPX - https://www.visugpx.com">
  <metadata>
    <name>TOUR DU LAC DE LA RAVIEGE</name>
  </metadata>
  <trk>
    <name><![CDATA[TOUR DU SALAGOU]]></name>
    <trkseg>
      <trkpt lat="43.60084" lon="2.6787">
        <ele>632.2</ele>
        <time>2021-07-07T07:47:50Z</time>
      </trkpt>
      <trkpt lat="43.60085" lon="2.67868">
        <ele>632.2</ele>
        <time>2021-07-07T07:47:51Z</time>
      </trkpt>
      <trkpt lat="43.6009" lon="2.67856">
        <ele>667.29</ele>
        <time>2021-07-07T07:47:56Z</time>
      </trkpt>
      <trkpt lat="43.6009" lon="2.67857">
        <ele>633.65</ele>
        <time>2021-07-07T07:47:57Z</time>
      </trkpt>
      <trkpt lat="43.6009" lon="2.6786">
        <ele>632.2</ele>
        <time>2021-07-07T07:48:00Z</time>
      </trkpt>
      <trkpt lat="43.6009" lon="2.6786">
        <ele>608.65</ele>
        <time>2021-07-07T07:48:01Z</time>
      </trkpt>
      <trkpt lat="43.6009" lon="2.6786">
        <ele>618.75</ele>
        <time>2021-07-07T07:48:02Z</time>
      </trkpt>
      <trkpt lat="43.6009" lon="2.6786">
        <ele>634.61</ele>
        <time>2021-07-07T07:48:03Z</time>
      </trkpt>
      <trkpt lat="43.6009" lon="2.6786">
        <ele>632.2</ele>
        <time>2021-07-07T07:48:04Z</time>
      </trkpt>
      <trkpt lat="43.60091" lon="2.67861">
        <ele>635.57</ele>
        <time>2021-07-07T07:48:12Z</time>
      </trkpt>
      <trkpt lat="43.60091" lon="2.67861">
        <ele>632.2</ele>
        <time>2021-07-07T07:48:13Z</time>
      </trkpt>
      <trkpt lat="43.60091" lon="2.67861">
        <ele>632.68</ele>
        <time>2021-07-07T07:48:19Z</time>
      </trkpt>
      <trkpt lat="43.60093" lon="2.67856">
        <ele>632.68</ele>
        <time>2021-07-07T07:48:27Z</time>
      </trkpt>
      <trkpt lat="43.6009" lon="2.67856">
        <ele>633.17</ele>
        <time>2021-07-07T07:48:35Z</time>
      </trkpt>
      <trkpt lat="43.60087" lon="2.67889">
        <ele>633.17</ele>
        <time>2021-07-07T07:48:44Z</time>
      </trkpt>
      <trkpt lat="43.60079" lon="2.67898">
        <ele>633.17</ele>
        <time>2021-07-07T07:48:48Z</time>
      </trkpt>
      <trkpt lat="43.60042" lon="2.67905">
        <ele>631.24</ele>
        <time>2021-07-07T07:49:01Z</time>
      </trkpt>
      <trkpt lat="43.60039" lon="2.67905">
        <ele>636.05</ele>
        <time>2021-07-07T07:49:02Z</time>
      </trkpt>
      <trkpt lat="43.60008" lon="2.67922">
        <ele>637.01</ele>
        <time>2021-07-07T07:49:14Z</time>
      </trkpt>
      <trkpt lat="43.59989" lon="2.6793">
        <ele>637.97</ele>
        <time>2021-07-07T07:49:22Z</time>
      </trkpt>
      <trkpt lat="43.59983" lon="2.67918">
        <ele>638.45</ele>
        <time>2021-07-07T07:49:28Z</time>
      </trkpt>
      <trkpt lat="43.59984" lon="2.67915">
        <ele>638.93</ele>
        <time>2021-07-07T07:49:29Z</time>
      </trkpt>
      <trkpt lat="43.60011" lon="2.67888">
        <ele>639.89</ele>
        <time>2021-07-07T07:49:43Z</time>
      </trkpt>
      <trkpt lat="43.60037" lon="2.67878">
        <ele>641.34</ele>
        <time>2021-07-07T07:49:54Z</time>
      </trkpt>
      <trkpt lat="43.60059" lon="2.67854">
        <ele>643.74</ele>
        <time>2021-07-07T07:50:06Z</time>
      </trkpt>
      <trkpt lat="43.60058" lon="2.67822">
        <ele>645.66</ele>
        <time>2021-07-07T07:50:17Z</time>
      </trkpt>
      <trkpt lat="43.60059" lon="2.67789">
        <ele>654.31</ele>
        <time>2021-07-07T07:50:26Z</time>
      </trkpt>
      <trkpt lat="43.60058" lon="2.67782">
        <ele>646.14</ele>
        <time>2021-07-07T07:50:28Z</time>
      </trkpt>
      <trkpt lat="43.60057" lon="2.67775">
        <ele>645.18</ele>
        <time>2021-07-07T07:50:30Z</time>
      </trkpt>
      <trkpt lat="43.60053" lon="2.67743">
        <ele>645.18</ele>
        <time>2021-07-07T07:50:40Z</time>
      </trkpt>
      <trkpt lat="43.60048" lon="2.67733">
        <ele>661.04</ele>
        <time>2021-07-07T07:50:45Z</time>
      </trkpt>
      <trkpt lat="43.60045" lon="2.6773">
        <ele>645.66</ele>
        <time>2021-07-07T07:50:47Z</time>
      </trkpt>
      <trkpt lat="43.60029" lon="2.67704">
        <ele>647.1</ele>
        <time>2021-07-07T07:50:58Z</time>
      </trkpt>
      <trkpt lat="43.60027" lon="2.677">
        <ele>646.62</ele>
        <time>2021-07-07T07:51:00Z</time>
      </trkpt>
      <trkpt lat="43.60031" lon="2.6771">
        <ele>646.14</ele>
        <time>2021-07-07T07:51:08Z</time>
      </trkpt>
      <trkpt lat="43.60045" lon="2.67725">
        <ele>645.18</ele>
        <time>2021-07-07T07:51:15Z</time>
      </trkpt>
      <trkpt lat="43.60049" lon="2.67716">
        <ele>645.18</ele>
        <time>2021-07-07T07:51:22Z</time>
      </trkpt>
      <trkpt lat="43.60032" lon="2.67691">
        <ele>667.29</ele>
        <time>2021-07-07T07:51:32Z</time>
      </trkpt>
      <trkpt lat="43.6003" lon="2.67689">
        <ele>665.85</ele>
        <time>2021-07-07T07:51:33Z</time>
      </trkpt>
      <trkpt lat="43.60029" lon="2.67687">
        <ele>646.14</ele>
        <time>2021-07-07T07:51:34Z</time>
      </trkpt>
      <trkpt lat="43.60025" lon="2.67681">
        <ele>652.39</ele>
        <time>2021-07-07T07:51:38Z</time>
      </trkpt>
      <trkpt lat="43.60024" lon="2.67679">
        <ele>640.86</ele>
        <time>2021-07-07T07:51:39Z</time>
      </trkpt>
      <trkpt lat="43.60023" lon="2.67677">
        <ele>635.09</ele>
        <time>2021-07-07T07:51:42Z</time>
      </trkpt>
      <trkpt lat="43.60022" lon="2.67678">
        <ele>659.12</ele>
        <time>2021-07-07T07:51:43Z</time>
      </trkpt>
      <trkpt lat="43.60022" lon="2.67677">
        <ele>646.62</ele>
        <time>2021-07-07T07:51:44Z</time>
      </trkpt>
      <trkpt lat="43.60022" lon="2.67678">
        <ele>641.82</ele>
        <time>2021-07-07T07:51:45Z</time>
      </trkpt>
      <trkpt lat="43.60022" lon="2.67678">
        <ele>634.13</ele>
        <time>2021-07-07T07:51:46Z</time>
      </trkpt>
      <trkpt lat="43.60022" lon="2.67678">
        <ele>662.01</ele>
        <time>2021-07-07T07:51:47Z</time>
      </trkpt>
      <trkpt lat="43.60022" lon="2.67678">
        <ele>646.62</ele>
        <time>2021-07-07T07:51:48Z</time>
      </trkpt>
      <trkpt lat="43.60022" lon="2.67678">
        <ele>680.27</ele>
        <time>2021-07-07T07:51:49Z</time>
      </trkpt>
      <trkpt lat="43.60022" lon="2.67678">
        <ele>646.62</ele>
        <time>2021-07-07T07:51:50Z</time>
      </trkpt>
      <trkpt lat="43.60022" lon="2.67678">
        <ele>668.25</ele>
        <time>2021-07-07T07:51:51Z</time>
      </trkpt>
      <trkpt lat="43.60022" lon="2.67678">
        <ele>647.59</ele>
        <time>2021-07-07T07:51:52Z</time>
      </trkpt>
      <trkpt lat="43.60022" lon="2.67678">
        <ele>664.41</ele>
        <time>2021-07-07T07:51:54Z</time>
      </trkpt>
      <trkpt lat="43.60022" lon="2.67678">
        <ele>663.45</ele>
        <time>2021-07-07T07:51:55Z</time>
      </trkpt>
      <trkpt lat="43.60022" lon="2.67678">
        <ele>647.1</ele>
        <time>2021-07-07T07:51:56Z</time>
      </trkpt>
      <trkpt lat="43.60022" lon="2.67678">
        <ele>646.14</ele>
        <time>2021-07-07T07:51:58Z</time>
      </trkpt>
      <trkpt lat="43.6002" lon="2.67672">
        <ele>645.18</ele>
        <time>2021-07-07T07:52:09Z</time>
      </trkpt>
      <trkpt lat="43.6002" lon="2.67672">
        <ele>645.66</ele>
        <time>2021-07-07T07:52:11Z</time>
      </trkpt>
      <trkpt lat="43.60021" lon="2.67674">
        <ele>645.66</ele>
        <time>2021-07-07T07:52:13Z</time>
      </trkpt>
      <trkpt lat="43.60023" lon="2.67675">
        <ele>646.14</ele>
        <time>2021-07-07T07:52:15Z</time>
      </trkpt>
      <trkpt lat="43.60024" lon="2.67677">
        <ele>645.66</ele>
        <time>2021-07-07T07:52:17Z</time>
      </trkpt>
      <trkpt lat="43.60028" lon="2.67686">
        <ele>646.14</ele>
        <time>2021-07-07T07:52:21Z</time>
      </trkpt>
      <trkpt lat="43.60048" lon="2.67717">
        <ele>646.62</ele>
        <time>2021-07-07T07:52:35Z</time>
      </trkpt>
      <trkpt lat="43.60047" lon="2.67721">
        <ele>646.62</ele>
        <time>2021-07-07T07:52:45Z</time>
      </trkpt>
      <trkpt lat="43.6005" lon="2.67722">
        <ele>647.59</ele>
        <time>2021-07-07T07:52:59Z</time>
      </trkpt>
      <trkpt lat="43.60049" lon="2.67724">
        <ele>646.62</ele>
        <time>2021-07-07T07:53:29Z</time>
      </trkpt>
      <trkpt lat="43.60048" lon="2.67724">
        <ele>647.59</ele>
        <time>2021-07-07T07:53:43Z</time>
      </trkpt>
      <trkpt lat="43.60046" lon="2.67726">
        <ele>630.28</ele>
        <time>2021-07-07T07:53:54Z</time>
      </trkpt>
      <trkpt lat="43.60046" lon="2.67726">
        <ele>631.72</ele>
        <time>2021-07-07T07:53:55Z</time>
      </trkpt>
      <trkpt lat="43.60046" lon="2.67726">
        <ele>654.31</ele>
        <time>2021-07-07T07:53:56Z</time>
      </trkpt>
      <trkpt lat="43.60046" lon="2.67726">
        <ele>671.14</ele>
        <time>2021-07-07T07:53:57Z</time>
      </trkpt>
      <trkpt lat="43.60046" lon="2.67726">
        <ele>649.51</ele>
        <time>2021-07-07T07:53:58Z</time>
      </trkpt>
      <trkpt lat="43.60046" lon="2.67726">
        <ele>658.64</ele>
        <time>2021-07-07T07:53:59Z</time>
      </trkpt>
      <trkpt lat="43.60046" lon="2.67726">
        <ele>648.07</ele>
        <time>2021-07-07T07:54:00Z</time>
      </trkpt>
      <trkpt lat="43.60046" lon="2.67727">
        <ele>654.8</ele>
        <time>2021-07-07T07:54:01Z</time>
      </trkpt>
      <trkpt lat="43.60046" lon="2.67727">
        <ele>672.58</ele>
        <time>2021-07-07T07:54:02Z</time>
      </trkpt>
      <trkpt lat="43.60047" lon="2.67727">
        <ele>649.03</ele>
        <time>2021-07-07T07:54:03Z</time>
      </trkpt>
      <trkpt lat="43.60047" lon="2.67727">
        <ele>648.07</ele>
        <time>2021-07-07T07:54:05Z</time>
      </trkpt>
      <trkpt lat="43.60047" lon="2.67727">
        <ele>657.2</ele>
        <time>2021-07-07T07:54:07Z</time>
      </trkpt>
      <trkpt lat="43.60046" lon="2.67727">
        <ele>643.26</ele>
        <time>2021-07-07T07:54:08Z</time>
      </trkpt>
      <trkpt lat="43.60046" lon="2.67727">
        <ele>647.1</ele>
        <time>2021-07-07T07:54:09Z</time>
      </trkpt>
      <trkpt lat="43.60046" lon="2.67727">
        <ele>650.95</ele>
        <time>2021-07-07T07:54:10Z</time>
      </trkpt>
      <trkpt lat="43.60046" lon="2.67727">
        <ele>640.38</ele>
        <time>2021-07-07T07:54:11Z</time>
      </trkpt>
      <trkpt lat="43.60046" lon="2.67727">
        <ele>650.95</ele>
        <time>2021-07-07T07:54:12Z</time>
      </trkpt>
      <trkpt lat="43.60046" lon="2.67726">
        <ele>648.07</ele>
        <time>2021-07-07T07:54:22Z</time>
      </trkpt>
      <trkpt lat="43.60047" lon="2.67725">
        <ele>648.07</ele>
        <time>2021-07-07T07:54:34Z</time>
      </trkpt>
      <trkpt lat="43.60046" lon="2.67725">
        <ele>648.55</ele>
        <time>2021-07-07T07:54:47Z</time>
      </trkpt>
      <trkpt lat="43.60045" lon="2.67725">
        <ele>648.55</ele>
        <time>2021-07-07T07:55:01Z</time>
      </trkpt>
      <trkpt lat="43.60052" lon="2.67745">
        <ele>649.51</ele>
        <time>2021-07-07T07:55:08Z</time>
      </trkpt>
      <trkpt lat="43.60058" lon="2.67795">
        <ele>649.99</ele>
        <time>2021-07-07T07:55:22Z</time>
      </trkpt>
      <trkpt lat="43.6006" lon="2.67855">
        <ele>649.03</ele>
        <time>2021-07-07T07:55:36Z</time>
      </trkpt>
      <trkpt lat="43.60056" lon="2.67865">
        <ele>647.59</ele>
        <time>2021-07-07T07:55:38Z</time>
      </trkpt>
      <trkpt lat="43.60052" lon="2.67869">
        <ele>646.62</ele>
        <time>2021-07-07T07:55:39Z</time>
      </trkpt>
      <trkpt lat="43.60048" lon="2.67873">
        <ele>646.14</ele>
        <time>2021-07-07T07:55:40Z</time>
      </trkpt>
      <trkpt lat="43.60043" lon="2.67875">
        <ele>647.1</ele>
        <time>2021-07-07T07:55:41Z</time>
      </trkpt>
      <trkpt lat="43.60038" lon="2.67878">
        <ele>646.62</ele>
        <time>2021-07-07T07:55:42Z</time>
      </trkpt>
      <trkpt lat="43.60003" lon="2.67898">
        <ele>645.18</ele>
        <time>2021-07-07T07:55:50Z</time>
      </trkpt>
      <trkpt lat="43.59999" lon="2.67902">
        <ele>644.7</ele>
        <time>2021-07-07T07:55:51Z</time>
      </trkpt>
      <trkpt lat="43.59996" lon="2.67905">
        <ele>644.7</ele>
        <time>2021-07-07T07:55:52Z</time>
      </trkpt>
      <trkpt lat="43.59992" lon="2.67908">
        <ele>644.7</ele>
        <time>2021-07-07T07:55:53Z</time>
      </trkpt>
      <trkpt lat="43.59989" lon="2.67912">
        <ele>644.22</ele>
        <time>2021-07-07T07:55:54Z</time>
      </trkpt>
      <trkpt lat="43.59986" lon="2.67916">
        <ele>644.22</ele>
        <time>2021-07-07T07:55:55Z</time>
      </trkpt>
      <trkpt lat="43.59983" lon="2.67921">
        <ele>644.7</ele>
        <time>2021-07-07T07:55:56Z</time>
      </trkpt>
      <trkpt lat="43.59981" lon="2.67926">
        <ele>644.7</ele>
        <time>2021-07-07T07:55:57Z</time>
      </trkpt>
      <trkpt lat="43.59979" lon="2.67931">
        <ele>644.22</ele>
        <time>2021-07-07T07:55:58Z</time>
      </trkpt>
      <trkpt lat="43.59977" lon="2.67936">
        <ele>644.7</ele>
        <time>2021-07-07T07:55:59Z</time>
      </trkpt>
      <trkpt lat="43.59965" lon="2.67977">
        <ele>645.18</ele>
        <time>2021-07-07T07:56:09Z</time>
      </trkpt>
      <trkpt lat="43.59975" lon="2.68013">
        <ele>648.07</ele>
        <time>2021-07-07T07:56:20Z</time>
      </trkpt>
      <trkpt lat="43.6" lon="2.68038">
        <ele>649.99</ele>
        <time>2021-07-07T07:56:33Z</time>
      </trkpt>
      <trkpt lat="43.6003" lon="2.68032">
        <ele>650.95</ele>
        <time>2021-07-07T07:56:44Z</time>
      </trkpt>
      <trkpt lat="43.60066" lon="2.6802">
        <ele>652.39</ele>
        <time>2021-07-07T07:56:56Z</time>
      </trkpt>
      <trkpt lat="43.601" lon="2.68038">
        <ele>652.87</ele>
        <time>2021-07-07T07:57:08Z</time>
      </trkpt>
      <trkpt lat="43.60124" lon="2.68092">
        <ele>653.83</ele>
        <time>2021-07-07T07:57:20Z</time>
      </trkpt>
      <trkpt lat="43.60129" lon="2.68142">
        <ele>655.28</ele>
        <time>2021-07-07T07:57:32Z</time>
      </trkpt>
      <trkpt lat="43.60129" lon="2.68192">
        <ele>657.68</ele>
        <time>2021-07-07T07:57:45Z</time>
      </trkpt>
      <trkpt lat="43.60129" lon="2.68208">
        <ele>661.04</ele>
        <time>2021-07-07T07:57:49Z</time>
      </trkpt>
      <trkpt lat="43.60129" lon="2.68212">
        <ele>667.29</ele>
        <time>2021-07-07T07:57:50Z</time>
      </trkpt>
      <trkpt lat="43.6013" lon="2.68215">
        <ele>676.42</ele>
        <time>2021-07-07T07:57:51Z</time>
      </trkpt>
      <trkpt lat="43.6013" lon="2.68219">
        <ele>660.56</ele>
        <time>2021-07-07T07:57:52Z</time>
      </trkpt>
      <trkpt lat="43.6013" lon="2.68223">
        <ele>626.92</ele>
        <time>2021-07-07T07:57:53Z</time>
      </trkpt>
      <trkpt lat="43.6013" lon="2.68226">
        <ele>669.7</ele>
        <time>2021-07-07T07:57:54Z</time>
      </trkpt>
      <trkpt lat="43.6013" lon="2.6823">
        <ele>660.56</ele>
        <time>2021-07-07T07:57:55Z</time>
      </trkpt>
      <trkpt lat="43.60125" lon="2.68282">
        <ele>661.04</ele>
        <time>2021-07-07T07:58:07Z</time>
      </trkpt>
      <trkpt lat="43.60104" lon="2.68334">
        <ele>662.49</ele>
        <time>2021-07-07T07:58:20Z</time>
      </trkpt>
      <trkpt lat="43.60111" lon="2.68386">
        <ele>663.45</ele>
        <time>2021-07-07T07:58:33Z</time>
      </trkpt>
      <trkpt lat="43.60148" lon="2.68409">
        <ele>662.97</ele>
        <time>2021-07-07T07:58:45Z</time>
      </trkpt>
      <trkpt lat="43.60184" lon="2.68433">
        <ele>664.89</ele>
        <time>2021-07-07T07:58:57Z</time>
      </trkpt>
      <trkpt lat="43.60193" lon="2.68448">
        <ele>624.99</ele>
        <time>2021-07-07T07:59:02Z</time>
      </trkpt>
      <trkpt lat="43.60194" lon="2.68451">
        <ele>672.58</ele>
        <time>2021-07-07T07:59:03Z</time>
      </trkpt>
      <trkpt lat="43.60195" lon="2.68454">
        <ele>670.66</ele>
        <time>2021-07-07T07:59:04Z</time>
      </trkpt>
      <trkpt lat="43.60197" lon="2.68458">
        <ele>667.29</ele>
        <time>2021-07-07T07:59:05Z</time>
      </trkpt>
      <trkpt lat="43.60198" lon="2.68462">
        <ele>667.29</ele>
        <time>2021-07-07T07:59:06Z</time>
      </trkpt>
      <trkpt lat="43.60198" lon="2.6851">
        <ele>668.25</ele>
        <time>2021-07-07T07:59:18Z</time>
      </trkpt>
      <trkpt lat="43.60197" lon="2.68532">
        <ele>696.13</ele>
        <time>2021-07-07T07:59:24Z</time>
      </trkpt>
      <trkpt lat="43.60198" lon="2.68535">
        <ele>672.1</ele>
        <time>2021-07-07T07:59:25Z</time>
      </trkpt>
      <trkpt lat="43.602" lon="2.6854">
        <ele>670.66</ele>
        <time>2021-07-07T07:59:27Z</time>
      </trkpt>
      <trkpt lat="43.60203" lon="2.68548">
        <ele>671.14</ele>
        <time>2021-07-07T07:59:30Z</time>
      </trkpt>
      <trkpt lat="43.60205" lon="2.6855">
        <ele>671.62</ele>
        <time>2021-07-07T07:59:31Z</time>
      </trkpt>
      <trkpt lat="43.60206" lon="2.68552">
        <ele>671.62</ele>
        <time>2021-07-07T07:59:32Z</time>
      </trkpt>
      <trkpt lat="43.60233" lon="2.68575">
        <ele>674.02</ele>
        <time>2021-07-07T07:59:45Z</time>
      </trkpt>
      <trkpt lat="43.60258" lon="2.68596">
        <ele>676.91</ele>
        <time>2021-07-07T07:59:58Z</time>
      </trkpt>
      <trkpt lat="43.60275" lon="2.68625">
        <ele>679.79</ele>
        <time>2021-07-07T08:00:10Z</time>
      </trkpt>
      <trkpt lat="43.60275" lon="2.68627">
        <ele>680.27</ele>
        <time>2021-07-07T08:00:11Z</time>
      </trkpt>
      <trkpt lat="43.60273" lon="2.68629">
        <ele>679.79</ele>
        <time>2021-07-07T08:00:12Z</time>
      </trkpt>
      <trkpt lat="43.60272" lon="2.6863">
        <ele>680.75</ele>
        <time>2021-07-07T08:00:13Z</time>
      </trkpt>
      <trkpt lat="43.6027" lon="2.6863">
        <ele>680.27</ele>
        <time>2021-07-07T08:00:14Z</time>
      </trkpt>
      <trkpt lat="43.60268" lon="2.68631">
        <ele>680.27</ele>
        <time>2021-07-07T08:00:15Z</time>
      </trkpt>
      <trkpt lat="43.60242" lon="2.6864">
        <ele>682.67</ele>
        <time>2021-07-07T08:00:27Z</time>
      </trkpt>
      <trkpt lat="43.60237" lon="2.68641">
        <ele>682.67</ele>
        <time>2021-07-07T08:00:29Z</time>
      </trkpt>
      <trkpt lat="43.60235" lon="2.68643">
        <ele>683.15</ele>
        <time>2021-07-07T08:00:30Z</time>
      </trkpt>
      <trkpt lat="43.60234" lon="2.68643">
        <ele>683.15</ele>
        <time>2021-07-07T08:00:31Z</time>
      </trkpt>
      <trkpt lat="43.60231" lon="2.68643">
        <ele>683.15</ele>
        <time>2021-07-07T08:00:32Z</time>
      </trkpt>
      <trkpt lat="43.60229" lon="2.68644">
        <ele>683.63</ele>
        <time>2021-07-07T08:00:33Z</time>
      </trkpt>
      <trkpt lat="43.60227" lon="2.68645">
        <ele>683.63</ele>
        <time>2021-07-07T08:00:34Z</time>
      </trkpt>
      <trkpt lat="43.60225" lon="2.68646">
        <ele>684.12</ele>
        <time>2021-07-07T08:00:35Z</time>
      </trkpt>
      <trkpt lat="43.60224" lon="2.68647">
        <ele>684.12</ele>
        <time>2021-07-07T08:00:36Z</time>
      </trkpt>
      <trkpt lat="43.60217" lon="2.68649">
        <ele>684.12</ele>
        <time>2021-07-07T08:00:39Z</time>
      </trkpt>
      <trkpt lat="43.60215" lon="2.68649">
        <ele>684.6</ele>
        <time>2021-07-07T08:00:40Z</time>
      </trkpt>
      <trkpt lat="43.60213" lon="2.6865">
        <ele>684.12</ele>
        <time>2021-07-07T08:00:41Z</time>
      </trkpt>
      <trkpt lat="43.60178" lon="2.6865">
        <ele>687</ele>
        <time>2021-07-07T08:00:55Z</time>
      </trkpt>
      <trkpt lat="43.60148" lon="2.68642">
        <ele>688.92</ele>
        <time>2021-07-07T08:01:08Z</time>
      </trkpt>
      <trkpt lat="43.60122" lon="2.68646">
        <ele>690.36</ele>
        <time>2021-07-07T08:01:20Z</time>
      </trkpt>
      <trkpt lat="43.60093" lon="2.68649">
        <ele>692.29</ele>
        <time>2021-07-07T08:01:32Z</time>
      </trkpt>
      <trkpt lat="43.60091" lon="2.68649">
        <ele>686.04</ele>
        <time>2021-07-07T08:01:33Z</time>
      </trkpt>
      <trkpt lat="43.60089" lon="2.6865">
        <ele>693.73</ele>
        <time>2021-07-07T08:01:34Z</time>
      </trkpt>
      <trkpt lat="43.60087" lon="2.6865">
        <ele>654.8</ele>
        <time>2021-07-07T08:01:35Z</time>
      </trkpt>
      <trkpt lat="43.60085" lon="2.6865">
        <ele>708.63</ele>
        <time>2021-07-07T08:01:36Z</time>
      </trkpt>
      <trkpt lat="43.60083" lon="2.68649">
        <ele>698.53</ele>
        <time>2021-07-07T08:01:37Z</time>
      </trkpt>
      <trkpt lat="43.60081" lon="2.68648">
        <ele>692.77</ele>
        <time>2021-07-07T08:01:38Z</time>
      </trkpt>
      <trkpt lat="43.60078" lon="2.68647">
        <ele>692.29</ele>
        <time>2021-07-07T08:01:39Z</time>
      </trkpt>
      <trkpt lat="43.60074" lon="2.68645">
        <ele>692.29</ele>
        <time>2021-07-07T08:01:40Z</time>
      </trkpt>
      <trkpt lat="43.60056" lon="2.68626">
        <ele>691.33</ele>
        <time>2021-07-07T08:01:46Z</time>
      </trkpt>
      <trkpt lat="43.60053" lon="2.68624">
        <ele>691.33</ele>
        <time>2021-07-07T08:01:47Z</time>
      </trkpt>
      <trkpt lat="43.60034" lon="2.68603">
        <ele>694.69</ele>
        <time>2021-07-07T08:01:56Z</time>
      </trkpt>
      <trkpt lat="43.60033" lon="2.68602">
        <ele>694.69</ele>
        <time>2021-07-07T08:01:57Z</time>
      </trkpt>
      <trkpt lat="43.60031" lon="2.68601">
        <ele>695.17</ele>
        <time>2021-07-07T08:01:58Z</time>
      </trkpt>
      <trkpt lat="43.60029" lon="2.686">
        <ele>695.65</ele>
        <time>2021-07-07T08:01:59Z</time>
      </trkpt>
      <trkpt lat="43.60014" lon="2.68604">
        <ele>698.53</ele>
        <time>2021-07-07T08:02:10Z</time>
      </trkpt>
      <trkpt lat="43.60012" lon="2.68609">
        <ele>699.5</ele>
        <time>2021-07-07T08:02:15Z</time>
      </trkpt>
      <trkpt lat="43.60009" lon="2.68607">
        <ele>699.98</ele>
        <time>2021-07-07T08:02:16Z</time>
      </trkpt>
      <trkpt lat="43.60007" lon="2.68606">
        <ele>699.98</ele>
        <time>2021-07-07T08:02:17Z</time>
      </trkpt>
      <trkpt lat="43.60005" lon="2.68605">
        <ele>699.98</ele>
        <time>2021-07-07T08:02:18Z</time>
      </trkpt>
      <trkpt lat="43.60003" lon="2.68604">
        <ele>699.98</ele>
        <time>2021-07-07T08:02:19Z</time>
      </trkpt>
      <trkpt lat="43.60001" lon="2.68604">
        <ele>699.5</ele>
        <time>2021-07-07T08:02:20Z</time>
      </trkpt>
      <trkpt lat="43.59999" lon="2.68603">
        <ele>700.46</ele>
        <time>2021-07-07T08:02:21Z</time>
      </trkpt>
      <trkpt lat="43.59998" lon="2.68602">
        <ele>700.94</ele>
        <time>2021-07-07T08:02:22Z</time>
      </trkpt>
      <trkpt lat="43.59994" lon="2.68601">
        <ele>701.42</ele>
        <time>2021-07-07T08:02:24Z</time>
      </trkpt>
      <trkpt lat="43.59992" lon="2.68602">
        <ele>701.9</ele>
        <time>2021-07-07T08:02:25Z</time>
      </trkpt>
      <trkpt lat="43.59971" lon="2.68603">
        <ele>703.82</ele>
        <time>2021-07-07T08:02:39Z</time>
      </trkpt>
      <trkpt lat="43.59958" lon="2.68606">
        <ele>705.26</ele>
        <time>2021-07-07T08:02:50Z</time>
      </trkpt>
      <trkpt lat="43.59955" lon="2.68612">
        <ele>705.26</ele>
        <time>2021-07-07T08:02:54Z</time>
      </trkpt>
      <trkpt lat="43.59952" lon="2.68636">
        <ele>706.71</ele>
        <time>2021-07-07T08:03:06Z</time>
      </trkpt>
      <trkpt lat="43.5995" lon="2.6864">
        <ele>706.71</ele>
        <time>2021-07-07T08:03:07Z</time>
      </trkpt>
      <trkpt lat="43.59948" lon="2.68644">
        <ele>706.71</ele>
        <time>2021-07-07T08:03:08Z</time>
      </trkpt>
      <trkpt lat="43.59939" lon="2.68679">
        <ele>710.55</ele>
        <time>2021-07-07T08:03:22Z</time>
      </trkpt>
      <trkpt lat="43.59943" lon="2.68685">
        <ele>709.59</ele>
        <time>2021-07-07T08:03:26Z</time>
      </trkpt>
      <trkpt lat="43.59942" lon="2.68684">
        <ele>709.59</ele>
        <time>2021-07-07T08:03:30Z</time>
      </trkpt>
      <trkpt lat="43.59939" lon="2.68677">
        <ele>707.67</ele>
        <time>2021-07-07T08:03:34Z</time>
      </trkpt>
      <trkpt lat="43.59945" lon="2.68633">
        <ele>706.23</ele>
        <time>2021-07-07T08:03:46Z</time>
      </trkpt>
      <trkpt lat="43.59944" lon="2.68628">
        <ele>705.75</ele>
        <time>2021-07-07T08:03:48Z</time>
      </trkpt>
      <trkpt lat="43.59937" lon="2.68632">
        <ele>705.75</ele>
        <time>2021-07-07T08:03:52Z</time>
      </trkpt>
      <trkpt lat="43.59926" lon="2.68654">
        <ele>749</ele>
        <time>2021-07-07T08:04:00Z</time>
      </trkpt>
      <trkpt lat="43.59925" lon="2.68656">
        <ele>664.41</ele>
        <time>2021-07-07T08:04:01Z</time>
      </trkpt>
      <trkpt lat="43.59925" lon="2.68658">
        <ele>713.44</ele>
        <time>2021-07-07T08:04:02Z</time>
      </trkpt>
      <trkpt lat="43.59924" lon="2.68661">
        <ele>706.23</ele>
        <time>2021-07-07T08:04:03Z</time>
      </trkpt>
      <trkpt lat="43.5992" lon="2.68669">
        <ele>717.28</ele>
        <time>2021-07-07T08:04:07Z</time>
      </trkpt>
      <trkpt lat="43.59919" lon="2.68672">
        <ele>706.71</ele>
        <time>2021-07-07T08:04:08Z</time>
      </trkpt>
      <trkpt lat="43.59886" lon="2.68726">
        <ele>706.71</ele>
        <time>2021-07-07T08:04:22Z</time>
      </trkpt>
      <trkpt lat="43.5986" lon="2.68774">
        <ele>707.19</ele>
        <time>2021-07-07T08:04:34Z</time>
      </trkpt>
      <trkpt lat="43.59852" lon="2.6879">
        <ele>708.15</ele>
        <time>2021-07-07T08:04:39Z</time>
      </trkpt>
      <trkpt lat="43.59833" lon="2.68847">
        <ele>707.67</ele>
        <time>2021-07-07T08:04:53Z</time>
      </trkpt>
      <trkpt lat="43.59829" lon="2.68906">
        <ele>709.11</ele>
        <time>2021-07-07T08:05:04Z</time>
      </trkpt>
      <trkpt lat="43.59828" lon="2.6892">
        <ele>709.11</ele>
        <time>2021-07-07T08:05:08Z</time>
      </trkpt>
      <trkpt lat="43.59814" lon="2.68933">
        <ele>707.19</ele>
        <time>2021-07-07T08:05:14Z</time>
      </trkpt>
      <trkpt lat="43.59782" lon="2.68936">
        <ele>703.82</ele>
        <time>2021-07-07T08:05:22Z</time>
      </trkpt>
      <trkpt lat="43.59779" lon="2.68936">
        <ele>739.39</ele>
        <time>2021-07-07T08:05:23Z</time>
      </trkpt>
      <trkpt lat="43.59776" lon="2.68936">
        <ele>670.18</ele>
        <time>2021-07-07T08:05:24Z</time>
      </trkpt>
      <trkpt lat="43.59774" lon="2.68936">
        <ele>707.67</ele>
        <time>2021-07-07T08:05:25Z</time>
      </trkpt>
      <trkpt lat="43.59771" lon="2.68934">
        <ele>703.34</ele>
        <time>2021-07-07T08:05:26Z</time>
      </trkpt>
      <trkpt lat="43.5976" lon="2.68931">
        <ele>703.82</ele>
        <time>2021-07-07T08:05:32Z</time>
      </trkpt>
      <trkpt lat="43.59758" lon="2.68933">
        <ele>703.82</ele>
        <time>2021-07-07T08:05:34Z</time>
      </trkpt>
      <trkpt lat="43.59758" lon="2.68934">
        <ele>703.82</ele>
        <time>2021-07-07T08:05:35Z</time>
      </trkpt>
      <trkpt lat="43.59759" lon="2.68935">
        <ele>703.34</ele>
        <time>2021-07-07T08:05:36Z</time>
      </trkpt>
      <trkpt lat="43.59761" lon="2.68936">
        <ele>703.82</ele>
        <time>2021-07-07T08:05:37Z</time>
      </trkpt>
      <trkpt lat="43.59762" lon="2.68935">
        <ele>703.82</ele>
        <time>2021-07-07T08:05:38Z</time>
      </trkpt>
      <trkpt lat="43.59764" lon="2.68933">
        <ele>700.46</ele>
        <time>2021-07-07T08:05:39Z</time>
      </trkpt>
      <trkpt lat="43.59766" lon="2.6893">
        <ele>703.82</ele>
        <time>2021-07-07T08:05:40Z</time>
      </trkpt>
      <trkpt lat="43.59768" lon="2.68926">
        <ele>703.82</ele>
        <time>2021-07-07T08:05:41Z</time>
      </trkpt>
      <trkpt lat="43.59769" lon="2.68922">
        <ele>702.86</ele>
        <time>2021-07-07T08:05:42Z</time>
      </trkpt>
      <trkpt lat="43.5977" lon="2.68919">
        <ele>702.86</ele>
        <time>2021-07-07T08:05:43Z</time>
      </trkpt>
      <trkpt lat="43.5977" lon="2.68917">
        <ele>687.48</ele>
        <time>2021-07-07T08:05:44Z</time>
      </trkpt>
      <trkpt lat="43.59771" lon="2.68913">
        <ele>724.49</ele>
        <time>2021-07-07T08:05:45Z</time>
      </trkpt>
      <trkpt lat="43.59771" lon="2.6891">
        <ele>704.3</ele>
        <time>2021-07-07T08:05:46Z</time>
      </trkpt>
      <trkpt lat="43.59771" lon="2.68906">
        <ele>702.86</ele>
        <time>2021-07-07T08:05:47Z</time>
      </trkpt>
      <trkpt lat="43.59772" lon="2.68901">
        <ele>704.78</ele>
        <time>2021-07-07T08:05:48Z</time>
      </trkpt>
      <trkpt lat="43.59772" lon="2.68897">
        <ele>702.38</ele>
        <time>2021-07-07T08:05:49Z</time>
      </trkpt>
      <trkpt lat="43.59772" lon="2.68893">
        <ele>702.86</ele>
        <time>2021-07-07T08:05:50Z</time>
      </trkpt>
      <trkpt lat="43.59773" lon="2.68885">
        <ele>725.45</ele>
        <time>2021-07-07T08:05:52Z</time>
      </trkpt>
      <trkpt lat="43.59774" lon="2.68881">
        <ele>704.3</ele>
        <time>2021-07-07T08:05:53Z</time>
      </trkpt>
      <trkpt lat="43.59775" lon="2.68873">
        <ele>702.86</ele>
        <time>2021-07-07T08:05:55Z</time>
      </trkpt>
      <trkpt lat="43.59776" lon="2.68843">
        <ele>680.75</ele>
        <time>2021-07-07T08:06:02Z</time>
      </trkpt>
      <trkpt lat="43.59776" lon="2.68839">
        <ele>704.3</ele>
        <time>2021-07-07T08:06:03Z</time>
      </trkpt>
      <trkpt lat="43.59777" lon="2.68828">
        <ele>718.24</ele>
        <time>2021-07-07T08:06:05Z</time>
      </trkpt>
      <trkpt lat="43.59778" lon="2.68822">
        <ele>701.9</ele>
        <time>2021-07-07T08:06:06Z</time>
      </trkpt>
      <trkpt lat="43.5978" lon="2.6881">
        <ele>701.42</ele>
        <time>2021-07-07T08:06:08Z</time>
      </trkpt>
      <trkpt lat="43.59783" lon="2.68784">
        <ele>698.53</ele>
        <time>2021-07-07T08:06:12Z</time>
      </trkpt>
      <trkpt lat="43.59784" lon="2.68777">
        <ele>698.05</ele>
        <time>2021-07-07T08:06:13Z</time>
      </trkpt>
      <trkpt lat="43.59791" lon="2.68706">
        <ele>693.73</ele>
        <time>2021-07-07T08:06:21Z</time>
      </trkpt>
      <trkpt lat="43.59793" lon="2.68653">
        <ele>690.36</ele>
        <time>2021-07-07T08:06:26Z</time>
      </trkpt>
      <trkpt lat="43.59792" lon="2.68641">
        <ele>685.08</ele>
        <time>2021-07-07T08:06:27Z</time>
      </trkpt>
      <trkpt lat="43.5979" lon="2.68629">
        <ele>688.92</ele>
        <time>2021-07-07T08:06:28Z</time>
      </trkpt>
      <trkpt lat="43.59789" lon="2.68617">
        <ele>656.24</ele>
        <time>2021-07-07T08:06:29Z</time>
      </trkpt>
      <trkpt lat="43.59787" lon="2.68605">
        <ele>693.25</ele>
        <time>2021-07-07T08:06:30Z</time>
      </trkpt>
      <trkpt lat="43.59785" lon="2.68593">
        <ele>697.09</ele>
        <time>2021-07-07T08:06:31Z</time>
      </trkpt>
      <trkpt lat="43.59783" lon="2.68581">
        <ele>687.96</ele>
        <time>2021-07-07T08:06:32Z</time>
      </trkpt>
      <trkpt lat="43.5978" lon="2.68556">
        <ele>687</ele>
        <time>2021-07-07T08:06:34Z</time>
      </trkpt>
      <trkpt lat="43.5977" lon="2.68484">
        <ele>683.15</ele>
        <time>2021-07-07T08:06:40Z</time>
      </trkpt>
      <trkpt lat="43.59759" lon="2.68424">
        <ele>681.71</ele>
        <time>2021-07-07T08:06:45Z</time>
      </trkpt>
      <trkpt lat="43.59742" lon="2.68308">
        <ele>681.71</ele>
        <time>2021-07-07T08:06:57Z</time>
      </trkpt>
      <trkpt lat="43.59726" lon="2.68181">
        <ele>682.19</ele>
        <time>2021-07-07T08:07:13Z</time>
      </trkpt>
      <trkpt lat="43.59724" lon="2.6815">
        <ele>682.19</ele>
        <time>2021-07-07T08:07:17Z</time>
      </trkpt>
      <trkpt lat="43.59718" lon="2.68126">
        <ele>682.67</ele>
        <time>2021-07-07T08:07:20Z</time>
      </trkpt>
      <trkpt lat="43.59717" lon="2.68119">
        <ele>682.19</ele>
        <time>2021-07-07T08:07:21Z</time>
      </trkpt>
      <trkpt lat="43.59703" lon="2.68066">
        <ele>683.15</ele>
        <time>2021-07-07T08:07:29Z</time>
      </trkpt>
      <trkpt lat="43.597" lon="2.68056">
        <ele>683.15</ele>
        <time>2021-07-07T08:07:31Z</time>
      </trkpt>
      <trkpt lat="43.59692" lon="2.68037">
        <ele>683.63</ele>
        <time>2021-07-07T08:07:39Z</time>
      </trkpt>
      <trkpt lat="43.59692" lon="2.68032">
        <ele>683.15</ele>
        <time>2021-07-07T08:07:43Z</time>
      </trkpt>
      <trkpt lat="43.59692" lon="2.6803">
        <ele>683.15</ele>
        <time>2021-07-07T08:07:44Z</time>
      </trkpt>
      <trkpt lat="43.59692" lon="2.68006">
        <ele>679.79</ele>
        <time>2021-07-07T08:07:52Z</time>
      </trkpt>
      <trkpt lat="43.59692" lon="2.67999">
        <ele>679.79</ele>
        <time>2021-07-07T08:07:53Z</time>
      </trkpt>
      <trkpt lat="43.59693" lon="2.67986">
        <ele>678.83</ele>
        <time>2021-07-07T08:07:55Z</time>
      </trkpt>
      <trkpt lat="43.59688" lon="2.67963">
        <ele>675.94</ele>
        <time>2021-07-07T08:07:58Z</time>
      </trkpt>
      <trkpt lat="43.59685" lon="2.67954">
        <ele>675.94</ele>
        <time>2021-07-07T08:07:59Z</time>
      </trkpt>
      <trkpt lat="43.59682" lon="2.67946">
        <ele>674.98</ele>
        <time>2021-07-07T08:08:00Z</time>
      </trkpt>
      <trkpt lat="43.59675" lon="2.67926">
        <ele>674.98</ele>
        <time>2021-07-07T08:08:03Z</time>
      </trkpt>
      <trkpt lat="43.59673" lon="2.67919">
        <ele>674.98</ele>
        <time>2021-07-07T08:08:04Z</time>
      </trkpt>
      <trkpt lat="43.59672" lon="2.67911">
        <ele>674.98</ele>
        <time>2021-07-07T08:08:05Z</time>
      </trkpt>
      <trkpt lat="43.59668" lon="2.6787">
        <ele>674.98</ele>
        <time>2021-07-07T08:08:11Z</time>
      </trkpt>
      <trkpt lat="43.59666" lon="2.67862">
        <ele>674.98</ele>
        <time>2021-07-07T08:08:12Z</time>
      </trkpt>
      <trkpt lat="43.59666" lon="2.67856">
        <ele>675.94</ele>
        <time>2021-07-07T08:08:13Z</time>
      </trkpt>
      <trkpt lat="43.59666" lon="2.67849">
        <ele>675.46</ele>
        <time>2021-07-07T08:08:14Z</time>
      </trkpt>
      <trkpt lat="43.59665" lon="2.67843">
        <ele>675.94</ele>
        <time>2021-07-07T08:08:15Z</time>
      </trkpt>
      <trkpt lat="43.59665" lon="2.67839">
        <ele>676.42</ele>
        <time>2021-07-07T08:08:16Z</time>
      </trkpt>
      <trkpt lat="43.59666" lon="2.67834">
        <ele>676.42</ele>
        <time>2021-07-07T08:08:17Z</time>
      </trkpt>
      <trkpt lat="43.59666" lon="2.6783">
        <ele>676.42</ele>
        <time>2021-07-07T08:08:18Z</time>
      </trkpt>
      <trkpt lat="43.59667" lon="2.67825">
        <ele>676.42</ele>
        <time>2021-07-07T08:08:19Z</time>
      </trkpt>
      <trkpt lat="43.59667" lon="2.67821">
        <ele>687.48</ele>
        <time>2021-07-07T08:08:20Z</time>
      </trkpt>
      <trkpt lat="43.59667" lon="2.67815">
        <ele>679.79</ele>
        <time>2021-07-07T08:08:21Z</time>
      </trkpt>
      <trkpt lat="43.59668" lon="2.67804">
        <ele>676.91</ele>
        <time>2021-07-07T08:08:23Z</time>
      </trkpt>
      <trkpt lat="43.59671" lon="2.67786">
        <ele>676.91</ele>
        <time>2021-07-07T08:08:31Z</time>
      </trkpt>
      <trkpt lat="43.59689" lon="2.67765">
        <ele>678.83</ele>
        <time>2021-07-07T08:08:44Z</time>
      </trkpt>
      <trkpt lat="43.59718" lon="2.67765">
        <ele>679.79</ele>
        <time>2021-07-07T08:08:57Z</time>
      </trkpt>
      <trkpt lat="43.59721" lon="2.67765">
        <ele>680.27</ele>
        <time>2021-07-07T08:08:58Z</time>
      </trkpt>
      <trkpt lat="43.59724" lon="2.67765">
        <ele>680.27</ele>
        <time>2021-07-07T08:08:59Z</time>
      </trkpt>
      <trkpt lat="43.59736" lon="2.67768">
        <ele>681.71</ele>
        <time>2021-07-07T08:09:03Z</time>
      </trkpt>
      <trkpt lat="43.59754" lon="2.67774">
        <ele>684.6</ele>
        <time>2021-07-07T08:09:11Z</time>
      </trkpt>
      <trkpt lat="43.59775" lon="2.67797">
        <ele>686.52</ele>
        <time>2021-07-07T08:09:24Z</time>
      </trkpt>
      <trkpt lat="43.59787" lon="2.67807">
        <ele>687.48</ele>
        <time>2021-07-07T08:09:31Z</time>
      </trkpt>
      <trkpt lat="43.59808" lon="2.67813">
        <ele>688.92</ele>
        <time>2021-07-07T08:09:44Z</time>
      </trkpt>
      <trkpt lat="43.59806" lon="2.67814">
        <ele>688.92</ele>
        <time>2021-07-07T08:09:56Z</time>
      </trkpt>
      <trkpt lat="43.59807" lon="2.67815">
        <ele>688.92</ele>
        <time>2021-07-07T08:10:13Z</time>
      </trkpt>
      <trkpt lat="43.59807" lon="2.67816">
        <ele>689.4</ele>
        <time>2021-07-07T08:10:34Z</time>
      </trkpt>
      <trkpt lat="43.59806" lon="2.67817">
        <ele>689.88</ele>
        <time>2021-07-07T08:11:02Z</time>
      </trkpt>
      <trkpt lat="43.59806" lon="2.67817">
        <ele>689.88</ele>
        <time>2021-07-07T08:11:25Z</time>
      </trkpt>
      <trkpt lat="43.59806" lon="2.67818">
        <ele>689.88</ele>
        <time>2021-07-07T08:11:51Z</time>
      </trkpt>
      <trkpt lat="43.59807" lon="2.67817">
        <ele>689.88</ele>
        <time>2021-07-07T08:12:10Z</time>
      </trkpt>
      <trkpt lat="43.59809" lon="2.67817">
        <ele>689.88</ele>
        <time>2021-07-07T08:12:11Z</time>
      </trkpt>
      <trkpt lat="43.59812" lon="2.67818">
        <ele>689.88</ele>
        <time>2021-07-07T08:12:12Z</time>
      </trkpt>
      <trkpt lat="43.59815" lon="2.67818">
        <ele>689.88</ele>
        <time>2021-07-07T08:12:13Z</time>
      </trkpt>
      <trkpt lat="43.59817" lon="2.67818">
        <ele>689.88</ele>
        <time>2021-07-07T08:12:14Z</time>
      </trkpt>
      <trkpt lat="43.59819" lon="2.67817">
        <ele>689.88</ele>
        <time>2021-07-07T08:12:15Z</time>
      </trkpt>
      <trkpt lat="43.59821" lon="2.67817">
        <ele>689.4</ele>
        <time>2021-07-07T08:12:16Z</time>
      </trkpt>
      <trkpt lat="43.59822" lon="2.67815">
        <ele>689.88</ele>
        <time>2021-07-07T08:12:17Z</time>
      </trkpt>
      <trkpt lat="43.59824" lon="2.67813">
        <ele>689.4</ele>
        <time>2021-07-07T08:12:18Z</time>
      </trkpt>
      <trkpt lat="43.59827" lon="2.67811">
        <ele>689.4</ele>
        <time>2021-07-07T08:12:19Z</time>
      </trkpt>
      <trkpt lat="43.59848" lon="2.67782">
        <ele>690.84</ele>
        <time>2021-07-07T08:12:32Z</time>
      </trkpt>
      <trkpt lat="43.59849" lon="2.67781">
        <ele>691.33</ele>
        <time>2021-07-07T08:12:33Z</time>
      </trkpt>
      <trkpt lat="43.59851" lon="2.67778">
        <ele>691.33</ele>
        <time>2021-07-07T08:12:35Z</time>
      </trkpt>
      <trkpt lat="43.59852" lon="2.67776">
        <ele>691.81</ele>
        <time>2021-07-07T08:12:36Z</time>
      </trkpt>
      <trkpt lat="43.59853" lon="2.67775">
        <ele>691.33</ele>
        <time>2021-07-07T08:12:37Z</time>
      </trkpt>
      <trkpt lat="43.59852" lon="2.67772">
        <ele>691.81</ele>
        <time>2021-07-07T08:12:43Z</time>
      </trkpt>
      <trkpt lat="43.59851" lon="2.67776">
        <ele>691.81</ele>
        <time>2021-07-07T08:12:52Z</time>
      </trkpt>
      <trkpt lat="43.59851" lon="2.67777">
        <ele>698.53</ele>
        <time>2021-07-07T08:13:03Z</time>
      </trkpt>
      <trkpt lat="43.59851" lon="2.67777">
        <ele>692.29</ele>
        <time>2021-07-07T08:13:04Z</time>
      </trkpt>
      <trkpt lat="43.59853" lon="2.67773">
        <ele>691.81</ele>
        <time>2021-07-07T08:13:13Z</time>
      </trkpt>
      <trkpt lat="43.59855" lon="2.67772">
        <ele>691.33</ele>
        <time>2021-07-07T08:13:14Z</time>
      </trkpt>
      <trkpt lat="43.59856" lon="2.6777">
        <ele>691.81</ele>
        <time>2021-07-07T08:13:15Z</time>
      </trkpt>
      <trkpt lat="43.59857" lon="2.67767">
        <ele>691.81</ele>
        <time>2021-07-07T08:13:16Z</time>
      </trkpt>
      <trkpt lat="43.59859" lon="2.67765">
        <ele>691.81</ele>
        <time>2021-07-07T08:13:17Z</time>
      </trkpt>
      <trkpt lat="43.59872" lon="2.67733">
        <ele>693.25</ele>
        <time>2021-07-07T08:13:32Z</time>
      </trkpt>
      <trkpt lat="43.59879" lon="2.67702">
        <ele>696.13</ele>
        <time>2021-07-07T08:13:44Z</time>
      </trkpt>
      <trkpt lat="43.59886" lon="2.67671">
        <ele>696.61</ele>
        <time>2021-07-07T08:13:53Z</time>
      </trkpt>
      <trkpt lat="43.59885" lon="2.67668">
        <ele>696.61</ele>
        <time>2021-07-07T08:13:54Z</time>
      </trkpt>
      <trkpt lat="43.59885" lon="2.67666">
        <ele>696.61</ele>
        <time>2021-07-07T08:13:55Z</time>
      </trkpt>
      <trkpt lat="43.59884" lon="2.67663">
        <ele>696.61</ele>
        <time>2021-07-07T08:13:56Z</time>
      </trkpt>
      <trkpt lat="43.59884" lon="2.6766">
        <ele>695.65</ele>
        <time>2021-07-07T08:13:57Z</time>
      </trkpt>
      <trkpt lat="43.59886" lon="2.67657">
        <ele>695.65</ele>
        <time>2021-07-07T08:13:58Z</time>
      </trkpt>
      <trkpt lat="43.59886" lon="2.67649">
        <ele>693.73</ele>
        <time>2021-07-07T08:14:01Z</time>
      </trkpt>
      <trkpt lat="43.59869" lon="2.67607">
        <ele>692.29</ele>
        <time>2021-07-07T08:14:12Z</time>
      </trkpt>
      <trkpt lat="43.59857" lon="2.67569">
        <ele>690.84</ele>
        <time>2021-07-07T08:14:24Z</time>
      </trkpt>
      <trkpt lat="43.59834" lon="2.6752">
        <ele>688.92</ele>
        <time>2021-07-07T08:14:35Z</time>
      </trkpt>
      <trkpt lat="43.59817" lon="2.675">
        <ele>687.96</ele>
        <time>2021-07-07T08:14:42Z</time>
      </trkpt>
      <trkpt lat="43.59814" lon="2.675">
        <ele>688.44</ele>
        <time>2021-07-07T08:14:43Z</time>
      </trkpt>
      <trkpt lat="43.59811" lon="2.675">
        <ele>688.44</ele>
        <time>2021-07-07T08:14:44Z</time>
      </trkpt>
      <trkpt lat="43.59808" lon="2.67501">
        <ele>688.44</ele>
        <time>2021-07-07T08:14:45Z</time>
      </trkpt>
      <trkpt lat="43.59805" lon="2.675">
        <ele>688.92</ele>
        <time>2021-07-07T08:14:46Z</time>
      </trkpt>
      <trkpt lat="43.59803" lon="2.675">
        <ele>689.4</ele>
        <time>2021-07-07T08:14:47Z</time>
      </trkpt>
      <trkpt lat="43.59801" lon="2.675">
        <ele>689.88</ele>
        <time>2021-07-07T08:14:48Z</time>
      </trkpt>
      <trkpt lat="43.598" lon="2.67499">
        <ele>689.88</ele>
        <time>2021-07-07T08:14:49Z</time>
      </trkpt>
      <trkpt lat="43.59798" lon="2.67498">
        <ele>689.88</ele>
        <time>2021-07-07T08:14:50Z</time>
      </trkpt>
      <trkpt lat="43.59795" lon="2.67498">
        <ele>689.88</ele>
        <time>2021-07-07T08:14:51Z</time>
      </trkpt>
      <trkpt lat="43.59792" lon="2.67498">
        <ele>690.84</ele>
        <time>2021-07-07T08:14:52Z</time>
      </trkpt>
      <trkpt lat="43.5979" lon="2.67498">
        <ele>690.84</ele>
        <time>2021-07-07T08:14:53Z</time>
      </trkpt>
      <trkpt lat="43.59769" lon="2.67501">
        <ele>692.77</ele>
        <time>2021-07-07T08:15:03Z</time>
      </trkpt>
      <trkpt lat="43.59767" lon="2.67501">
        <ele>645.66</ele>
        <time>2021-07-07T08:15:04Z</time>
      </trkpt>
      <trkpt lat="43.59765" lon="2.67501">
        <ele>717.76</ele>
        <time>2021-07-07T08:15:05Z</time>
      </trkpt>
      <trkpt lat="43.59763" lon="2.67501">
        <ele>694.69</ele>
        <time>2021-07-07T08:15:06Z</time>
      </trkpt>
      <trkpt lat="43.59761" lon="2.67502">
        <ele>693.73</ele>
        <time>2021-07-07T08:15:07Z</time>
      </trkpt>
      <trkpt lat="43.59758" lon="2.67503">
        <ele>693.73</ele>
        <time>2021-07-07T08:15:08Z</time>
      </trkpt>
      <trkpt lat="43.59756" lon="2.67504">
        <ele>693.73</ele>
        <time>2021-07-07T08:15:09Z</time>
      </trkpt>
      <trkpt lat="43.59753" lon="2.67504">
        <ele>693.73</ele>
        <time>2021-07-07T08:15:10Z</time>
      </trkpt>
      <trkpt lat="43.59748" lon="2.67506">
        <ele>718.72</ele>
        <time>2021-07-07T08:15:12Z</time>
      </trkpt>
      <trkpt lat="43.59745" lon="2.67507">
        <ele>699.02</ele>
        <time>2021-07-07T08:15:13Z</time>
      </trkpt>
      <trkpt lat="43.59743" lon="2.67507">
        <ele>693.73</ele>
        <time>2021-07-07T08:15:14Z</time>
      </trkpt>
      <trkpt lat="43.5974" lon="2.67507">
        <ele>693.73</ele>
        <time>2021-07-07T08:15:15Z</time>
      </trkpt>
      <trkpt lat="43.59714" lon="2.67516">
        <ele>695.65</ele>
        <time>2021-07-07T08:15:26Z</time>
      </trkpt>
      <trkpt lat="43.59687" lon="2.67523">
        <ele>696.61</ele>
        <time>2021-07-07T08:15:38Z</time>
      </trkpt>
      <trkpt lat="43.59685" lon="2.67524">
        <ele>697.09</ele>
        <time>2021-07-07T08:15:39Z</time>
      </trkpt>
      <trkpt lat="43.59683" lon="2.67525">
        <ele>697.57</ele>
        <time>2021-07-07T08:15:40Z</time>
      </trkpt>
      <trkpt lat="43.5968" lon="2.67525">
        <ele>697.09</ele>
        <time>2021-07-07T08:15:41Z</time>
      </trkpt>
      <trkpt lat="43.59678" lon="2.67526">
        <ele>697.09</ele>
        <time>2021-07-07T08:15:42Z</time>
      </trkpt>
      <trkpt lat="43.59676" lon="2.67527">
        <ele>697.57</ele>
        <time>2021-07-07T08:15:43Z</time>
      </trkpt>
      <trkpt lat="43.59649" lon="2.67526">
        <ele>699.02</ele>
        <time>2021-07-07T08:15:55Z</time>
      </trkpt>
      <trkpt lat="43.59623" lon="2.67509">
        <ele>701.9</ele>
        <time>2021-07-07T08:16:08Z</time>
      </trkpt>
      <trkpt lat="43.59614" lon="2.67506">
        <ele>703.82</ele>
        <time>2021-07-07T08:16:13Z</time>
      </trkpt>
      <trkpt lat="43.59611" lon="2.67501">
        <ele>703.82</ele>
        <time>2021-07-07T08:16:16Z</time>
      </trkpt>
      <trkpt lat="43.59611" lon="2.67498">
        <ele>703.82</ele>
        <time>2021-07-07T08:16:17Z</time>
      </trkpt>
      <trkpt lat="43.5961" lon="2.67496">
        <ele>703.82</ele>
        <time>2021-07-07T08:16:18Z</time>
      </trkpt>
      <trkpt lat="43.5961" lon="2.67494">
        <ele>703.82</ele>
        <time>2021-07-07T08:16:19Z</time>
      </trkpt>
      <trkpt lat="43.5961" lon="2.6749">
        <ele>703.34</ele>
        <time>2021-07-07T08:16:20Z</time>
      </trkpt>
      <trkpt lat="43.5961" lon="2.67486">
        <ele>704.3</ele>
        <time>2021-07-07T08:16:21Z</time>
      </trkpt>
      <trkpt lat="43.5961" lon="2.67483">
        <ele>725.93</ele>
        <time>2021-07-07T08:16:22Z</time>
      </trkpt>
      <trkpt lat="43.59609" lon="2.6748">
        <ele>743.72</ele>
        <time>2021-07-07T08:16:23Z</time>
      </trkpt>
      <trkpt lat="43.59609" lon="2.67477">
        <ele>706.23</ele>
        <time>2021-07-07T08:16:24Z</time>
      </trkpt>
      <trkpt lat="43.59607" lon="2.67471">
        <ele>704.3</ele>
        <time>2021-07-07T08:16:26Z</time>
      </trkpt>
      <trkpt lat="43.59595" lon="2.67432">
        <ele>704.78</ele>
        <time>2021-07-07T08:16:39Z</time>
      </trkpt>
      <trkpt lat="43.59584" lon="2.67396">
        <ele>695.65</ele>
        <time>2021-07-07T08:16:51Z</time>
      </trkpt>
      <trkpt lat="43.59583" lon="2.67393">
        <ele>708.63</ele>
        <time>2021-07-07T08:16:52Z</time>
      </trkpt>
      <trkpt lat="43.59562" lon="2.67362">
        <ele>707.67</ele>
        <time>2021-07-07T08:17:05Z</time>
      </trkpt>
      <trkpt lat="43.59548" lon="2.67337">
        <ele>710.07</ele>
        <time>2021-07-07T08:17:18Z</time>
      </trkpt>
      <trkpt lat="43.59534" lon="2.67303">
        <ele>711.99</ele>
        <time>2021-07-07T08:17:31Z</time>
      </trkpt>
      <trkpt lat="43.5953" lon="2.67296">
        <ele>712.47</ele>
        <time>2021-07-07T08:17:34Z</time>
      </trkpt>
      <trkpt lat="43.59529" lon="2.67293">
        <ele>713.44</ele>
        <time>2021-07-07T08:17:35Z</time>
      </trkpt>
      <trkpt lat="43.59528" lon="2.6729">
        <ele>713.44</ele>
        <time>2021-07-07T08:17:36Z</time>
      </trkpt>
      <trkpt lat="43.59527" lon="2.67287">
        <ele>713.44</ele>
        <time>2021-07-07T08:17:37Z</time>
      </trkpt>
      <trkpt lat="43.59526" lon="2.67285">
        <ele>713.92</ele>
        <time>2021-07-07T08:17:38Z</time>
      </trkpt>
      <trkpt lat="43.59524" lon="2.67282">
        <ele>713.92</ele>
        <time>2021-07-07T08:17:39Z</time>
      </trkpt>
      <trkpt lat="43.59512" lon="2.67265">
        <ele>715.36</ele>
        <time>2021-07-07T08:17:47Z</time>
      </trkpt>
      <trkpt lat="43.59497" lon="2.67249">
        <ele>716.8</ele>
        <time>2021-07-07T08:17:57Z</time>
      </trkpt>
      <trkpt lat="43.59477" lon="2.67228">
        <ele>718.24</ele>
        <time>2021-07-07T08:18:10Z</time>
      </trkpt>
      <trkpt lat="43.59467" lon="2.67223">
        <ele>719.68</ele>
        <time>2021-07-07T08:18:18Z</time>
      </trkpt>
      <trkpt lat="43.59466" lon="2.67222">
        <ele>719.68</ele>
        <time>2021-07-07T08:18:19Z</time>
      </trkpt>
      <trkpt lat="43.59465" lon="2.67221">
        <ele>719.68</ele>
        <time>2021-07-07T08:18:20Z</time>
      </trkpt>
      <trkpt lat="43.59464" lon="2.6722">
        <ele>719.68</ele>
        <time>2021-07-07T08:18:21Z</time>
      </trkpt>
      <trkpt lat="43.59462" lon="2.67219">
        <ele>719.68</ele>
        <time>2021-07-07T08:18:22Z</time>
      </trkpt>
      <trkpt lat="43.59447" lon="2.67198">
        <ele>721.61</ele>
        <time>2021-07-07T08:18:34Z</time>
      </trkpt>
      <trkpt lat="43.59445" lon="2.67191">
        <ele>721.61</ele>
        <time>2021-07-07T08:18:36Z</time>
      </trkpt>
      <trkpt lat="43.59445" lon="2.67188">
        <ele>722.09</ele>
        <time>2021-07-07T08:18:37Z</time>
      </trkpt>
      <trkpt lat="43.59445" lon="2.67185">
        <ele>722.09</ele>
        <time>2021-07-07T08:18:38Z</time>
      </trkpt>
      <trkpt lat="43.59457" lon="2.67154">
        <ele>724.01</ele>
        <time>2021-07-07T08:18:50Z</time>
      </trkpt>
      <trkpt lat="43.59475" lon="2.6712">
        <ele>725.93</ele>
        <time>2021-07-07T08:19:06Z</time>
      </trkpt>
      <trkpt lat="43.59476" lon="2.67083">
        <ele>728.34</ele>
        <time>2021-07-07T08:19:21Z</time>
      </trkpt>
      <trkpt lat="43.59475" lon="2.67063">
        <ele>730.26</ele>
        <time>2021-07-07T08:19:30Z</time>
      </trkpt>
      <trkpt lat="43.59475" lon="2.67061">
        <ele>730.26</ele>
        <time>2021-07-07T08:19:31Z</time>
      </trkpt>
      <trkpt lat="43.59474" lon="2.67026">
        <ele>731.7</ele>
        <time>2021-07-07T08:19:44Z</time>
      </trkpt>
      <trkpt lat="43.59471" lon="2.67006">
        <ele>734.1</ele>
        <time>2021-07-07T08:19:51Z</time>
      </trkpt>
      <trkpt lat="43.59471" lon="2.66998">
        <ele>733.14</ele>
        <time>2021-07-07T08:19:54Z</time>
      </trkpt>
      <trkpt lat="43.59471" lon="2.66996">
        <ele>728.34</ele>
        <time>2021-07-07T08:19:55Z</time>
      </trkpt>
      <trkpt lat="43.59471" lon="2.66994">
        <ele>747.08</ele>
        <time>2021-07-07T08:19:56Z</time>
      </trkpt>
      <trkpt lat="43.59472" lon="2.66992">
        <ele>734.58</ele>
        <time>2021-07-07T08:19:57Z</time>
      </trkpt>
      <trkpt lat="43.59474" lon="2.66986">
        <ele>715.36</ele>
        <time>2021-07-07T08:20:00Z</time>
      </trkpt>
      <trkpt lat="43.59474" lon="2.66985">
        <ele>737.47</ele>
        <time>2021-07-07T08:20:01Z</time>
      </trkpt>
      <trkpt lat="43.59474" lon="2.66983">
        <ele>733.62</ele>
        <time>2021-07-07T08:20:02Z</time>
      </trkpt>
      <trkpt lat="43.59475" lon="2.66981">
        <ele>733.62</ele>
        <time>2021-07-07T08:20:03Z</time>
      </trkpt>
      <trkpt lat="43.59477" lon="2.66975">
        <ele>719.2</ele>
        <time>2021-07-07T08:20:07Z</time>
      </trkpt>
      <trkpt lat="43.59476" lon="2.66974">
        <ele>736.99</ele>
        <time>2021-07-07T08:20:08Z</time>
      </trkpt>
      <trkpt lat="43.59475" lon="2.66972">
        <ele>733.62</ele>
        <time>2021-07-07T08:20:09Z</time>
      </trkpt>
      <trkpt lat="43.59474" lon="2.66971">
        <ele>733.14</ele>
        <time>2021-07-07T08:20:10Z</time>
      </trkpt>
      <trkpt lat="43.59474" lon="2.66969">
        <ele>733.14</ele>
        <time>2021-07-07T08:20:11Z</time>
      </trkpt>
      <trkpt lat="43.59474" lon="2.66966">
        <ele>732.66</ele>
        <time>2021-07-07T08:20:12Z</time>
      </trkpt>
      <trkpt lat="43.59474" lon="2.66964">
        <ele>732.18</ele>
        <time>2021-07-07T08:20:13Z</time>
      </trkpt>
      <trkpt lat="43.59475" lon="2.6696">
        <ele>731.7</ele>
        <time>2021-07-07T08:20:14Z</time>
      </trkpt>
      <trkpt lat="43.59477" lon="2.66955">
        <ele>731.7</ele>
        <time>2021-07-07T08:20:15Z</time>
      </trkpt>
      <trkpt lat="43.59481" lon="2.66937">
        <ele>730.26</ele>
        <time>2021-07-07T08:20:18Z</time>
      </trkpt>
      <trkpt lat="43.59486" lon="2.66905">
        <ele>726.89</ele>
        <time>2021-07-07T08:20:22Z</time>
      </trkpt>
      <trkpt lat="43.5951" lon="2.66803">
        <ele>723.05</ele>
        <time>2021-07-07T08:20:34Z</time>
      </trkpt>
      <trkpt lat="43.59513" lon="2.66793">
        <ele>723.05</ele>
        <time>2021-07-07T08:20:35Z</time>
      </trkpt>
      <trkpt lat="43.59555" lon="2.66674">
        <ele>719.68</ele>
        <time>2021-07-07T08:20:49Z</time>
      </trkpt>
      <trkpt lat="43.59562" lon="2.6666">
        <ele>719.2</ele>
        <time>2021-07-07T08:20:51Z</time>
      </trkpt>
      <trkpt lat="43.59588" lon="2.6661">
        <ele>719.68</ele>
        <time>2021-07-07T08:21:01Z</time>
      </trkpt>
      <trkpt lat="43.5959" lon="2.66605">
        <ele>719.2</ele>
        <time>2021-07-07T08:21:02Z</time>
      </trkpt>
      <trkpt lat="43.59592" lon="2.66599">
        <ele>719.2</ele>
        <time>2021-07-07T08:21:03Z</time>
      </trkpt>
      <trkpt lat="43.59595" lon="2.66578">
        <ele>720.16</ele>
        <time>2021-07-07T08:21:11Z</time>
      </trkpt>
      <trkpt lat="43.59594" lon="2.66578">
        <ele>720.16</ele>
        <time>2021-07-07T08:21:34Z</time>
      </trkpt>
      <trkpt lat="43.59596" lon="2.66571">
        <ele>720.16</ele>
        <time>2021-07-07T08:21:43Z</time>
      </trkpt>
      <trkpt lat="43.59597" lon="2.66566">
        <ele>720.16</ele>
        <time>2021-07-07T08:21:44Z</time>
      </trkpt>
      <trkpt lat="43.59598" lon="2.66562">
        <ele>720.65</ele>
        <time>2021-07-07T08:21:45Z</time>
      </trkpt>
      <trkpt lat="43.59607" lon="2.665">
        <ele>722.09</ele>
        <time>2021-07-07T08:21:58Z</time>
      </trkpt>
      <trkpt lat="43.59612" lon="2.66465">
        <ele>721.13</ele>
        <time>2021-07-07T08:22:04Z</time>
      </trkpt>
      <trkpt lat="43.59611" lon="2.6646">
        <ele>721.13</ele>
        <time>2021-07-07T08:22:05Z</time>
      </trkpt>
      <trkpt lat="43.596" lon="2.6641">
        <ele>709.11</ele>
        <time>2021-07-07T08:22:15Z</time>
      </trkpt>
      <trkpt lat="43.596" lon="2.66406">
        <ele>720.65</ele>
        <time>2021-07-07T08:22:16Z</time>
      </trkpt>
      <trkpt lat="43.59598" lon="2.66388">
        <ele>725.93</ele>
        <time>2021-07-07T08:22:21Z</time>
      </trkpt>
      <trkpt lat="43.59598" lon="2.66384">
        <ele>731.22</ele>
        <time>2021-07-07T08:22:22Z</time>
      </trkpt>
      <trkpt lat="43.59597" lon="2.6638">
        <ele>720.16</ele>
        <time>2021-07-07T08:22:23Z</time>
      </trkpt>
      <trkpt lat="43.59597" lon="2.66372">
        <ele>716.8</ele>
        <time>2021-07-07T08:22:25Z</time>
      </trkpt>
      <trkpt lat="43.59597" lon="2.66324">
        <ele>713.92</ele>
        <time>2021-07-07T08:22:33Z</time>
      </trkpt>
      <trkpt lat="43.59595" lon="2.66318">
        <ele>714.4</ele>
        <time>2021-07-07T08:22:34Z</time>
      </trkpt>
      <trkpt lat="43.59589" lon="2.66309">
        <ele>712.47</ele>
        <time>2021-07-07T08:22:37Z</time>
      </trkpt>
      <trkpt lat="43.59588" lon="2.6631">
        <ele>711.99</ele>
        <time>2021-07-07T08:22:38Z</time>
      </trkpt>
      <trkpt lat="43.59587" lon="2.66312">
        <ele>711.99</ele>
        <time>2021-07-07T08:22:39Z</time>
      </trkpt>
      <trkpt lat="43.59587" lon="2.66316">
        <ele>710.55</ele>
        <time>2021-07-07T08:22:40Z</time>
      </trkpt>
      <trkpt lat="43.59586" lon="2.66319">
        <ele>710.55</ele>
        <time>2021-07-07T08:22:41Z</time>
      </trkpt>
      <trkpt lat="43.59584" lon="2.66324">
        <ele>710.07</ele>
        <time>2021-07-07T08:22:42Z</time>
      </trkpt>
      <trkpt lat="43.59579" lon="2.66329">
        <ele>709.11</ele>
        <time>2021-07-07T08:22:43Z</time>
      </trkpt>
      <trkpt lat="43.59574" lon="2.66335">
        <ele>708.63</ele>
        <time>2021-07-07T08:22:44Z</time>
      </trkpt>
      <trkpt lat="43.59568" lon="2.6634">
        <ele>708.15</ele>
        <time>2021-07-07T08:22:45Z</time>
      </trkpt>
      <trkpt lat="43.59549" lon="2.66354">
        <ele>706.71</ele>
        <time>2021-07-07T08:22:48Z</time>
      </trkpt>
      <trkpt lat="43.59541" lon="2.66357">
        <ele>706.71</ele>
        <time>2021-07-07T08:22:49Z</time>
      </trkpt>
      <trkpt lat="43.59533" lon="2.66359">
        <ele>705.75</ele>
        <time>2021-07-07T08:22:50Z</time>
      </trkpt>
      <trkpt lat="43.59527" lon="2.66361">
        <ele>705.75</ele>
        <time>2021-07-07T08:22:51Z</time>
      </trkpt>
      <trkpt lat="43.59521" lon="2.66362">
        <ele>705.75</ele>
        <time>2021-07-07T08:22:52Z</time>
      </trkpt>
      <trkpt lat="43.5951" lon="2.66364">
        <ele>705.75</ele>
        <time>2021-07-07T08:22:54Z</time>
      </trkpt>
      <trkpt lat="43.59505" lon="2.66364">
        <ele>706.23</ele>
        <time>2021-07-07T08:22:55Z</time>
      </trkpt>
      <trkpt lat="43.59471" lon="2.66357">
        <ele>706.23</ele>
        <time>2021-07-07T08:23:03Z</time>
      </trkpt>
      <trkpt lat="43.59467" lon="2.66356">
        <ele>706.23</ele>
        <time>2021-07-07T08:23:04Z</time>
      </trkpt>
      <trkpt lat="43.59464" lon="2.66355">
        <ele>706.23</ele>
        <time>2021-07-07T08:23:05Z</time>
      </trkpt>
      <trkpt lat="43.59423" lon="2.66347">
        <ele>707.19</ele>
        <time>2021-07-07T08:23:16Z</time>
      </trkpt>
      <trkpt lat="43.59383" lon="2.66335">
        <ele>708.15</ele>
        <time>2021-07-07T08:23:28Z</time>
      </trkpt>
      <trkpt lat="43.59353" lon="2.66333">
        <ele>708.15</ele>
        <time>2021-07-07T08:23:40Z</time>
      </trkpt>
      <trkpt lat="43.59337" lon="2.66339">
        <ele>707.67</ele>
        <time>2021-07-07T08:23:46Z</time>
      </trkpt>
      <trkpt lat="43.59335" lon="2.66341">
        <ele>707.67</ele>
        <time>2021-07-07T08:23:47Z</time>
      </trkpt>
      <trkpt lat="43.59332" lon="2.66343">
        <ele>707.19</ele>
        <time>2021-07-07T08:23:48Z</time>
      </trkpt>
      <trkpt lat="43.59329" lon="2.66344">
        <ele>706.71</ele>
        <time>2021-07-07T08:23:49Z</time>
      </trkpt>
      <trkpt lat="43.59326" lon="2.66346">
        <ele>707.19</ele>
        <time>2021-07-07T08:23:50Z</time>
      </trkpt>
      <trkpt lat="43.59323" lon="2.66347">
        <ele>707.67</ele>
        <time>2021-07-07T08:23:51Z</time>
      </trkpt>
      <trkpt lat="43.59319" lon="2.66349">
        <ele>707.19</ele>
        <time>2021-07-07T08:23:52Z</time>
      </trkpt>
      <trkpt lat="43.59316" lon="2.6635">
        <ele>707.19</ele>
        <time>2021-07-07T08:23:53Z</time>
      </trkpt>
      <trkpt lat="43.59313" lon="2.66351">
        <ele>707.67</ele>
        <time>2021-07-07T08:23:54Z</time>
      </trkpt>
      <trkpt lat="43.59273" lon="2.66346">
        <ele>710.07</ele>
        <time>2021-07-07T08:24:06Z</time>
      </trkpt>
      <trkpt lat="43.59252" lon="2.66343">
        <ele>711.51</ele>
        <time>2021-07-07T08:24:15Z</time>
      </trkpt>
      <trkpt lat="43.59249" lon="2.66343">
        <ele>711.99</ele>
        <time>2021-07-07T08:24:16Z</time>
      </trkpt>
      <trkpt lat="43.59247" lon="2.66342">
        <ele>712.47</ele>
        <time>2021-07-07T08:24:17Z</time>
      </trkpt>
      <trkpt lat="43.59245" lon="2.66341">
        <ele>712.47</ele>
        <time>2021-07-07T08:24:18Z</time>
      </trkpt>
      <trkpt lat="43.59243" lon="2.66341">
        <ele>712.95</ele>
        <time>2021-07-07T08:24:19Z</time>
      </trkpt>
      <trkpt lat="43.59231" lon="2.66325">
        <ele>712.95</ele>
        <time>2021-07-07T08:24:26Z</time>
      </trkpt>
      <trkpt lat="43.59231" lon="2.66322">
        <ele>713.44</ele>
        <time>2021-07-07T08:24:27Z</time>
      </trkpt>
      <trkpt lat="43.59222" lon="2.66291">
        <ele>716.32</ele>
        <time>2021-07-07T08:24:38Z</time>
      </trkpt>
      <trkpt lat="43.59203" lon="2.6624">
        <ele>717.76</ele>
        <time>2021-07-07T08:24:55Z</time>
      </trkpt>
      <trkpt lat="43.59183" lon="2.66196">
        <ele>717.28</ele>
        <time>2021-07-07T08:25:08Z</time>
      </trkpt>
      <trkpt lat="43.59164" lon="2.66156">
        <ele>717.76</ele>
        <time>2021-07-07T08:25:21Z</time>
      </trkpt>
      <trkpt lat="43.59144" lon="2.66119">
        <ele>718.72</ele>
        <time>2021-07-07T08:25:32Z</time>
      </trkpt>
      <trkpt lat="43.59133" lon="2.66072">
        <ele>719.68</ele>
        <time>2021-07-07T08:25:45Z</time>
      </trkpt>
      <trkpt lat="43.59124" lon="2.66022">
        <ele>721.13</ele>
        <time>2021-07-07T08:25:59Z</time>
      </trkpt>
      <trkpt lat="43.59113" lon="2.65983">
        <ele>723.05</ele>
        <time>2021-07-07T08:26:11Z</time>
      </trkpt>
      <trkpt lat="43.59095" lon="2.65946">
        <ele>724.01</ele>
        <time>2021-07-07T08:26:24Z</time>
      </trkpt>
      <trkpt lat="43.59093" lon="2.65931">
        <ele>724.49</ele>
        <time>2021-07-07T08:26:29Z</time>
      </trkpt>
      <trkpt lat="43.59094" lon="2.65928">
        <ele>725.45</ele>
        <time>2021-07-07T08:26:30Z</time>
      </trkpt>
      <trkpt lat="43.59095" lon="2.65925">
        <ele>725.45</ele>
        <time>2021-07-07T08:26:31Z</time>
      </trkpt>
      <trkpt lat="43.59096" lon="2.65923">
        <ele>725.93</ele>
        <time>2021-07-07T08:26:32Z</time>
      </trkpt>
      <trkpt lat="43.59097" lon="2.65922">
        <ele>725.93</ele>
        <time>2021-07-07T08:26:33Z</time>
      </trkpt>
      <trkpt lat="43.59099" lon="2.65921">
        <ele>725.93</ele>
        <time>2021-07-07T08:26:34Z</time>
      </trkpt>
      <trkpt lat="43.59107" lon="2.65915">
        <ele>726.41</ele>
        <time>2021-07-07T08:26:39Z</time>
      </trkpt>
      <trkpt lat="43.5913" lon="2.65879">
        <ele>728.34</ele>
        <time>2021-07-07T08:26:51Z</time>
      </trkpt>
      <trkpt lat="43.59121" lon="2.65836">
        <ele>730.26</ele>
        <time>2021-07-07T08:27:05Z</time>
      </trkpt>
      <trkpt lat="43.59095" lon="2.65807">
        <ele>732.18</ele>
        <time>2021-07-07T08:27:18Z</time>
      </trkpt>
      <trkpt lat="43.5907" lon="2.65779">
        <ele>734.58</ele>
        <time>2021-07-07T08:27:31Z</time>
      </trkpt>
      <trkpt lat="43.59055" lon="2.65751">
        <ele>736.03</ele>
        <time>2021-07-07T08:27:43Z</time>
      </trkpt>
      <trkpt lat="43.59045" lon="2.65711">
        <ele>737.47</ele>
        <time>2021-07-07T08:27:57Z</time>
      </trkpt>
      <trkpt lat="43.5904" lon="2.6568">
        <ele>738.43</ele>
        <time>2021-07-07T08:28:10Z</time>
      </trkpt>
      <trkpt lat="43.59036" lon="2.65664">
        <ele>738.91</ele>
        <time>2021-07-07T08:28:16Z</time>
      </trkpt>
      <trkpt lat="43.59035" lon="2.65662">
        <ele>738.91</ele>
        <time>2021-07-07T08:28:17Z</time>
      </trkpt>
      <trkpt lat="43.59034" lon="2.6566">
        <ele>738.91</ele>
        <time>2021-07-07T08:28:18Z</time>
      </trkpt>
      <trkpt lat="43.59033" lon="2.65657">
        <ele>738.91</ele>
        <time>2021-07-07T08:28:19Z</time>
      </trkpt>
      <trkpt lat="43.59033" lon="2.65655">
        <ele>739.39</ele>
        <time>2021-07-07T08:28:20Z</time>
      </trkpt>
      <trkpt lat="43.59033" lon="2.65652">
        <ele>739.39</ele>
        <time>2021-07-07T08:28:21Z</time>
      </trkpt>
      <trkpt lat="43.59033" lon="2.6565">
        <ele>739.39</ele>
        <time>2021-07-07T08:28:22Z</time>
      </trkpt>
      <trkpt lat="43.59033" lon="2.65646">
        <ele>739.39</ele>
        <time>2021-07-07T08:28:23Z</time>
      </trkpt>
      <trkpt lat="43.59032" lon="2.65644">
        <ele>739.39</ele>
        <time>2021-07-07T08:28:24Z</time>
      </trkpt>
      <trkpt lat="43.59032" lon="2.65599">
        <ele>737.95</ele>
        <time>2021-07-07T08:28:40Z</time>
      </trkpt>
      <trkpt lat="43.59031" lon="2.65545">
        <ele>736.51</ele>
        <time>2021-07-07T08:28:56Z</time>
      </trkpt>
      <trkpt lat="43.59036" lon="2.65483">
        <ele>735.07</ele>
        <time>2021-07-07T08:29:08Z</time>
      </trkpt>
      <trkpt lat="43.59052" lon="2.65434">
        <ele>734.58</ele>
        <time>2021-07-07T08:29:21Z</time>
      </trkpt>
      <trkpt lat="43.59072" lon="2.65395">
        <ele>734.1</ele>
        <time>2021-07-07T08:29:32Z</time>
      </trkpt>
      <trkpt lat="43.591" lon="2.65407">
        <ele>735.07</ele>
        <time>2021-07-07T08:29:43Z</time>
      </trkpt>
      <trkpt lat="43.59124" lon="2.65424">
        <ele>736.51</ele>
        <time>2021-07-07T08:29:54Z</time>
      </trkpt>
      <trkpt lat="43.59125" lon="2.65426">
        <ele>736.99</ele>
        <time>2021-07-07T08:29:55Z</time>
      </trkpt>
      <trkpt lat="43.59147" lon="2.65449">
        <ele>736.99</ele>
        <time>2021-07-07T08:30:07Z</time>
      </trkpt>
      <trkpt lat="43.59173" lon="2.65465">
        <ele>737.95</ele>
        <time>2021-07-07T08:30:21Z</time>
      </trkpt>
      <trkpt lat="43.5919" lon="2.65492">
        <ele>739.39</ele>
        <time>2021-07-07T08:30:34Z</time>
      </trkpt>
      <trkpt lat="43.59203" lon="2.65518">
        <ele>740.35</ele>
        <time>2021-07-07T08:30:46Z</time>
      </trkpt>
      <trkpt lat="43.59203" lon="2.65521">
        <ele>740.35</ele>
        <time>2021-07-07T08:30:53Z</time>
      </trkpt>
      <trkpt lat="43.59204" lon="2.65523">
        <ele>739.39</ele>
        <time>2021-07-07T08:30:54Z</time>
      </trkpt>
      <trkpt lat="43.59222" lon="2.65557">
        <ele>733.14</ele>
        <time>2021-07-07T08:31:04Z</time>
      </trkpt>
      <trkpt lat="43.59224" lon="2.65559">
        <ele>729.78</ele>
        <time>2021-07-07T08:31:05Z</time>
      </trkpt>
      <trkpt lat="43.59226" lon="2.6556">
        <ele>745.64</ele>
        <time>2021-07-07T08:31:06Z</time>
      </trkpt>
      <trkpt lat="43.59228" lon="2.6556">
        <ele>734.58</ele>
        <time>2021-07-07T08:31:07Z</time>
      </trkpt>
      <trkpt lat="43.5923" lon="2.6556">
        <ele>742.28</ele>
        <time>2021-07-07T08:31:08Z</time>
      </trkpt>
      <trkpt lat="43.59247" lon="2.65544">
        <ele>744.2</ele>
        <time>2021-07-07T08:31:20Z</time>
      </trkpt>
      <trkpt lat="43.59265" lon="2.65531">
        <ele>747.08</ele>
        <time>2021-07-07T08:31:33Z</time>
      </trkpt>
      <trkpt lat="43.59272" lon="2.65524">
        <ele>748.04</ele>
        <time>2021-07-07T08:31:45Z</time>
      </trkpt>
      <trkpt lat="43.59273" lon="2.65526">
        <ele>748.04</ele>
        <time>2021-07-07T08:31:59Z</time>
      </trkpt>
      <trkpt lat="43.59273" lon="2.65526">
        <ele>748.04</ele>
        <time>2021-07-07T08:32:14Z</time>
      </trkpt>
      <trkpt lat="43.59273" lon="2.65526">
        <ele>748.04</ele>
        <time>2021-07-07T08:32:30Z</time>
      </trkpt>
      <trkpt lat="43.59272" lon="2.65526">
        <ele>748.04</ele>
        <time>2021-07-07T08:32:45Z</time>
      </trkpt>
      <trkpt lat="43.59272" lon="2.65526">
        <ele>748.04</ele>
        <time>2021-07-07T08:33:07Z</time>
      </trkpt>
      <trkpt lat="43.59273" lon="2.65526">
        <ele>748.52</ele>
        <time>2021-07-07T08:33:22Z</time>
      </trkpt>
      <trkpt lat="43.59273" lon="2.65526">
        <ele>748.04</ele>
        <time>2021-07-07T08:33:33Z</time>
      </trkpt>
      <trkpt lat="43.59272" lon="2.65525">
        <ele>748.52</ele>
        <time>2021-07-07T08:33:54Z</time>
      </trkpt>
      <trkpt lat="43.59272" lon="2.65524">
        <ele>772.56</ele>
        <time>2021-07-07T08:34:06Z</time>
      </trkpt>
      <trkpt lat="43.59272" lon="2.65524">
        <ele>751.41</ele>
        <time>2021-07-07T08:34:07Z</time>
      </trkpt>
      <trkpt lat="43.59272" lon="2.65524">
        <ele>727.86</ele>
        <time>2021-07-07T08:34:08Z</time>
      </trkpt>
      <trkpt lat="43.59272" lon="2.65524">
        <ele>777.36</ele>
        <time>2021-07-07T08:34:09Z</time>
      </trkpt>
      <trkpt lat="43.59272" lon="2.65524">
        <ele>749</ele>
        <time>2021-07-07T08:34:10Z</time>
      </trkpt>
      <trkpt lat="43.5927" lon="2.65523">
        <ele>749</ele>
        <time>2021-07-07T08:34:14Z</time>
      </trkpt>
      <trkpt lat="43.59266" lon="2.65522">
        <ele>749.49</ele>
        <time>2021-07-07T08:34:17Z</time>
      </trkpt>
      <trkpt lat="43.59257" lon="2.65521">
        <ele>750.45</ele>
        <time>2021-07-07T08:34:23Z</time>
      </trkpt>
      <trkpt lat="43.59242" lon="2.65515">
        <ele>752.37</ele>
        <time>2021-07-07T08:34:32Z</time>
      </trkpt>
      <trkpt lat="43.5924" lon="2.65513">
        <ele>752.37</ele>
        <time>2021-07-07T08:34:33Z</time>
      </trkpt>
      <trkpt lat="43.59239" lon="2.65511">
        <ele>752.85</ele>
        <time>2021-07-07T08:34:34Z</time>
      </trkpt>
      <trkpt lat="43.59237" lon="2.65509">
        <ele>752.37</ele>
        <time>2021-07-07T08:34:35Z</time>
      </trkpt>
      <trkpt lat="43.59236" lon="2.65507">
        <ele>753.33</ele>
        <time>2021-07-07T08:34:36Z</time>
      </trkpt>
      <trkpt lat="43.59235" lon="2.65504">
        <ele>753.33</ele>
        <time>2021-07-07T08:34:37Z</time>
      </trkpt>
      <trkpt lat="43.59233" lon="2.65501">
        <ele>752.85</ele>
        <time>2021-07-07T08:34:38Z</time>
      </trkpt>
      <trkpt lat="43.59232" lon="2.65499">
        <ele>752.85</ele>
        <time>2021-07-07T08:34:39Z</time>
      </trkpt>
      <trkpt lat="43.59218" lon="2.65467">
        <ele>753.33</ele>
        <time>2021-07-07T08:34:51Z</time>
      </trkpt>
      <trkpt lat="43.59214" lon="2.65446">
        <ele>753.81</ele>
        <time>2021-07-07T08:34:58Z</time>
      </trkpt>
      <trkpt lat="43.59214" lon="2.65443">
        <ele>753.81</ele>
        <time>2021-07-07T08:34:59Z</time>
      </trkpt>
      <trkpt lat="43.59211" lon="2.65395">
        <ele>754.29</ele>
        <time>2021-07-07T08:35:12Z</time>
      </trkpt>
      <trkpt lat="43.59198" lon="2.65353">
        <ele>755.25</ele>
        <time>2021-07-07T08:35:24Z</time>
      </trkpt>
      <trkpt lat="43.59185" lon="2.6531">
        <ele>757.66</ele>
        <time>2021-07-07T08:35:38Z</time>
      </trkpt>
      <trkpt lat="43.59173" lon="2.65274">
        <ele>759.1</ele>
        <time>2021-07-07T08:35:50Z</time>
      </trkpt>
      <trkpt lat="43.59158" lon="2.65234">
        <ele>760.54</ele>
        <time>2021-07-07T08:36:04Z</time>
      </trkpt>
      <trkpt lat="43.59144" lon="2.65198">
        <ele>762.46</ele>
        <time>2021-07-07T08:36:17Z</time>
      </trkpt>
      <trkpt lat="43.59127" lon="2.65158">
        <ele>764.39</ele>
        <time>2021-07-07T08:36:32Z</time>
      </trkpt>
      <trkpt lat="43.59111" lon="2.65115">
        <ele>764.87</ele>
        <time>2021-07-07T08:36:46Z</time>
      </trkpt>
      <trkpt lat="43.59089" lon="2.65077">
        <ele>764.87</ele>
        <time>2021-07-07T08:36:58Z</time>
      </trkpt>
      <trkpt lat="43.59062" lon="2.65033">
        <ele>764.39</ele>
        <time>2021-07-07T08:37:10Z</time>
      </trkpt>
      <trkpt lat="43.59028" lon="2.64984">
        <ele>764.87</ele>
        <time>2021-07-07T08:37:24Z</time>
      </trkpt>
      <trkpt lat="43.59004" lon="2.64964">
        <ele>766.79</ele>
        <time>2021-07-07T08:37:36Z</time>
      </trkpt>
      <trkpt lat="43.58986" lon="2.64958">
        <ele>769.19</ele>
        <time>2021-07-07T08:37:48Z</time>
      </trkpt>
      <trkpt lat="43.58978" lon="2.64955">
        <ele>769.67</ele>
        <time>2021-07-07T08:37:53Z</time>
      </trkpt>
      <trkpt lat="43.58976" lon="2.64955">
        <ele>769.67</ele>
        <time>2021-07-07T08:37:54Z</time>
      </trkpt>
      <trkpt lat="43.58957" lon="2.64947">
        <ele>772.56</ele>
        <time>2021-07-07T08:38:04Z</time>
      </trkpt>
      <trkpt lat="43.58937" lon="2.64938">
        <ele>773.52</ele>
        <time>2021-07-07T08:38:16Z</time>
      </trkpt>
      <trkpt lat="43.58918" lon="2.64929">
        <ele>774</ele>
        <time>2021-07-07T08:38:28Z</time>
      </trkpt>
      <trkpt lat="43.58909" lon="2.64924">
        <ele>775.44</ele>
        <time>2021-07-07T08:38:33Z</time>
      </trkpt>
      <trkpt lat="43.58907" lon="2.64924">
        <ele>775.92</ele>
        <time>2021-07-07T08:38:34Z</time>
      </trkpt>
      <trkpt lat="43.58905" lon="2.64923">
        <ele>775.92</ele>
        <time>2021-07-07T08:38:35Z</time>
      </trkpt>
      <trkpt lat="43.58903" lon="2.64922">
        <ele>776.4</ele>
        <time>2021-07-07T08:38:36Z</time>
      </trkpt>
      <trkpt lat="43.58901" lon="2.64922">
        <ele>776.88</ele>
        <time>2021-07-07T08:38:37Z</time>
      </trkpt>
      <trkpt lat="43.58899" lon="2.64922">
        <ele>777.36</ele>
        <time>2021-07-07T08:38:38Z</time>
      </trkpt>
      <trkpt lat="43.58894" lon="2.64924">
        <ele>778.32</ele>
        <time>2021-07-07T08:38:42Z</time>
      </trkpt>
      <trkpt lat="43.58892" lon="2.64925">
        <ele>778.32</ele>
        <time>2021-07-07T08:38:43Z</time>
      </trkpt>
      <trkpt lat="43.5889" lon="2.64927">
        <ele>778.81</ele>
        <time>2021-07-07T08:38:44Z</time>
      </trkpt>
      <trkpt lat="43.58889" lon="2.64929">
        <ele>779.77</ele>
        <time>2021-07-07T08:38:46Z</time>
      </trkpt>
      <trkpt lat="43.58886" lon="2.64927">
        <ele>780.25</ele>
        <time>2021-07-07T08:38:54Z</time>
      </trkpt>
      <trkpt lat="43.58884" lon="2.64926">
        <ele>783.61</ele>
        <time>2021-07-07T08:39:02Z</time>
      </trkpt>
      <trkpt lat="43.58884" lon="2.64926">
        <ele>779.77</ele>
        <time>2021-07-07T08:39:03Z</time>
      </trkpt>
      <trkpt lat="43.58884" lon="2.64925">
        <ele>784.57</ele>
        <time>2021-07-07T08:39:08Z</time>
      </trkpt>
      <trkpt lat="43.58884" lon="2.64925">
        <ele>781.21</ele>
        <time>2021-07-07T08:39:09Z</time>
      </trkpt>
      <trkpt lat="43.58884" lon="2.64925">
        <ele>771.6</ele>
        <time>2021-07-07T08:39:10Z</time>
      </trkpt>
      <trkpt lat="43.58884" lon="2.64924">
        <ele>782.17</ele>
        <time>2021-07-07T08:39:11Z</time>
      </trkpt>
      <trkpt lat="43.58884" lon="2.64922">
        <ele>781.21</ele>
        <time>2021-07-07T08:39:22Z</time>
      </trkpt>
      <trkpt lat="43.58881" lon="2.64924">
        <ele>780.73</ele>
        <time>2021-07-07T08:39:36Z</time>
      </trkpt>
      <trkpt lat="43.58881" lon="2.6492">
        <ele>780.25</ele>
        <time>2021-07-07T08:39:45Z</time>
      </trkpt>
      <trkpt lat="43.58878" lon="2.64902">
        <ele>779.77</ele>
        <time>2021-07-07T08:39:55Z</time>
      </trkpt>
      <trkpt lat="43.58867" lon="2.64896">
        <ele>779.29</ele>
        <time>2021-07-07T08:40:06Z</time>
      </trkpt>
      <trkpt lat="43.58855" lon="2.64892">
        <ele>777.36</ele>
        <time>2021-07-07T08:40:11Z</time>
      </trkpt>
      <trkpt lat="43.58845" lon="2.64892">
        <ele>775.92</ele>
        <time>2021-07-07T08:40:14Z</time>
      </trkpt>
      <trkpt lat="43.58824" lon="2.64899">
        <ele>773.04</ele>
        <time>2021-07-07T08:40:22Z</time>
      </trkpt>
      <trkpt lat="43.58805" lon="2.64899">
        <ele>772.08</ele>
        <time>2021-07-07T08:40:33Z</time>
      </trkpt>
      <trkpt lat="43.58805" lon="2.64899">
        <ele>785.05</ele>
        <time>2021-07-07T08:40:34Z</time>
      </trkpt>
      <trkpt lat="43.58804" lon="2.64899">
        <ele>779.29</ele>
        <time>2021-07-07T08:40:35Z</time>
      </trkpt>
      <trkpt lat="43.58804" lon="2.64899">
        <ele>773.04</ele>
        <time>2021-07-07T08:40:36Z</time>
      </trkpt>
      <trkpt lat="43.58803" lon="2.64898">
        <ele>772.08</ele>
        <time>2021-07-07T08:40:38Z</time>
      </trkpt>
      <trkpt lat="43.58802" lon="2.64897">
        <ele>771.6</ele>
        <time>2021-07-07T08:40:39Z</time>
      </trkpt>
      <trkpt lat="43.58782" lon="2.64876">
        <ele>769.67</ele>
        <time>2021-07-07T08:40:51Z</time>
      </trkpt>
      <trkpt lat="43.58752" lon="2.64868">
        <ele>766.79</ele>
        <time>2021-07-07T08:41:06Z</time>
      </trkpt>
      <trkpt lat="43.58739" lon="2.64849">
        <ele>767.75</ele>
        <time>2021-07-07T08:41:16Z</time>
      </trkpt>
      <trkpt lat="43.58739" lon="2.64842">
        <ele>769.19</ele>
        <time>2021-07-07T08:41:19Z</time>
      </trkpt>
      <trkpt lat="43.58739" lon="2.64837">
        <ele>770.15</ele>
        <time>2021-07-07T08:41:22Z</time>
      </trkpt>
      <trkpt lat="43.58737" lon="2.64819">
        <ele>769.67</ele>
        <time>2021-07-07T08:41:30Z</time>
      </trkpt>
      <trkpt lat="43.58734" lon="2.64804">
        <ele>768.71</ele>
        <time>2021-07-07T08:41:34Z</time>
      </trkpt>
      <trkpt lat="43.58726" lon="2.64786">
        <ele>768.23</ele>
        <time>2021-07-07T08:41:39Z</time>
      </trkpt>
      <trkpt lat="43.58712" lon="2.64774">
        <ele>768.23</ele>
        <time>2021-07-07T08:41:48Z</time>
      </trkpt>
      <trkpt lat="43.58712" lon="2.64774">
        <ele>777.36</ele>
        <time>2021-07-07T08:41:50Z</time>
      </trkpt>
      <trkpt lat="43.58712" lon="2.64774">
        <ele>768.23</ele>
        <time>2021-07-07T08:41:51Z</time>
      </trkpt>
      <trkpt lat="43.58712" lon="2.64773">
        <ele>766.79</ele>
        <time>2021-07-07T08:41:55Z</time>
      </trkpt>
      <trkpt lat="43.58705" lon="2.64769">
        <ele>766.79</ele>
        <time>2021-07-07T08:41:59Z</time>
      </trkpt>
      <trkpt lat="43.58687" lon="2.64746">
        <ele>767.75</ele>
        <time>2021-07-07T08:42:11Z</time>
      </trkpt>
      <trkpt lat="43.58677" lon="2.64711">
        <ele>768.71</ele>
        <time>2021-07-07T08:42:24Z</time>
      </trkpt>
      <trkpt lat="43.58671" lon="2.64672">
        <ele>770.15</ele>
        <time>2021-07-07T08:42:40Z</time>
      </trkpt>
      <trkpt lat="43.58671" lon="2.64669">
        <ele>770.63</ele>
        <time>2021-07-07T08:42:41Z</time>
      </trkpt>
      <trkpt lat="43.58667" lon="2.64657">
        <ele>771.6</ele>
        <time>2021-07-07T08:42:45Z</time>
      </trkpt>
      <trkpt lat="43.58662" lon="2.64637">
        <ele>774.48</ele>
        <time>2021-07-07T08:42:55Z</time>
      </trkpt>
      <trkpt lat="43.58662" lon="2.64636">
        <ele>774.48</ele>
        <time>2021-07-07T08:42:56Z</time>
      </trkpt>
      <trkpt lat="43.58659" lon="2.64621">
        <ele>775.92</ele>
        <time>2021-07-07T08:43:02Z</time>
      </trkpt>
      <trkpt lat="43.5865" lon="2.64593">
        <ele>778.81</ele>
        <time>2021-07-07T08:43:13Z</time>
      </trkpt>
      <trkpt lat="43.58646" lon="2.64582">
        <ele>779.29</ele>
        <time>2021-07-07T08:43:18Z</time>
      </trkpt>
      <trkpt lat="43.58638" lon="2.64563">
        <ele>781.21</ele>
        <time>2021-07-07T08:43:27Z</time>
      </trkpt>
      <trkpt lat="43.58642" lon="2.64548">
        <ele>781.69</ele>
        <time>2021-07-07T08:43:38Z</time>
      </trkpt>
      <trkpt lat="43.5864" lon="2.64533">
        <ele>782.65</ele>
        <time>2021-07-07T08:43:51Z</time>
      </trkpt>
      <trkpt lat="43.58633" lon="2.64524">
        <ele>784.57</ele>
        <time>2021-07-07T08:44:03Z</time>
      </trkpt>
      <trkpt lat="43.58619" lon="2.64513">
        <ele>785.05</ele>
        <time>2021-07-07T08:44:08Z</time>
      </trkpt>
      <trkpt lat="43.58604" lon="2.64502">
        <ele>786.5</ele>
        <time>2021-07-07T08:44:20Z</time>
      </trkpt>
      <trkpt lat="43.586" lon="2.64502">
        <ele>786.5</ele>
        <time>2021-07-07T08:44:22Z</time>
      </trkpt>
      <trkpt lat="43.58574" lon="2.64496">
        <ele>787.94</ele>
        <time>2021-07-07T08:44:36Z</time>
      </trkpt>
      <trkpt lat="43.58552" lon="2.64484">
        <ele>788.42</ele>
        <time>2021-07-07T08:44:49Z</time>
      </trkpt>
      <trkpt lat="43.58531" lon="2.64484">
        <ele>788.9</ele>
        <time>2021-07-07T08:45:04Z</time>
      </trkpt>
      <trkpt lat="43.5853" lon="2.64485">
        <ele>741.31</ele>
        <time>2021-07-07T08:45:07Z</time>
      </trkpt>
      <trkpt lat="43.5853" lon="2.64485">
        <ele>771.6</ele>
        <time>2021-07-07T08:45:08Z</time>
      </trkpt>
      <trkpt lat="43.58529" lon="2.64485">
        <ele>796.11</ele>
        <time>2021-07-07T08:45:09Z</time>
      </trkpt>
      <trkpt lat="43.58529" lon="2.64485">
        <ele>789.86</ele>
        <time>2021-07-07T08:45:10Z</time>
      </trkpt>
      <trkpt lat="43.58528" lon="2.64485">
        <ele>788.9</ele>
        <time>2021-07-07T08:45:12Z</time>
      </trkpt>
      <trkpt lat="43.58525" lon="2.64488">
        <ele>788.9</ele>
        <time>2021-07-07T08:45:17Z</time>
      </trkpt>
      <trkpt lat="43.58509" lon="2.64492">
        <ele>788.9</ele>
        <time>2021-07-07T08:45:27Z</time>
      </trkpt>
      <trkpt lat="43.585" lon="2.64496">
        <ele>788.42</ele>
        <time>2021-07-07T08:45:33Z</time>
      </trkpt>
      <trkpt lat="43.58478" lon="2.64508">
        <ele>788.42</ele>
        <time>2021-07-07T08:45:45Z</time>
      </trkpt>
      <trkpt lat="43.58447" lon="2.64533">
        <ele>788.9</ele>
        <time>2021-07-07T08:45:57Z</time>
      </trkpt>
      <trkpt lat="43.58442" lon="2.64538">
        <ele>789.86</ele>
        <time>2021-07-07T08:46:00Z</time>
      </trkpt>
      <trkpt lat="43.58441" lon="2.6454">
        <ele>789.86</ele>
        <time>2021-07-07T08:46:14Z</time>
      </trkpt>
      <trkpt lat="43.58441" lon="2.6454">
        <ele>789.86</ele>
        <time>2021-07-07T08:46:28Z</time>
      </trkpt>
      <trkpt lat="43.58441" lon="2.64541">
        <ele>790.34</ele>
        <time>2021-07-07T08:46:42Z</time>
      </trkpt>
      <trkpt lat="43.58441" lon="2.64541">
        <ele>765.35</ele>
        <time>2021-07-07T08:46:43Z</time>
      </trkpt>
      <trkpt lat="43.58441" lon="2.64541">
        <ele>802.36</ele>
        <time>2021-07-07T08:46:44Z</time>
      </trkpt>
      <trkpt lat="43.5844" lon="2.64541">
        <ele>791.3</ele>
        <time>2021-07-07T08:46:45Z</time>
      </trkpt>
      <trkpt lat="43.5844" lon="2.64541">
        <ele>789.86</ele>
        <time>2021-07-07T08:46:47Z</time>
      </trkpt>
      <trkpt lat="43.5844" lon="2.64545">
        <ele>789.86</ele>
        <time>2021-07-07T08:47:02Z</time>
      </trkpt>
      <trkpt lat="43.5844" lon="2.64545">
        <ele>789.86</ele>
        <time>2021-07-07T08:47:03Z</time>
      </trkpt>
      <trkpt lat="43.58417" lon="2.64558">
        <ele>787.46</ele>
        <time>2021-07-07T08:47:14Z</time>
      </trkpt>
      <trkpt lat="43.58379" lon="2.64574">
        <ele>786.02</ele>
        <time>2021-07-07T08:47:26Z</time>
      </trkpt>
      <trkpt lat="43.58353" lon="2.6456">
        <ele>786.02</ele>
        <time>2021-07-07T08:47:38Z</time>
      </trkpt>
      <trkpt lat="43.5833" lon="2.6453">
        <ele>787.46</ele>
        <time>2021-07-07T08:47:51Z</time>
      </trkpt>
      <trkpt lat="43.58307" lon="2.64509">
        <ele>786.5</ele>
        <time>2021-07-07T08:48:02Z</time>
      </trkpt>
      <trkpt lat="43.58283" lon="2.64501">
        <ele>784.09</ele>
        <time>2021-07-07T08:48:11Z</time>
      </trkpt>
      <trkpt lat="43.58271" lon="2.64498">
        <ele>783.13</ele>
        <time>2021-07-07T08:48:15Z</time>
      </trkpt>
      <trkpt lat="43.58235" lon="2.64496">
        <ele>779.77</ele>
        <time>2021-07-07T08:48:27Z</time>
      </trkpt>
      <trkpt lat="43.58215" lon="2.64498">
        <ele>778.32</ele>
        <time>2021-07-07T08:48:36Z</time>
      </trkpt>
      <trkpt lat="43.582" lon="2.64507">
        <ele>777.36</ele>
        <time>2021-07-07T08:48:44Z</time>
      </trkpt>
      <trkpt lat="43.58188" lon="2.64512">
        <ele>776.4</ele>
        <time>2021-07-07T08:48:50Z</time>
      </trkpt>
      <trkpt lat="43.58181" lon="2.64518">
        <ele>775.44</ele>
        <time>2021-07-07T08:48:53Z</time>
      </trkpt>
      <trkpt lat="43.58176" lon="2.64522">
        <ele>775.44</ele>
        <time>2021-07-07T08:48:55Z</time>
      </trkpt>
      <trkpt lat="43.58163" lon="2.64527">
        <ele>774.48</ele>
        <time>2021-07-07T08:49:01Z</time>
      </trkpt>
      <trkpt lat="43.58158" lon="2.64531">
        <ele>773.52</ele>
        <time>2021-07-07T08:49:04Z</time>
      </trkpt>
      <trkpt lat="43.58138" lon="2.64546">
        <ele>772.08</ele>
        <time>2021-07-07T08:49:14Z</time>
      </trkpt>
      <trkpt lat="43.58114" lon="2.64561">
        <ele>770.15</ele>
        <time>2021-07-07T08:49:24Z</time>
      </trkpt>
      <trkpt lat="43.58092" lon="2.64589">
        <ele>767.75</ele>
        <time>2021-07-07T08:49:36Z</time>
      </trkpt>
      <trkpt lat="43.58075" lon="2.64603">
        <ele>765.83</ele>
        <time>2021-07-07T08:49:45Z</time>
      </trkpt>
      <trkpt lat="43.58072" lon="2.64605">
        <ele>765.35</ele>
        <time>2021-07-07T08:49:48Z</time>
      </trkpt>
      <trkpt lat="43.58061" lon="2.64609">
        <ele>764.39</ele>
        <time>2021-07-07T08:49:53Z</time>
      </trkpt>
      <trkpt lat="43.58023" lon="2.64613">
        <ele>761.02</ele>
        <time>2021-07-07T08:50:04Z</time>
      </trkpt>
      <trkpt lat="43.5801" lon="2.64612">
        <ele>759.58</ele>
        <time>2021-07-07T08:50:09Z</time>
      </trkpt>
      <trkpt lat="43.58003" lon="2.64589">
        <ele>757.66</ele>
        <time>2021-07-07T08:50:18Z</time>
      </trkpt>
      <trkpt lat="43.58003" lon="2.64589">
        <ele>720.16</ele>
        <time>2021-07-07T08:50:19Z</time>
      </trkpt>
      <trkpt lat="43.58003" lon="2.64589">
        <ele>769.19</ele>
        <time>2021-07-07T08:50:20Z</time>
      </trkpt>
      <trkpt lat="43.58003" lon="2.64589">
        <ele>732.18</ele>
        <time>2021-07-07T08:50:21Z</time>
      </trkpt>
      <trkpt lat="43.58003" lon="2.64589">
        <ele>767.75</ele>
        <time>2021-07-07T08:50:22Z</time>
      </trkpt>
      <trkpt lat="43.58003" lon="2.64589">
        <ele>759.58</ele>
        <time>2021-07-07T08:50:23Z</time>
      </trkpt>
      <trkpt lat="43.58003" lon="2.64589">
        <ele>756.69</ele>
        <time>2021-07-07T08:50:24Z</time>
      </trkpt>
      <trkpt lat="43.58003" lon="2.64589">
        <ele>761.02</ele>
        <time>2021-07-07T08:50:25Z</time>
      </trkpt>
      <trkpt lat="43.58004" lon="2.64586">
        <ele>758.14</ele>
        <time>2021-07-07T08:50:34Z</time>
      </trkpt>
      <trkpt lat="43.58001" lon="2.64554">
        <ele>755.73</ele>
        <time>2021-07-07T08:50:46Z</time>
      </trkpt>
      <trkpt lat="43.57979" lon="2.64532">
        <ele>754.77</ele>
        <time>2021-07-07T08:50:56Z</time>
      </trkpt>
      <trkpt lat="43.57951" lon="2.6452">
        <ele>751.41</ele>
        <time>2021-07-07T08:51:07Z</time>
      </trkpt>
      <trkpt lat="43.5792" lon="2.64524">
        <ele>748.04</ele>
        <time>2021-07-07T08:51:18Z</time>
      </trkpt>
      <trkpt lat="43.57888" lon="2.64522">
        <ele>746.12</ele>
        <time>2021-07-07T08:51:29Z</time>
      </trkpt>
      <trkpt lat="43.57885" lon="2.64518">
        <ele>745.64</ele>
        <time>2021-07-07T08:51:48Z</time>
      </trkpt>
      <trkpt lat="43.57884" lon="2.64517">
        <ele>745.64</ele>
        <time>2021-07-07T08:51:55Z</time>
      </trkpt>
      <trkpt lat="43.57881" lon="2.6451">
        <ele>744.2</ele>
        <time>2021-07-07T08:51:59Z</time>
      </trkpt>
      <trkpt lat="43.57878" lon="2.64504">
        <ele>743.24</ele>
        <time>2021-07-07T08:52:02Z</time>
      </trkpt>
      <trkpt lat="43.57869" lon="2.64492">
        <ele>740.83</ele>
        <time>2021-07-07T08:52:09Z</time>
      </trkpt>
      <trkpt lat="43.57876" lon="2.64466">
        <ele>739.39</ele>
        <time>2021-07-07T08:52:20Z</time>
      </trkpt>
      <trkpt lat="43.5789" lon="2.64445">
        <ele>740.83</ele>
        <time>2021-07-07T08:52:30Z</time>
      </trkpt>
      <trkpt lat="43.57906" lon="2.64421">
        <ele>739.87</ele>
        <time>2021-07-07T08:52:40Z</time>
      </trkpt>
      <trkpt lat="43.57906" lon="2.64417">
        <ele>739.87</ele>
        <time>2021-07-07T08:52:41Z</time>
      </trkpt>
      <trkpt lat="43.57929" lon="2.644">
        <ele>737.95</ele>
        <time>2021-07-07T08:52:52Z</time>
      </trkpt>
      <trkpt lat="43.57962" lon="2.64387">
        <ele>737.95</ele>
        <time>2021-07-07T08:53:03Z</time>
      </trkpt>
      <trkpt lat="43.57992" lon="2.64369">
        <ele>739.87</ele>
        <time>2021-07-07T08:53:14Z</time>
      </trkpt>
      <trkpt lat="43.58009" lon="2.64355">
        <ele>743.24</ele>
        <time>2021-07-07T08:53:24Z</time>
      </trkpt>
      <trkpt lat="43.58022" lon="2.64341">
        <ele>746.12</ele>
        <time>2021-07-07T08:53:35Z</time>
      </trkpt>
      <trkpt lat="43.58025" lon="2.64333">
        <ele>747.08</ele>
        <time>2021-07-07T08:53:46Z</time>
      </trkpt>
      <trkpt lat="43.58024" lon="2.64327">
        <ele>747.56</ele>
        <time>2021-07-07T08:53:49Z</time>
      </trkpt>
      <trkpt lat="43.58026" lon="2.64318">
        <ele>749</ele>
        <time>2021-07-07T08:53:54Z</time>
      </trkpt>
      <trkpt lat="43.58026" lon="2.64305">
        <ele>750.93</ele>
        <time>2021-07-07T08:54:04Z</time>
      </trkpt>
      <trkpt lat="43.58026" lon="2.64304">
        <ele>750.93</ele>
        <time>2021-07-07T08:54:05Z</time>
      </trkpt>
      <trkpt lat="43.58023" lon="2.64295">
        <ele>751.89</ele>
        <time>2021-07-07T08:54:17Z</time>
      </trkpt>
      <trkpt lat="43.58022" lon="2.64292">
        <ele>751.89</ele>
        <time>2021-07-07T08:54:20Z</time>
      </trkpt>
      <trkpt lat="43.58019" lon="2.64279">
        <ele>753.33</ele>
        <time>2021-07-07T08:54:35Z</time>
      </trkpt>
      <trkpt lat="43.58019" lon="2.64274">
        <ele>753.33</ele>
        <time>2021-07-07T08:54:54Z</time>
      </trkpt>
      <trkpt lat="43.58011" lon="2.64265">
        <ele>754.29</ele>
        <time>2021-07-07T08:55:00Z</time>
      </trkpt>
      <trkpt lat="43.58003" lon="2.64252">
        <ele>756.69</ele>
        <time>2021-07-07T08:55:10Z</time>
      </trkpt>
      <trkpt lat="43.57994" lon="2.64233">
        <ele>759.1</ele>
        <time>2021-07-07T08:55:23Z</time>
      </trkpt>
      <trkpt lat="43.57991" lon="2.64228">
        <ele>760.06</ele>
        <time>2021-07-07T08:55:28Z</time>
      </trkpt>
      <trkpt lat="43.57986" lon="2.64216">
        <ele>762.46</ele>
        <time>2021-07-07T08:55:37Z</time>
      </trkpt>
      <trkpt lat="43.57984" lon="2.64211">
        <ele>763.42</ele>
        <time>2021-07-07T08:55:41Z</time>
      </trkpt>
      <trkpt lat="43.57987" lon="2.64199">
        <ele>765.35</ele>
        <time>2021-07-07T08:55:49Z</time>
      </trkpt>
      <trkpt lat="43.57988" lon="2.64194">
        <ele>765.35</ele>
        <time>2021-07-07T08:55:51Z</time>
      </trkpt>
      <trkpt lat="43.57993" lon="2.64176">
        <ele>767.27</ele>
        <time>2021-07-07T08:56:01Z</time>
      </trkpt>
      <trkpt lat="43.57994" lon="2.64169">
        <ele>767.27</ele>
        <time>2021-07-07T08:56:04Z</time>
      </trkpt>
      <trkpt lat="43.57997" lon="2.64157">
        <ele>768.71</ele>
        <time>2021-07-07T08:56:12Z</time>
      </trkpt>
      <trkpt lat="43.57999" lon="2.64151">
        <ele>769.19</ele>
        <time>2021-07-07T08:56:16Z</time>
      </trkpt>
      <trkpt lat="43.57998" lon="2.6413">
        <ele>770.63</ele>
        <time>2021-07-07T08:56:30Z</time>
      </trkpt>
      <trkpt lat="43.58001" lon="2.64122">
        <ele>771.11</ele>
        <time>2021-07-07T08:56:35Z</time>
      </trkpt>
      <trkpt lat="43.57994" lon="2.64119">
        <ele>773.04</ele>
        <time>2021-07-07T08:56:47Z</time>
      </trkpt>
      <trkpt lat="43.57981" lon="2.64119">
        <ele>774.48</ele>
        <time>2021-07-07T08:57:00Z</time>
      </trkpt>
      <trkpt lat="43.5797" lon="2.64121">
        <ele>775.92</ele>
        <time>2021-07-07T08:57:08Z</time>
      </trkpt>
      <trkpt lat="43.57958" lon="2.6413">
        <ele>778.32</ele>
        <time>2021-07-07T08:57:23Z</time>
      </trkpt>
      <trkpt lat="43.57952" lon="2.64132">
        <ele>778.32</ele>
        <time>2021-07-07T08:57:27Z</time>
      </trkpt>
      <trkpt lat="43.57942" lon="2.64137">
        <ele>780.25</ele>
        <time>2021-07-07T08:57:40Z</time>
      </trkpt>
      <trkpt lat="43.57942" lon="2.64137">
        <ele>797.07</ele>
        <time>2021-07-07T08:57:41Z</time>
      </trkpt>
      <trkpt lat="43.57942" lon="2.64137">
        <ele>781.69</ele>
        <time>2021-07-07T08:57:42Z</time>
      </trkpt>
      <trkpt lat="43.57942" lon="2.64137">
        <ele>804.76</ele>
        <time>2021-07-07T08:57:43Z</time>
      </trkpt>
      <trkpt lat="43.57941" lon="2.64137">
        <ele>796.11</ele>
        <time>2021-07-07T08:57:44Z</time>
      </trkpt>
      <trkpt lat="43.57941" lon="2.64137">
        <ele>781.21</ele>
        <time>2021-07-07T08:57:45Z</time>
      </trkpt>
      <trkpt lat="43.57941" lon="2.64137">
        <ele>767.27</ele>
        <time>2021-07-07T08:57:46Z</time>
      </trkpt>
      <trkpt lat="43.5794" lon="2.64137">
        <ele>777.36</ele>
        <time>2021-07-07T08:57:47Z</time>
      </trkpt>
      <trkpt lat="43.5794" lon="2.64137">
        <ele>781.21</ele>
        <time>2021-07-07T08:57:48Z</time>
      </trkpt>
      <trkpt lat="43.57939" lon="2.64137">
        <ele>779.77</ele>
        <time>2021-07-07T08:57:49Z</time>
      </trkpt>
      <trkpt lat="43.5794" lon="2.64136">
        <ele>780.25</ele>
        <time>2021-07-07T08:58:09Z</time>
      </trkpt>
      <trkpt lat="43.5794" lon="2.64136">
        <ele>780.25</ele>
        <time>2021-07-07T08:58:35Z</time>
      </trkpt>
      <trkpt lat="43.57941" lon="2.64138">
        <ele>785.05</ele>
        <time>2021-07-07T08:59:04Z</time>
      </trkpt>
      <trkpt lat="43.57941" lon="2.64138">
        <ele>780.25</ele>
        <time>2021-07-07T08:59:05Z</time>
      </trkpt>
      <trkpt lat="43.57941" lon="2.64138">
        <ele>784.09</ele>
        <time>2021-07-07T08:59:06Z</time>
      </trkpt>
      <trkpt lat="43.57941" lon="2.64138">
        <ele>780.25</ele>
        <time>2021-07-07T08:59:07Z</time>
      </trkpt>
      <trkpt lat="43.57941" lon="2.64138">
        <ele>800.92</ele>
        <time>2021-07-07T08:59:08Z</time>
      </trkpt>
      <trkpt lat="43.57941" lon="2.64138">
        <ele>781.69</ele>
        <time>2021-07-07T08:59:09Z</time>
      </trkpt>
      <trkpt lat="43.57941" lon="2.64138">
        <ele>791.78</ele>
        <time>2021-07-07T08:59:12Z</time>
      </trkpt>
      <trkpt lat="43.57941" lon="2.64138">
        <ele>781.21</ele>
        <time>2021-07-07T08:59:13Z</time>
      </trkpt>
      <trkpt lat="43.57941" lon="2.64138">
        <ele>764.39</ele>
        <time>2021-07-07T08:59:15Z</time>
      </trkpt>
      <trkpt lat="43.57941" lon="2.64138">
        <ele>808.13</ele>
        <time>2021-07-07T08:59:16Z</time>
      </trkpt>
      <trkpt lat="43.57941" lon="2.64137">
        <ele>781.69</ele>
        <time>2021-07-07T08:59:17Z</time>
      </trkpt>
      <trkpt lat="43.57942" lon="2.64137">
        <ele>780.25</ele>
        <time>2021-07-07T08:59:19Z</time>
      </trkpt>
      <trkpt lat="43.57941" lon="2.64137">
        <ele>780.25</ele>
        <time>2021-07-07T08:59:41Z</time>
      </trkpt>
      <trkpt lat="43.57939" lon="2.64137">
        <ele>780.73</ele>
        <time>2021-07-07T09:00:03Z</time>
      </trkpt>
      <trkpt lat="43.57925" lon="2.64147">
        <ele>781.69</ele>
        <time>2021-07-07T09:00:15Z</time>
      </trkpt>
      <trkpt lat="43.57907" lon="2.64163">
        <ele>782.17</ele>
        <time>2021-07-07T09:00:28Z</time>
      </trkpt>
      <trkpt lat="43.5789" lon="2.64166">
        <ele>783.13</ele>
        <time>2021-07-07T09:00:40Z</time>
      </trkpt>
      <trkpt lat="43.57879" lon="2.64162">
        <ele>784.09</ele>
        <time>2021-07-07T09:00:45Z</time>
      </trkpt>
      <trkpt lat="43.57855" lon="2.64152">
        <ele>786.5</ele>
        <time>2021-07-07T09:01:00Z</time>
      </trkpt>
      <trkpt lat="43.57841" lon="2.64141">
        <ele>786.98</ele>
        <time>2021-07-07T09:01:11Z</time>
      </trkpt>
      <trkpt lat="43.57837" lon="2.64127">
        <ele>788.42</ele>
        <time>2021-07-07T09:01:18Z</time>
      </trkpt>
      <trkpt lat="43.57836" lon="2.64121">
        <ele>787.94</ele>
        <time>2021-07-07T09:01:21Z</time>
      </trkpt>
      <trkpt lat="43.57839" lon="2.6411">
        <ele>788.9</ele>
        <time>2021-07-07T09:01:26Z</time>
      </trkpt>
      <trkpt lat="43.57852" lon="2.64074">
        <ele>789.38</ele>
        <time>2021-07-07T09:01:39Z</time>
      </trkpt>
      <trkpt lat="43.5786" lon="2.6404">
        <ele>791.3</ele>
        <time>2021-07-07T09:01:52Z</time>
      </trkpt>
      <trkpt lat="43.57855" lon="2.64">
        <ele>793.71</ele>
        <time>2021-07-07T09:02:07Z</time>
      </trkpt>
      <trkpt lat="43.57843" lon="2.63975">
        <ele>794.19</ele>
        <time>2021-07-07T09:02:19Z</time>
      </trkpt>
      <trkpt lat="43.57839" lon="2.63965">
        <ele>795.15</ele>
        <time>2021-07-07T09:02:24Z</time>
      </trkpt>
      <trkpt lat="43.57817" lon="2.63944">
        <ele>798.51</ele>
        <time>2021-07-07T09:02:39Z</time>
      </trkpt>
      <trkpt lat="43.57803" lon="2.63929">
        <ele>800.92</ele>
        <time>2021-07-07T09:02:51Z</time>
      </trkpt>
      <trkpt lat="43.57801" lon="2.63918">
        <ele>801.4</ele>
        <time>2021-07-07T09:02:57Z</time>
      </trkpt>
      <trkpt lat="43.5781" lon="2.63905">
        <ele>801.88</ele>
        <time>2021-07-07T09:03:08Z</time>
      </trkpt>
      <trkpt lat="43.57824" lon="2.63881">
        <ele>800.44</ele>
        <time>2021-07-07T09:03:21Z</time>
      </trkpt>
      <trkpt lat="43.57835" lon="2.63868">
        <ele>799.47</ele>
        <time>2021-07-07T09:03:26Z</time>
      </trkpt>
      <trkpt lat="43.57825" lon="2.63841">
        <ele>798.99</ele>
        <time>2021-07-07T09:03:35Z</time>
      </trkpt>
      <trkpt lat="43.57816" lon="2.63803">
        <ele>798.03</ele>
        <time>2021-07-07T09:03:46Z</time>
      </trkpt>
      <trkpt lat="43.57805" lon="2.63788">
        <ele>798.03</ele>
        <time>2021-07-07T09:03:56Z</time>
      </trkpt>
      <trkpt lat="43.57805" lon="2.63788">
        <ele>783.61</ele>
        <time>2021-07-07T09:04:00Z</time>
      </trkpt>
      <trkpt lat="43.57805" lon="2.63788">
        <ele>816.3</ele>
        <time>2021-07-07T09:04:01Z</time>
      </trkpt>
      <trkpt lat="43.57805" lon="2.63788">
        <ele>799.47</ele>
        <time>2021-07-07T09:04:02Z</time>
      </trkpt>
      <trkpt lat="43.57805" lon="2.63788">
        <ele>829.76</ele>
        <time>2021-07-07T09:04:03Z</time>
      </trkpt>
      <trkpt lat="43.57805" lon="2.63788">
        <ele>777.84</ele>
        <time>2021-07-07T09:04:04Z</time>
      </trkpt>
      <trkpt lat="43.57805" lon="2.63788">
        <ele>808.13</ele>
        <time>2021-07-07T09:04:05Z</time>
      </trkpt>
      <trkpt lat="43.57805" lon="2.63788">
        <ele>798.99</ele>
        <time>2021-07-07T09:04:06Z</time>
      </trkpt>
      <trkpt lat="43.57805" lon="2.63787">
        <ele>798.03</ele>
        <time>2021-07-07T09:04:08Z</time>
      </trkpt>
      <trkpt lat="43.57804" lon="2.63786">
        <ele>798.03</ele>
        <time>2021-07-07T09:04:10Z</time>
      </trkpt>
      <trkpt lat="43.57801" lon="2.63781">
        <ele>798.03</ele>
        <time>2021-07-07T09:04:14Z</time>
      </trkpt>
      <trkpt lat="43.57786" lon="2.63744">
        <ele>796.59</ele>
        <time>2021-07-07T09:04:27Z</time>
      </trkpt>
      <trkpt lat="43.57769" lon="2.637">
        <ele>796.11</ele>
        <time>2021-07-07T09:04:39Z</time>
      </trkpt>
      <trkpt lat="43.57746" lon="2.63667">
        <ele>798.03</ele>
        <time>2021-07-07T09:04:53Z</time>
      </trkpt>
      <trkpt lat="43.57744" lon="2.63664">
        <ele>798.51</ele>
        <time>2021-07-07T09:04:54Z</time>
      </trkpt>
      <trkpt lat="43.57738" lon="2.63649">
        <ele>798.51</ele>
        <time>2021-07-07T09:04:58Z</time>
      </trkpt>
      <trkpt lat="43.57736" lon="2.63627">
        <ele>798.99</ele>
        <time>2021-07-07T09:05:04Z</time>
      </trkpt>
      <trkpt lat="43.57731" lon="2.63611">
        <ele>799.47</ele>
        <time>2021-07-07T09:05:09Z</time>
      </trkpt>
      <trkpt lat="43.57719" lon="2.63569">
        <ele>800.44</ele>
        <time>2021-07-07T09:05:21Z</time>
      </trkpt>
      <trkpt lat="43.57707" lon="2.63542">
        <ele>800.44</ele>
        <time>2021-07-07T09:05:31Z</time>
      </trkpt>
      <trkpt lat="43.57681" lon="2.63525">
        <ele>800.92</ele>
        <time>2021-07-07T09:05:43Z</time>
      </trkpt>
      <trkpt lat="43.57663" lon="2.63515">
        <ele>802.36</ele>
        <time>2021-07-07T09:05:55Z</time>
      </trkpt>
      <trkpt lat="43.57649" lon="2.6349">
        <ele>805.24</ele>
        <time>2021-07-07T09:06:07Z</time>
      </trkpt>
      <trkpt lat="43.57638" lon="2.63471">
        <ele>806.2</ele>
        <time>2021-07-07T09:06:15Z</time>
      </trkpt>
      <trkpt lat="43.57625" lon="2.63429">
        <ele>805.24</ele>
        <time>2021-07-07T09:06:28Z</time>
      </trkpt>
      <trkpt lat="43.57618" lon="2.63407">
        <ele>806.68</ele>
        <time>2021-07-07T09:06:38Z</time>
      </trkpt>
      <trkpt lat="43.57616" lon="2.63395">
        <ele>806.68</ele>
        <time>2021-07-07T09:06:42Z</time>
      </trkpt>
      <trkpt lat="43.57613" lon="2.63382">
        <ele>806.68</ele>
        <time>2021-07-07T09:06:46Z</time>
      </trkpt>
      <trkpt lat="43.57607" lon="2.63346">
        <ele>806.68</ele>
        <time>2021-07-07T09:06:58Z</time>
      </trkpt>
      <trkpt lat="43.57603" lon="2.633">
        <ele>804.76</ele>
        <time>2021-07-07T09:07:08Z</time>
      </trkpt>
      <trkpt lat="43.57607" lon="2.63268">
        <ele>801.88</ele>
        <time>2021-07-07T09:07:18Z</time>
      </trkpt>
      <trkpt lat="43.57608" lon="2.6326">
        <ele>800.92</ele>
        <time>2021-07-07T09:07:20Z</time>
      </trkpt>
      <trkpt lat="43.57609" lon="2.63234">
        <ele>797.55</ele>
        <time>2021-07-07T09:07:26Z</time>
      </trkpt>
      <trkpt lat="43.5761" lon="2.63197">
        <ele>794.67</ele>
        <time>2021-07-07T09:07:35Z</time>
      </trkpt>
      <trkpt lat="43.57588" lon="2.63162">
        <ele>794.19</ele>
        <time>2021-07-07T09:07:46Z</time>
      </trkpt>
      <trkpt lat="43.57583" lon="2.63162">
        <ele>785.53</ele>
        <time>2021-07-07T09:07:50Z</time>
      </trkpt>
      <trkpt lat="43.57583" lon="2.63162">
        <ele>818.7</ele>
        <time>2021-07-07T09:07:51Z</time>
      </trkpt>
      <trkpt lat="43.57583" lon="2.63162">
        <ele>795.15</ele>
        <time>2021-07-07T09:07:52Z</time>
      </trkpt>
      <trkpt lat="43.57584" lon="2.63162">
        <ele>757.66</ele>
        <time>2021-07-07T09:07:54Z</time>
      </trkpt>
      <trkpt lat="43.57584" lon="2.63161">
        <ele>804.76</ele>
        <time>2021-07-07T09:07:55Z</time>
      </trkpt>
      <trkpt lat="43.57584" lon="2.63161">
        <ele>794.19</ele>
        <time>2021-07-07T09:07:56Z</time>
      </trkpt>
      <trkpt lat="43.57584" lon="2.63161">
        <ele>801.4</ele>
        <time>2021-07-07T09:08:02Z</time>
      </trkpt>
      <trkpt lat="43.57584" lon="2.63161">
        <ele>793.71</ele>
        <time>2021-07-07T09:08:03Z</time>
      </trkpt>
      <trkpt lat="43.57584" lon="2.63161">
        <ele>799.47</ele>
        <time>2021-07-07T09:08:04Z</time>
      </trkpt>
      <trkpt lat="43.57584" lon="2.63161">
        <ele>774.48</ele>
        <time>2021-07-07T09:08:05Z</time>
      </trkpt>
      <trkpt lat="43.57584" lon="2.63161">
        <ele>809.57</ele>
        <time>2021-07-07T09:08:06Z</time>
      </trkpt>
      <trkpt lat="43.57584" lon="2.63161">
        <ele>796.59</ele>
        <time>2021-07-07T09:08:07Z</time>
      </trkpt>
      <trkpt lat="43.57584" lon="2.63161">
        <ele>793.22</ele>
        <time>2021-07-07T09:08:14Z</time>
      </trkpt>
      <trkpt lat="43.57584" lon="2.63161">
        <ele>793.22</ele>
        <time>2021-07-07T09:08:16Z</time>
      </trkpt>
      <trkpt lat="43.57574" lon="2.63156">
        <ele>792.74</ele>
        <time>2021-07-07T09:08:21Z</time>
      </trkpt>
      <trkpt lat="43.5754" lon="2.63138">
        <ele>792.26</ele>
        <time>2021-07-07T09:08:33Z</time>
      </trkpt>
      <trkpt lat="43.57498" lon="2.63114">
        <ele>791.3</ele>
        <time>2021-07-07T09:08:46Z</time>
      </trkpt>
      <trkpt lat="43.57483" lon="2.63106">
        <ele>792.26</ele>
        <time>2021-07-07T09:08:53Z</time>
      </trkpt>
      <trkpt lat="43.57483" lon="2.63096">
        <ele>792.74</ele>
        <time>2021-07-07T09:08:57Z</time>
      </trkpt>
      <trkpt lat="43.57486" lon="2.63087">
        <ele>793.71</ele>
        <time>2021-07-07T09:09:00Z</time>
      </trkpt>
      <trkpt lat="43.57489" lon="2.63074">
        <ele>795.15</ele>
        <time>2021-07-07T09:09:05Z</time>
      </trkpt>
      <trkpt lat="43.57491" lon="2.6306">
        <ele>796.11</ele>
        <time>2021-07-07T09:09:09Z</time>
      </trkpt>
      <trkpt lat="43.57493" lon="2.63049">
        <ele>797.07</ele>
        <time>2021-07-07T09:09:14Z</time>
      </trkpt>
      <trkpt lat="43.57494" lon="2.6304">
        <ele>798.03</ele>
        <time>2021-07-07T09:09:19Z</time>
      </trkpt>
      <trkpt lat="43.57493" lon="2.63036">
        <ele>798.99</ele>
        <time>2021-07-07T09:09:21Z</time>
      </trkpt>
      <trkpt lat="43.57493" lon="2.63029">
        <ele>799.47</ele>
        <time>2021-07-07T09:09:26Z</time>
      </trkpt>
      <trkpt lat="43.57492" lon="2.63024">
        <ele>799.95</ele>
        <time>2021-07-07T09:09:29Z</time>
      </trkpt>
      <trkpt lat="43.57492" lon="2.6302">
        <ele>799.95</ele>
        <time>2021-07-07T09:09:32Z</time>
      </trkpt>
      <trkpt lat="43.57487" lon="2.63009">
        <ele>800.92</ele>
        <time>2021-07-07T09:09:39Z</time>
      </trkpt>
      <trkpt lat="43.57487" lon="2.63005">
        <ele>801.4</ele>
        <time>2021-07-07T09:09:41Z</time>
      </trkpt>
      <trkpt lat="43.57487" lon="2.63002">
        <ele>801.4</ele>
        <time>2021-07-07T09:09:43Z</time>
      </trkpt>
      <trkpt lat="43.57486" lon="2.62982">
        <ele>802.84</ele>
        <time>2021-07-07T09:09:56Z</time>
      </trkpt>
      <trkpt lat="43.57486" lon="2.62981">
        <ele>802.84</ele>
        <time>2021-07-07T09:09:57Z</time>
      </trkpt>
      <trkpt lat="43.57488" lon="2.62975">
        <ele>803.8</ele>
        <time>2021-07-07T09:10:00Z</time>
      </trkpt>
      <trkpt lat="43.57489" lon="2.62971">
        <ele>804.28</ele>
        <time>2021-07-07T09:10:02Z</time>
      </trkpt>
      <trkpt lat="43.57497" lon="2.62958">
        <ele>804.76</ele>
        <time>2021-07-07T09:10:10Z</time>
      </trkpt>
      <trkpt lat="43.57497" lon="2.62953">
        <ele>805.72</ele>
        <time>2021-07-07T09:10:13Z</time>
      </trkpt>
      <trkpt lat="43.57489" lon="2.62934">
        <ele>808.13</ele>
        <time>2021-07-07T09:10:24Z</time>
      </trkpt>
      <trkpt lat="43.57478" lon="2.62923">
        <ele>809.57</ele>
        <time>2021-07-07T09:10:36Z</time>
      </trkpt>
      <trkpt lat="43.57474" lon="2.6292">
        <ele>810.05</ele>
        <time>2021-07-07T09:10:40Z</time>
      </trkpt>
      <trkpt lat="43.57464" lon="2.62917">
        <ele>810.53</ele>
        <time>2021-07-07T09:10:46Z</time>
      </trkpt>
      <trkpt lat="43.5746" lon="2.62915">
        <ele>810.53</ele>
        <time>2021-07-07T09:10:48Z</time>
      </trkpt>
      <trkpt lat="43.57456" lon="2.62911">
        <ele>811.01</ele>
        <time>2021-07-07T09:10:52Z</time>
      </trkpt>
      <trkpt lat="43.5744" lon="2.62898">
        <ele>812.45</ele>
        <time>2021-07-07T09:11:06Z</time>
      </trkpt>
      <trkpt lat="43.57436" lon="2.62892">
        <ele>812.45</ele>
        <time>2021-07-07T09:11:11Z</time>
      </trkpt>
      <trkpt lat="43.57426" lon="2.62876">
        <ele>813.41</ele>
        <time>2021-07-07T09:11:21Z</time>
      </trkpt>
      <trkpt lat="43.57407" lon="2.62861">
        <ele>813.89</ele>
        <time>2021-07-07T09:11:34Z</time>
      </trkpt>
      <trkpt lat="43.5739" lon="2.62849">
        <ele>814.37</ele>
        <time>2021-07-07T09:11:44Z</time>
      </trkpt>
      <trkpt lat="43.57373" lon="2.62827">
        <ele>813.89</ele>
        <time>2021-07-07T09:11:56Z</time>
      </trkpt>
      <trkpt lat="43.57359" lon="2.62809">
        <ele>814.85</ele>
        <time>2021-07-07T09:12:07Z</time>
      </trkpt>
      <trkpt lat="43.57341" lon="2.62787">
        <ele>817.26</ele>
        <time>2021-07-07T09:12:22Z</time>
      </trkpt>
      <trkpt lat="43.57329" lon="2.62768">
        <ele>819.18</ele>
        <time>2021-07-07T09:12:33Z</time>
      </trkpt>
      <trkpt lat="43.57312" lon="2.62756">
        <ele>821.1</ele>
        <time>2021-07-07T09:12:46Z</time>
      </trkpt>
      <trkpt lat="43.57293" lon="2.62748">
        <ele>822.55</ele>
        <time>2021-07-07T09:13:00Z</time>
      </trkpt>
      <trkpt lat="43.57274" lon="2.6274">
        <ele>824.47</ele>
        <time>2021-07-07T09:13:14Z</time>
      </trkpt>
      <trkpt lat="43.57268" lon="2.62736">
        <ele>825.43</ele>
        <time>2021-07-07T09:13:18Z</time>
      </trkpt>
      <trkpt lat="43.5726" lon="2.62729">
        <ele>827.35</ele>
        <time>2021-07-07T09:13:24Z</time>
      </trkpt>
      <trkpt lat="43.57254" lon="2.62722">
        <ele>829.27</ele>
        <time>2021-07-07T09:13:29Z</time>
      </trkpt>
      <trkpt lat="43.57245" lon="2.62714">
        <ele>831.2</ele>
        <time>2021-07-07T09:13:36Z</time>
      </trkpt>
      <trkpt lat="43.57233" lon="2.62706">
        <ele>832.16</ele>
        <time>2021-07-07T09:13:45Z</time>
      </trkpt>
      <trkpt lat="43.5723" lon="2.62704">
        <ele>832.64</ele>
        <time>2021-07-07T09:13:48Z</time>
      </trkpt>
      <trkpt lat="43.57225" lon="2.62702">
        <ele>831.68</ele>
        <time>2021-07-07T09:13:52Z</time>
      </trkpt>
      <trkpt lat="43.57201" lon="2.6269">
        <ele>828.79</ele>
        <time>2021-07-07T09:14:04Z</time>
      </trkpt>
      <trkpt lat="43.57189" lon="2.62685">
        <ele>827.83</ele>
        <time>2021-07-07T09:14:08Z</time>
      </trkpt>
      <trkpt lat="43.57187" lon="2.62685">
        <ele>804.76</ele>
        <time>2021-07-07T09:14:17Z</time>
      </trkpt>
      <trkpt lat="43.57187" lon="2.62685">
        <ele>844.18</ele>
        <time>2021-07-07T09:14:18Z</time>
      </trkpt>
      <trkpt lat="43.57187" lon="2.62685">
        <ele>829.76</ele>
        <time>2021-07-07T09:14:19Z</time>
      </trkpt>
      <trkpt lat="43.57187" lon="2.62686">
        <ele>828.31</ele>
        <time>2021-07-07T09:14:21Z</time>
      </trkpt>
      <trkpt lat="43.57189" lon="2.62685">
        <ele>838.41</ele>
        <time>2021-07-07T09:14:38Z</time>
      </trkpt>
      <trkpt lat="43.57189" lon="2.62685">
        <ele>821.58</ele>
        <time>2021-07-07T09:14:39Z</time>
      </trkpt>
      <trkpt lat="43.57189" lon="2.62685">
        <ele>832.64</ele>
        <time>2021-07-07T09:14:40Z</time>
      </trkpt>
      <trkpt lat="43.57189" lon="2.62685">
        <ele>839.85</ele>
        <time>2021-07-07T09:14:41Z</time>
      </trkpt>
      <trkpt lat="43.57189" lon="2.62685">
        <ele>828.79</ele>
        <time>2021-07-07T09:14:42Z</time>
      </trkpt>
      <trkpt lat="43.57189" lon="2.62685">
        <ele>839.37</ele>
        <time>2021-07-07T09:14:43Z</time>
      </trkpt>
      <trkpt lat="43.57189" lon="2.62686">
        <ele>828.31</ele>
        <time>2021-07-07T09:14:44Z</time>
      </trkpt>
      <trkpt lat="43.57188" lon="2.62685">
        <ele>827.83</ele>
        <time>2021-07-07T09:15:10Z</time>
      </trkpt>
      <trkpt lat="43.57189" lon="2.62685">
        <ele>823.99</ele>
        <time>2021-07-07T09:15:34Z</time>
      </trkpt>
      <trkpt lat="43.57189" lon="2.62685">
        <ele>829.27</ele>
        <time>2021-07-07T09:15:35Z</time>
      </trkpt>
      <trkpt lat="43.57189" lon="2.62685">
        <ele>810.05</ele>
        <time>2021-07-07T09:15:36Z</time>
      </trkpt>
      <trkpt lat="43.57189" lon="2.62685">
        <ele>834.08</ele>
        <time>2021-07-07T09:15:37Z</time>
      </trkpt>
      <trkpt lat="43.57189" lon="2.62685">
        <ele>833.12</ele>
        <time>2021-07-07T09:15:38Z</time>
      </trkpt>
      <trkpt lat="43.57189" lon="2.62685">
        <ele>828.79</ele>
        <time>2021-07-07T09:15:40Z</time>
      </trkpt>
      <trkpt lat="43.57189" lon="2.62685">
        <ele>828.31</ele>
        <time>2021-07-07T09:15:41Z</time>
      </trkpt>
      <trkpt lat="43.57189" lon="2.62685">
        <ele>834.08</ele>
        <time>2021-07-07T09:15:42Z</time>
      </trkpt>
      <trkpt lat="43.57189" lon="2.62685">
        <ele>829.76</ele>
        <time>2021-07-07T09:15:43Z</time>
      </trkpt>
      <trkpt lat="43.57189" lon="2.62685">
        <ele>828.31</ele>
        <time>2021-07-07T09:16:02Z</time>
      </trkpt>
      <trkpt lat="43.57189" lon="2.62685">
        <ele>828.31</ele>
        <time>2021-07-07T09:16:32Z</time>
      </trkpt>
      <trkpt lat="43.57189" lon="2.62685">
        <ele>828.79</ele>
        <time>2021-07-07T09:17:04Z</time>
      </trkpt>
      <trkpt lat="43.57188" lon="2.62685">
        <ele>828.31</ele>
        <time>2021-07-07T09:17:07Z</time>
      </trkpt>
      <trkpt lat="43.57162" lon="2.62682">
        <ele>827.35</ele>
        <time>2021-07-07T09:17:19Z</time>
      </trkpt>
      <trkpt lat="43.57133" lon="2.62691">
        <ele>826.87</ele>
        <time>2021-07-07T09:17:30Z</time>
      </trkpt>
      <trkpt lat="43.571" lon="2.62703">
        <ele>825.91</ele>
        <time>2021-07-07T09:17:42Z</time>
      </trkpt>
      <trkpt lat="43.57068" lon="2.62696">
        <ele>823.03</ele>
        <time>2021-07-07T09:17:52Z</time>
      </trkpt>
      <trkpt lat="43.57058" lon="2.62686">
        <ele>823.03</ele>
        <time>2021-07-07T09:17:56Z</time>
      </trkpt>
      <trkpt lat="43.57048" lon="2.6268">
        <ele>823.03</ele>
        <time>2021-07-07T09:18:02Z</time>
      </trkpt>
      <trkpt lat="43.57032" lon="2.62671">
        <ele>824.47</ele>
        <time>2021-07-07T09:18:12Z</time>
      </trkpt>
      <trkpt lat="43.57031" lon="2.62668">
        <ele>824.95</ele>
        <time>2021-07-07T09:18:15Z</time>
      </trkpt>
      <trkpt lat="43.57027" lon="2.62663">
        <ele>824.95</ele>
        <time>2021-07-07T09:18:19Z</time>
      </trkpt>
      <trkpt lat="43.57011" lon="2.62652">
        <ele>826.39</ele>
        <time>2021-07-07T09:18:33Z</time>
      </trkpt>
      <trkpt lat="43.5701" lon="2.62651">
        <ele>827.35</ele>
        <time>2021-07-07T09:18:34Z</time>
      </trkpt>
      <trkpt lat="43.56996" lon="2.62641">
        <ele>828.79</ele>
        <time>2021-07-07T09:18:48Z</time>
      </trkpt>
      <trkpt lat="43.56982" lon="2.62627">
        <ele>830.72</ele>
        <time>2021-07-07T09:19:02Z</time>
      </trkpt>
      <trkpt lat="43.56969" lon="2.62609">
        <ele>833.12</ele>
        <time>2021-07-07T09:19:19Z</time>
      </trkpt>
      <trkpt lat="43.56948" lon="2.62596">
        <ele>836.48</ele>
        <time>2021-07-07T09:19:33Z</time>
      </trkpt>
      <trkpt lat="43.56924" lon="2.62587">
        <ele>839.37</ele>
        <time>2021-07-07T09:19:47Z</time>
      </trkpt>
      <trkpt lat="43.56907" lon="2.62574">
        <ele>842.25</ele>
        <time>2021-07-07T09:20:03Z</time>
      </trkpt>
      <trkpt lat="43.56895" lon="2.62565">
        <ele>844.18</ele>
        <time>2021-07-07T09:20:16Z</time>
      </trkpt>
      <trkpt lat="43.56897" lon="2.62555">
        <ele>843.21</ele>
        <time>2021-07-07T09:20:21Z</time>
      </trkpt>
      <trkpt lat="43.56901" lon="2.62551">
        <ele>842.73</ele>
        <time>2021-07-07T09:20:24Z</time>
      </trkpt>
      <trkpt lat="43.56904" lon="2.62533">
        <ele>872.53</ele>
        <time>2021-07-07T09:20:36Z</time>
      </trkpt>
      <trkpt lat="43.56904" lon="2.62533">
        <ele>870.13</ele>
        <time>2021-07-07T09:20:37Z</time>
      </trkpt>
      <trkpt lat="43.56905" lon="2.62533">
        <ele>842.25</ele>
        <time>2021-07-07T09:20:38Z</time>
      </trkpt>
      <trkpt lat="43.56905" lon="2.62533">
        <ele>844.66</ele>
        <time>2021-07-07T09:20:39Z</time>
      </trkpt>
      <trkpt lat="43.56905" lon="2.62533">
        <ele>854.75</ele>
        <time>2021-07-07T09:20:41Z</time>
      </trkpt>
      <trkpt lat="43.56905" lon="2.62533">
        <ele>847.54</ele>
        <time>2021-07-07T09:20:42Z</time>
      </trkpt>
      <trkpt lat="43.56905" lon="2.62532">
        <ele>843.21</ele>
        <time>2021-07-07T09:20:43Z</time>
      </trkpt>
      <trkpt lat="43.56905" lon="2.62532">
        <ele>830.24</ele>
        <time>2021-07-07T09:20:44Z</time>
      </trkpt>
      <trkpt lat="43.56905" lon="2.62532">
        <ele>851.87</ele>
        <time>2021-07-07T09:20:45Z</time>
      </trkpt>
      <trkpt lat="43.56905" lon="2.62532">
        <ele>843.69</ele>
        <time>2021-07-07T09:20:46Z</time>
      </trkpt>
      <trkpt lat="43.56905" lon="2.62532">
        <ele>842.73</ele>
        <time>2021-07-07T09:20:48Z</time>
      </trkpt>
      <trkpt lat="43.56905" lon="2.62532">
        <ele>866.29</ele>
        <time>2021-07-07T09:20:49Z</time>
      </trkpt>
      <trkpt lat="43.56905" lon="2.62532">
        <ele>843.69</ele>
        <time>2021-07-07T09:20:50Z</time>
      </trkpt>
      <trkpt lat="43.56904" lon="2.6253">
        <ele>842.73</ele>
        <time>2021-07-07T09:21:07Z</time>
      </trkpt>
      <trkpt lat="43.56904" lon="2.6253">
        <ele>842.73</ele>
        <time>2021-07-07T09:21:24Z</time>
      </trkpt>
      <trkpt lat="43.56904" lon="2.6253">
        <ele>843.21</ele>
        <time>2021-07-07T09:21:48Z</time>
      </trkpt>
      <trkpt lat="43.56904" lon="2.6253">
        <ele>843.21</ele>
        <time>2021-07-07T09:22:05Z</time>
      </trkpt>
      <trkpt lat="43.56906" lon="2.62528">
        <ele>842.73</ele>
        <time>2021-07-07T09:22:12Z</time>
      </trkpt>
      <trkpt lat="43.56909" lon="2.62525">
        <ele>842.25</ele>
        <time>2021-07-07T09:22:15Z</time>
      </trkpt>
      <trkpt lat="43.5691" lon="2.62523">
        <ele>841.77</ele>
        <time>2021-07-07T09:22:17Z</time>
      </trkpt>
      <trkpt lat="43.56912" lon="2.6252">
        <ele>841.29</ele>
        <time>2021-07-07T09:22:19Z</time>
      </trkpt>
      <trkpt lat="43.56931" lon="2.62501">
        <ele>839.37</ele>
        <time>2021-07-07T09:22:31Z</time>
      </trkpt>
      <trkpt lat="43.56955" lon="2.62484">
        <ele>837.45</ele>
        <time>2021-07-07T09:22:43Z</time>
      </trkpt>
      <trkpt lat="43.56973" lon="2.6248">
        <ele>835.04</ele>
        <time>2021-07-07T09:22:52Z</time>
      </trkpt>
      <trkpt lat="43.56979" lon="2.6248">
        <ele>834.56</ele>
        <time>2021-07-07T09:22:55Z</time>
      </trkpt>
      <trkpt lat="43.56996" lon="2.62478">
        <ele>833.12</ele>
        <time>2021-07-07T09:23:04Z</time>
      </trkpt>
      <trkpt lat="43.57024" lon="2.62468">
        <ele>832.16</ele>
        <time>2021-07-07T09:23:19Z</time>
      </trkpt>
      <trkpt lat="43.57051" lon="2.62463">
        <ele>831.2</ele>
        <time>2021-07-07T09:23:28Z</time>
      </trkpt>
      <trkpt lat="43.57076" lon="2.6246">
        <ele>830.72</ele>
        <time>2021-07-07T09:23:37Z</time>
      </trkpt>
      <trkpt lat="43.57088" lon="2.62447">
        <ele>830.24</ele>
        <time>2021-07-07T09:23:43Z</time>
      </trkpt>
      <trkpt lat="43.57139" lon="2.62445">
        <ele>829.76</ele>
        <time>2021-07-07T09:23:55Z</time>
      </trkpt>
      <trkpt lat="43.57173" lon="2.62425">
        <ele>826.87</ele>
        <time>2021-07-07T09:24:06Z</time>
      </trkpt>
      <trkpt lat="43.57188" lon="2.62405">
        <ele>823.03</ele>
        <time>2021-07-07T09:24:11Z</time>
      </trkpt>
      <trkpt lat="43.5719" lon="2.62401">
        <ele>823.03</ele>
        <time>2021-07-07T09:24:12Z</time>
      </trkpt>
      <trkpt lat="43.57198" lon="2.62376">
        <ele>820.14</ele>
        <time>2021-07-07T09:24:19Z</time>
      </trkpt>
      <trkpt lat="43.572" lon="2.62365">
        <ele>818.7</ele>
        <time>2021-07-07T09:24:23Z</time>
      </trkpt>
      <trkpt lat="43.57203" lon="2.62344">
        <ele>816.78</ele>
        <time>2021-07-07T09:24:30Z</time>
      </trkpt>
      <trkpt lat="43.57204" lon="2.62342">
        <ele>815.82</ele>
        <time>2021-07-07T09:24:31Z</time>
      </trkpt>
      <trkpt lat="43.57205" lon="2.6234">
        <ele>815.34</ele>
        <time>2021-07-07T09:24:32Z</time>
      </trkpt>
      <trkpt lat="43.57206" lon="2.62337">
        <ele>815.34</ele>
        <time>2021-07-07T09:24:33Z</time>
      </trkpt>
      <trkpt lat="43.57216" lon="2.6232">
        <ele>812.93</ele>
        <time>2021-07-07T09:24:42Z</time>
      </trkpt>
      <trkpt lat="43.57221" lon="2.62315">
        <ele>812.45</ele>
        <time>2021-07-07T09:24:45Z</time>
      </trkpt>
      <trkpt lat="43.57223" lon="2.62315">
        <ele>811.97</ele>
        <time>2021-07-07T09:24:46Z</time>
      </trkpt>
      <trkpt lat="43.57233" lon="2.62316">
        <ele>810.05</ele>
        <time>2021-07-07T09:24:52Z</time>
      </trkpt>
      <trkpt lat="43.57237" lon="2.62314">
        <ele>809.09</ele>
        <time>2021-07-07T09:24:54Z</time>
      </trkpt>
      <trkpt lat="43.57245" lon="2.62309">
        <ele>807.64</ele>
        <time>2021-07-07T09:25:00Z</time>
      </trkpt>
      <trkpt lat="43.57252" lon="2.62308">
        <ele>806.68</ele>
        <time>2021-07-07T09:25:04Z</time>
      </trkpt>
      <trkpt lat="43.57255" lon="2.62308">
        <ele>806.68</ele>
        <time>2021-07-07T09:25:05Z</time>
      </trkpt>
      <trkpt lat="43.57259" lon="2.62306">
        <ele>805.24</ele>
        <time>2021-07-07T09:25:07Z</time>
      </trkpt>
      <trkpt lat="43.57261" lon="2.62305">
        <ele>805.24</ele>
        <time>2021-07-07T09:25:08Z</time>
      </trkpt>
      <trkpt lat="43.57262" lon="2.62304">
        <ele>804.76</ele>
        <time>2021-07-07T09:25:09Z</time>
      </trkpt>
      <trkpt lat="43.57264" lon="2.62304">
        <ele>805.24</ele>
        <time>2021-07-07T09:25:10Z</time>
      </trkpt>
      <trkpt lat="43.57266" lon="2.62304">
        <ele>804.28</ele>
        <time>2021-07-07T09:25:11Z</time>
      </trkpt>
      <trkpt lat="43.57269" lon="2.62303">
        <ele>804.28</ele>
        <time>2021-07-07T09:25:12Z</time>
      </trkpt>
      <trkpt lat="43.57271" lon="2.62303">
        <ele>804.28</ele>
        <time>2021-07-07T09:25:13Z</time>
      </trkpt>
      <trkpt lat="43.57272" lon="2.62303">
        <ele>803.8</ele>
        <time>2021-07-07T09:25:14Z</time>
      </trkpt>
      <trkpt lat="43.57274" lon="2.62302">
        <ele>803.8</ele>
        <time>2021-07-07T09:25:15Z</time>
      </trkpt>
      <trkpt lat="43.57277" lon="2.623">
        <ele>803.8</ele>
        <time>2021-07-07T09:25:16Z</time>
      </trkpt>
      <trkpt lat="43.57279" lon="2.62299">
        <ele>803.32</ele>
        <time>2021-07-07T09:25:17Z</time>
      </trkpt>
      <trkpt lat="43.57281" lon="2.62298">
        <ele>802.84</ele>
        <time>2021-07-07T09:25:18Z</time>
      </trkpt>
      <trkpt lat="43.57284" lon="2.62298">
        <ele>802.84</ele>
        <time>2021-07-07T09:25:19Z</time>
      </trkpt>
      <trkpt lat="43.57286" lon="2.62297">
        <ele>802.36</ele>
        <time>2021-07-07T09:25:20Z</time>
      </trkpt>
      <trkpt lat="43.57288" lon="2.62298">
        <ele>802.36</ele>
        <time>2021-07-07T09:25:21Z</time>
      </trkpt>
      <trkpt lat="43.5729" lon="2.62298">
        <ele>801.88</ele>
        <time>2021-07-07T09:25:22Z</time>
      </trkpt>
      <trkpt lat="43.57293" lon="2.62298">
        <ele>801.88</ele>
        <time>2021-07-07T09:25:23Z</time>
      </trkpt>
      <trkpt lat="43.57304" lon="2.62297">
        <ele>800.92</ele>
        <time>2021-07-07T09:25:28Z</time>
      </trkpt>
      <trkpt lat="43.57306" lon="2.62297">
        <ele>800.44</ele>
        <time>2021-07-07T09:25:29Z</time>
      </trkpt>
      <trkpt lat="43.57311" lon="2.62296">
        <ele>799.95</ele>
        <time>2021-07-07T09:25:32Z</time>
      </trkpt>
      <trkpt lat="43.57313" lon="2.62294">
        <ele>799.95</ele>
        <time>2021-07-07T09:25:33Z</time>
      </trkpt>
      <trkpt lat="43.57315" lon="2.62294">
        <ele>799.47</ele>
        <time>2021-07-07T09:25:34Z</time>
      </trkpt>
      <trkpt lat="43.57317" lon="2.62293">
        <ele>798.99</ele>
        <time>2021-07-07T09:25:35Z</time>
      </trkpt>
      <trkpt lat="43.57318" lon="2.62291">
        <ele>798.51</ele>
        <time>2021-07-07T09:25:36Z</time>
      </trkpt>
      <trkpt lat="43.5732" lon="2.6229">
        <ele>798.03</ele>
        <time>2021-07-07T09:25:37Z</time>
      </trkpt>
      <trkpt lat="43.57323" lon="2.62289">
        <ele>798.51</ele>
        <time>2021-07-07T09:25:38Z</time>
      </trkpt>
      <trkpt lat="43.57324" lon="2.62288">
        <ele>798.03</ele>
        <time>2021-07-07T09:25:39Z</time>
      </trkpt>
      <trkpt lat="43.57325" lon="2.62287">
        <ele>798.03</ele>
        <time>2021-07-07T09:25:40Z</time>
      </trkpt>
      <trkpt lat="43.57339" lon="2.62279">
        <ele>795.63</ele>
        <time>2021-07-07T09:25:50Z</time>
      </trkpt>
      <trkpt lat="43.57341" lon="2.62281">
        <ele>795.63</ele>
        <time>2021-07-07T09:25:51Z</time>
      </trkpt>
      <trkpt lat="43.57343" lon="2.6228">
        <ele>795.15</ele>
        <time>2021-07-07T09:25:55Z</time>
      </trkpt>
      <trkpt lat="43.57344" lon="2.6228">
        <ele>794.67</ele>
        <time>2021-07-07T09:25:56Z</time>
      </trkpt>
      <trkpt lat="43.57345" lon="2.62279">
        <ele>794.67</ele>
        <time>2021-07-07T09:25:57Z</time>
      </trkpt>
      <trkpt lat="43.57353" lon="2.62273">
        <ele>792.26</ele>
        <time>2021-07-07T09:26:05Z</time>
      </trkpt>
      <trkpt lat="43.57355" lon="2.62272">
        <ele>792.26</ele>
        <time>2021-07-07T09:26:06Z</time>
      </trkpt>
      <trkpt lat="43.57364" lon="2.62265">
        <ele>790.82</ele>
        <time>2021-07-07T09:26:13Z</time>
      </trkpt>
      <trkpt lat="43.57369" lon="2.62258">
        <ele>789.86</ele>
        <time>2021-07-07T09:26:17Z</time>
      </trkpt>
      <trkpt lat="43.57381" lon="2.62244">
        <ele>789.86</ele>
        <time>2021-07-07T09:26:29Z</time>
      </trkpt>
      <trkpt lat="43.57387" lon="2.62238">
        <ele>790.82</ele>
        <time>2021-07-07T09:26:42Z</time>
      </trkpt>
      <trkpt lat="43.57386" lon="2.62238">
        <ele>798.03</ele>
        <time>2021-07-07T09:26:45Z</time>
      </trkpt>
      <trkpt lat="43.57386" lon="2.62238">
        <ele>792.26</ele>
        <time>2021-07-07T09:26:46Z</time>
      </trkpt>
      <trkpt lat="43.57387" lon="2.62237">
        <ele>790.34</ele>
        <time>2021-07-07T09:27:04Z</time>
      </trkpt>
      <trkpt lat="43.57382" lon="2.62227">
        <ele>791.78</ele>
        <time>2021-07-07T09:27:17Z</time>
      </trkpt>
      <trkpt lat="43.57383" lon="2.62219">
        <ele>792.74</ele>
        <time>2021-07-07T09:27:31Z</time>
      </trkpt>
      <trkpt lat="43.57386" lon="2.62203">
        <ele>795.63</ele>
        <time>2021-07-07T09:27:47Z</time>
      </trkpt>
      <trkpt lat="43.5738" lon="2.62184">
        <ele>798.03</ele>
        <time>2021-07-07T09:28:05Z</time>
      </trkpt>
      <trkpt lat="43.57374" lon="2.62177">
        <ele>800.92</ele>
        <time>2021-07-07T09:28:19Z</time>
      </trkpt>
      <trkpt lat="43.57371" lon="2.62165">
        <ele>803.32</ele>
        <time>2021-07-07T09:28:35Z</time>
      </trkpt>
      <trkpt lat="43.57372" lon="2.62151">
        <ele>805.72</ele>
        <time>2021-07-07T09:28:51Z</time>
      </trkpt>
      <trkpt lat="43.57364" lon="2.62139">
        <ele>807.64</ele>
        <time>2021-07-07T09:29:04Z</time>
      </trkpt>
      <trkpt lat="43.57357" lon="2.62127">
        <ele>810.53</ele>
        <time>2021-07-07T09:29:19Z</time>
      </trkpt>
      <trkpt lat="43.57358" lon="2.62122">
        <ele>815.34</ele>
        <time>2021-07-07T09:29:30Z</time>
      </trkpt>
      <trkpt lat="43.57358" lon="2.62122">
        <ele>804.76</ele>
        <time>2021-07-07T09:29:31Z</time>
      </trkpt>
      <trkpt lat="43.57358" lon="2.62122">
        <ele>812.45</ele>
        <time>2021-07-07T09:29:32Z</time>
      </trkpt>
      <trkpt lat="43.57358" lon="2.62122">
        <ele>805.24</ele>
        <time>2021-07-07T09:29:34Z</time>
      </trkpt>
      <trkpt lat="43.57358" lon="2.62122">
        <ele>813.41</ele>
        <time>2021-07-07T09:29:35Z</time>
      </trkpt>
      <trkpt lat="43.57358" lon="2.62122">
        <ele>811.01</ele>
        <time>2021-07-07T09:29:38Z</time>
      </trkpt>
      <trkpt lat="43.57359" lon="2.62122">
        <ele>810.53</ele>
        <time>2021-07-07T09:29:51Z</time>
      </trkpt>
      <trkpt lat="43.57359" lon="2.62121">
        <ele>810.53</ele>
        <time>2021-07-07T09:29:59Z</time>
      </trkpt>
      <trkpt lat="43.5736" lon="2.62121">
        <ele>811.01</ele>
        <time>2021-07-07T09:30:19Z</time>
      </trkpt>
      <trkpt lat="43.57362" lon="2.62123">
        <ele>811.49</ele>
        <time>2021-07-07T09:30:40Z</time>
      </trkpt>
      <trkpt lat="43.57362" lon="2.62124">
        <ele>811.97</ele>
        <time>2021-07-07T09:30:57Z</time>
      </trkpt>
      <trkpt lat="43.57362" lon="2.62124">
        <ele>792.74</ele>
        <time>2021-07-07T09:31:04Z</time>
      </trkpt>
      <trkpt lat="43.57362" lon="2.62124">
        <ele>823.99</ele>
        <time>2021-07-07T09:31:05Z</time>
      </trkpt>
      <trkpt lat="43.57362" lon="2.62124">
        <ele>823.99</ele>
        <time>2021-07-07T09:31:06Z</time>
      </trkpt>
      <trkpt lat="43.57362" lon="2.62124">
        <ele>800.44</ele>
        <time>2021-07-07T09:31:07Z</time>
      </trkpt>
      <trkpt lat="43.57362" lon="2.62124">
        <ele>836.48</ele>
        <time>2021-07-07T09:31:08Z</time>
      </trkpt>
      <trkpt lat="43.57362" lon="2.62124">
        <ele>813.41</ele>
        <time>2021-07-07T09:31:09Z</time>
      </trkpt>
      <trkpt lat="43.57362" lon="2.62124">
        <ele>819.66</ele>
        <time>2021-07-07T09:31:13Z</time>
      </trkpt>
      <trkpt lat="43.57362" lon="2.62124">
        <ele>812.45</ele>
        <time>2021-07-07T09:31:14Z</time>
      </trkpt>
      <trkpt lat="43.57362" lon="2.62124">
        <ele>830.24</ele>
        <time>2021-07-07T09:31:17Z</time>
      </trkpt>
      <trkpt lat="43.57362" lon="2.62123">
        <ele>813.89</ele>
        <time>2021-07-07T09:31:18Z</time>
      </trkpt>
      <trkpt lat="43.57362" lon="2.62124">
        <ele>824.47</ele>
        <time>2021-07-07T09:31:20Z</time>
      </trkpt>
      <trkpt lat="43.57362" lon="2.62124">
        <ele>799.95</ele>
        <time>2021-07-07T09:31:21Z</time>
      </trkpt>
      <trkpt lat="43.57362" lon="2.62124">
        <ele>814.85</ele>
        <time>2021-07-07T09:31:22Z</time>
      </trkpt>
      <trkpt lat="43.57362" lon="2.62124">
        <ele>811.49</ele>
        <time>2021-07-07T09:31:25Z</time>
      </trkpt>
      <trkpt lat="43.57361" lon="2.62122">
        <ele>786.98</ele>
        <time>2021-07-07T09:31:32Z</time>
      </trkpt>
      <trkpt lat="43.57362" lon="2.62122">
        <ele>817.74</ele>
        <time>2021-07-07T09:31:33Z</time>
      </trkpt>
      <trkpt lat="43.57362" lon="2.62122">
        <ele>812.45</ele>
        <time>2021-07-07T09:31:34Z</time>
      </trkpt>
      <trkpt lat="43.57362" lon="2.62122">
        <ele>794.19</ele>
        <time>2021-07-07T09:31:36Z</time>
      </trkpt>
      <trkpt lat="43.57362" lon="2.62123">
        <ele>821.58</ele>
        <time>2021-07-07T09:31:37Z</time>
      </trkpt>
      <trkpt lat="43.57362" lon="2.62122">
        <ele>799.95</ele>
        <time>2021-07-07T09:31:38Z</time>
      </trkpt>
      <trkpt lat="43.57362" lon="2.62123">
        <ele>817.74</ele>
        <time>2021-07-07T09:31:39Z</time>
      </trkpt>
      <trkpt lat="43.57363" lon="2.62123">
        <ele>812.45</ele>
        <time>2021-07-07T09:31:40Z</time>
      </trkpt>
      <trkpt lat="43.57362" lon="2.62122">
        <ele>812.45</ele>
        <time>2021-07-07T09:31:55Z</time>
      </trkpt>
      <trkpt lat="43.57361" lon="2.62122">
        <ele>812.45</ele>
        <time>2021-07-07T09:32:13Z</time>
      </trkpt>
      <trkpt lat="43.57358" lon="2.62122">
        <ele>811.97</ele>
        <time>2021-07-07T09:32:25Z</time>
      </trkpt>
      <trkpt lat="43.57355" lon="2.62118">
        <ele>811.97</ele>
        <time>2021-07-07T09:32:36Z</time>
      </trkpt>
      <trkpt lat="43.57351" lon="2.62115">
        <ele>811.97</ele>
        <time>2021-07-07T09:32:53Z</time>
      </trkpt>
      <trkpt lat="43.57351" lon="2.62115">
        <ele>812.45</ele>
        <time>2021-07-07T09:33:11Z</time>
      </trkpt>
      <trkpt lat="43.57356" lon="2.6212">
        <ele>811.97</ele>
        <time>2021-07-07T09:33:25Z</time>
      </trkpt>
      <trkpt lat="43.57357" lon="2.62119">
        <ele>812.45</ele>
        <time>2021-07-07T09:33:37Z</time>
      </trkpt>
      <trkpt lat="43.57358" lon="2.62119">
        <ele>812.45</ele>
        <time>2021-07-07T09:33:50Z</time>
      </trkpt>
      <trkpt lat="43.57359" lon="2.6212">
        <ele>812.45</ele>
        <time>2021-07-07T09:34:01Z</time>
      </trkpt>
      <trkpt lat="43.57358" lon="2.62118">
        <ele>812.45</ele>
        <time>2021-07-07T09:34:09Z</time>
      </trkpt>
      <trkpt lat="43.57362" lon="2.62109">
        <ele>812.93</ele>
        <time>2021-07-07T09:34:14Z</time>
      </trkpt>
      <trkpt lat="43.57375" lon="2.62101">
        <ele>813.89</ele>
        <time>2021-07-07T09:34:25Z</time>
      </trkpt>
      <trkpt lat="43.57384" lon="2.62095">
        <ele>813.89</ele>
        <time>2021-07-07T09:34:35Z</time>
      </trkpt>
      <trkpt lat="43.57403" lon="2.6208">
        <ele>814.37</ele>
        <time>2021-07-07T09:34:48Z</time>
      </trkpt>
      <trkpt lat="43.57415" lon="2.6207">
        <ele>814.37</ele>
        <time>2021-07-07T09:34:56Z</time>
      </trkpt>
      <trkpt lat="43.57417" lon="2.62065">
        <ele>814.37</ele>
        <time>2021-07-07T09:34:59Z</time>
      </trkpt>
      <trkpt lat="43.57438" lon="2.6207">
        <ele>815.34</ele>
        <time>2021-07-07T09:35:11Z</time>
      </trkpt>
      <trkpt lat="43.57452" lon="2.62085">
        <ele>815.82</ele>
        <time>2021-07-07T09:35:22Z</time>
      </trkpt>
      <trkpt lat="43.57456" lon="2.62089">
        <ele>816.3</ele>
        <time>2021-07-07T09:35:36Z</time>
      </trkpt>
      <trkpt lat="43.57461" lon="2.62095">
        <ele>816.3</ele>
        <time>2021-07-07T09:35:49Z</time>
      </trkpt>
      <trkpt lat="43.57462" lon="2.621">
        <ele>816.78</ele>
        <time>2021-07-07T09:36:17Z</time>
      </trkpt>
      <trkpt lat="43.57461" lon="2.62099">
        <ele>816.78</ele>
        <time>2021-07-07T09:36:39Z</time>
      </trkpt>
      <trkpt lat="43.57447" lon="2.62092">
        <ele>816.3</ele>
        <time>2021-07-07T09:36:52Z</time>
      </trkpt>
      <trkpt lat="43.57441" lon="2.62085">
        <ele>816.3</ele>
        <time>2021-07-07T09:37:03Z</time>
      </trkpt>
      <trkpt lat="43.57441" lon="2.62088">
        <ele>816.3</ele>
        <time>2021-07-07T09:37:20Z</time>
      </trkpt>
      <trkpt lat="43.57441" lon="2.62087">
        <ele>816.3</ele>
        <time>2021-07-07T09:37:50Z</time>
      </trkpt>
      <trkpt lat="43.57445" lon="2.62089">
        <ele>816.78</ele>
        <time>2021-07-07T09:38:10Z</time>
      </trkpt>
      <trkpt lat="43.57454" lon="2.62091">
        <ele>816.78</ele>
        <time>2021-07-07T09:38:23Z</time>
      </trkpt>
      <trkpt lat="43.57458" lon="2.62091">
        <ele>817.26</ele>
        <time>2021-07-07T09:38:34Z</time>
      </trkpt>
      <trkpt lat="43.57462" lon="2.62087">
        <ele>817.74</ele>
        <time>2021-07-07T09:38:37Z</time>
      </trkpt>
      <trkpt lat="43.5748" lon="2.62077">
        <ele>818.7</ele>
        <time>2021-07-07T09:38:49Z</time>
      </trkpt>
      <trkpt lat="43.57502" lon="2.62077">
        <ele>818.7</ele>
        <time>2021-07-07T09:38:57Z</time>
      </trkpt>
      <trkpt lat="43.57519" lon="2.62091">
        <ele>818.7</ele>
        <time>2021-07-07T09:39:02Z</time>
      </trkpt>
      <trkpt lat="43.57535" lon="2.62119">
        <ele>820.14</ele>
        <time>2021-07-07T09:39:14Z</time>
      </trkpt>
      <trkpt lat="43.57559" lon="2.62126">
        <ele>820.62</ele>
        <time>2021-07-07T09:39:27Z</time>
      </trkpt>
      <trkpt lat="43.57587" lon="2.62135">
        <ele>821.58</ele>
        <time>2021-07-07T09:39:40Z</time>
      </trkpt>
      <trkpt lat="43.57618" lon="2.62165">
        <ele>823.03</ele>
        <time>2021-07-07T09:39:54Z</time>
      </trkpt>
      <trkpt lat="43.57638" lon="2.62196">
        <ele>824.95</ele>
        <time>2021-07-07T09:40:09Z</time>
      </trkpt>
      <trkpt lat="43.57657" lon="2.62214">
        <ele>825.91</ele>
        <time>2021-07-07T09:40:21Z</time>
      </trkpt>
      <trkpt lat="43.57659" lon="2.62214">
        <ele>825.91</ele>
        <time>2021-07-07T09:40:22Z</time>
      </trkpt>
      <trkpt lat="43.57666" lon="2.62216">
        <ele>826.39</ele>
        <time>2021-07-07T09:40:26Z</time>
      </trkpt>
      <trkpt lat="43.57674" lon="2.62217">
        <ele>826.87</ele>
        <time>2021-07-07T09:40:31Z</time>
      </trkpt>
      <trkpt lat="43.57703" lon="2.62194">
        <ele>828.31</ele>
        <time>2021-07-07T09:40:46Z</time>
      </trkpt>
      <trkpt lat="43.57721" lon="2.62162">
        <ele>828.79</ele>
        <time>2021-07-07T09:40:59Z</time>
      </trkpt>
      <trkpt lat="43.5774" lon="2.62128">
        <ele>829.76</ele>
        <time>2021-07-07T09:41:11Z</time>
      </trkpt>
      <trkpt lat="43.57747" lon="2.62089">
        <ele>830.72</ele>
        <time>2021-07-07T09:41:24Z</time>
      </trkpt>
      <trkpt lat="43.57748" lon="2.6208">
        <ele>831.68</ele>
        <time>2021-07-07T09:41:27Z</time>
      </trkpt>
      <trkpt lat="43.5775" lon="2.62063">
        <ele>832.64</ele>
        <time>2021-07-07T09:41:33Z</time>
      </trkpt>
      <trkpt lat="43.57761" lon="2.62024">
        <ele>833.12</ele>
        <time>2021-07-07T09:41:46Z</time>
      </trkpt>
      <trkpt lat="43.57775" lon="2.6198">
        <ele>835.04</ele>
        <time>2021-07-07T09:42:01Z</time>
      </trkpt>
      <trkpt lat="43.57787" lon="2.61956">
        <ele>835.04</ele>
        <time>2021-07-07T09:42:13Z</time>
      </trkpt>
      <trkpt lat="43.57819" lon="2.61942">
        <ele>833.12</ele>
        <time>2021-07-07T09:42:24Z</time>
      </trkpt>
      <trkpt lat="43.5785" lon="2.61922">
        <ele>832.16</ele>
        <time>2021-07-07T09:42:34Z</time>
      </trkpt>
      <trkpt lat="43.57884" lon="2.61874">
        <ele>831.2</ele>
        <time>2021-07-07T09:42:47Z</time>
      </trkpt>
      <trkpt lat="43.57908" lon="2.61829">
        <ele>829.76</ele>
        <time>2021-07-07T09:42:56Z</time>
      </trkpt>
      <trkpt lat="43.57923" lon="2.61787">
        <ele>828.79</ele>
        <time>2021-07-07T09:43:07Z</time>
      </trkpt>
      <trkpt lat="43.57921" lon="2.61786">
        <ele>835.52</ele>
        <time>2021-07-07T09:43:15Z</time>
      </trkpt>
      <trkpt lat="43.57921" lon="2.61786">
        <ele>829.27</ele>
        <time>2021-07-07T09:43:16Z</time>
      </trkpt>
      <trkpt lat="43.57922" lon="2.61785">
        <ele>828.79</ele>
        <time>2021-07-07T09:43:21Z</time>
      </trkpt>
      <trkpt lat="43.57923" lon="2.61783">
        <ele>828.31</ele>
        <time>2021-07-07T09:43:22Z</time>
      </trkpt>
      <trkpt lat="43.57923" lon="2.61782">
        <ele>828.79</ele>
        <time>2021-07-07T09:43:23Z</time>
      </trkpt>
      <trkpt lat="43.57924" lon="2.61779">
        <ele>828.31</ele>
        <time>2021-07-07T09:43:24Z</time>
      </trkpt>
      <trkpt lat="43.57924" lon="2.61775">
        <ele>828.31</ele>
        <time>2021-07-07T09:43:25Z</time>
      </trkpt>
      <trkpt lat="43.57925" lon="2.61772">
        <ele>827.83</ele>
        <time>2021-07-07T09:43:26Z</time>
      </trkpt>
      <trkpt lat="43.57926" lon="2.61769">
        <ele>826.87</ele>
        <time>2021-07-07T09:43:27Z</time>
      </trkpt>
      <trkpt lat="43.5793" lon="2.61743">
        <ele>826.39</ele>
        <time>2021-07-07T09:43:37Z</time>
      </trkpt>
      <trkpt lat="43.57931" lon="2.61719">
        <ele>826.39</ele>
        <time>2021-07-07T09:43:50Z</time>
      </trkpt>
      <trkpt lat="43.57936" lon="2.61691">
        <ele>830.72</ele>
        <time>2021-07-07T09:44:02Z</time>
      </trkpt>
      <trkpt lat="43.57935" lon="2.61681">
        <ele>827.35</ele>
        <time>2021-07-07T09:44:05Z</time>
      </trkpt>
      <trkpt lat="43.57935" lon="2.61678">
        <ele>827.35</ele>
        <time>2021-07-07T09:44:06Z</time>
      </trkpt>
      <trkpt lat="43.57938" lon="2.61662">
        <ele>827.35</ele>
        <time>2021-07-07T09:44:11Z</time>
      </trkpt>
      <trkpt lat="43.57942" lon="2.61621">
        <ele>824.47</ele>
        <time>2021-07-07T09:44:22Z</time>
      </trkpt>
      <trkpt lat="43.57941" lon="2.61615">
        <ele>824.47</ele>
        <time>2021-07-07T09:44:23Z</time>
      </trkpt>
      <trkpt lat="43.57934" lon="2.61564">
        <ele>820.62</ele>
        <time>2021-07-07T09:44:32Z</time>
      </trkpt>
      <trkpt lat="43.57923" lon="2.61533">
        <ele>818.22</ele>
        <time>2021-07-07T09:44:38Z</time>
      </trkpt>
      <trkpt lat="43.57917" lon="2.61513">
        <ele>815.34</ele>
        <time>2021-07-07T09:44:42Z</time>
      </trkpt>
      <trkpt lat="43.57911" lon="2.61491">
        <ele>811.97</ele>
        <time>2021-07-07T09:44:46Z</time>
      </trkpt>
      <trkpt lat="43.57912" lon="2.61473">
        <ele>810.05</ele>
        <time>2021-07-07T09:44:49Z</time>
      </trkpt>
      <trkpt lat="43.57914" lon="2.61467">
        <ele>809.57</ele>
        <time>2021-07-07T09:44:50Z</time>
      </trkpt>
      <trkpt lat="43.57916" lon="2.61461">
        <ele>808.61</ele>
        <time>2021-07-07T09:44:51Z</time>
      </trkpt>
      <trkpt lat="43.57919" lon="2.61441">
        <ele>807.64</ele>
        <time>2021-07-07T09:44:54Z</time>
      </trkpt>
      <trkpt lat="43.5792" lon="2.61434">
        <ele>807.64</ele>
        <time>2021-07-07T09:44:55Z</time>
      </trkpt>
      <trkpt lat="43.5791" lon="2.61409">
        <ele>807.64</ele>
        <time>2021-07-07T09:44:58Z</time>
      </trkpt>
      <trkpt lat="43.57899" lon="2.6139">
        <ele>800.92</ele>
        <time>2021-07-07T09:45:01Z</time>
      </trkpt>
      <trkpt lat="43.57895" lon="2.61385">
        <ele>810.05</ele>
        <time>2021-07-07T09:45:02Z</time>
      </trkpt>
      <trkpt lat="43.57891" lon="2.6138">
        <ele>823.51</ele>
        <time>2021-07-07T09:45:03Z</time>
      </trkpt>
      <trkpt lat="43.57887" lon="2.61375">
        <ele>808.61</ele>
        <time>2021-07-07T09:45:04Z</time>
      </trkpt>
      <trkpt lat="43.57872" lon="2.61353">
        <ele>806.68</ele>
        <time>2021-07-07T09:45:07Z</time>
      </trkpt>
      <trkpt lat="43.57848" lon="2.61323">
        <ele>804.28</ele>
        <time>2021-07-07T09:45:12Z</time>
      </trkpt>
      <trkpt lat="43.57843" lon="2.61318">
        <ele>803.32</ele>
        <time>2021-07-07T09:45:13Z</time>
      </trkpt>
      <trkpt lat="43.57829" lon="2.61301">
        <ele>801.88</ele>
        <time>2021-07-07T09:45:16Z</time>
      </trkpt>
      <trkpt lat="43.57825" lon="2.61296">
        <ele>800.92</ele>
        <time>2021-07-07T09:45:17Z</time>
      </trkpt>
      <trkpt lat="43.57803" lon="2.61265">
        <ele>797.55</ele>
        <time>2021-07-07T09:45:24Z</time>
      </trkpt>
      <trkpt lat="43.57801" lon="2.61261">
        <ele>797.55</ele>
        <time>2021-07-07T09:45:25Z</time>
      </trkpt>
      <trkpt lat="43.57792" lon="2.6124">
        <ele>794.67</ele>
        <time>2021-07-07T09:45:34Z</time>
      </trkpt>
      <trkpt lat="43.5779" lon="2.61238">
        <ele>793.71</ele>
        <time>2021-07-07T09:45:36Z</time>
      </trkpt>
      <trkpt lat="43.5779" lon="2.61236">
        <ele>793.71</ele>
        <time>2021-07-07T09:45:37Z</time>
      </trkpt>
      <trkpt lat="43.57788" lon="2.61234">
        <ele>792.74</ele>
        <time>2021-07-07T09:45:38Z</time>
      </trkpt>
      <trkpt lat="43.57765" lon="2.61204">
        <ele>790.34</ele>
        <time>2021-07-07T09:45:48Z</time>
      </trkpt>
      <trkpt lat="43.57763" lon="2.61201">
        <ele>770.15</ele>
        <time>2021-07-07T09:45:49Z</time>
      </trkpt>
      <trkpt lat="43.57761" lon="2.61199">
        <ele>775.44</ele>
        <time>2021-07-07T09:45:50Z</time>
      </trkpt>
      <trkpt lat="43.57759" lon="2.61197">
        <ele>790.82</ele>
        <time>2021-07-07T09:45:51Z</time>
      </trkpt>
      <trkpt lat="43.57758" lon="2.61195">
        <ele>790.34</ele>
        <time>2021-07-07T09:45:52Z</time>
      </trkpt>
      <trkpt lat="43.57744" lon="2.61167">
        <ele>789.38</ele>
        <time>2021-07-07T09:46:03Z</time>
      </trkpt>
      <trkpt lat="43.57743" lon="2.61164">
        <ele>766.31</ele>
        <time>2021-07-07T09:46:04Z</time>
      </trkpt>
      <trkpt lat="43.57743" lon="2.61161">
        <ele>793.22</ele>
        <time>2021-07-07T09:46:05Z</time>
      </trkpt>
      <trkpt lat="43.57741" lon="2.61157">
        <ele>788.42</ele>
        <time>2021-07-07T09:46:06Z</time>
      </trkpt>
      <trkpt lat="43.57737" lon="2.6115">
        <ele>792.74</ele>
        <time>2021-07-07T09:46:07Z</time>
      </trkpt>
      <trkpt lat="43.57735" lon="2.61147">
        <ele>787.46</ele>
        <time>2021-07-07T09:46:08Z</time>
      </trkpt>
      <trkpt lat="43.57733" lon="2.61145">
        <ele>787.46</ele>
        <time>2021-07-07T09:46:09Z</time>
      </trkpt>
      <trkpt lat="43.57727" lon="2.61137">
        <ele>750.93</ele>
        <time>2021-07-07T09:46:10Z</time>
      </trkpt>
      <trkpt lat="43.57722" lon="2.61128">
        <ele>791.3</ele>
        <time>2021-07-07T09:46:11Z</time>
      </trkpt>
      <trkpt lat="43.57718" lon="2.61119">
        <ele>786.98</ele>
        <time>2021-07-07T09:46:12Z</time>
      </trkpt>
      <trkpt lat="43.57715" lon="2.61112">
        <ele>786.5</ele>
        <time>2021-07-07T09:46:13Z</time>
      </trkpt>
      <trkpt lat="43.57712" lon="2.61105">
        <ele>786.98</ele>
        <time>2021-07-07T09:46:14Z</time>
      </trkpt>
      <trkpt lat="43.57709" lon="2.61099">
        <ele>786.98</ele>
        <time>2021-07-07T09:46:15Z</time>
      </trkpt>
      <trkpt lat="43.57706" lon="2.61093">
        <ele>791.78</ele>
        <time>2021-07-07T09:46:16Z</time>
      </trkpt>
      <trkpt lat="43.57704" lon="2.61087">
        <ele>787.46</ele>
        <time>2021-07-07T09:46:17Z</time>
      </trkpt>
      <trkpt lat="43.57699" lon="2.61061">
        <ele>787.94</ele>
        <time>2021-07-07T09:46:21Z</time>
      </trkpt>
      <trkpt lat="43.57697" lon="2.61054">
        <ele>787.46</ele>
        <time>2021-07-07T09:46:22Z</time>
      </trkpt>
      <trkpt lat="43.57695" lon="2.61044">
        <ele>787.94</ele>
        <time>2021-07-07T09:46:24Z</time>
      </trkpt>
      <trkpt lat="43.57695" lon="2.61039">
        <ele>788.42</ele>
        <time>2021-07-07T09:46:25Z</time>
      </trkpt>
      <trkpt lat="43.57695" lon="2.61034">
        <ele>787.94</ele>
        <time>2021-07-07T09:46:26Z</time>
      </trkpt>
      <trkpt lat="43.57695" lon="2.6103">
        <ele>788.42</ele>
        <time>2021-07-07T09:46:27Z</time>
      </trkpt>
      <trkpt lat="43.57694" lon="2.61025">
        <ele>788.42</ele>
        <time>2021-07-07T09:46:28Z</time>
      </trkpt>
      <trkpt lat="43.57688" lon="2.60984">
        <ele>791.3</ele>
        <time>2021-07-07T09:46:40Z</time>
      </trkpt>
      <trkpt lat="43.57681" lon="2.60944">
        <ele>793.71</ele>
        <time>2021-07-07T09:46:54Z</time>
      </trkpt>
      <trkpt lat="43.57672" lon="2.60908">
        <ele>796.11</ele>
        <time>2021-07-07T09:47:09Z</time>
      </trkpt>
      <trkpt lat="43.57669" lon="2.60878">
        <ele>797.55</ele>
        <time>2021-07-07T09:47:22Z</time>
      </trkpt>
      <trkpt lat="43.57662" lon="2.60849">
        <ele>799.47</ele>
        <time>2021-07-07T09:47:37Z</time>
      </trkpt>
      <trkpt lat="43.57657" lon="2.6084">
        <ele>800.44</ele>
        <time>2021-07-07T09:47:43Z</time>
      </trkpt>
      <trkpt lat="43.57651" lon="2.60833">
        <ele>801.4</ele>
        <time>2021-07-07T09:47:48Z</time>
      </trkpt>
      <trkpt lat="43.57637" lon="2.60814">
        <ele>804.28</ele>
        <time>2021-07-07T09:48:02Z</time>
      </trkpt>
      <trkpt lat="43.57633" lon="2.60809">
        <ele>804.28</ele>
        <time>2021-07-07T09:48:05Z</time>
      </trkpt>
      <trkpt lat="43.57626" lon="2.60803">
        <ele>804.28</ele>
        <time>2021-07-07T09:48:09Z</time>
      </trkpt>
      <trkpt lat="43.57621" lon="2.60796">
        <ele>805.72</ele>
        <time>2021-07-07T09:48:13Z</time>
      </trkpt>
      <trkpt lat="43.57619" lon="2.60794">
        <ele>805.24</ele>
        <time>2021-07-07T09:48:14Z</time>
      </trkpt>
      <trkpt lat="43.57606" lon="2.60771">
        <ele>806.2</ele>
        <time>2021-07-07T09:48:27Z</time>
      </trkpt>
      <trkpt lat="43.57604" lon="2.60766">
        <ele>806.2</ele>
        <time>2021-07-07T09:48:29Z</time>
      </trkpt>
      <trkpt lat="43.57603" lon="2.60765">
        <ele>806.68</ele>
        <time>2021-07-07T09:48:30Z</time>
      </trkpt>
      <trkpt lat="43.57602" lon="2.60762">
        <ele>806.68</ele>
        <time>2021-07-07T09:48:31Z</time>
      </trkpt>
      <trkpt lat="43.576" lon="2.60759">
        <ele>806.68</ele>
        <time>2021-07-07T09:48:32Z</time>
      </trkpt>
      <trkpt lat="43.57592" lon="2.60746">
        <ele>807.64</ele>
        <time>2021-07-07T09:48:37Z</time>
      </trkpt>
      <trkpt lat="43.57589" lon="2.60741">
        <ele>807.64</ele>
        <time>2021-07-07T09:48:39Z</time>
      </trkpt>
      <trkpt lat="43.57575" lon="2.60713">
        <ele>809.09</ele>
        <time>2021-07-07T09:48:53Z</time>
      </trkpt>
      <trkpt lat="43.57556" lon="2.60693">
        <ele>811.01</ele>
        <time>2021-07-07T09:49:07Z</time>
      </trkpt>
      <trkpt lat="43.57526" lon="2.6067">
        <ele>811.97</ele>
        <time>2021-07-07T09:49:19Z</time>
      </trkpt>
      <trkpt lat="43.57506" lon="2.60654">
        <ele>812.45</ele>
        <time>2021-07-07T09:49:29Z</time>
      </trkpt>
      <trkpt lat="43.57486" lon="2.60633">
        <ele>812.45</ele>
        <time>2021-07-07T09:49:40Z</time>
      </trkpt>
      <trkpt lat="43.5747" lon="2.60624">
        <ele>813.41</ele>
        <time>2021-07-07T09:49:46Z</time>
      </trkpt>
      <trkpt lat="43.57467" lon="2.60622">
        <ele>813.41</ele>
        <time>2021-07-07T09:49:47Z</time>
      </trkpt>
      <trkpt lat="43.57465" lon="2.60621">
        <ele>813.41</ele>
        <time>2021-07-07T09:49:48Z</time>
      </trkpt>
      <trkpt lat="43.57459" lon="2.60619">
        <ele>803.32</ele>
        <time>2021-07-07T09:49:52Z</time>
      </trkpt>
      <trkpt lat="43.57458" lon="2.60619">
        <ele>815.34</ele>
        <time>2021-07-07T09:49:53Z</time>
      </trkpt>
      <trkpt lat="43.57456" lon="2.60619">
        <ele>813.89</ele>
        <time>2021-07-07T09:49:54Z</time>
      </trkpt>
      <trkpt lat="43.57454" lon="2.60617">
        <ele>818.22</ele>
        <time>2021-07-07T09:50:01Z</time>
      </trkpt>
      <trkpt lat="43.57454" lon="2.60617">
        <ele>814.37</ele>
        <time>2021-07-07T09:50:02Z</time>
      </trkpt>
      <trkpt lat="43.57453" lon="2.60617">
        <ele>807.16</ele>
        <time>2021-07-07T09:50:08Z</time>
      </trkpt>
      <trkpt lat="43.57453" lon="2.60617">
        <ele>813.89</ele>
        <time>2021-07-07T09:50:09Z</time>
      </trkpt>
      <trkpt lat="43.57453" lon="2.60613">
        <ele>813.41</ele>
        <time>2021-07-07T09:50:13Z</time>
      </trkpt>
      <trkpt lat="43.57454" lon="2.60611">
        <ele>812.93</ele>
        <time>2021-07-07T09:50:14Z</time>
      </trkpt>
      <trkpt lat="43.57454" lon="2.60608">
        <ele>812.45</ele>
        <time>2021-07-07T09:50:15Z</time>
      </trkpt>
      <trkpt lat="43.57454" lon="2.60605">
        <ele>811.97</ele>
        <time>2021-07-07T09:50:16Z</time>
      </trkpt>
      <trkpt lat="43.57453" lon="2.60601">
        <ele>811.49</ele>
        <time>2021-07-07T09:50:17Z</time>
      </trkpt>
      <trkpt lat="43.57452" lon="2.60596">
        <ele>811.49</ele>
        <time>2021-07-07T09:50:18Z</time>
      </trkpt>
      <trkpt lat="43.57451" lon="2.60591">
        <ele>811.49</ele>
        <time>2021-07-07T09:50:19Z</time>
      </trkpt>
      <trkpt lat="43.57447" lon="2.60568">
        <ele>791.78</ele>
        <time>2021-07-07T09:50:24Z</time>
      </trkpt>
      <trkpt lat="43.57447" lon="2.60563">
        <ele>782.65</ele>
        <time>2021-07-07T09:50:25Z</time>
      </trkpt>
      <trkpt lat="43.57447" lon="2.60558">
        <ele>818.22</ele>
        <time>2021-07-07T09:50:26Z</time>
      </trkpt>
      <trkpt lat="43.57447" lon="2.60554">
        <ele>811.49</ele>
        <time>2021-07-07T09:50:27Z</time>
      </trkpt>
      <trkpt lat="43.57448" lon="2.6055">
        <ele>805.72</ele>
        <time>2021-07-07T09:50:28Z</time>
      </trkpt>
      <trkpt lat="43.57448" lon="2.60545">
        <ele>820.14</ele>
        <time>2021-07-07T09:50:29Z</time>
      </trkpt>
      <trkpt lat="43.57448" lon="2.60539">
        <ele>810.53</ele>
        <time>2021-07-07T09:50:30Z</time>
      </trkpt>
      <trkpt lat="43.57451" lon="2.60519">
        <ele>808.13</ele>
        <time>2021-07-07T09:50:33Z</time>
      </trkpt>
      <trkpt lat="43.57454" lon="2.60512">
        <ele>808.13</ele>
        <time>2021-07-07T09:50:34Z</time>
      </trkpt>
      <trkpt lat="43.57458" lon="2.60506">
        <ele>808.13</ele>
        <time>2021-07-07T09:50:35Z</time>
      </trkpt>
      <trkpt lat="43.57462" lon="2.60502">
        <ele>807.16</ele>
        <time>2021-07-07T09:50:36Z</time>
      </trkpt>
      <trkpt lat="43.57467" lon="2.605">
        <ele>807.16</ele>
        <time>2021-07-07T09:50:37Z</time>
      </trkpt>
      <trkpt lat="43.57472" lon="2.605">
        <ele>806.68</ele>
        <time>2021-07-07T09:50:38Z</time>
      </trkpt>
      <trkpt lat="43.57479" lon="2.60501">
        <ele>806.68</ele>
        <time>2021-07-07T09:50:39Z</time>
      </trkpt>
      <trkpt lat="43.57495" lon="2.60507">
        <ele>807.16</ele>
        <time>2021-07-07T09:50:42Z</time>
      </trkpt>
      <trkpt lat="43.575" lon="2.60508">
        <ele>807.64</ele>
        <time>2021-07-07T09:50:43Z</time>
      </trkpt>
      <trkpt lat="43.57505" lon="2.60507">
        <ele>807.64</ele>
        <time>2021-07-07T09:50:44Z</time>
      </trkpt>
      <trkpt lat="43.5751" lon="2.60506">
        <ele>808.13</ele>
        <time>2021-07-07T09:50:45Z</time>
      </trkpt>
      <trkpt lat="43.57513" lon="2.60504">
        <ele>808.61</ele>
        <time>2021-07-07T09:50:46Z</time>
      </trkpt>
      <trkpt lat="43.57518" lon="2.605">
        <ele>809.09</ele>
        <time>2021-07-07T09:50:48Z</time>
      </trkpt>
      <trkpt lat="43.57522" lon="2.60497">
        <ele>809.57</ele>
        <time>2021-07-07T09:50:50Z</time>
      </trkpt>
      <trkpt lat="43.57523" lon="2.60496">
        <ele>810.05</ele>
        <time>2021-07-07T09:50:51Z</time>
      </trkpt>
      <trkpt lat="43.57524" lon="2.60494">
        <ele>810.53</ele>
        <time>2021-07-07T09:50:52Z</time>
      </trkpt>
      <trkpt lat="43.57526" lon="2.60493">
        <ele>811.01</ele>
        <time>2021-07-07T09:50:53Z</time>
      </trkpt>
      <trkpt lat="43.57528" lon="2.60492">
        <ele>811.01</ele>
        <time>2021-07-07T09:50:54Z</time>
      </trkpt>
      <trkpt lat="43.57531" lon="2.6049">
        <ele>811.49</ele>
        <time>2021-07-07T09:50:55Z</time>
      </trkpt>
      <trkpt lat="43.57533" lon="2.60488">
        <ele>811.97</ele>
        <time>2021-07-07T09:50:56Z</time>
      </trkpt>
      <trkpt lat="43.57534" lon="2.60486">
        <ele>811.49</ele>
        <time>2021-07-07T09:50:57Z</time>
      </trkpt>
      <trkpt lat="43.57536" lon="2.60485">
        <ele>812.45</ele>
        <time>2021-07-07T09:50:58Z</time>
      </trkpt>
      <trkpt lat="43.57537" lon="2.60483">
        <ele>812.45</ele>
        <time>2021-07-07T09:50:59Z</time>
      </trkpt>
      <trkpt lat="43.57539" lon="2.6048">
        <ele>813.41</ele>
        <time>2021-07-07T09:51:01Z</time>
      </trkpt>
      <trkpt lat="43.5754" lon="2.60477">
        <ele>813.41</ele>
        <time>2021-07-07T09:51:02Z</time>
      </trkpt>
      <trkpt lat="43.57541" lon="2.60475">
        <ele>813.41</ele>
        <time>2021-07-07T09:51:03Z</time>
      </trkpt>
      <trkpt lat="43.57542" lon="2.60473">
        <ele>813.89</ele>
        <time>2021-07-07T09:51:04Z</time>
      </trkpt>
      <trkpt lat="43.57543" lon="2.6047">
        <ele>813.41</ele>
        <time>2021-07-07T09:51:05Z</time>
      </trkpt>
      <trkpt lat="43.57544" lon="2.60468">
        <ele>814.37</ele>
        <time>2021-07-07T09:51:06Z</time>
      </trkpt>
      <trkpt lat="43.57546" lon="2.60466">
        <ele>813.41</ele>
        <time>2021-07-07T09:51:07Z</time>
      </trkpt>
      <trkpt lat="43.57548" lon="2.60463">
        <ele>814.37</ele>
        <time>2021-07-07T09:51:08Z</time>
      </trkpt>
      <trkpt lat="43.5755" lon="2.60461">
        <ele>814.85</ele>
        <time>2021-07-07T09:51:09Z</time>
      </trkpt>
      <trkpt lat="43.57552" lon="2.60459">
        <ele>814.85</ele>
        <time>2021-07-07T09:51:10Z</time>
      </trkpt>
      <trkpt lat="43.57568" lon="2.60422">
        <ele>813.89</ele>
        <time>2021-07-07T09:51:20Z</time>
      </trkpt>
      <trkpt lat="43.57569" lon="2.60418">
        <ele>814.37</ele>
        <time>2021-07-07T09:51:21Z</time>
      </trkpt>
      <trkpt lat="43.57566" lon="2.60374">
        <ele>812.93</ele>
        <time>2021-07-07T09:51:30Z</time>
      </trkpt>
      <trkpt lat="43.57563" lon="2.60369">
        <ele>811.49</ele>
        <time>2021-07-07T09:51:31Z</time>
      </trkpt>
      <trkpt lat="43.5756" lon="2.60363">
        <ele>811.97</ele>
        <time>2021-07-07T09:51:32Z</time>
      </trkpt>
      <trkpt lat="43.57545" lon="2.60341">
        <ele>809.09</ele>
        <time>2021-07-07T09:51:36Z</time>
      </trkpt>
      <trkpt lat="43.57543" lon="2.60335">
        <ele>810.05</ele>
        <time>2021-07-07T09:51:37Z</time>
      </trkpt>
      <trkpt lat="43.57541" lon="2.60327">
        <ele>808.13</ele>
        <time>2021-07-07T09:51:38Z</time>
      </trkpt>
      <trkpt lat="43.5754" lon="2.60319">
        <ele>808.13</ele>
        <time>2021-07-07T09:51:39Z</time>
      </trkpt>
      <trkpt lat="43.57539" lon="2.60312">
        <ele>807.64</ele>
        <time>2021-07-07T09:51:40Z</time>
      </trkpt>
      <trkpt lat="43.57541" lon="2.60305">
        <ele>807.16</ele>
        <time>2021-07-07T09:51:41Z</time>
      </trkpt>
      <trkpt lat="43.57543" lon="2.60298">
        <ele>807.16</ele>
        <time>2021-07-07T09:51:42Z</time>
      </trkpt>
      <trkpt lat="43.57546" lon="2.60292">
        <ele>806.68</ele>
        <time>2021-07-07T09:51:43Z</time>
      </trkpt>
      <trkpt lat="43.57549" lon="2.60288">
        <ele>807.16</ele>
        <time>2021-07-07T09:51:44Z</time>
      </trkpt>
      <trkpt lat="43.5756" lon="2.60278">
        <ele>806.68</ele>
        <time>2021-07-07T09:51:47Z</time>
      </trkpt>
      <trkpt lat="43.57563" lon="2.60273">
        <ele>806.2</ele>
        <time>2021-07-07T09:51:48Z</time>
      </trkpt>
      <trkpt lat="43.5757" lon="2.60263">
        <ele>805.72</ele>
        <time>2021-07-07T09:51:50Z</time>
      </trkpt>
      <trkpt lat="43.57574" lon="2.6026">
        <ele>805.72</ele>
        <time>2021-07-07T09:51:51Z</time>
      </trkpt>
      <trkpt lat="43.57579" lon="2.60258">
        <ele>805.24</ele>
        <time>2021-07-07T09:51:52Z</time>
      </trkpt>
      <trkpt lat="43.57625" lon="2.60264">
        <ele>807.16</ele>
        <time>2021-07-07T09:52:01Z</time>
      </trkpt>
      <trkpt lat="43.57629" lon="2.60267">
        <ele>807.16</ele>
        <time>2021-07-07T09:52:02Z</time>
      </trkpt>
      <trkpt lat="43.57672" lon="2.60309">
        <ele>807.64</ele>
        <time>2021-07-07T09:52:16Z</time>
      </trkpt>
      <trkpt lat="43.57679" lon="2.60315">
        <ele>807.16</ele>
        <time>2021-07-07T09:52:19Z</time>
      </trkpt>
      <trkpt lat="43.57682" lon="2.60318">
        <ele>806.2</ele>
        <time>2021-07-07T09:52:20Z</time>
      </trkpt>
      <trkpt lat="43.57685" lon="2.60318">
        <ele>805.24</ele>
        <time>2021-07-07T09:52:21Z</time>
      </trkpt>
      <trkpt lat="43.5769" lon="2.60317">
        <ele>804.76</ele>
        <time>2021-07-07T09:52:22Z</time>
      </trkpt>
      <trkpt lat="43.57694" lon="2.60314">
        <ele>804.28</ele>
        <time>2021-07-07T09:52:23Z</time>
      </trkpt>
      <trkpt lat="43.57754" lon="2.60301">
        <ele>802.36</ele>
        <time>2021-07-07T09:52:35Z</time>
      </trkpt>
      <trkpt lat="43.57769" lon="2.60309">
        <ele>802.36</ele>
        <time>2021-07-07T09:52:38Z</time>
      </trkpt>
      <trkpt lat="43.5778" lon="2.60315">
        <ele>813.41</ele>
        <time>2021-07-07T09:52:40Z</time>
      </trkpt>
      <trkpt lat="43.57785" lon="2.60317">
        <ele>812.93</ele>
        <time>2021-07-07T09:52:41Z</time>
      </trkpt>
      <trkpt lat="43.57789" lon="2.60318">
        <ele>806.68</ele>
        <time>2021-07-07T09:52:42Z</time>
      </trkpt>
      <trkpt lat="43.57793" lon="2.6032">
        <ele>814.37</ele>
        <time>2021-07-07T09:52:43Z</time>
      </trkpt>
      <trkpt lat="43.57797" lon="2.60321">
        <ele>802.36</ele>
        <time>2021-07-07T09:52:44Z</time>
      </trkpt>
      <trkpt lat="43.57801" lon="2.60322">
        <ele>802.36</ele>
        <time>2021-07-07T09:52:45Z</time>
      </trkpt>
      <trkpt lat="43.57804" lon="2.60323">
        <ele>812.45</ele>
        <time>2021-07-07T09:52:46Z</time>
      </trkpt>
      <trkpt lat="43.5781" lon="2.60322">
        <ele>819.18</ele>
        <time>2021-07-07T09:52:48Z</time>
      </trkpt>
      <trkpt lat="43.57812" lon="2.60321">
        <ele>803.8</ele>
        <time>2021-07-07T09:52:49Z</time>
      </trkpt>
      <trkpt lat="43.57814" lon="2.6032">
        <ele>794.19</ele>
        <time>2021-07-07T09:52:50Z</time>
      </trkpt>
      <trkpt lat="43.57816" lon="2.60319">
        <ele>814.85</ele>
        <time>2021-07-07T09:52:51Z</time>
      </trkpt>
      <trkpt lat="43.57818" lon="2.60317">
        <ele>803.32</ele>
        <time>2021-07-07T09:52:52Z</time>
      </trkpt>
      <trkpt lat="43.57831" lon="2.60296">
        <ele>802.36</ele>
        <time>2021-07-07T09:53:00Z</time>
      </trkpt>
      <trkpt lat="43.57833" lon="2.60295">
        <ele>801.88</ele>
        <time>2021-07-07T09:53:01Z</time>
      </trkpt>
      <trkpt lat="43.57836" lon="2.60295">
        <ele>802.36</ele>
        <time>2021-07-07T09:53:02Z</time>
      </trkpt>
      <trkpt lat="43.57838" lon="2.60295">
        <ele>802.36</ele>
        <time>2021-07-07T09:53:03Z</time>
      </trkpt>
      <trkpt lat="43.57842" lon="2.60295">
        <ele>802.84</ele>
        <time>2021-07-07T09:53:04Z</time>
      </trkpt>
      <trkpt lat="43.57846" lon="2.60296">
        <ele>802.84</ele>
        <time>2021-07-07T09:53:05Z</time>
      </trkpt>
      <trkpt lat="43.5785" lon="2.60296">
        <ele>802.84</ele>
        <time>2021-07-07T09:53:06Z</time>
      </trkpt>
      <trkpt lat="43.57892" lon="2.60312">
        <ele>805.24</ele>
        <time>2021-07-07T09:53:18Z</time>
      </trkpt>
      <trkpt lat="43.57895" lon="2.60315">
        <ele>805.72</ele>
        <time>2021-07-07T09:53:19Z</time>
      </trkpt>
      <trkpt lat="43.57897" lon="2.60317">
        <ele>805.72</ele>
        <time>2021-07-07T09:53:20Z</time>
      </trkpt>
      <trkpt lat="43.57899" lon="2.60321">
        <ele>805.72</ele>
        <time>2021-07-07T09:53:21Z</time>
      </trkpt>
      <trkpt lat="43.57902" lon="2.60323">
        <ele>806.2</ele>
        <time>2021-07-07T09:53:22Z</time>
      </trkpt>
      <trkpt lat="43.57904" lon="2.60326">
        <ele>806.2</ele>
        <time>2021-07-07T09:53:23Z</time>
      </trkpt>
      <trkpt lat="43.57906" lon="2.60329">
        <ele>806.68</ele>
        <time>2021-07-07T09:53:24Z</time>
      </trkpt>
      <trkpt lat="43.57908" lon="2.60332">
        <ele>807.16</ele>
        <time>2021-07-07T09:53:25Z</time>
      </trkpt>
      <trkpt lat="43.5791" lon="2.60335">
        <ele>807.16</ele>
        <time>2021-07-07T09:53:26Z</time>
      </trkpt>
      <trkpt lat="43.57913" lon="2.60343">
        <ele>809.09</ele>
        <time>2021-07-07T09:53:38Z</time>
      </trkpt>
      <trkpt lat="43.57913" lon="2.60343">
        <ele>812.45</ele>
        <time>2021-07-07T09:53:39Z</time>
      </trkpt>
      <trkpt lat="43.57913" lon="2.60343">
        <ele>808.13</ele>
        <time>2021-07-07T09:53:40Z</time>
      </trkpt>
      <trkpt lat="43.57914" lon="2.60342">
        <ele>807.64</ele>
        <time>2021-07-07T09:53:47Z</time>
      </trkpt>
      <trkpt lat="43.5791" lon="2.60339">
        <ele>806.68</ele>
        <time>2021-07-07T09:53:51Z</time>
      </trkpt>
      <trkpt lat="43.57909" lon="2.60335">
        <ele>806.68</ele>
        <time>2021-07-07T09:53:56Z</time>
      </trkpt>
      <trkpt lat="43.57916" lon="2.60346">
        <ele>807.16</ele>
        <time>2021-07-07T09:54:02Z</time>
      </trkpt>
      <trkpt lat="43.57932" lon="2.60361">
        <ele>810.05</ele>
        <time>2021-07-07T09:54:15Z</time>
      </trkpt>
      <trkpt lat="43.57945" lon="2.6036">
        <ele>811.01</ele>
        <time>2021-07-07T09:54:23Z</time>
      </trkpt>
      <trkpt lat="43.57951" lon="2.6036">
        <ele>811.49</ele>
        <time>2021-07-07T09:54:27Z</time>
      </trkpt>
      <trkpt lat="43.57955" lon="2.60358">
        <ele>811.97</ele>
        <time>2021-07-07T09:54:31Z</time>
      </trkpt>
      <trkpt lat="43.57958" lon="2.60357">
        <ele>812.45</ele>
        <time>2021-07-07T09:54:33Z</time>
      </trkpt>
      <trkpt lat="43.57979" lon="2.6035">
        <ele>814.85</ele>
        <time>2021-07-07T09:54:49Z</time>
      </trkpt>
      <trkpt lat="43.57996" lon="2.6034">
        <ele>816.78</ele>
        <time>2021-07-07T09:55:02Z</time>
      </trkpt>
      <trkpt lat="43.58004" lon="2.60336">
        <ele>816.78</ele>
        <time>2021-07-07T09:55:07Z</time>
      </trkpt>
      <trkpt lat="43.58024" lon="2.6032">
        <ele>817.26</ele>
        <time>2021-07-07T09:55:19Z</time>
      </trkpt>
      <trkpt lat="43.58041" lon="2.60297">
        <ele>817.74</ele>
        <time>2021-07-07T09:55:31Z</time>
      </trkpt>
      <trkpt lat="43.58066" lon="2.60278">
        <ele>815.82</ele>
        <time>2021-07-07T09:55:44Z</time>
      </trkpt>
      <trkpt lat="43.58068" lon="2.60276">
        <ele>816.3</ele>
        <time>2021-07-07T09:55:45Z</time>
      </trkpt>
      <trkpt lat="43.58073" lon="2.60272">
        <ele>815.34</ele>
        <time>2021-07-07T09:55:48Z</time>
      </trkpt>
      <trkpt lat="43.58087" lon="2.60262">
        <ele>813.41</ele>
        <time>2021-07-07T09:55:53Z</time>
      </trkpt>
      <trkpt lat="43.58095" lon="2.60256">
        <ele>813.41</ele>
        <time>2021-07-07T09:55:56Z</time>
      </trkpt>
      <trkpt lat="43.58102" lon="2.6025">
        <ele>811.49</ele>
        <time>2021-07-07T09:55:59Z</time>
      </trkpt>
      <trkpt lat="43.58111" lon="2.60239">
        <ele>809.57</ele>
        <time>2021-07-07T09:56:05Z</time>
      </trkpt>
      <trkpt lat="43.5812" lon="2.60226">
        <ele>806.68</ele>
        <time>2021-07-07T09:56:16Z</time>
      </trkpt>
      <trkpt lat="43.5813" lon="2.60218">
        <ele>805.24</ele>
        <time>2021-07-07T09:56:20Z</time>
      </trkpt>
      <trkpt lat="43.58147" lon="2.60191">
        <ele>801.88</ele>
        <time>2021-07-07T09:56:29Z</time>
      </trkpt>
      <trkpt lat="43.58154" lon="2.60178">
        <ele>799.47</ele>
        <time>2021-07-07T09:56:33Z</time>
      </trkpt>
      <trkpt lat="43.58162" lon="2.60163">
        <ele>798.03</ele>
        <time>2021-07-07T09:56:37Z</time>
      </trkpt>
      <trkpt lat="43.58181" lon="2.60134">
        <ele>797.07</ele>
        <time>2021-07-07T09:56:47Z</time>
      </trkpt>
      <trkpt lat="43.58211" lon="2.6013">
        <ele>794.67</ele>
        <time>2021-07-07T09:56:58Z</time>
      </trkpt>
      <trkpt lat="43.58215" lon="2.6013">
        <ele>794.19</ele>
        <time>2021-07-07T09:56:59Z</time>
      </trkpt>
      <trkpt lat="43.58244" lon="2.60134">
        <ele>791.3</ele>
        <time>2021-07-07T09:57:09Z</time>
      </trkpt>
      <trkpt lat="43.58262" lon="2.6014">
        <ele>789.38</ele>
        <time>2021-07-07T09:57:15Z</time>
      </trkpt>
      <trkpt lat="43.58286" lon="2.60147">
        <ele>786.02</ele>
        <time>2021-07-07T09:57:23Z</time>
      </trkpt>
      <trkpt lat="43.58299" lon="2.60148">
        <ele>782.65</ele>
        <time>2021-07-07T09:57:27Z</time>
      </trkpt>
      <trkpt lat="43.58304" lon="2.60148">
        <ele>783.13</ele>
        <time>2021-07-07T09:57:28Z</time>
      </trkpt>
      <trkpt lat="43.58309" lon="2.60147">
        <ele>782.17</ele>
        <time>2021-07-07T09:57:29Z</time>
      </trkpt>
      <trkpt lat="43.5834" lon="2.60136">
        <ele>778.32</ele>
        <time>2021-07-07T09:57:36Z</time>
      </trkpt>
      <trkpt lat="43.58345" lon="2.60131">
        <ele>776.88</ele>
        <time>2021-07-07T09:57:37Z</time>
      </trkpt>
      <trkpt lat="43.58349" lon="2.60127">
        <ele>776.88</ele>
        <time>2021-07-07T09:57:38Z</time>
      </trkpt>
      <trkpt lat="43.58365" lon="2.60113">
        <ele>774.96</ele>
        <time>2021-07-07T09:57:42Z</time>
      </trkpt>
      <trkpt lat="43.5837" lon="2.6011">
        <ele>774.48</ele>
        <time>2021-07-07T09:57:43Z</time>
      </trkpt>
      <trkpt lat="43.58375" lon="2.60107">
        <ele>774</ele>
        <time>2021-07-07T09:57:44Z</time>
      </trkpt>
      <trkpt lat="43.58407" lon="2.60095">
        <ele>770.63</ele>
        <time>2021-07-07T09:57:52Z</time>
      </trkpt>
      <trkpt lat="43.58449" lon="2.60083">
        <ele>767.75</ele>
        <time>2021-07-07T09:58:03Z</time>
      </trkpt>
      <trkpt lat="43.58459" lon="2.60084">
        <ele>767.27</ele>
        <time>2021-07-07T09:58:05Z</time>
      </trkpt>
      <trkpt lat="43.58464" lon="2.60085">
        <ele>767.27</ele>
        <time>2021-07-07T09:58:06Z</time>
      </trkpt>
      <trkpt lat="43.58489" lon="2.60087">
        <ele>744.2</ele>
        <time>2021-07-07T09:58:15Z</time>
      </trkpt>
      <trkpt lat="43.5849" lon="2.60088">
        <ele>772.56</ele>
        <time>2021-07-07T09:58:16Z</time>
      </trkpt>
      <trkpt lat="43.5849" lon="2.6009">
        <ele>768.23</ele>
        <time>2021-07-07T09:58:18Z</time>
      </trkpt>
      <trkpt lat="43.58491" lon="2.6009">
        <ele>764.39</ele>
        <time>2021-07-07T09:58:21Z</time>
      </trkpt>
      <trkpt lat="43.58492" lon="2.6009">
        <ele>767.75</ele>
        <time>2021-07-07T09:58:22Z</time>
      </trkpt>
      <trkpt lat="43.58492" lon="2.60091">
        <ele>750.93</ele>
        <time>2021-07-07T09:58:25Z</time>
      </trkpt>
      <trkpt lat="43.58493" lon="2.60091">
        <ele>768.23</ele>
        <time>2021-07-07T09:58:26Z</time>
      </trkpt>
      <trkpt lat="43.58493" lon="2.60091">
        <ele>776.4</ele>
        <time>2021-07-07T09:58:27Z</time>
      </trkpt>
      <trkpt lat="43.58493" lon="2.60091">
        <ele>749.97</ele>
        <time>2021-07-07T09:58:28Z</time>
      </trkpt>
      <trkpt lat="43.58493" lon="2.60091">
        <ele>776.4</ele>
        <time>2021-07-07T09:58:29Z</time>
      </trkpt>
      <trkpt lat="43.58493" lon="2.60091">
        <ele>766.79</ele>
        <time>2021-07-07T09:58:30Z</time>
      </trkpt>
      <trkpt lat="43.58494" lon="2.60091">
        <ele>750.93</ele>
        <time>2021-07-07T09:58:32Z</time>
      </trkpt>
      <trkpt lat="43.58494" lon="2.60091">
        <ele>772.56</ele>
        <time>2021-07-07T09:58:33Z</time>
      </trkpt>
      <trkpt lat="43.58494" lon="2.60091">
        <ele>769.67</ele>
        <time>2021-07-07T09:58:34Z</time>
      </trkpt>
      <trkpt lat="43.58494" lon="2.60091">
        <ele>764.39</ele>
        <time>2021-07-07T09:58:35Z</time>
      </trkpt>
      <trkpt lat="43.58495" lon="2.60091">
        <ele>771.11</ele>
        <time>2021-07-07T09:58:36Z</time>
      </trkpt>
      <trkpt lat="43.58495" lon="2.60092">
        <ele>760.54</ele>
        <time>2021-07-07T09:58:37Z</time>
      </trkpt>
      <trkpt lat="43.58495" lon="2.60092">
        <ele>771.11</ele>
        <time>2021-07-07T09:58:38Z</time>
      </trkpt>
      <trkpt lat="43.58495" lon="2.60092">
        <ele>767.75</ele>
        <time>2021-07-07T09:58:39Z</time>
      </trkpt>
      <trkpt lat="43.58496" lon="2.60091">
        <ele>762.46</ele>
        <time>2021-07-07T09:58:43Z</time>
      </trkpt>
      <trkpt lat="43.58496" lon="2.60091">
        <ele>796.11</ele>
        <time>2021-07-07T09:58:44Z</time>
      </trkpt>
      <trkpt lat="43.58496" lon="2.60091">
        <ele>768.71</ele>
        <time>2021-07-07T09:58:45Z</time>
      </trkpt>
      <trkpt lat="43.58497" lon="2.60091">
        <ele>766.79</ele>
        <time>2021-07-07T09:58:47Z</time>
      </trkpt>
      <trkpt lat="43.58498" lon="2.6009">
        <ele>766.79</ele>
        <time>2021-07-07T09:58:49Z</time>
      </trkpt>
      <trkpt lat="43.585" lon="2.60091">
        <ele>765.83</ele>
        <time>2021-07-07T09:58:50Z</time>
      </trkpt>
      <trkpt lat="43.58501" lon="2.60091">
        <ele>764.87</ele>
        <time>2021-07-07T09:58:51Z</time>
      </trkpt>
      <trkpt lat="43.58503" lon="2.60091">
        <ele>764.39</ele>
        <time>2021-07-07T09:58:52Z</time>
      </trkpt>
      <trkpt lat="43.58505" lon="2.60091">
        <ele>763.42</ele>
        <time>2021-07-07T09:58:53Z</time>
      </trkpt>
      <trkpt lat="43.58508" lon="2.60091">
        <ele>763.42</ele>
        <time>2021-07-07T09:58:54Z</time>
      </trkpt>
      <trkpt lat="43.58521" lon="2.60085">
        <ele>759.58</ele>
        <time>2021-07-07T09:58:59Z</time>
      </trkpt>
      <trkpt lat="43.58536" lon="2.60078">
        <ele>755.25</ele>
        <time>2021-07-07T09:59:04Z</time>
      </trkpt>
      <trkpt lat="43.58544" lon="2.60071">
        <ele>752.85</ele>
        <time>2021-07-07T09:59:07Z</time>
      </trkpt>
      <trkpt lat="43.58546" lon="2.60067">
        <ele>751.41</ele>
        <time>2021-07-07T09:59:08Z</time>
      </trkpt>
      <trkpt lat="43.58548" lon="2.60063">
        <ele>751.41</ele>
        <time>2021-07-07T09:59:09Z</time>
      </trkpt>
      <trkpt lat="43.58555" lon="2.60049">
        <ele>748.04</ele>
        <time>2021-07-07T09:59:12Z</time>
      </trkpt>
      <trkpt lat="43.5856" lon="2.60044">
        <ele>746.6</ele>
        <time>2021-07-07T09:59:14Z</time>
      </trkpt>
      <trkpt lat="43.58574" lon="2.60028">
        <ele>743.24</ele>
        <time>2021-07-07T09:59:19Z</time>
      </trkpt>
      <trkpt lat="43.58584" lon="2.60014">
        <ele>739.39</ele>
        <time>2021-07-07T09:59:22Z</time>
      </trkpt>
      <trkpt lat="43.58598" lon="2.59999">
        <ele>736.99</ele>
        <time>2021-07-07T09:59:25Z</time>
      </trkpt>
      <trkpt lat="43.58609" lon="2.59984">
        <ele>733.62</ele>
        <time>2021-07-07T09:59:29Z</time>
      </trkpt>
      <trkpt lat="43.58637" lon="2.59956">
        <ele>731.22</ele>
        <time>2021-07-07T09:59:34Z</time>
      </trkpt>
      <trkpt lat="43.58642" lon="2.59949">
        <ele>729.3</ele>
        <time>2021-07-07T09:59:35Z</time>
      </trkpt>
      <trkpt lat="43.58643" lon="2.59944">
        <ele>728.82</ele>
        <time>2021-07-07T09:59:36Z</time>
      </trkpt>
      <trkpt lat="43.58654" lon="2.59924">
        <ele>725.45</ele>
        <time>2021-07-07T09:59:39Z</time>
      </trkpt>
      <trkpt lat="43.58661" lon="2.59898">
        <ele>723.05</ele>
        <time>2021-07-07T09:59:44Z</time>
      </trkpt>
      <trkpt lat="43.58667" lon="2.59892">
        <ele>722.09</ele>
        <time>2021-07-07T09:59:46Z</time>
      </trkpt>
      <trkpt lat="43.58678" lon="2.59877">
        <ele>718.24</ele>
        <time>2021-07-07T09:59:50Z</time>
      </trkpt>
      <trkpt lat="43.58686" lon="2.59862">
        <ele>717.28</ele>
        <time>2021-07-07T09:59:53Z</time>
      </trkpt>
      <trkpt lat="43.58695" lon="2.59844">
        <ele>714.88</ele>
        <time>2021-07-07T09:59:57Z</time>
      </trkpt>
      <trkpt lat="43.58705" lon="2.59821">
        <ele>711.51</ele>
        <time>2021-07-07T10:00:03Z</time>
      </trkpt>
      <trkpt lat="43.58713" lon="2.59809">
        <ele>709.11</ele>
        <time>2021-07-07T10:00:07Z</time>
      </trkpt>
      <trkpt lat="43.58717" lon="2.59803">
        <ele>708.15</ele>
        <time>2021-07-07T10:00:09Z</time>
      </trkpt>
      <trkpt lat="43.58726" lon="2.59792">
        <ele>705.26</ele>
        <time>2021-07-07T10:00:13Z</time>
      </trkpt>
      <trkpt lat="43.58728" lon="2.59788">
        <ele>705.75</ele>
        <time>2021-07-07T10:00:14Z</time>
      </trkpt>
      <trkpt lat="43.5873" lon="2.59785">
        <ele>704.3</ele>
        <time>2021-07-07T10:00:15Z</time>
      </trkpt>
      <trkpt lat="43.58731" lon="2.59781">
        <ele>704.3</ele>
        <time>2021-07-07T10:00:16Z</time>
      </trkpt>
      <trkpt lat="43.58732" lon="2.59779">
        <ele>703.34</ele>
        <time>2021-07-07T10:00:17Z</time>
      </trkpt>
      <trkpt lat="43.58736" lon="2.59775">
        <ele>702.86</ele>
        <time>2021-07-07T10:00:18Z</time>
      </trkpt>
      <trkpt lat="43.58739" lon="2.5977">
        <ele>702.86</ele>
        <time>2021-07-07T10:00:19Z</time>
      </trkpt>
      <trkpt lat="43.58742" lon="2.59767">
        <ele>702.38</ele>
        <time>2021-07-07T10:00:20Z</time>
      </trkpt>
      <trkpt lat="43.58746" lon="2.59754">
        <ele>700.94</ele>
        <time>2021-07-07T10:00:23Z</time>
      </trkpt>
      <trkpt lat="43.58748" lon="2.59751">
        <ele>700.46</ele>
        <time>2021-07-07T10:00:24Z</time>
      </trkpt>
      <trkpt lat="43.58751" lon="2.59749">
        <ele>700.46</ele>
        <time>2021-07-07T10:00:25Z</time>
      </trkpt>
      <trkpt lat="43.58787" lon="2.59744">
        <ele>698.05</ele>
        <time>2021-07-07T10:00:36Z</time>
      </trkpt>
      <trkpt lat="43.58792" lon="2.59745">
        <ele>698.05</ele>
        <time>2021-07-07T10:00:37Z</time>
      </trkpt>
      <trkpt lat="43.58827" lon="2.59764">
        <ele>699.02</ele>
        <time>2021-07-07T10:00:48Z</time>
      </trkpt>
      <trkpt lat="43.58841" lon="2.59772">
        <ele>699.02</ele>
        <time>2021-07-07T10:00:55Z</time>
      </trkpt>
      <trkpt lat="43.58843" lon="2.59773">
        <ele>699.5</ele>
        <time>2021-07-07T10:00:57Z</time>
      </trkpt>
      <trkpt lat="43.58845" lon="2.59775">
        <ele>676.42</ele>
        <time>2021-07-07T10:01:05Z</time>
      </trkpt>
      <trkpt lat="43.58845" lon="2.59775">
        <ele>701.9</ele>
        <time>2021-07-07T10:01:06Z</time>
      </trkpt>
      <trkpt lat="43.58845" lon="2.59775">
        <ele>701.42</ele>
        <time>2021-07-07T10:01:07Z</time>
      </trkpt>
      <trkpt lat="43.58845" lon="2.59775">
        <ele>686.04</ele>
        <time>2021-07-07T10:01:09Z</time>
      </trkpt>
      <trkpt lat="43.58845" lon="2.59775">
        <ele>699.98</ele>
        <time>2021-07-07T10:01:10Z</time>
      </trkpt>
      <trkpt lat="43.58848" lon="2.59777">
        <ele>699.02</ele>
        <time>2021-07-07T10:01:19Z</time>
      </trkpt>
      <trkpt lat="43.58859" lon="2.59794">
        <ele>697.57</ele>
        <time>2021-07-07T10:01:25Z</time>
      </trkpt>
      <trkpt lat="43.58868" lon="2.59835">
        <ele>697.57</ele>
        <time>2021-07-07T10:01:34Z</time>
      </trkpt>
      <trkpt lat="43.58869" lon="2.5984">
        <ele>697.57</ele>
        <time>2021-07-07T10:01:35Z</time>
      </trkpt>
      <trkpt lat="43.58885" lon="2.59887">
        <ele>700.46</ele>
        <time>2021-07-07T10:01:48Z</time>
      </trkpt>
      <trkpt lat="43.58899" lon="2.59911">
        <ele>701.42</ele>
        <time>2021-07-07T10:01:59Z</time>
      </trkpt>
      <trkpt lat="43.58903" lon="2.59915">
        <ele>702.38</ele>
        <time>2021-07-07T10:02:01Z</time>
      </trkpt>
      <trkpt lat="43.58905" lon="2.59916">
        <ele>702.38</ele>
        <time>2021-07-07T10:02:02Z</time>
      </trkpt>
      <trkpt lat="43.58908" lon="2.59918">
        <ele>703.34</ele>
        <time>2021-07-07T10:02:04Z</time>
      </trkpt>
      <trkpt lat="43.58911" lon="2.59921">
        <ele>703.34</ele>
        <time>2021-07-07T10:02:06Z</time>
      </trkpt>
      <trkpt lat="43.58932" lon="2.59923">
        <ele>703.82</ele>
        <time>2021-07-07T10:02:17Z</time>
      </trkpt>
      <trkpt lat="43.5896" lon="2.59927">
        <ele>702.86</ele>
        <time>2021-07-07T10:02:30Z</time>
      </trkpt>
      <trkpt lat="43.58983" lon="2.59931">
        <ele>700.94</ele>
        <time>2021-07-07T10:02:36Z</time>
      </trkpt>
      <trkpt lat="43.58988" lon="2.59933">
        <ele>701.42</ele>
        <time>2021-07-07T10:02:37Z</time>
      </trkpt>
      <trkpt lat="43.58993" lon="2.59935">
        <ele>678.35</ele>
        <time>2021-07-07T10:02:38Z</time>
      </trkpt>
      <trkpt lat="43.58998" lon="2.59937">
        <ele>679.31</ele>
        <time>2021-07-07T10:02:39Z</time>
      </trkpt>
      <trkpt lat="43.59003" lon="2.59939">
        <ele>704.3</ele>
        <time>2021-07-07T10:02:40Z</time>
      </trkpt>
      <trkpt lat="43.59008" lon="2.59941">
        <ele>700.94</ele>
        <time>2021-07-07T10:02:41Z</time>
      </trkpt>
      <trkpt lat="43.59033" lon="2.59945">
        <ele>700.46</ele>
        <time>2021-07-07T10:02:51Z</time>
      </trkpt>
      <trkpt lat="43.59032" lon="2.59949">
        <ele>699.5</ele>
        <time>2021-07-07T10:03:03Z</time>
      </trkpt>
      <trkpt lat="43.59034" lon="2.59947">
        <ele>700.46</ele>
        <time>2021-07-07T10:03:22Z</time>
      </trkpt>
      <trkpt lat="43.59035" lon="2.59948">
        <ele>699.98</ele>
        <time>2021-07-07T10:03:23Z</time>
      </trkpt>
      <trkpt lat="43.59036" lon="2.59949">
        <ele>700.46</ele>
        <time>2021-07-07T10:03:24Z</time>
      </trkpt>
      <trkpt lat="43.59038" lon="2.59951">
        <ele>699.98</ele>
        <time>2021-07-07T10:03:25Z</time>
      </trkpt>
      <trkpt lat="43.59039" lon="2.59954">
        <ele>699.98</ele>
        <time>2021-07-07T10:03:26Z</time>
      </trkpt>
      <trkpt lat="43.59041" lon="2.59957">
        <ele>699.5</ele>
        <time>2021-07-07T10:03:27Z</time>
      </trkpt>
      <trkpt lat="43.59042" lon="2.5996">
        <ele>699.5</ele>
        <time>2021-07-07T10:03:28Z</time>
      </trkpt>
      <trkpt lat="43.59043" lon="2.59963">
        <ele>699.5</ele>
        <time>2021-07-07T10:03:29Z</time>
      </trkpt>
      <trkpt lat="43.59052" lon="2.59992">
        <ele>698.53</ele>
        <time>2021-07-07T10:03:37Z</time>
      </trkpt>
      <trkpt lat="43.59055" lon="2.59994">
        <ele>699.02</ele>
        <time>2021-07-07T10:03:38Z</time>
      </trkpt>
      <trkpt lat="43.59058" lon="2.59996">
        <ele>699.02</ele>
        <time>2021-07-07T10:03:39Z</time>
      </trkpt>
      <trkpt lat="43.59061" lon="2.59996">
        <ele>699.02</ele>
        <time>2021-07-07T10:03:40Z</time>
      </trkpt>
      <trkpt lat="43.59065" lon="2.59994">
        <ele>699.02</ele>
        <time>2021-07-07T10:03:41Z</time>
      </trkpt>
      <trkpt lat="43.59068" lon="2.59993">
        <ele>699.02</ele>
        <time>2021-07-07T10:03:42Z</time>
      </trkpt>
      <trkpt lat="43.59072" lon="2.59992">
        <ele>698.53</ele>
        <time>2021-07-07T10:03:43Z</time>
      </trkpt>
      <trkpt lat="43.59092" lon="2.59974">
        <ele>697.09</ele>
        <time>2021-07-07T10:03:49Z</time>
      </trkpt>
      <trkpt lat="43.59093" lon="2.59969">
        <ele>697.57</ele>
        <time>2021-07-07T10:03:50Z</time>
      </trkpt>
      <trkpt lat="43.59093" lon="2.59963">
        <ele>697.57</ele>
        <time>2021-07-07T10:03:51Z</time>
      </trkpt>
      <trkpt lat="43.59092" lon="2.59957">
        <ele>697.57</ele>
        <time>2021-07-07T10:03:52Z</time>
      </trkpt>
      <trkpt lat="43.59091" lon="2.59951">
        <ele>697.57</ele>
        <time>2021-07-07T10:03:53Z</time>
      </trkpt>
      <trkpt lat="43.59083" lon="2.59921">
        <ele>696.61</ele>
        <time>2021-07-07T10:03:59Z</time>
      </trkpt>
      <trkpt lat="43.5906" lon="2.59857">
        <ele>696.13</ele>
        <time>2021-07-07T10:04:08Z</time>
      </trkpt>
      <trkpt lat="43.59055" lon="2.59842">
        <ele>696.13</ele>
        <time>2021-07-07T10:04:10Z</time>
      </trkpt>
      <trkpt lat="43.59044" lon="2.59729">
        <ele>693.25</ele>
        <time>2021-07-07T10:04:23Z</time>
      </trkpt>
      <trkpt lat="43.59049" lon="2.59663">
        <ele>693.25</ele>
        <time>2021-07-07T10:04:31Z</time>
      </trkpt>
      <trkpt lat="43.59053" lon="2.59649">
        <ele>692.29</ele>
        <time>2021-07-07T10:04:33Z</time>
      </trkpt>
      <trkpt lat="43.59056" lon="2.59642">
        <ele>693.25</ele>
        <time>2021-07-07T10:04:34Z</time>
      </trkpt>
      <trkpt lat="43.59062" lon="2.59629">
        <ele>693.25</ele>
        <time>2021-07-07T10:04:36Z</time>
      </trkpt>
      <trkpt lat="43.59065" lon="2.59622">
        <ele>692.77</ele>
        <time>2021-07-07T10:04:37Z</time>
      </trkpt>
      <trkpt lat="43.59086" lon="2.59581">
        <ele>693.25</ele>
        <time>2021-07-07T10:04:43Z</time>
      </trkpt>
      <trkpt lat="43.59087" lon="2.59574">
        <ele>692.77</ele>
        <time>2021-07-07T10:04:44Z</time>
      </trkpt>
      <trkpt lat="43.59089" lon="2.59566">
        <ele>692.77</ele>
        <time>2021-07-07T10:04:45Z</time>
      </trkpt>
      <trkpt lat="43.59098" lon="2.59493">
        <ele>691.33</ele>
        <time>2021-07-07T10:04:54Z</time>
      </trkpt>
      <trkpt lat="43.59103" lon="2.59432">
        <ele>690.84</ele>
        <time>2021-07-07T10:05:02Z</time>
      </trkpt>
      <trkpt lat="43.59104" lon="2.59424">
        <ele>690.36</ele>
        <time>2021-07-07T10:05:03Z</time>
      </trkpt>
      <trkpt lat="43.59103" lon="2.59416">
        <ele>689.4</ele>
        <time>2021-07-07T10:05:04Z</time>
      </trkpt>
      <trkpt lat="43.59104" lon="2.59408">
        <ele>689.4</ele>
        <time>2021-07-07T10:05:05Z</time>
      </trkpt>
      <trkpt lat="43.59107" lon="2.59385">
        <ele>687.48</ele>
        <time>2021-07-07T10:05:08Z</time>
      </trkpt>
      <trkpt lat="43.59107" lon="2.59378">
        <ele>687</ele>
        <time>2021-07-07T10:05:09Z</time>
      </trkpt>
      <trkpt lat="43.59122" lon="2.59299">
        <ele>687.96</ele>
        <time>2021-07-07T10:05:20Z</time>
      </trkpt>
      <trkpt lat="43.59128" lon="2.59284">
        <ele>687.48</ele>
        <time>2021-07-07T10:05:22Z</time>
      </trkpt>
      <trkpt lat="43.59132" lon="2.59278">
        <ele>687.48</ele>
        <time>2021-07-07T10:05:23Z</time>
      </trkpt>
      <trkpt lat="43.59137" lon="2.59272">
        <ele>687</ele>
        <time>2021-07-07T10:05:24Z</time>
      </trkpt>
      <trkpt lat="43.59142" lon="2.59267">
        <ele>686.52</ele>
        <time>2021-07-07T10:05:25Z</time>
      </trkpt>
      <trkpt lat="43.59149" lon="2.59263">
        <ele>686.52</ele>
        <time>2021-07-07T10:05:26Z</time>
      </trkpt>
      <trkpt lat="43.59156" lon="2.59261">
        <ele>685.56</ele>
        <time>2021-07-07T10:05:27Z</time>
      </trkpt>
      <trkpt lat="43.59163" lon="2.59259">
        <ele>686.04</ele>
        <time>2021-07-07T10:05:28Z</time>
      </trkpt>
      <trkpt lat="43.5917" lon="2.59259">
        <ele>685.08</ele>
        <time>2021-07-07T10:05:29Z</time>
      </trkpt>
      <trkpt lat="43.5924" lon="2.59249">
        <ele>683.63</ele>
        <time>2021-07-07T10:05:40Z</time>
      </trkpt>
      <trkpt lat="43.59291" lon="2.59248">
        <ele>682.67</ele>
        <time>2021-07-07T10:05:48Z</time>
      </trkpt>
      <trkpt lat="43.59341" lon="2.59252">
        <ele>680.27</ele>
        <time>2021-07-07T10:05:57Z</time>
      </trkpt>
      <trkpt lat="43.59346" lon="2.59255">
        <ele>680.27</ele>
        <time>2021-07-07T10:05:58Z</time>
      </trkpt>
      <trkpt lat="43.59351" lon="2.59259">
        <ele>679.31</ele>
        <time>2021-07-07T10:05:59Z</time>
      </trkpt>
      <trkpt lat="43.59356" lon="2.59264">
        <ele>679.79</ele>
        <time>2021-07-07T10:06:00Z</time>
      </trkpt>
      <trkpt lat="43.5936" lon="2.59269">
        <ele>680.27</ele>
        <time>2021-07-07T10:06:01Z</time>
      </trkpt>
      <trkpt lat="43.59363" lon="2.59276">
        <ele>680.27</ele>
        <time>2021-07-07T10:06:02Z</time>
      </trkpt>
      <trkpt lat="43.59366" lon="2.59283">
        <ele>679.79</ele>
        <time>2021-07-07T10:06:03Z</time>
      </trkpt>
      <trkpt lat="43.59368" lon="2.59289">
        <ele>679.79</ele>
        <time>2021-07-07T10:06:04Z</time>
      </trkpt>
      <trkpt lat="43.5937" lon="2.59297">
        <ele>679.31</ele>
        <time>2021-07-07T10:06:05Z</time>
      </trkpt>
      <trkpt lat="43.59372" lon="2.59312">
        <ele>678.35</ele>
        <time>2021-07-07T10:06:07Z</time>
      </trkpt>
      <trkpt lat="43.59372" lon="2.5932">
        <ele>678.83</ele>
        <time>2021-07-07T10:06:08Z</time>
      </trkpt>
      <trkpt lat="43.59372" lon="2.59328">
        <ele>678.83</ele>
        <time>2021-07-07T10:06:09Z</time>
      </trkpt>
      <trkpt lat="43.59361" lon="2.59444">
        <ele>676.91</ele>
        <time>2021-07-07T10:06:23Z</time>
      </trkpt>
      <trkpt lat="43.59361" lon="2.59452">
        <ele>676.91</ele>
        <time>2021-07-07T10:06:24Z</time>
      </trkpt>
      <trkpt lat="43.59362" lon="2.59461">
        <ele>676.42</ele>
        <time>2021-07-07T10:06:25Z</time>
      </trkpt>
      <trkpt lat="43.59364" lon="2.59469">
        <ele>675.94</ele>
        <time>2021-07-07T10:06:26Z</time>
      </trkpt>
      <trkpt lat="43.59368" lon="2.59476">
        <ele>675.94</ele>
        <time>2021-07-07T10:06:27Z</time>
      </trkpt>
      <trkpt lat="43.59373" lon="2.59481">
        <ele>675.46</ele>
        <time>2021-07-07T10:06:28Z</time>
      </trkpt>
      <trkpt lat="43.59378" lon="2.59486">
        <ele>674.98</ele>
        <time>2021-07-07T10:06:29Z</time>
      </trkpt>
      <trkpt lat="43.59384" lon="2.5949">
        <ele>674.98</ele>
        <time>2021-07-07T10:06:30Z</time>
      </trkpt>
      <trkpt lat="43.5939" lon="2.59494">
        <ele>651.43</ele>
        <time>2021-07-07T10:06:31Z</time>
      </trkpt>
      <trkpt lat="43.59396" lon="2.59496">
        <ele>653.83</ele>
        <time>2021-07-07T10:06:32Z</time>
      </trkpt>
      <trkpt lat="43.59402" lon="2.59498">
        <ele>678.35</ele>
        <time>2021-07-07T10:06:33Z</time>
      </trkpt>
      <trkpt lat="43.59408" lon="2.595">
        <ele>674.5</ele>
        <time>2021-07-07T10:06:34Z</time>
      </trkpt>
      <trkpt lat="43.59431" lon="2.59504">
        <ele>683.15</ele>
        <time>2021-07-07T10:06:38Z</time>
      </trkpt>
      <trkpt lat="43.59436" lon="2.59505">
        <ele>674.5</ele>
        <time>2021-07-07T10:06:39Z</time>
      </trkpt>
      <trkpt lat="43.59454" lon="2.59508">
        <ele>672.58</ele>
        <time>2021-07-07T10:06:42Z</time>
      </trkpt>
      <trkpt lat="43.59477" lon="2.59506">
        <ele>682.67</ele>
        <time>2021-07-07T10:06:46Z</time>
      </trkpt>
      <trkpt lat="43.59482" lon="2.59506">
        <ele>673.06</ele>
        <time>2021-07-07T10:06:47Z</time>
      </trkpt>
      <trkpt lat="43.59488" lon="2.59506">
        <ele>672.58</ele>
        <time>2021-07-07T10:06:48Z</time>
      </trkpt>
      <trkpt lat="43.59493" lon="2.59508">
        <ele>672.58</ele>
        <time>2021-07-07T10:06:49Z</time>
      </trkpt>
      <trkpt lat="43.59497" lon="2.59511">
        <ele>672.1</ele>
        <time>2021-07-07T10:06:50Z</time>
      </trkpt>
      <trkpt lat="43.59501" lon="2.59516">
        <ele>673.06</ele>
        <time>2021-07-07T10:06:51Z</time>
      </trkpt>
      <trkpt lat="43.59504" lon="2.59522">
        <ele>672.58</ele>
        <time>2021-07-07T10:06:52Z</time>
      </trkpt>
      <trkpt lat="43.59506" lon="2.59528">
        <ele>672.58</ele>
        <time>2021-07-07T10:06:53Z</time>
      </trkpt>
      <trkpt lat="43.59508" lon="2.59535">
        <ele>672.58</ele>
        <time>2021-07-07T10:06:54Z</time>
      </trkpt>
      <trkpt lat="43.59509" lon="2.59542">
        <ele>672.58</ele>
        <time>2021-07-07T10:06:55Z</time>
      </trkpt>
      <trkpt lat="43.59516" lon="2.59574">
        <ele>673.06</ele>
        <time>2021-07-07T10:07:00Z</time>
      </trkpt>
      <trkpt lat="43.59518" lon="2.5958">
        <ele>673.06</ele>
        <time>2021-07-07T10:07:01Z</time>
      </trkpt>
      <trkpt lat="43.59535" lon="2.59653">
        <ele>673.06</ele>
        <time>2021-07-07T10:07:12Z</time>
      </trkpt>
      <trkpt lat="43.59542" lon="2.59683">
        <ele>655.76</ele>
        <time>2021-07-07T10:07:17Z</time>
      </trkpt>
      <trkpt lat="43.59544" lon="2.5969">
        <ele>662.01</ele>
        <time>2021-07-07T10:07:18Z</time>
      </trkpt>
      <trkpt lat="43.59545" lon="2.59696">
        <ele>674.98</ele>
        <time>2021-07-07T10:07:19Z</time>
      </trkpt>
      <trkpt lat="43.59546" lon="2.59702">
        <ele>672.58</ele>
        <time>2021-07-07T10:07:20Z</time>
      </trkpt>
      <trkpt lat="43.59553" lon="2.5973">
        <ele>672.1</ele>
        <time>2021-07-07T10:07:25Z</time>
      </trkpt>
      <trkpt lat="43.59554" lon="2.59735">
        <ele>672.1</ele>
        <time>2021-07-07T10:07:26Z</time>
      </trkpt>
      <trkpt lat="43.59555" lon="2.59741">
        <ele>672.58</ele>
        <time>2021-07-07T10:07:27Z</time>
      </trkpt>
      <trkpt lat="43.59556" lon="2.59764">
        <ele>672.58</ele>
        <time>2021-07-07T10:07:31Z</time>
      </trkpt>
      <trkpt lat="43.59556" lon="2.59771">
        <ele>672.58</ele>
        <time>2021-07-07T10:07:32Z</time>
      </trkpt>
      <trkpt lat="43.59549" lon="2.59823">
        <ele>672.58</ele>
        <time>2021-07-07T10:07:40Z</time>
      </trkpt>
      <trkpt lat="43.59548" lon="2.59843">
        <ele>672.58</ele>
        <time>2021-07-07T10:07:43Z</time>
      </trkpt>
      <trkpt lat="43.59548" lon="2.59848">
        <ele>672.58</ele>
        <time>2021-07-07T10:07:44Z</time>
      </trkpt>
      <trkpt lat="43.59549" lon="2.59859">
        <ele>673.06</ele>
        <time>2021-07-07T10:07:46Z</time>
      </trkpt>
      <trkpt lat="43.5955" lon="2.59865">
        <ele>673.54</ele>
        <time>2021-07-07T10:07:47Z</time>
      </trkpt>
      <trkpt lat="43.5955" lon="2.59877">
        <ele>673.54</ele>
        <time>2021-07-07T10:07:49Z</time>
      </trkpt>
      <trkpt lat="43.5955" lon="2.59883">
        <ele>673.54</ele>
        <time>2021-07-07T10:07:50Z</time>
      </trkpt>
      <trkpt lat="43.5956" lon="2.5994">
        <ele>675.94</ele>
        <time>2021-07-07T10:08:03Z</time>
      </trkpt>
      <trkpt lat="43.59568" lon="2.59984">
        <ele>678.35</ele>
        <time>2021-07-07T10:08:15Z</time>
      </trkpt>
      <trkpt lat="43.59586" lon="2.60017">
        <ele>680.75</ele>
        <time>2021-07-07T10:08:28Z</time>
      </trkpt>
      <trkpt lat="43.59604" lon="2.60031">
        <ele>682.67</ele>
        <time>2021-07-07T10:08:39Z</time>
      </trkpt>
      <trkpt lat="43.59623" lon="2.60024">
        <ele>684.12</ele>
        <time>2021-07-07T10:08:47Z</time>
      </trkpt>
      <trkpt lat="43.59625" lon="2.60023">
        <ele>684.12</ele>
        <time>2021-07-07T10:08:48Z</time>
      </trkpt>
      <trkpt lat="43.59627" lon="2.60023">
        <ele>684.12</ele>
        <time>2021-07-07T10:08:49Z</time>
      </trkpt>
      <trkpt lat="43.5963" lon="2.60022">
        <ele>684.12</ele>
        <time>2021-07-07T10:08:50Z</time>
      </trkpt>
      <trkpt lat="43.59632" lon="2.6002">
        <ele>684.6</ele>
        <time>2021-07-07T10:08:51Z</time>
      </trkpt>
      <trkpt lat="43.59634" lon="2.60019">
        <ele>685.08</ele>
        <time>2021-07-07T10:08:52Z</time>
      </trkpt>
      <trkpt lat="43.59636" lon="2.60018">
        <ele>685.08</ele>
        <time>2021-07-07T10:08:53Z</time>
      </trkpt>
      <trkpt lat="43.59668" lon="2.60013">
        <ele>687</ele>
        <time>2021-07-07T10:09:08Z</time>
      </trkpt>
      <trkpt lat="43.5969" lon="2.60014">
        <ele>688.92</ele>
        <time>2021-07-07T10:09:18Z</time>
      </trkpt>
      <trkpt lat="43.5971" lon="2.59994">
        <ele>691.33</ele>
        <time>2021-07-07T10:09:32Z</time>
      </trkpt>
      <trkpt lat="43.59711" lon="2.59992">
        <ele>691.33</ele>
        <time>2021-07-07T10:09:33Z</time>
      </trkpt>
      <trkpt lat="43.59712" lon="2.5999">
        <ele>691.33</ele>
        <time>2021-07-07T10:09:34Z</time>
      </trkpt>
      <trkpt lat="43.59714" lon="2.59989">
        <ele>691.81</ele>
        <time>2021-07-07T10:09:35Z</time>
      </trkpt>
      <trkpt lat="43.59715" lon="2.59987">
        <ele>691.81</ele>
        <time>2021-07-07T10:09:36Z</time>
      </trkpt>
      <trkpt lat="43.59716" lon="2.59986">
        <ele>691.81</ele>
        <time>2021-07-07T10:09:37Z</time>
      </trkpt>
      <trkpt lat="43.59717" lon="2.59983">
        <ele>692.29</ele>
        <time>2021-07-07T10:09:38Z</time>
      </trkpt>
      <trkpt lat="43.59718" lon="2.59981">
        <ele>692.29</ele>
        <time>2021-07-07T10:09:39Z</time>
      </trkpt>
      <trkpt lat="43.59719" lon="2.59979">
        <ele>692.29</ele>
        <time>2021-07-07T10:09:40Z</time>
      </trkpt>
      <trkpt lat="43.59723" lon="2.59964">
        <ele>692.77</ele>
        <time>2021-07-07T10:09:48Z</time>
      </trkpt>
      <trkpt lat="43.59727" lon="2.59945">
        <ele>694.21</ele>
        <time>2021-07-07T10:09:55Z</time>
      </trkpt>
      <trkpt lat="43.59735" lon="2.59931">
        <ele>694.21</ele>
        <time>2021-07-07T10:10:02Z</time>
      </trkpt>
      <trkpt lat="43.59736" lon="2.59929">
        <ele>694.69</ele>
        <time>2021-07-07T10:10:03Z</time>
      </trkpt>
      <trkpt lat="43.59737" lon="2.59927">
        <ele>694.69</ele>
        <time>2021-07-07T10:10:04Z</time>
      </trkpt>
      <trkpt lat="43.59738" lon="2.59924">
        <ele>694.69</ele>
        <time>2021-07-07T10:10:05Z</time>
      </trkpt>
      <trkpt lat="43.59739" lon="2.59922">
        <ele>694.69</ele>
        <time>2021-07-07T10:10:06Z</time>
      </trkpt>
      <trkpt lat="43.5974" lon="2.5992">
        <ele>695.17</ele>
        <time>2021-07-07T10:10:07Z</time>
      </trkpt>
      <trkpt lat="43.59754" lon="2.59885">
        <ele>695.65</ele>
        <time>2021-07-07T10:10:20Z</time>
      </trkpt>
      <trkpt lat="43.59775" lon="2.59834">
        <ele>695.65</ele>
        <time>2021-07-07T10:10:34Z</time>
      </trkpt>
      <trkpt lat="43.59789" lon="2.59798">
        <ele>695.65</ele>
        <time>2021-07-07T10:10:45Z</time>
      </trkpt>
      <trkpt lat="43.59809" lon="2.59763">
        <ele>696.61</ele>
        <time>2021-07-07T10:10:56Z</time>
      </trkpt>
      <trkpt lat="43.59811" lon="2.59761">
        <ele>696.61</ele>
        <time>2021-07-07T10:10:57Z</time>
      </trkpt>
      <trkpt lat="43.59813" lon="2.59758">
        <ele>697.09</ele>
        <time>2021-07-07T10:10:58Z</time>
      </trkpt>
      <trkpt lat="43.59834" lon="2.59747">
        <ele>697.09</ele>
        <time>2021-07-07T10:11:08Z</time>
      </trkpt>
      <trkpt lat="43.59836" lon="2.59748">
        <ele>697.57</ele>
        <time>2021-07-07T10:11:09Z</time>
      </trkpt>
      <trkpt lat="43.59838" lon="2.59749">
        <ele>697.09</ele>
        <time>2021-07-07T10:11:10Z</time>
      </trkpt>
      <trkpt lat="43.5984" lon="2.59751">
        <ele>697.57</ele>
        <time>2021-07-07T10:11:11Z</time>
      </trkpt>
      <trkpt lat="43.59842" lon="2.59753">
        <ele>697.57</ele>
        <time>2021-07-07T10:11:12Z</time>
      </trkpt>
      <trkpt lat="43.59843" lon="2.59755">
        <ele>697.57</ele>
        <time>2021-07-07T10:11:13Z</time>
      </trkpt>
      <trkpt lat="43.59849" lon="2.59759">
        <ele>696.13</ele>
        <time>2021-07-07T10:11:17Z</time>
      </trkpt>
      <trkpt lat="43.59851" lon="2.59758">
        <ele>695.65</ele>
        <time>2021-07-07T10:11:18Z</time>
      </trkpt>
      <trkpt lat="43.59887" lon="2.59786">
        <ele>695.17</ele>
        <time>2021-07-07T10:11:28Z</time>
      </trkpt>
      <trkpt lat="43.59913" lon="2.59823">
        <ele>697.09</ele>
        <time>2021-07-07T10:11:39Z</time>
      </trkpt>
      <trkpt lat="43.59916" lon="2.59828">
        <ele>697.57</ele>
        <time>2021-07-07T10:11:41Z</time>
      </trkpt>
      <trkpt lat="43.59918" lon="2.59832">
        <ele>697.09</ele>
        <time>2021-07-07T10:11:42Z</time>
      </trkpt>
      <trkpt lat="43.5992" lon="2.59835">
        <ele>697.57</ele>
        <time>2021-07-07T10:11:43Z</time>
      </trkpt>
      <trkpt lat="43.59921" lon="2.59837">
        <ele>697.57</ele>
        <time>2021-07-07T10:11:44Z</time>
      </trkpt>
      <trkpt lat="43.59923" lon="2.5984">
        <ele>697.09</ele>
        <time>2021-07-07T10:11:45Z</time>
      </trkpt>
      <trkpt lat="43.59924" lon="2.59842">
        <ele>697.57</ele>
        <time>2021-07-07T10:11:46Z</time>
      </trkpt>
      <trkpt lat="43.59945" lon="2.59859">
        <ele>695.17</ele>
        <time>2021-07-07T10:11:55Z</time>
      </trkpt>
      <trkpt lat="43.59967" lon="2.59874">
        <ele>692.29</ele>
        <time>2021-07-07T10:12:02Z</time>
      </trkpt>
      <trkpt lat="43.5997" lon="2.59876">
        <ele>691.81</ele>
        <time>2021-07-07T10:12:03Z</time>
      </trkpt>
      <trkpt lat="43.59999" lon="2.59898">
        <ele>688.44</ele>
        <time>2021-07-07T10:12:13Z</time>
      </trkpt>
      <trkpt lat="43.60003" lon="2.59913">
        <ele>687.48</ele>
        <time>2021-07-07T10:12:17Z</time>
      </trkpt>
      <trkpt lat="43.60003" lon="2.59915">
        <ele>687.48</ele>
        <time>2021-07-07T10:12:18Z</time>
      </trkpt>
      <trkpt lat="43.59996" lon="2.59915">
        <ele>687</ele>
        <time>2021-07-07T10:12:26Z</time>
      </trkpt>
      <trkpt lat="43.59994" lon="2.59918">
        <ele>687</ele>
        <time>2021-07-07T10:12:27Z</time>
      </trkpt>
      <trkpt lat="43.59992" lon="2.59919">
        <ele>687</ele>
        <time>2021-07-07T10:12:28Z</time>
      </trkpt>
      <trkpt lat="43.59958" lon="2.59941">
        <ele>687.48</ele>
        <time>2021-07-07T10:12:42Z</time>
      </trkpt>
      <trkpt lat="43.59924" lon="2.59958">
        <ele>685.56</ele>
        <time>2021-07-07T10:12:52Z</time>
      </trkpt>
      <trkpt lat="43.59885" lon="2.59968">
        <ele>684.6</ele>
        <time>2021-07-07T10:13:02Z</time>
      </trkpt>
      <trkpt lat="43.59871" lon="2.6">
        <ele>687.96</ele>
        <time>2021-07-07T10:13:10Z</time>
      </trkpt>
      <trkpt lat="43.59866" lon="2.60013">
        <ele>688.92</ele>
        <time>2021-07-07T10:13:14Z</time>
      </trkpt>
      <trkpt lat="43.59863" lon="2.6002">
        <ele>689.88</ele>
        <time>2021-07-07T10:13:18Z</time>
      </trkpt>
      <trkpt lat="43.5986" lon="2.60022">
        <ele>689.4</ele>
        <time>2021-07-07T10:13:20Z</time>
      </trkpt>
      <trkpt lat="43.59859" lon="2.60025">
        <ele>689.4</ele>
        <time>2021-07-07T10:13:21Z</time>
      </trkpt>
      <trkpt lat="43.59858" lon="2.60026">
        <ele>689.4</ele>
        <time>2021-07-07T10:13:22Z</time>
      </trkpt>
      <trkpt lat="43.59857" lon="2.60029">
        <ele>688.92</ele>
        <time>2021-07-07T10:13:23Z</time>
      </trkpt>
      <trkpt lat="43.59856" lon="2.60033">
        <ele>688.44</ele>
        <time>2021-07-07T10:13:24Z</time>
      </trkpt>
      <trkpt lat="43.59854" lon="2.60036">
        <ele>689.4</ele>
        <time>2021-07-07T10:13:25Z</time>
      </trkpt>
      <trkpt lat="43.59853" lon="2.60038">
        <ele>688.44</ele>
        <time>2021-07-07T10:13:26Z</time>
      </trkpt>
      <trkpt lat="43.59851" lon="2.60041">
        <ele>687.96</ele>
        <time>2021-07-07T10:13:27Z</time>
      </trkpt>
      <trkpt lat="43.59842" lon="2.60058">
        <ele>692.29</ele>
        <time>2021-07-07T10:13:32Z</time>
      </trkpt>
      <trkpt lat="43.59839" lon="2.60065">
        <ele>687</ele>
        <time>2021-07-07T10:13:34Z</time>
      </trkpt>
      <trkpt lat="43.59821" lon="2.60096">
        <ele>684.12</ele>
        <time>2021-07-07T10:13:44Z</time>
      </trkpt>
      <trkpt lat="43.59812" lon="2.60112">
        <ele>669.7</ele>
        <time>2021-07-07T10:13:48Z</time>
      </trkpt>
      <trkpt lat="43.5981" lon="2.60116">
        <ele>685.08</ele>
        <time>2021-07-07T10:13:49Z</time>
      </trkpt>
      <trkpt lat="43.59799" lon="2.60134">
        <ele>675.94</ele>
        <time>2021-07-07T10:13:54Z</time>
      </trkpt>
      <trkpt lat="43.59796" lon="2.60139">
        <ele>693.25</ele>
        <time>2021-07-07T10:13:55Z</time>
      </trkpt>
      <trkpt lat="43.59793" lon="2.60144">
        <ele>699.5</ele>
        <time>2021-07-07T10:13:56Z</time>
      </trkpt>
      <trkpt lat="43.5979" lon="2.60149">
        <ele>683.63</ele>
        <time>2021-07-07T10:13:57Z</time>
      </trkpt>
      <trkpt lat="43.5976" lon="2.60201">
        <ele>681.71</ele>
        <time>2021-07-07T10:14:08Z</time>
      </trkpt>
      <trkpt lat="43.59757" lon="2.60207">
        <ele>681.71</ele>
        <time>2021-07-07T10:14:09Z</time>
      </trkpt>
      <trkpt lat="43.59728" lon="2.60276">
        <ele>681.23</ele>
        <time>2021-07-07T10:14:22Z</time>
      </trkpt>
      <trkpt lat="43.59728" lon="2.60282">
        <ele>681.23</ele>
        <time>2021-07-07T10:14:23Z</time>
      </trkpt>
      <trkpt lat="43.59727" lon="2.60287">
        <ele>693.25</ele>
        <time>2021-07-07T10:14:24Z</time>
      </trkpt>
      <trkpt lat="43.59725" lon="2.60294">
        <ele>684.6</ele>
        <time>2021-07-07T10:14:25Z</time>
      </trkpt>
      <trkpt lat="43.59725" lon="2.60298">
        <ele>682.19</ele>
        <time>2021-07-07T10:14:26Z</time>
      </trkpt>
      <trkpt lat="43.59722" lon="2.60336">
        <ele>681.71</ele>
        <time>2021-07-07T10:14:35Z</time>
      </trkpt>
      <trkpt lat="43.59721" lon="2.60347">
        <ele>688.92</ele>
        <time>2021-07-07T10:14:38Z</time>
      </trkpt>
      <trkpt lat="43.59721" lon="2.60352">
        <ele>664.89</ele>
        <time>2021-07-07T10:14:39Z</time>
      </trkpt>
      <trkpt lat="43.59721" lon="2.60356">
        <ele>689.88</ele>
        <time>2021-07-07T10:14:40Z</time>
      </trkpt>
      <trkpt lat="43.5972" lon="2.6036">
        <ele>682.19</ele>
        <time>2021-07-07T10:14:41Z</time>
      </trkpt>
      <trkpt lat="43.5972" lon="2.60364">
        <ele>683.15</ele>
        <time>2021-07-07T10:14:42Z</time>
      </trkpt>
      <trkpt lat="43.59719" lon="2.60388">
        <ele>662.01</ele>
        <time>2021-07-07T10:14:47Z</time>
      </trkpt>
      <trkpt lat="43.59719" lon="2.60393">
        <ele>685.56</ele>
        <time>2021-07-07T10:14:48Z</time>
      </trkpt>
      <trkpt lat="43.59718" lon="2.60398">
        <ele>680.75</ele>
        <time>2021-07-07T10:14:49Z</time>
      </trkpt>
      <trkpt lat="43.59717" lon="2.60402">
        <ele>677.87</ele>
        <time>2021-07-07T10:14:50Z</time>
      </trkpt>
      <trkpt lat="43.59713" lon="2.60425">
        <ele>682.19</ele>
        <time>2021-07-07T10:14:55Z</time>
      </trkpt>
      <trkpt lat="43.59711" lon="2.60435">
        <ele>680.75</ele>
        <time>2021-07-07T10:14:57Z</time>
      </trkpt>
      <trkpt lat="43.59707" lon="2.60453">
        <ele>677.87</ele>
        <time>2021-07-07T10:15:01Z</time>
      </trkpt>
      <trkpt lat="43.59706" lon="2.60456">
        <ele>683.15</ele>
        <time>2021-07-07T10:15:02Z</time>
      </trkpt>
      <trkpt lat="43.597" lon="2.60468">
        <ele>677.39</ele>
        <time>2021-07-07T10:15:06Z</time>
      </trkpt>
      <trkpt lat="43.59699" lon="2.6047">
        <ele>681.71</ele>
        <time>2021-07-07T10:15:07Z</time>
      </trkpt>
      <trkpt lat="43.59698" lon="2.60473">
        <ele>672.1</ele>
        <time>2021-07-07T10:15:08Z</time>
      </trkpt>
      <trkpt lat="43.59698" lon="2.60476">
        <ele>683.15</ele>
        <time>2021-07-07T10:15:09Z</time>
      </trkpt>
      <trkpt lat="43.59693" lon="2.60488">
        <ele>671.14</ele>
        <time>2021-07-07T10:15:13Z</time>
      </trkpt>
      <trkpt lat="43.59691" lon="2.60491">
        <ele>684.12</ele>
        <time>2021-07-07T10:15:14Z</time>
      </trkpt>
      <trkpt lat="43.59676" lon="2.60545">
        <ele>681.71</ele>
        <time>2021-07-07T10:15:27Z</time>
      </trkpt>
      <trkpt lat="43.59673" lon="2.60606">
        <ele>682.19</ele>
        <time>2021-07-07T10:15:39Z</time>
      </trkpt>
      <trkpt lat="43.5968" lon="2.60672">
        <ele>683.63</ele>
        <time>2021-07-07T10:15:52Z</time>
      </trkpt>
      <trkpt lat="43.59701" lon="2.60725">
        <ele>685.08</ele>
        <time>2021-07-07T10:16:05Z</time>
      </trkpt>
      <trkpt lat="43.59715" lon="2.6075">
        <ele>687</ele>
        <time>2021-07-07T10:16:13Z</time>
      </trkpt>
      <trkpt lat="43.59717" lon="2.60752">
        <ele>687</ele>
        <time>2021-07-07T10:16:14Z</time>
      </trkpt>
      <trkpt lat="43.59725" lon="2.60762">
        <ele>687.48</ele>
        <time>2021-07-07T10:16:18Z</time>
      </trkpt>
      <trkpt lat="43.59745" lon="2.60803">
        <ele>689.88</ele>
        <time>2021-07-07T10:16:31Z</time>
      </trkpt>
      <trkpt lat="43.59749" lon="2.60813">
        <ele>690.36</ele>
        <time>2021-07-07T10:16:37Z</time>
      </trkpt>
      <trkpt lat="43.59751" lon="2.60813">
        <ele>680.27</ele>
        <time>2021-07-07T10:16:42Z</time>
      </trkpt>
      <trkpt lat="43.59751" lon="2.60813">
        <ele>692.77</ele>
        <time>2021-07-07T10:16:43Z</time>
      </trkpt>
      <trkpt lat="43.59752" lon="2.60813">
        <ele>689.88</ele>
        <time>2021-07-07T10:16:46Z</time>
      </trkpt>
      <trkpt lat="43.59752" lon="2.60813">
        <ele>685.08</ele>
        <time>2021-07-07T10:16:48Z</time>
      </trkpt>
      <trkpt lat="43.59752" lon="2.60813">
        <ele>678.83</ele>
        <time>2021-07-07T10:16:49Z</time>
      </trkpt>
      <trkpt lat="43.59752" lon="2.60813">
        <ele>695.17</ele>
        <time>2021-07-07T10:16:50Z</time>
      </trkpt>
      <trkpt lat="43.59752" lon="2.60813">
        <ele>691.33</ele>
        <time>2021-07-07T10:16:51Z</time>
      </trkpt>
      <trkpt lat="43.59751" lon="2.60813">
        <ele>674.5</ele>
        <time>2021-07-07T10:16:53Z</time>
      </trkpt>
      <trkpt lat="43.59751" lon="2.60813">
        <ele>709.11</ele>
        <time>2021-07-07T10:16:54Z</time>
      </trkpt>
      <trkpt lat="43.59751" lon="2.60813">
        <ele>691.81</ele>
        <time>2021-07-07T10:16:55Z</time>
      </trkpt>
      <trkpt lat="43.59751" lon="2.60813">
        <ele>691.33</ele>
        <time>2021-07-07T10:16:57Z</time>
      </trkpt>
      <trkpt lat="43.5975" lon="2.60813">
        <ele>681.23</ele>
        <time>2021-07-07T10:16:58Z</time>
      </trkpt>
      <trkpt lat="43.5975" lon="2.60812">
        <ele>697.57</ele>
        <time>2021-07-07T10:16:59Z</time>
      </trkpt>
      <trkpt lat="43.5975" lon="2.60812">
        <ele>690.36</ele>
        <time>2021-07-07T10:17:00Z</time>
      </trkpt>
      <trkpt lat="43.5975" lon="2.60812">
        <ele>702.86</ele>
        <time>2021-07-07T10:17:02Z</time>
      </trkpt>
      <trkpt lat="43.5975" lon="2.60812">
        <ele>703.34</ele>
        <time>2021-07-07T10:17:03Z</time>
      </trkpt>
      <trkpt lat="43.5975" lon="2.60812">
        <ele>689.4</ele>
        <time>2021-07-07T10:17:04Z</time>
      </trkpt>
      <trkpt lat="43.5975" lon="2.60812">
        <ele>691.81</ele>
        <time>2021-07-07T10:17:05Z</time>
      </trkpt>
      <trkpt lat="43.5975" lon="2.60812">
        <ele>705.26</ele>
        <time>2021-07-07T10:17:06Z</time>
      </trkpt>
      <trkpt lat="43.5975" lon="2.60812">
        <ele>703.34</ele>
        <time>2021-07-07T10:17:07Z</time>
      </trkpt>
      <trkpt lat="43.5975" lon="2.60812">
        <ele>691.81</ele>
        <time>2021-07-07T10:17:08Z</time>
      </trkpt>
      <trkpt lat="43.5975" lon="2.60813">
        <ele>691.33</ele>
        <time>2021-07-07T10:17:09Z</time>
      </trkpt>
      <trkpt lat="43.59749" lon="2.60813">
        <ele>678.83</ele>
        <time>2021-07-07T10:17:15Z</time>
      </trkpt>
      <trkpt lat="43.59749" lon="2.60814">
        <ele>694.69</ele>
        <time>2021-07-07T10:17:16Z</time>
      </trkpt>
      <trkpt lat="43.59749" lon="2.60814">
        <ele>678.83</ele>
        <time>2021-07-07T10:17:17Z</time>
      </trkpt>
      <trkpt lat="43.59749" lon="2.60814">
        <ele>699.98</ele>
        <time>2021-07-07T10:17:18Z</time>
      </trkpt>
      <trkpt lat="43.59749" lon="2.60814">
        <ele>685.08</ele>
        <time>2021-07-07T10:17:19Z</time>
      </trkpt>
      <trkpt lat="43.59749" lon="2.60814">
        <ele>692.77</ele>
        <time>2021-07-07T10:17:20Z</time>
      </trkpt>
      <trkpt lat="43.59749" lon="2.60814">
        <ele>683.63</ele>
        <time>2021-07-07T10:17:25Z</time>
      </trkpt>
      <trkpt lat="43.59749" lon="2.60814">
        <ele>688.92</ele>
        <time>2021-07-07T10:17:27Z</time>
      </trkpt>
      <trkpt lat="43.59749" lon="2.60814">
        <ele>694.69</ele>
        <time>2021-07-07T10:17:28Z</time>
      </trkpt>
      <trkpt lat="43.59749" lon="2.60814">
        <ele>701.42</ele>
        <time>2021-07-07T10:17:30Z</time>
      </trkpt>
      <trkpt lat="43.59749" lon="2.60814">
        <ele>693.25</ele>
        <time>2021-07-07T10:17:31Z</time>
      </trkpt>
      <trkpt lat="43.59749" lon="2.60814">
        <ele>702.86</ele>
        <time>2021-07-07T10:17:33Z</time>
      </trkpt>
      <trkpt lat="43.59749" lon="2.60814">
        <ele>691.81</ele>
        <time>2021-07-07T10:17:34Z</time>
      </trkpt>
      <trkpt lat="43.59749" lon="2.60814">
        <ele>685.56</ele>
        <time>2021-07-07T10:17:35Z</time>
      </trkpt>
      <trkpt lat="43.59749" lon="2.60814">
        <ele>694.69</ele>
        <time>2021-07-07T10:17:36Z</time>
      </trkpt>
      <trkpt lat="43.59749" lon="2.60814">
        <ele>656.72</ele>
        <time>2021-07-07T10:17:37Z</time>
      </trkpt>
      <trkpt lat="43.59749" lon="2.60814">
        <ele>692.29</ele>
        <time>2021-07-07T10:17:38Z</time>
      </trkpt>
      <trkpt lat="43.59749" lon="2.60814">
        <ele>673.54</ele>
        <time>2021-07-07T10:17:39Z</time>
      </trkpt>
      <trkpt lat="43.59749" lon="2.60814">
        <ele>702.38</ele>
        <time>2021-07-07T10:17:40Z</time>
      </trkpt>
      <trkpt lat="43.59749" lon="2.60814">
        <ele>691.81</ele>
        <time>2021-07-07T10:17:41Z</time>
      </trkpt>
      <trkpt lat="43.59748" lon="2.60814">
        <ele>700.94</ele>
        <time>2021-07-07T10:17:45Z</time>
      </trkpt>
      <trkpt lat="43.59748" lon="2.60813">
        <ele>693.25</ele>
        <time>2021-07-07T10:17:46Z</time>
      </trkpt>
      <trkpt lat="43.59748" lon="2.60813">
        <ele>691.33</ele>
        <time>2021-07-07T10:17:48Z</time>
      </trkpt>
      <trkpt lat="43.59749" lon="2.60814">
        <ele>704.3</ele>
        <time>2021-07-07T10:17:54Z</time>
      </trkpt>
      <trkpt lat="43.59749" lon="2.60814">
        <ele>704.3</ele>
        <time>2021-07-07T10:17:55Z</time>
      </trkpt>
      <trkpt lat="43.59749" lon="2.60814">
        <ele>680.75</ele>
        <time>2021-07-07T10:17:56Z</time>
      </trkpt>
      <trkpt lat="43.59749" lon="2.60814">
        <ele>694.69</ele>
        <time>2021-07-07T10:17:57Z</time>
      </trkpt>
      <trkpt lat="43.59749" lon="2.60814">
        <ele>689.88</ele>
        <time>2021-07-07T10:17:58Z</time>
      </trkpt>
      <trkpt lat="43.59749" lon="2.60813">
        <ele>714.4</ele>
        <time>2021-07-07T10:17:59Z</time>
      </trkpt>
      <trkpt lat="43.59749" lon="2.60813">
        <ele>689.88</ele>
        <time>2021-07-07T10:18:00Z</time>
      </trkpt>
      <trkpt lat="43.59749" lon="2.60813">
        <ele>694.21</ele>
        <time>2021-07-07T10:18:03Z</time>
      </trkpt>
      <trkpt lat="43.59748" lon="2.60813">
        <ele>691.33</ele>
        <time>2021-07-07T10:18:04Z</time>
      </trkpt>
      <trkpt lat="43.59748" lon="2.60813">
        <ele>694.69</ele>
        <time>2021-07-07T10:18:05Z</time>
      </trkpt>
      <trkpt lat="43.59748" lon="2.60813">
        <ele>685.56</ele>
        <time>2021-07-07T10:18:06Z</time>
      </trkpt>
      <trkpt lat="43.59748" lon="2.60812">
        <ele>678.83</ele>
        <time>2021-07-07T10:18:07Z</time>
      </trkpt>
      <trkpt lat="43.59748" lon="2.60812">
        <ele>728.82</ele>
        <time>2021-07-07T10:18:08Z</time>
      </trkpt>
      <trkpt lat="43.59748" lon="2.60812">
        <ele>693.25</ele>
        <time>2021-07-07T10:18:09Z</time>
      </trkpt>
      <trkpt lat="43.59748" lon="2.60812">
        <ele>687.96</ele>
        <time>2021-07-07T10:18:10Z</time>
      </trkpt>
      <trkpt lat="43.59748" lon="2.60812">
        <ele>690.36</ele>
        <time>2021-07-07T10:18:11Z</time>
      </trkpt>
      <trkpt lat="43.59748" lon="2.60812">
        <ele>707.19</ele>
        <time>2021-07-07T10:18:13Z</time>
      </trkpt>
      <trkpt lat="43.59748" lon="2.60812">
        <ele>699.5</ele>
        <time>2021-07-07T10:18:14Z</time>
      </trkpt>
      <trkpt lat="43.59748" lon="2.60812">
        <ele>690.36</ele>
        <time>2021-07-07T10:18:15Z</time>
      </trkpt>
      <trkpt lat="43.59748" lon="2.60812">
        <ele>690.36</ele>
        <time>2021-07-07T10:18:16Z</time>
      </trkpt>
      <trkpt lat="43.59749" lon="2.60813">
        <ele>690.36</ele>
        <time>2021-07-07T10:18:17Z</time>
      </trkpt>
      <trkpt lat="43.5975" lon="2.60815">
        <ele>690.84</ele>
        <time>2021-07-07T10:18:18Z</time>
      </trkpt>
      <trkpt lat="43.59751" lon="2.60817">
        <ele>690.36</ele>
        <time>2021-07-07T10:18:19Z</time>
      </trkpt>
      <trkpt lat="43.59753" lon="2.6082">
        <ele>690.84</ele>
        <time>2021-07-07T10:18:20Z</time>
      </trkpt>
      <trkpt lat="43.59754" lon="2.60823">
        <ele>690.84</ele>
        <time>2021-07-07T10:18:21Z</time>
      </trkpt>
      <trkpt lat="43.59756" lon="2.60826">
        <ele>690.84</ele>
        <time>2021-07-07T10:18:22Z</time>
      </trkpt>
      <trkpt lat="43.59758" lon="2.6083">
        <ele>690.84</ele>
        <time>2021-07-07T10:18:23Z</time>
      </trkpt>
      <trkpt lat="43.59759" lon="2.60834">
        <ele>690.84</ele>
        <time>2021-07-07T10:18:24Z</time>
      </trkpt>
      <trkpt lat="43.59761" lon="2.60838">
        <ele>691.33</ele>
        <time>2021-07-07T10:18:25Z</time>
      </trkpt>
      <trkpt lat="43.59763" lon="2.60841">
        <ele>691.33</ele>
        <time>2021-07-07T10:18:26Z</time>
      </trkpt>
      <trkpt lat="43.5978" lon="2.60886">
        <ele>691.33</ele>
        <time>2021-07-07T10:18:37Z</time>
      </trkpt>
      <trkpt lat="43.598" lon="2.60923">
        <ele>691.33</ele>
        <time>2021-07-07T10:18:45Z</time>
      </trkpt>
      <trkpt lat="43.59803" lon="2.60927">
        <ele>691.33</ele>
        <time>2021-07-07T10:18:46Z</time>
      </trkpt>
      <trkpt lat="43.59807" lon="2.6093">
        <ele>691.81</ele>
        <time>2021-07-07T10:18:47Z</time>
      </trkpt>
      <trkpt lat="43.59811" lon="2.60933">
        <ele>691.33</ele>
        <time>2021-07-07T10:18:48Z</time>
      </trkpt>
      <trkpt lat="43.59814" lon="2.60935">
        <ele>691.81</ele>
        <time>2021-07-07T10:18:49Z</time>
      </trkpt>
      <trkpt lat="43.59817" lon="2.60937">
        <ele>691.81</ele>
        <time>2021-07-07T10:18:50Z</time>
      </trkpt>
      <trkpt lat="43.59821" lon="2.60939">
        <ele>691.81</ele>
        <time>2021-07-07T10:18:51Z</time>
      </trkpt>
      <trkpt lat="43.59824" lon="2.60941">
        <ele>694.21</ele>
        <time>2021-07-07T10:18:52Z</time>
      </trkpt>
      <trkpt lat="43.59828" lon="2.60943">
        <ele>684.6</ele>
        <time>2021-07-07T10:18:53Z</time>
      </trkpt>
      <trkpt lat="43.59831" lon="2.60944">
        <ele>692.29</ele>
        <time>2021-07-07T10:18:54Z</time>
      </trkpt>
      <trkpt lat="43.59834" lon="2.60946">
        <ele>686.52</ele>
        <time>2021-07-07T10:18:55Z</time>
      </trkpt>
      <trkpt lat="43.59838" lon="2.60947">
        <ele>693.73</ele>
        <time>2021-07-07T10:18:56Z</time>
      </trkpt>
      <trkpt lat="43.5987" lon="2.60962">
        <ele>692.77</ele>
        <time>2021-07-07T10:19:08Z</time>
      </trkpt>
      <trkpt lat="43.5988" lon="2.60978">
        <ele>694.21</ele>
        <time>2021-07-07T10:19:15Z</time>
      </trkpt>
      <trkpt lat="43.59882" lon="2.6098">
        <ele>694.21</ele>
        <time>2021-07-07T10:19:16Z</time>
      </trkpt>
      <trkpt lat="43.59884" lon="2.60993">
        <ele>695.17</ele>
        <time>2021-07-07T10:19:20Z</time>
      </trkpt>
      <trkpt lat="43.59885" lon="2.60996">
        <ele>695.65</ele>
        <time>2021-07-07T10:19:21Z</time>
      </trkpt>
      <trkpt lat="43.59885" lon="2.60999">
        <ele>695.65</ele>
        <time>2021-07-07T10:19:22Z</time>
      </trkpt>
      <trkpt lat="43.59886" lon="2.61002">
        <ele>695.65</ele>
        <time>2021-07-07T10:19:23Z</time>
      </trkpt>
      <trkpt lat="43.59887" lon="2.61004">
        <ele>696.13</ele>
        <time>2021-07-07T10:19:24Z</time>
      </trkpt>
      <trkpt lat="43.59888" lon="2.61007">
        <ele>696.13</ele>
        <time>2021-07-07T10:19:25Z</time>
      </trkpt>
      <trkpt lat="43.59889" lon="2.6101">
        <ele>696.13</ele>
        <time>2021-07-07T10:19:26Z</time>
      </trkpt>
      <trkpt lat="43.5989" lon="2.61012">
        <ele>695.65</ele>
        <time>2021-07-07T10:19:27Z</time>
      </trkpt>
      <trkpt lat="43.5989" lon="2.61015">
        <ele>696.61</ele>
        <time>2021-07-07T10:19:28Z</time>
      </trkpt>
      <trkpt lat="43.59892" lon="2.6102">
        <ele>696.61</ele>
        <time>2021-07-07T10:19:30Z</time>
      </trkpt>
      <trkpt lat="43.59892" lon="2.61022">
        <ele>696.61</ele>
        <time>2021-07-07T10:19:31Z</time>
      </trkpt>
      <trkpt lat="43.59893" lon="2.61025">
        <ele>697.09</ele>
        <time>2021-07-07T10:19:32Z</time>
      </trkpt>
      <trkpt lat="43.59893" lon="2.61027">
        <ele>697.09</ele>
        <time>2021-07-07T10:19:33Z</time>
      </trkpt>
      <trkpt lat="43.59894" lon="2.61031">
        <ele>697.57</ele>
        <time>2021-07-07T10:19:34Z</time>
      </trkpt>
      <trkpt lat="43.59904" lon="2.61041">
        <ele>699.02</ele>
        <time>2021-07-07T10:19:41Z</time>
      </trkpt>
      <trkpt lat="43.59905" lon="2.61043">
        <ele>699.5</ele>
        <time>2021-07-07T10:19:42Z</time>
      </trkpt>
      <trkpt lat="43.59905" lon="2.61045">
        <ele>699.02</ele>
        <time>2021-07-07T10:19:43Z</time>
      </trkpt>
      <trkpt lat="43.59907" lon="2.61047">
        <ele>699.5</ele>
        <time>2021-07-07T10:19:44Z</time>
      </trkpt>
      <trkpt lat="43.59909" lon="2.61049">
        <ele>699.02</ele>
        <time>2021-07-07T10:19:45Z</time>
      </trkpt>
      <trkpt lat="43.5991" lon="2.61051">
        <ele>699.5</ele>
        <time>2021-07-07T10:19:46Z</time>
      </trkpt>
      <trkpt lat="43.59912" lon="2.61053">
        <ele>699.5</ele>
        <time>2021-07-07T10:19:47Z</time>
      </trkpt>
      <trkpt lat="43.59924" lon="2.61075">
        <ele>700.46</ele>
        <time>2021-07-07T10:19:57Z</time>
      </trkpt>
      <trkpt lat="43.59925" lon="2.61077">
        <ele>700.46</ele>
        <time>2021-07-07T10:19:58Z</time>
      </trkpt>
      <trkpt lat="43.59926" lon="2.61079">
        <ele>700.94</ele>
        <time>2021-07-07T10:19:59Z</time>
      </trkpt>
      <trkpt lat="43.59927" lon="2.61081">
        <ele>700.94</ele>
        <time>2021-07-07T10:20:00Z</time>
      </trkpt>
      <trkpt lat="43.59927" lon="2.61084">
        <ele>700.94</ele>
        <time>2021-07-07T10:20:01Z</time>
      </trkpt>
      <trkpt lat="43.59927" lon="2.61087">
        <ele>700.94</ele>
        <time>2021-07-07T10:20:02Z</time>
      </trkpt>
      <trkpt lat="43.59927" lon="2.61089">
        <ele>701.42</ele>
        <time>2021-07-07T10:20:03Z</time>
      </trkpt>
      <trkpt lat="43.59927" lon="2.61092">
        <ele>701.42</ele>
        <time>2021-07-07T10:20:04Z</time>
      </trkpt>
      <trkpt lat="43.59927" lon="2.61094">
        <ele>701.9</ele>
        <time>2021-07-07T10:20:05Z</time>
      </trkpt>
      <trkpt lat="43.59929" lon="2.61094">
        <ele>701.9</ele>
        <time>2021-07-07T10:20:06Z</time>
      </trkpt>
      <trkpt lat="43.59931" lon="2.61084">
        <ele>703.34</ele>
        <time>2021-07-07T10:20:11Z</time>
      </trkpt>
      <trkpt lat="43.59933" lon="2.61072">
        <ele>703.82</ele>
        <time>2021-07-07T10:20:16Z</time>
      </trkpt>
      <trkpt lat="43.59932" lon="2.61064">
        <ele>704.3</ele>
        <time>2021-07-07T10:20:21Z</time>
      </trkpt>
      <trkpt lat="43.59928" lon="2.61035">
        <ele>706.23</ele>
        <time>2021-07-07T10:20:33Z</time>
      </trkpt>
      <trkpt lat="43.59925" lon="2.61015">
        <ele>707.19</ele>
        <time>2021-07-07T10:20:43Z</time>
      </trkpt>
      <trkpt lat="43.59924" lon="2.60998">
        <ele>707.67</ele>
        <time>2021-07-07T10:20:51Z</time>
      </trkpt>
      <trkpt lat="43.59927" lon="2.60973">
        <ele>710.07</ele>
        <time>2021-07-07T10:21:05Z</time>
      </trkpt>
      <trkpt lat="43.59928" lon="2.60971">
        <ele>709.59</ele>
        <time>2021-07-07T10:21:06Z</time>
      </trkpt>
      <trkpt lat="43.59927" lon="2.60962">
        <ele>710.55</ele>
        <time>2021-07-07T10:21:10Z</time>
      </trkpt>
      <trkpt lat="43.59929" lon="2.60954">
        <ele>711.03</ele>
        <time>2021-07-07T10:21:14Z</time>
      </trkpt>
      <trkpt lat="43.5993" lon="2.6094">
        <ele>712.47</ele>
        <time>2021-07-07T10:21:19Z</time>
      </trkpt>
      <trkpt lat="43.59924" lon="2.60917">
        <ele>714.4</ele>
        <time>2021-07-07T10:21:31Z</time>
      </trkpt>
      <trkpt lat="43.59919" lon="2.60894">
        <ele>716.32</ele>
        <time>2021-07-07T10:21:44Z</time>
      </trkpt>
      <trkpt lat="43.5991" lon="2.60876">
        <ele>717.28</ele>
        <time>2021-07-07T10:21:55Z</time>
      </trkpt>
      <trkpt lat="43.59901" lon="2.60864">
        <ele>717.76</ele>
        <time>2021-07-07T10:22:02Z</time>
      </trkpt>
      <trkpt lat="43.59899" lon="2.6086">
        <ele>718.72</ele>
        <time>2021-07-07T10:22:05Z</time>
      </trkpt>
      <trkpt lat="43.59897" lon="2.60857">
        <ele>718.24</ele>
        <time>2021-07-07T10:22:06Z</time>
      </trkpt>
      <trkpt lat="43.59893" lon="2.60852">
        <ele>718.72</ele>
        <time>2021-07-07T10:22:09Z</time>
      </trkpt>
      <trkpt lat="43.59882" lon="2.60839">
        <ele>719.68</ele>
        <time>2021-07-07T10:22:21Z</time>
      </trkpt>
      <trkpt lat="43.59884" lon="2.60826">
        <ele>721.13</ele>
        <time>2021-07-07T10:22:27Z</time>
      </trkpt>
      <trkpt lat="43.59897" lon="2.60803">
        <ele>723.53</ele>
        <time>2021-07-07T10:22:42Z</time>
      </trkpt>
      <trkpt lat="43.599" lon="2.60786">
        <ele>725.93</ele>
        <time>2021-07-07T10:22:53Z</time>
      </trkpt>
      <trkpt lat="43.59888" lon="2.6078">
        <ele>728.34</ele>
        <time>2021-07-07T10:23:02Z</time>
      </trkpt>
      <trkpt lat="43.59879" lon="2.6078">
        <ele>729.3</ele>
        <time>2021-07-07T10:23:08Z</time>
      </trkpt>
      <trkpt lat="43.59874" lon="2.60774">
        <ele>729.78</ele>
        <time>2021-07-07T10:23:13Z</time>
      </trkpt>
      <trkpt lat="43.59865" lon="2.6076">
        <ele>731.7</ele>
        <time>2021-07-07T10:23:24Z</time>
      </trkpt>
      <trkpt lat="43.59858" lon="2.60748">
        <ele>732.66</ele>
        <time>2021-07-07T10:23:36Z</time>
      </trkpt>
      <trkpt lat="43.59851" lon="2.60732">
        <ele>733.62</ele>
        <time>2021-07-07T10:23:49Z</time>
      </trkpt>
      <trkpt lat="43.59855" lon="2.60714">
        <ele>735.55</ele>
        <time>2021-07-07T10:23:59Z</time>
      </trkpt>
      <trkpt lat="43.59867" lon="2.60713">
        <ele>737.95</ele>
        <time>2021-07-07T10:24:11Z</time>
      </trkpt>
      <trkpt lat="43.59876" lon="2.60716">
        <ele>739.39</ele>
        <time>2021-07-07T10:24:18Z</time>
      </trkpt>
      <trkpt lat="43.59884" lon="2.60713">
        <ele>739.87</ele>
        <time>2021-07-07T10:24:24Z</time>
      </trkpt>
      <trkpt lat="43.59888" lon="2.60696">
        <ele>742.76</ele>
        <time>2021-07-07T10:24:38Z</time>
      </trkpt>
      <trkpt lat="43.59893" lon="2.60677">
        <ele>745.16</ele>
        <time>2021-07-07T10:24:53Z</time>
      </trkpt>
      <trkpt lat="43.59894" lon="2.60675">
        <ele>737.47</ele>
        <time>2021-07-07T10:24:59Z</time>
      </trkpt>
      <trkpt lat="43.59894" lon="2.60675">
        <ele>742.28</ele>
        <time>2021-07-07T10:25:00Z</time>
      </trkpt>
      <trkpt lat="43.59894" lon="2.60675">
        <ele>745.64</ele>
        <time>2021-07-07T10:25:01Z</time>
      </trkpt>
      <trkpt lat="43.59894" lon="2.60674">
        <ele>742.28</ele>
        <time>2021-07-07T10:25:05Z</time>
      </trkpt>
      <trkpt lat="43.59894" lon="2.60674">
        <ele>745.64</ele>
        <time>2021-07-07T10:25:06Z</time>
      </trkpt>
      <trkpt lat="43.59894" lon="2.60674">
        <ele>731.7</ele>
        <time>2021-07-07T10:25:08Z</time>
      </trkpt>
      <trkpt lat="43.59894" lon="2.60674">
        <ele>747.08</ele>
        <time>2021-07-07T10:25:09Z</time>
      </trkpt>
      <trkpt lat="43.59893" lon="2.60674">
        <ele>744.68</ele>
        <time>2021-07-07T10:25:28Z</time>
      </trkpt>
      <trkpt lat="43.59893" lon="2.60673">
        <ele>744.68</ele>
        <time>2021-07-07T10:25:48Z</time>
      </trkpt>
      <trkpt lat="43.59893" lon="2.60672">
        <ele>745.16</ele>
        <time>2021-07-07T10:26:16Z</time>
      </trkpt>
      <trkpt lat="43.59893" lon="2.60674">
        <ele>744.2</ele>
        <time>2021-07-07T10:26:31Z</time>
      </trkpt>
      <trkpt lat="43.5989" lon="2.60683">
        <ele>742.76</ele>
        <time>2021-07-07T10:26:38Z</time>
      </trkpt>
      <trkpt lat="43.5989" lon="2.60692">
        <ele>742.28</ele>
        <time>2021-07-07T10:26:42Z</time>
      </trkpt>
      <trkpt lat="43.59889" lon="2.60708">
        <ele>740.35</ele>
        <time>2021-07-07T10:26:49Z</time>
      </trkpt>
      <trkpt lat="43.59879" lon="2.60714">
        <ele>739.39</ele>
        <time>2021-07-07T10:27:01Z</time>
      </trkpt>
      <trkpt lat="43.59881" lon="2.60713">
        <ele>739.39</ele>
        <time>2021-07-07T10:27:11Z</time>
      </trkpt>
      <trkpt lat="43.59885" lon="2.60708">
        <ele>739.87</ele>
        <time>2021-07-07T10:27:15Z</time>
      </trkpt>
      <trkpt lat="43.5989" lon="2.60696">
        <ele>741.79</ele>
        <time>2021-07-07T10:27:22Z</time>
      </trkpt>
      <trkpt lat="43.59894" lon="2.60672">
        <ele>744.2</ele>
        <time>2021-07-07T10:27:34Z</time>
      </trkpt>
      <trkpt lat="43.59897" lon="2.60652">
        <ele>746.12</ele>
        <time>2021-07-07T10:27:44Z</time>
      </trkpt>
      <trkpt lat="43.59907" lon="2.60633">
        <ele>748.52</ele>
        <time>2021-07-07T10:27:57Z</time>
      </trkpt>
      <trkpt lat="43.59907" lon="2.60634">
        <ele>747.08</ele>
        <time>2021-07-07T10:28:12Z</time>
      </trkpt>
      <trkpt lat="43.59907" lon="2.60634">
        <ele>743.72</ele>
        <time>2021-07-07T10:28:13Z</time>
      </trkpt>
      <trkpt lat="43.59907" lon="2.60634">
        <ele>747.08</ele>
        <time>2021-07-07T10:28:14Z</time>
      </trkpt>
      <trkpt lat="43.59907" lon="2.60633">
        <ele>749.49</ele>
        <time>2021-07-07T10:28:16Z</time>
      </trkpt>
      <trkpt lat="43.59907" lon="2.60633">
        <ele>741.79</ele>
        <time>2021-07-07T10:28:17Z</time>
      </trkpt>
      <trkpt lat="43.59907" lon="2.60633">
        <ele>749</ele>
        <time>2021-07-07T10:28:18Z</time>
      </trkpt>
      <trkpt lat="43.59907" lon="2.60634">
        <ele>719.2</ele>
        <time>2021-07-07T10:28:20Z</time>
      </trkpt>
      <trkpt lat="43.59907" lon="2.60634">
        <ele>746.12</ele>
        <time>2021-07-07T10:28:21Z</time>
      </trkpt>
      <trkpt lat="43.59907" lon="2.60634">
        <ele>732.18</ele>
        <time>2021-07-07T10:28:24Z</time>
      </trkpt>
      <trkpt lat="43.59907" lon="2.60634">
        <ele>752.37</ele>
        <time>2021-07-07T10:28:25Z</time>
      </trkpt>
      <trkpt lat="43.59907" lon="2.60635">
        <ele>748.04</ele>
        <time>2021-07-07T10:28:26Z</time>
      </trkpt>
      <trkpt lat="43.59907" lon="2.60635">
        <ele>742.76</ele>
        <time>2021-07-07T10:28:28Z</time>
      </trkpt>
      <trkpt lat="43.59907" lon="2.60635">
        <ele>743.72</ele>
        <time>2021-07-07T10:28:29Z</time>
      </trkpt>
      <trkpt lat="43.59907" lon="2.60635">
        <ele>735.55</ele>
        <time>2021-07-07T10:28:30Z</time>
      </trkpt>
      <trkpt lat="43.59907" lon="2.60635">
        <ele>756.69</ele>
        <time>2021-07-07T10:28:31Z</time>
      </trkpt>
      <trkpt lat="43.59907" lon="2.60635">
        <ele>749</ele>
        <time>2021-07-07T10:28:32Z</time>
      </trkpt>
      <trkpt lat="43.59907" lon="2.60636">
        <ele>748.04</ele>
        <time>2021-07-07T10:28:50Z</time>
      </trkpt>
      <trkpt lat="43.59906" lon="2.60637">
        <ele>747.56</ele>
        <time>2021-07-07T10:29:15Z</time>
      </trkpt>
      <trkpt lat="43.59906" lon="2.60639">
        <ele>747.56</ele>
        <time>2021-07-07T10:29:34Z</time>
      </trkpt>
      <trkpt lat="43.59906" lon="2.60639">
        <ele>747.08</ele>
        <time>2021-07-07T10:29:37Z</time>
      </trkpt>
      <trkpt lat="43.59908" lon="2.60644">
        <ele>747.08</ele>
        <time>2021-07-07T10:29:40Z</time>
      </trkpt>
      <trkpt lat="43.5992" lon="2.60676">
        <ele>745.16</ele>
        <time>2021-07-07T10:29:49Z</time>
      </trkpt>
      <trkpt lat="43.59944" lon="2.60705">
        <ele>744.2</ele>
        <time>2021-07-07T10:30:01Z</time>
      </trkpt>
      <trkpt lat="43.59957" lon="2.60713">
        <ele>744.2</ele>
        <time>2021-07-07T10:30:08Z</time>
      </trkpt>
      <trkpt lat="43.59959" lon="2.60717">
        <ele>730.26</ele>
        <time>2021-07-07T10:30:10Z</time>
      </trkpt>
      <trkpt lat="43.5996" lon="2.6072">
        <ele>747.08</ele>
        <time>2021-07-07T10:30:11Z</time>
      </trkpt>
      <trkpt lat="43.59961" lon="2.60722">
        <ele>743.72</ele>
        <time>2021-07-07T10:30:12Z</time>
      </trkpt>
      <trkpt lat="43.59973" lon="2.60754">
        <ele>742.76</ele>
        <time>2021-07-07T10:30:21Z</time>
      </trkpt>
      <trkpt lat="43.59984" lon="2.60795">
        <ele>742.28</ele>
        <time>2021-07-07T10:30:30Z</time>
      </trkpt>
      <trkpt lat="43.59993" lon="2.60837">
        <ele>740.83</ele>
        <time>2021-07-07T10:30:38Z</time>
      </trkpt>
      <trkpt lat="43.59994" lon="2.60842">
        <ele>740.83</ele>
        <time>2021-07-07T10:30:39Z</time>
      </trkpt>
      <trkpt lat="43.59996" lon="2.60847">
        <ele>740.83</ele>
        <time>2021-07-07T10:30:40Z</time>
      </trkpt>
      <trkpt lat="43.60007" lon="2.6089">
        <ele>740.35</ele>
        <time>2021-07-07T10:30:50Z</time>
      </trkpt>
      <trkpt lat="43.6001" lon="2.60914">
        <ele>740.83</ele>
        <time>2021-07-07T10:30:55Z</time>
      </trkpt>
      <trkpt lat="43.6001" lon="2.60918">
        <ele>740.35</ele>
        <time>2021-07-07T10:30:56Z</time>
      </trkpt>
      <trkpt lat="43.60015" lon="2.60963">
        <ele>741.31</ele>
        <time>2021-07-07T10:31:06Z</time>
      </trkpt>
      <trkpt lat="43.60019" lon="2.60982">
        <ele>741.79</ele>
        <time>2021-07-07T10:31:11Z</time>
      </trkpt>
      <trkpt lat="43.60019" lon="2.60985">
        <ele>742.28</ele>
        <time>2021-07-07T10:31:12Z</time>
      </trkpt>
      <trkpt lat="43.60021" lon="2.6099">
        <ele>742.76</ele>
        <time>2021-07-07T10:31:13Z</time>
      </trkpt>
      <trkpt lat="43.60022" lon="2.60994">
        <ele>742.76</ele>
        <time>2021-07-07T10:31:14Z</time>
      </trkpt>
      <trkpt lat="43.60023" lon="2.60997">
        <ele>742.76</ele>
        <time>2021-07-07T10:31:15Z</time>
      </trkpt>
      <trkpt lat="43.60038" lon="2.61036">
        <ele>743.72</ele>
        <time>2021-07-07T10:31:28Z</time>
      </trkpt>
      <trkpt lat="43.60046" lon="2.6105">
        <ele>744.2</ele>
        <time>2021-07-07T10:31:32Z</time>
      </trkpt>
      <trkpt lat="43.60047" lon="2.61053">
        <ele>744.2</ele>
        <time>2021-07-07T10:31:33Z</time>
      </trkpt>
      <trkpt lat="43.60049" lon="2.61056">
        <ele>744.2</ele>
        <time>2021-07-07T10:31:34Z</time>
      </trkpt>
      <trkpt lat="43.60051" lon="2.61059">
        <ele>744.68</ele>
        <time>2021-07-07T10:31:35Z</time>
      </trkpt>
      <trkpt lat="43.60052" lon="2.61061">
        <ele>744.2</ele>
        <time>2021-07-07T10:31:36Z</time>
      </trkpt>
      <trkpt lat="43.60054" lon="2.61064">
        <ele>744.68</ele>
        <time>2021-07-07T10:31:37Z</time>
      </trkpt>
      <trkpt lat="43.60056" lon="2.61067">
        <ele>744.68</ele>
        <time>2021-07-07T10:31:38Z</time>
      </trkpt>
      <trkpt lat="43.60057" lon="2.6107">
        <ele>744.68</ele>
        <time>2021-07-07T10:31:39Z</time>
      </trkpt>
      <trkpt lat="43.60059" lon="2.61073">
        <ele>744.68</ele>
        <time>2021-07-07T10:31:40Z</time>
      </trkpt>
      <trkpt lat="43.6006" lon="2.61076">
        <ele>744.2</ele>
        <time>2021-07-07T10:31:41Z</time>
      </trkpt>
      <trkpt lat="43.60061" lon="2.61079">
        <ele>744.68</ele>
        <time>2021-07-07T10:31:42Z</time>
      </trkpt>
      <trkpt lat="43.60062" lon="2.61081">
        <ele>744.68</ele>
        <time>2021-07-07T10:31:43Z</time>
      </trkpt>
      <trkpt lat="43.60063" lon="2.61085">
        <ele>744.2</ele>
        <time>2021-07-07T10:31:44Z</time>
      </trkpt>
      <trkpt lat="43.60063" lon="2.61089">
        <ele>745.16</ele>
        <time>2021-07-07T10:31:45Z</time>
      </trkpt>
      <trkpt lat="43.60076" lon="2.61143">
        <ele>744.2</ele>
        <time>2021-07-07T10:31:56Z</time>
      </trkpt>
      <trkpt lat="43.60078" lon="2.61154">
        <ele>744.2</ele>
        <time>2021-07-07T10:31:59Z</time>
      </trkpt>
      <trkpt lat="43.60079" lon="2.61157">
        <ele>744.68</ele>
        <time>2021-07-07T10:32:00Z</time>
      </trkpt>
      <trkpt lat="43.6008" lon="2.61161">
        <ele>745.16</ele>
        <time>2021-07-07T10:32:01Z</time>
      </trkpt>
      <trkpt lat="43.60081" lon="2.61164">
        <ele>745.64</ele>
        <time>2021-07-07T10:32:02Z</time>
      </trkpt>
      <trkpt lat="43.60091" lon="2.61211">
        <ele>746.12</ele>
        <time>2021-07-07T10:32:13Z</time>
      </trkpt>
      <trkpt lat="43.60101" lon="2.61243">
        <ele>746.6</ele>
        <time>2021-07-07T10:32:23Z</time>
      </trkpt>
      <trkpt lat="43.60103" lon="2.61245">
        <ele>747.08</ele>
        <time>2021-07-07T10:32:24Z</time>
      </trkpt>
      <trkpt lat="43.60104" lon="2.61247">
        <ele>747.08</ele>
        <time>2021-07-07T10:32:25Z</time>
      </trkpt>
      <trkpt lat="43.60107" lon="2.61252">
        <ele>747.56</ele>
        <time>2021-07-07T10:32:27Z</time>
      </trkpt>
      <trkpt lat="43.60123" lon="2.61277">
        <ele>750.45</ele>
        <time>2021-07-07T10:32:38Z</time>
      </trkpt>
      <trkpt lat="43.60129" lon="2.61286">
        <ele>750.93</ele>
        <time>2021-07-07T10:32:42Z</time>
      </trkpt>
      <trkpt lat="43.60132" lon="2.61288">
        <ele>751.41</ele>
        <time>2021-07-07T10:32:43Z</time>
      </trkpt>
      <trkpt lat="43.60134" lon="2.61289">
        <ele>751.41</ele>
        <time>2021-07-07T10:32:44Z</time>
      </trkpt>
      <trkpt lat="43.60136" lon="2.6129">
        <ele>751.41</ele>
        <time>2021-07-07T10:32:45Z</time>
      </trkpt>
      <trkpt lat="43.60138" lon="2.61292">
        <ele>751.41</ele>
        <time>2021-07-07T10:32:46Z</time>
      </trkpt>
      <trkpt lat="43.6014" lon="2.61293">
        <ele>751.41</ele>
        <time>2021-07-07T10:32:47Z</time>
      </trkpt>
      <trkpt lat="43.60141" lon="2.61294">
        <ele>752.37</ele>
        <time>2021-07-07T10:32:48Z</time>
      </trkpt>
      <trkpt lat="43.60143" lon="2.61296">
        <ele>752.37</ele>
        <time>2021-07-07T10:32:49Z</time>
      </trkpt>
      <trkpt lat="43.60158" lon="2.61301">
        <ele>753.33</ele>
        <time>2021-07-07T10:32:58Z</time>
      </trkpt>
      <trkpt lat="43.6016" lon="2.61302">
        <ele>753.81</ele>
        <time>2021-07-07T10:32:59Z</time>
      </trkpt>
      <trkpt lat="43.60167" lon="2.61303">
        <ele>754.29</ele>
        <time>2021-07-07T10:33:06Z</time>
      </trkpt>
      <trkpt lat="43.6017" lon="2.61304">
        <ele>754.29</ele>
        <time>2021-07-07T10:33:07Z</time>
      </trkpt>
      <trkpt lat="43.60172" lon="2.61305">
        <ele>754.29</ele>
        <time>2021-07-07T10:33:08Z</time>
      </trkpt>
      <trkpt lat="43.60175" lon="2.61307">
        <ele>754.29</ele>
        <time>2021-07-07T10:33:09Z</time>
      </trkpt>
      <trkpt lat="43.60178" lon="2.61309">
        <ele>754.29</ele>
        <time>2021-07-07T10:33:10Z</time>
      </trkpt>
      <trkpt lat="43.6018" lon="2.61311">
        <ele>754.29</ele>
        <time>2021-07-07T10:33:11Z</time>
      </trkpt>
      <trkpt lat="43.60182" lon="2.61313">
        <ele>754.77</ele>
        <time>2021-07-07T10:33:12Z</time>
      </trkpt>
      <trkpt lat="43.60195" lon="2.61327">
        <ele>755.25</ele>
        <time>2021-07-07T10:33:21Z</time>
      </trkpt>
      <trkpt lat="43.60197" lon="2.61329">
        <ele>755.25</ele>
        <time>2021-07-07T10:33:22Z</time>
      </trkpt>
      <trkpt lat="43.60198" lon="2.61331">
        <ele>755.73</ele>
        <time>2021-07-07T10:33:23Z</time>
      </trkpt>
      <trkpt lat="43.60199" lon="2.61334">
        <ele>755.25</ele>
        <time>2021-07-07T10:33:24Z</time>
      </trkpt>
      <trkpt lat="43.602" lon="2.61336">
        <ele>755.73</ele>
        <time>2021-07-07T10:33:25Z</time>
      </trkpt>
      <trkpt lat="43.60201" lon="2.61338">
        <ele>755.73</ele>
        <time>2021-07-07T10:33:26Z</time>
      </trkpt>
      <trkpt lat="43.60202" lon="2.6134">
        <ele>756.21</ele>
        <time>2021-07-07T10:33:27Z</time>
      </trkpt>
      <trkpt lat="43.60207" lon="2.61357">
        <ele>757.66</ele>
        <time>2021-07-07T10:33:36Z</time>
      </trkpt>
      <trkpt lat="43.60209" lon="2.61361">
        <ele>757.66</ele>
        <time>2021-07-07T10:33:38Z</time>
      </trkpt>
      <trkpt lat="43.6021" lon="2.61364">
        <ele>758.14</ele>
        <time>2021-07-07T10:33:39Z</time>
      </trkpt>
      <trkpt lat="43.60211" lon="2.61366">
        <ele>758.14</ele>
        <time>2021-07-07T10:33:40Z</time>
      </trkpt>
      <trkpt lat="43.60211" lon="2.61368">
        <ele>758.62</ele>
        <time>2021-07-07T10:33:41Z</time>
      </trkpt>
      <trkpt lat="43.60212" lon="2.61374">
        <ele>758.14</ele>
        <time>2021-07-07T10:33:53Z</time>
      </trkpt>
      <trkpt lat="43.60212" lon="2.61375">
        <ele>745.16</ele>
        <time>2021-07-07T10:33:58Z</time>
      </trkpt>
      <trkpt lat="43.60212" lon="2.61375">
        <ele>771.11</ele>
        <time>2021-07-07T10:33:59Z</time>
      </trkpt>
      <trkpt lat="43.60212" lon="2.61375">
        <ele>762.94</ele>
        <time>2021-07-07T10:34:00Z</time>
      </trkpt>
      <trkpt lat="43.60213" lon="2.61375">
        <ele>759.58</ele>
        <time>2021-07-07T10:34:01Z</time>
      </trkpt>
      <trkpt lat="43.60213" lon="2.61375">
        <ele>774</ele>
        <time>2021-07-07T10:34:02Z</time>
      </trkpt>
      <trkpt lat="43.60213" lon="2.61375">
        <ele>759.58</ele>
        <time>2021-07-07T10:34:03Z</time>
      </trkpt>
      <trkpt lat="43.60213" lon="2.61375">
        <ele>777.84</ele>
        <time>2021-07-07T10:34:05Z</time>
      </trkpt>
      <trkpt lat="43.60213" lon="2.61375">
        <ele>749.49</ele>
        <time>2021-07-07T10:34:06Z</time>
      </trkpt>
      <trkpt lat="43.60213" lon="2.61375">
        <ele>760.06</ele>
        <time>2021-07-07T10:34:07Z</time>
      </trkpt>
      <trkpt lat="43.60213" lon="2.61375">
        <ele>738.91</ele>
        <time>2021-07-07T10:34:09Z</time>
      </trkpt>
      <trkpt lat="43.60213" lon="2.61375">
        <ele>761.02</ele>
        <time>2021-07-07T10:34:10Z</time>
      </trkpt>
      <trkpt lat="43.60213" lon="2.61376">
        <ele>746.6</ele>
        <time>2021-07-07T10:34:12Z</time>
      </trkpt>
      <trkpt lat="43.60213" lon="2.61376">
        <ele>760.54</ele>
        <time>2021-07-07T10:34:13Z</time>
      </trkpt>
      <trkpt lat="43.60213" lon="2.61379">
        <ele>758.14</ele>
        <time>2021-07-07T10:34:32Z</time>
      </trkpt>
      <trkpt lat="43.60214" lon="2.6138">
        <ele>758.62</ele>
        <time>2021-07-07T10:34:34Z</time>
      </trkpt>
      <trkpt lat="43.60216" lon="2.61379">
        <ele>758.62</ele>
        <time>2021-07-07T10:34:35Z</time>
      </trkpt>
      <trkpt lat="43.60217" lon="2.61378">
        <ele>759.1</ele>
        <time>2021-07-07T10:34:36Z</time>
      </trkpt>
      <trkpt lat="43.60218" lon="2.61376">
        <ele>759.1</ele>
        <time>2021-07-07T10:34:37Z</time>
      </trkpt>
      <trkpt lat="43.60218" lon="2.61373">
        <ele>759.1</ele>
        <time>2021-07-07T10:34:39Z</time>
      </trkpt>
      <trkpt lat="43.60211" lon="2.6136">
        <ele>756.21</ele>
        <time>2021-07-07T10:34:47Z</time>
      </trkpt>
      <trkpt lat="43.60198" lon="2.61332">
        <ele>753.81</ele>
        <time>2021-07-07T10:34:59Z</time>
      </trkpt>
      <trkpt lat="43.60178" lon="2.61315">
        <ele>752.37</ele>
        <time>2021-07-07T10:35:07Z</time>
      </trkpt>
      <trkpt lat="43.60154" lon="2.61303">
        <ele>751.41</ele>
        <time>2021-07-07T10:35:16Z</time>
      </trkpt>
      <trkpt lat="43.60153" lon="2.61305">
        <ele>751.41</ele>
        <time>2021-07-07T10:35:29Z</time>
      </trkpt>
      <trkpt lat="43.60152" lon="2.61307">
        <ele>751.41</ele>
        <time>2021-07-07T10:35:51Z</time>
      </trkpt>
      <trkpt lat="43.60153" lon="2.6131">
        <ele>751.41</ele>
        <time>2021-07-07T10:36:13Z</time>
      </trkpt>
      <trkpt lat="43.60159" lon="2.61306">
        <ele>751.89</ele>
        <time>2021-07-07T10:36:22Z</time>
      </trkpt>
      <trkpt lat="43.60161" lon="2.61306">
        <ele>751.89</ele>
        <time>2021-07-07T10:36:23Z</time>
      </trkpt>
      <trkpt lat="43.60162" lon="2.61305">
        <ele>751.89</ele>
        <time>2021-07-07T10:36:24Z</time>
      </trkpt>
      <trkpt lat="43.60166" lon="2.61306">
        <ele>752.37</ele>
        <time>2021-07-07T10:36:27Z</time>
      </trkpt>
      <trkpt lat="43.60168" lon="2.61307">
        <ele>752.85</ele>
        <time>2021-07-07T10:36:28Z</time>
      </trkpt>
      <trkpt lat="43.6018" lon="2.61314">
        <ele>752.85</ele>
        <time>2021-07-07T10:36:35Z</time>
      </trkpt>
      <trkpt lat="43.60184" lon="2.61321">
        <ele>753.33</ele>
        <time>2021-07-07T10:36:38Z</time>
      </trkpt>
      <trkpt lat="43.60186" lon="2.61323">
        <ele>753.33</ele>
        <time>2021-07-07T10:36:39Z</time>
      </trkpt>
      <trkpt lat="43.60202" lon="2.61342">
        <ele>755.25</ele>
        <time>2021-07-07T10:36:51Z</time>
      </trkpt>
      <trkpt lat="43.60204" lon="2.61347">
        <ele>755.25</ele>
        <time>2021-07-07T10:36:53Z</time>
      </trkpt>
      <trkpt lat="43.60206" lon="2.61348">
        <ele>755.73</ele>
        <time>2021-07-07T10:36:54Z</time>
      </trkpt>
      <trkpt lat="43.6021" lon="2.61354">
        <ele>756.21</ele>
        <time>2021-07-07T10:36:57Z</time>
      </trkpt>
      <trkpt lat="43.60211" lon="2.61356">
        <ele>756.21</ele>
        <time>2021-07-07T10:36:58Z</time>
      </trkpt>
      <trkpt lat="43.60218" lon="2.61369">
        <ele>757.66</ele>
        <time>2021-07-07T10:37:04Z</time>
      </trkpt>
      <trkpt lat="43.6022" lon="2.61371">
        <ele>758.14</ele>
        <time>2021-07-07T10:37:05Z</time>
      </trkpt>
      <trkpt lat="43.60221" lon="2.61373">
        <ele>758.14</ele>
        <time>2021-07-07T10:37:06Z</time>
      </trkpt>
      <trkpt lat="43.60221" lon="2.61376">
        <ele>758.62</ele>
        <time>2021-07-07T10:37:08Z</time>
      </trkpt>
      <trkpt lat="43.60221" lon="2.61382">
        <ele>758.62</ele>
        <time>2021-07-07T10:37:19Z</time>
      </trkpt>
      <trkpt lat="43.6022" lon="2.61385">
        <ele>758.62</ele>
        <time>2021-07-07T10:37:30Z</time>
      </trkpt>
      <trkpt lat="43.6022" lon="2.61388">
        <ele>757.66</ele>
        <time>2021-07-07T10:37:39Z</time>
      </trkpt>
      <trkpt lat="43.60219" lon="2.61385">
        <ele>757.18</ele>
        <time>2021-07-07T10:37:57Z</time>
      </trkpt>
      <trkpt lat="43.60219" lon="2.61383">
        <ele>757.66</ele>
        <time>2021-07-07T10:38:20Z</time>
      </trkpt>
      <trkpt lat="43.60218" lon="2.61381">
        <ele>757.66</ele>
        <time>2021-07-07T10:38:43Z</time>
      </trkpt>
      <trkpt lat="43.60218" lon="2.61382">
        <ele>758.14</ele>
        <time>2021-07-07T10:39:04Z</time>
      </trkpt>
      <trkpt lat="43.60218" lon="2.61382">
        <ele>758.14</ele>
        <time>2021-07-07T10:39:25Z</time>
      </trkpt>
      <trkpt lat="43.60218" lon="2.61379">
        <ele>757.18</ele>
        <time>2021-07-07T10:39:47Z</time>
      </trkpt>
      <trkpt lat="43.60218" lon="2.61378">
        <ele>757.66</ele>
        <time>2021-07-07T10:40:13Z</time>
      </trkpt>
      <trkpt lat="43.60218" lon="2.61378">
        <ele>758.14</ele>
        <time>2021-07-07T10:40:34Z</time>
      </trkpt>
      <trkpt lat="43.60218" lon="2.61379">
        <ele>758.14</ele>
        <time>2021-07-07T10:41:00Z</time>
      </trkpt>
      <trkpt lat="43.60218" lon="2.6138">
        <ele>757.66</ele>
        <time>2021-07-07T10:41:26Z</time>
      </trkpt>
      <trkpt lat="43.60218" lon="2.6138">
        <ele>758.14</ele>
        <time>2021-07-07T10:41:49Z</time>
      </trkpt>
      <trkpt lat="43.60218" lon="2.6138">
        <ele>758.62</ele>
        <time>2021-07-07T10:42:15Z</time>
      </trkpt>
      <trkpt lat="43.60218" lon="2.6138">
        <ele>758.62</ele>
        <time>2021-07-07T10:42:38Z</time>
      </trkpt>
      <trkpt lat="43.60218" lon="2.61379">
        <ele>758.62</ele>
        <time>2021-07-07T10:43:05Z</time>
      </trkpt>
      <trkpt lat="43.60218" lon="2.6138">
        <ele>759.1</ele>
        <time>2021-07-07T10:43:31Z</time>
      </trkpt>
      <trkpt lat="43.60218" lon="2.61381">
        <ele>759.58</ele>
        <time>2021-07-07T10:43:53Z</time>
      </trkpt>
      <trkpt lat="43.60218" lon="2.61381">
        <ele>759.58</ele>
        <time>2021-07-07T10:44:24Z</time>
      </trkpt>
      <trkpt lat="43.60218" lon="2.61381">
        <ele>759.58</ele>
        <time>2021-07-07T10:44:47Z</time>
      </trkpt>
      <trkpt lat="43.60215" lon="2.61379">
        <ele>759.58</ele>
        <time>2021-07-07T10:45:10Z</time>
      </trkpt>
      <trkpt lat="43.60214" lon="2.61381">
        <ele>760.06</ele>
        <time>2021-07-07T10:45:36Z</time>
      </trkpt>
      <trkpt lat="43.60214" lon="2.61382">
        <ele>759.58</ele>
        <time>2021-07-07T10:45:55Z</time>
      </trkpt>
      <trkpt lat="43.60214" lon="2.61382">
        <ele>760.06</ele>
        <time>2021-07-07T10:46:22Z</time>
      </trkpt>
      <trkpt lat="43.60214" lon="2.61381">
        <ele>760.06</ele>
        <time>2021-07-07T10:46:50Z</time>
      </trkpt>
      <trkpt lat="43.60214" lon="2.61382">
        <ele>761.02</ele>
        <time>2021-07-07T10:47:17Z</time>
      </trkpt>
      <trkpt lat="43.60213" lon="2.61381">
        <ele>757.18</ele>
        <time>2021-07-07T10:47:33Z</time>
      </trkpt>
      <trkpt lat="43.60214" lon="2.61382">
        <ele>761.98</ele>
        <time>2021-07-07T10:47:35Z</time>
      </trkpt>
      <trkpt lat="43.60214" lon="2.61383">
        <ele>758.62</ele>
        <time>2021-07-07T10:47:37Z</time>
      </trkpt>
      <trkpt lat="43.60214" lon="2.61383">
        <ele>760.54</ele>
        <time>2021-07-07T10:47:38Z</time>
      </trkpt>
      <trkpt lat="43.60214" lon="2.61383">
        <ele>761.5</ele>
        <time>2021-07-07T10:47:40Z</time>
      </trkpt>
      <trkpt lat="43.60214" lon="2.61384">
        <ele>784.57</ele>
        <time>2021-07-07T10:47:46Z</time>
      </trkpt>
      <trkpt lat="43.60214" lon="2.61385">
        <ele>763.42</ele>
        <time>2021-07-07T10:47:47Z</time>
      </trkpt>
      <trkpt lat="43.60214" lon="2.61385">
        <ele>761.5</ele>
        <time>2021-07-07T10:47:49Z</time>
      </trkpt>
      <trkpt lat="43.60214" lon="2.61385">
        <ele>757.18</ele>
        <time>2021-07-07T10:47:50Z</time>
      </trkpt>
      <trkpt lat="43.60214" lon="2.61385">
        <ele>761.5</ele>
        <time>2021-07-07T10:47:51Z</time>
      </trkpt>
      <trkpt lat="43.60214" lon="2.61384">
        <ele>768.71</ele>
        <time>2021-07-07T10:47:54Z</time>
      </trkpt>
      <trkpt lat="43.60214" lon="2.61384">
        <ele>767.75</ele>
        <time>2021-07-07T10:47:55Z</time>
      </trkpt>
      <trkpt lat="43.60214" lon="2.61384">
        <ele>761.98</ele>
        <time>2021-07-07T10:47:56Z</time>
      </trkpt>
      <trkpt lat="43.60214" lon="2.61384">
        <ele>768.71</ele>
        <time>2021-07-07T10:47:57Z</time>
      </trkpt>
      <trkpt lat="43.60214" lon="2.61384">
        <ele>761.98</ele>
        <time>2021-07-07T10:47:58Z</time>
      </trkpt>
      <trkpt lat="43.60214" lon="2.61383">
        <ele>750.45</ele>
        <time>2021-07-07T10:48:00Z</time>
      </trkpt>
      <trkpt lat="43.60214" lon="2.61383">
        <ele>766.31</ele>
        <time>2021-07-07T10:48:01Z</time>
      </trkpt>
      <trkpt lat="43.60214" lon="2.61383">
        <ele>761.5</ele>
        <time>2021-07-07T10:48:02Z</time>
      </trkpt>
      <trkpt lat="43.60214" lon="2.61382">
        <ele>761.02</ele>
        <time>2021-07-07T10:48:21Z</time>
      </trkpt>
      <trkpt lat="43.60214" lon="2.61381">
        <ele>761.02</ele>
        <time>2021-07-07T10:48:39Z</time>
      </trkpt>
      <trkpt lat="43.60215" lon="2.61382">
        <ele>761.02</ele>
        <time>2021-07-07T10:48:59Z</time>
      </trkpt>
      <trkpt lat="43.60214" lon="2.61382">
        <ele>761.02</ele>
        <time>2021-07-07T10:49:18Z</time>
      </trkpt>
      <trkpt lat="43.60214" lon="2.61383">
        <ele>761.5</ele>
        <time>2021-07-07T10:49:38Z</time>
      </trkpt>
      <trkpt lat="43.60214" lon="2.61383">
        <ele>761.5</ele>
        <time>2021-07-07T10:49:57Z</time>
      </trkpt>
      <trkpt lat="43.60214" lon="2.61382">
        <ele>761.98</ele>
        <time>2021-07-07T10:50:24Z</time>
      </trkpt>
      <trkpt lat="43.60215" lon="2.61383">
        <ele>761.98</ele>
        <time>2021-07-07T10:50:48Z</time>
      </trkpt>
      <trkpt lat="43.60214" lon="2.61382">
        <ele>762.46</ele>
        <time>2021-07-07T10:51:11Z</time>
      </trkpt>
      <trkpt lat="43.60214" lon="2.61381">
        <ele>761.98</ele>
        <time>2021-07-07T10:51:30Z</time>
      </trkpt>
      <trkpt lat="43.60212" lon="2.61383">
        <ele>761.98</ele>
        <time>2021-07-07T10:51:49Z</time>
      </trkpt>
      <trkpt lat="43.60213" lon="2.61384">
        <ele>761.98</ele>
        <time>2021-07-07T10:52:06Z</time>
      </trkpt>
      <trkpt lat="43.60214" lon="2.61386">
        <ele>761.98</ele>
        <time>2021-07-07T10:52:30Z</time>
      </trkpt>
      <trkpt lat="43.60215" lon="2.61386">
        <ele>761.98</ele>
        <time>2021-07-07T10:52:55Z</time>
      </trkpt>
      <trkpt lat="43.60216" lon="2.61381">
        <ele>762.46</ele>
        <time>2021-07-07T10:53:26Z</time>
      </trkpt>
      <trkpt lat="43.60219" lon="2.61383">
        <ele>762.46</ele>
        <time>2021-07-07T10:53:48Z</time>
      </trkpt>
      <trkpt lat="43.60221" lon="2.61391">
        <ele>762.94</ele>
        <time>2021-07-07T10:53:59Z</time>
      </trkpt>
      <trkpt lat="43.60223" lon="2.61389">
        <ele>763.42</ele>
        <time>2021-07-07T10:54:13Z</time>
      </trkpt>
      <trkpt lat="43.6022" lon="2.61389">
        <ele>762.94</ele>
        <time>2021-07-07T10:54:25Z</time>
      </trkpt>
      <trkpt lat="43.60215" lon="2.61387">
        <ele>762.94</ele>
        <time>2021-07-07T10:54:39Z</time>
      </trkpt>
      <trkpt lat="43.60212" lon="2.61385">
        <ele>762.94</ele>
        <time>2021-07-07T10:55:12Z</time>
      </trkpt>
      <trkpt lat="43.6021" lon="2.61382">
        <ele>762.46</ele>
        <time>2021-07-07T10:55:39Z</time>
      </trkpt>
      <trkpt lat="43.60213" lon="2.61382">
        <ele>763.42</ele>
        <time>2021-07-07T10:55:51Z</time>
      </trkpt>
      <trkpt lat="43.60222" lon="2.61385">
        <ele>762.94</ele>
        <time>2021-07-07T10:56:04Z</time>
      </trkpt>
      <trkpt lat="43.60222" lon="2.61389">
        <ele>762.94</ele>
        <time>2021-07-07T10:56:16Z</time>
      </trkpt>
      <trkpt lat="43.60224" lon="2.61389">
        <ele>762.46</ele>
        <time>2021-07-07T10:56:34Z</time>
      </trkpt>
      <trkpt lat="43.60224" lon="2.61389">
        <ele>762.94</ele>
        <time>2021-07-07T10:56:47Z</time>
      </trkpt>
      <trkpt lat="43.60224" lon="2.61391">
        <ele>762.94</ele>
        <time>2021-07-07T10:57:06Z</time>
      </trkpt>
      <trkpt lat="43.60224" lon="2.61391">
        <ele>763.9</ele>
        <time>2021-07-07T10:57:24Z</time>
      </trkpt>
      <trkpt lat="43.60224" lon="2.61388">
        <ele>763.9</ele>
        <time>2021-07-07T10:57:42Z</time>
      </trkpt>
      <trkpt lat="43.60224" lon="2.61383">
        <ele>763.9</ele>
        <time>2021-07-07T10:57:52Z</time>
      </trkpt>
      <trkpt lat="43.60223" lon="2.61386">
        <ele>764.39</ele>
        <time>2021-07-07T10:58:06Z</time>
      </trkpt>
      <trkpt lat="43.60221" lon="2.61388">
        <ele>764.87</ele>
        <time>2021-07-07T10:58:19Z</time>
      </trkpt>
      <trkpt lat="43.60221" lon="2.61386">
        <ele>764.87</ele>
        <time>2021-07-07T10:58:33Z</time>
      </trkpt>
      <trkpt lat="43.60222" lon="2.61388">
        <ele>764.87</ele>
        <time>2021-07-07T10:58:35Z</time>
      </trkpt>
      <trkpt lat="43.60233" lon="2.61397">
        <ele>766.31</ele>
        <time>2021-07-07T10:58:43Z</time>
      </trkpt>
      <trkpt lat="43.60235" lon="2.61396">
        <ele>767.27</ele>
        <time>2021-07-07T10:58:45Z</time>
      </trkpt>
      <trkpt lat="43.60249" lon="2.61403">
        <ele>768.71</ele>
        <time>2021-07-07T10:58:56Z</time>
      </trkpt>
      <trkpt lat="43.60254" lon="2.61408">
        <ele>769.67</ele>
        <time>2021-07-07T10:59:01Z</time>
      </trkpt>
      <trkpt lat="43.60259" lon="2.61412">
        <ele>770.15</ele>
        <time>2021-07-07T10:59:05Z</time>
      </trkpt>
      <trkpt lat="43.60272" lon="2.61427">
        <ele>771.6</ele>
        <time>2021-07-07T10:59:16Z</time>
      </trkpt>
      <trkpt lat="43.60273" lon="2.6143">
        <ele>772.56</ele>
        <time>2021-07-07T10:59:18Z</time>
      </trkpt>
      <trkpt lat="43.60276" lon="2.61436">
        <ele>772.56</ele>
        <time>2021-07-07T10:59:22Z</time>
      </trkpt>
      <trkpt lat="43.60279" lon="2.61443">
        <ele>772.56</ele>
        <time>2021-07-07T10:59:26Z</time>
      </trkpt>
      <trkpt lat="43.60288" lon="2.61454">
        <ele>774</ele>
        <time>2021-07-07T10:59:36Z</time>
      </trkpt>
      <trkpt lat="43.603" lon="2.61464">
        <ele>775.44</ele>
        <time>2021-07-07T10:59:48Z</time>
      </trkpt>
      <trkpt lat="43.60315" lon="2.61467">
        <ele>776.88</ele>
        <time>2021-07-07T11:00:00Z</time>
      </trkpt>
      <trkpt lat="43.60317" lon="2.61467">
        <ele>777.36</ele>
        <time>2021-07-07T11:00:01Z</time>
      </trkpt>
      <trkpt lat="43.60333" lon="2.61468">
        <ele>778.32</ele>
        <time>2021-07-07T11:00:12Z</time>
      </trkpt>
      <trkpt lat="43.60338" lon="2.61469">
        <ele>779.29</ele>
        <time>2021-07-07T11:00:16Z</time>
      </trkpt>
      <trkpt lat="43.60344" lon="2.61474">
        <ele>780.25</ele>
        <time>2021-07-07T11:00:22Z</time>
      </trkpt>
      <trkpt lat="43.60351" lon="2.61479">
        <ele>781.21</ele>
        <time>2021-07-07T11:00:29Z</time>
      </trkpt>
      <trkpt lat="43.60361" lon="2.61492">
        <ele>781.69</ele>
        <time>2021-07-07T11:00:41Z</time>
      </trkpt>
      <trkpt lat="43.60368" lon="2.615">
        <ele>782.17</ele>
        <time>2021-07-07T11:00:46Z</time>
      </trkpt>
      <trkpt lat="43.6038" lon="2.61515">
        <ele>782.17</ele>
        <time>2021-07-07T11:00:56Z</time>
      </trkpt>
      <trkpt lat="43.60392" lon="2.6153">
        <ele>782.17</ele>
        <time>2021-07-07T11:01:04Z</time>
      </trkpt>
      <trkpt lat="43.60397" lon="2.61543">
        <ele>782.17</ele>
        <time>2021-07-07T11:01:09Z</time>
      </trkpt>
      <trkpt lat="43.60408" lon="2.61571">
        <ele>783.61</ele>
        <time>2021-07-07T11:01:21Z</time>
      </trkpt>
      <trkpt lat="43.60416" lon="2.61586">
        <ele>784.09</ele>
        <time>2021-07-07T11:01:28Z</time>
      </trkpt>
      <trkpt lat="43.60419" lon="2.61591">
        <ele>784.57</ele>
        <time>2021-07-07T11:01:31Z</time>
      </trkpt>
      <trkpt lat="43.60425" lon="2.61597">
        <ele>776.88</ele>
        <time>2021-07-07T11:01:42Z</time>
      </trkpt>
      <trkpt lat="43.60425" lon="2.61597">
        <ele>789.86</ele>
        <time>2021-07-07T11:01:43Z</time>
      </trkpt>
      <trkpt lat="43.60425" lon="2.61597">
        <ele>780.25</ele>
        <time>2021-07-07T11:01:44Z</time>
      </trkpt>
      <trkpt lat="43.60425" lon="2.61597">
        <ele>750.45</ele>
        <time>2021-07-07T11:01:45Z</time>
      </trkpt>
      <trkpt lat="43.60425" lon="2.61597">
        <ele>797.55</ele>
        <time>2021-07-07T11:01:46Z</time>
      </trkpt>
      <trkpt lat="43.60425" lon="2.61597">
        <ele>797.55</ele>
        <time>2021-07-07T11:01:47Z</time>
      </trkpt>
      <trkpt lat="43.60425" lon="2.61597">
        <ele>780.25</ele>
        <time>2021-07-07T11:01:49Z</time>
      </trkpt>
      <trkpt lat="43.60425" lon="2.61597">
        <ele>785.05</ele>
        <time>2021-07-07T11:01:50Z</time>
      </trkpt>
      <trkpt lat="43.60425" lon="2.61597">
        <ele>780.25</ele>
        <time>2021-07-07T11:01:53Z</time>
      </trkpt>
      <trkpt lat="43.60425" lon="2.61597">
        <ele>784.09</ele>
        <time>2021-07-07T11:01:54Z</time>
      </trkpt>
      <trkpt lat="43.60424" lon="2.61597">
        <ele>780.25</ele>
        <time>2021-07-07T11:02:04Z</time>
      </trkpt>
      <trkpt lat="43.60424" lon="2.61597">
        <ele>784.09</ele>
        <time>2021-07-07T11:02:05Z</time>
      </trkpt>
      <trkpt lat="43.60424" lon="2.61597">
        <ele>779.77</ele>
        <time>2021-07-07T11:02:06Z</time>
      </trkpt>
      <trkpt lat="43.60424" lon="2.61598">
        <ele>786.98</ele>
        <time>2021-07-07T11:02:07Z</time>
      </trkpt>
      <trkpt lat="43.60424" lon="2.61598">
        <ele>781.21</ele>
        <time>2021-07-07T11:02:08Z</time>
      </trkpt>
      <trkpt lat="43.60424" lon="2.61597">
        <ele>765.35</ele>
        <time>2021-07-07T11:02:14Z</time>
      </trkpt>
      <trkpt lat="43.60424" lon="2.61598">
        <ele>787.46</ele>
        <time>2021-07-07T11:02:15Z</time>
      </trkpt>
      <trkpt lat="43.60424" lon="2.61598">
        <ele>783.61</ele>
        <time>2021-07-07T11:02:16Z</time>
      </trkpt>
      <trkpt lat="43.60424" lon="2.61599">
        <ele>783.13</ele>
        <time>2021-07-07T11:02:18Z</time>
      </trkpt>
      <trkpt lat="43.60427" lon="2.61601">
        <ele>782.65</ele>
        <time>2021-07-07T11:02:27Z</time>
      </trkpt>
      <trkpt lat="43.60427" lon="2.61602">
        <ele>782.17</ele>
        <time>2021-07-07T11:02:28Z</time>
      </trkpt>
      <trkpt lat="43.60429" lon="2.61603">
        <ele>782.17</ele>
        <time>2021-07-07T11:02:37Z</time>
      </trkpt>
      <trkpt lat="43.60431" lon="2.61606">
        <ele>782.17</ele>
        <time>2021-07-07T11:02:39Z</time>
      </trkpt>
      <trkpt lat="43.6044" lon="2.61624">
        <ele>779.77</ele>
        <time>2021-07-07T11:02:49Z</time>
      </trkpt>
      <trkpt lat="43.60455" lon="2.61636">
        <ele>776.88</ele>
        <time>2021-07-07T11:02:57Z</time>
      </trkpt>
      <trkpt lat="43.60474" lon="2.6165">
        <ele>774.48</ele>
        <time>2021-07-07T11:03:02Z</time>
      </trkpt>
      <trkpt lat="43.60502" lon="2.61665">
        <ele>773.52</ele>
        <time>2021-07-07T11:03:08Z</time>
      </trkpt>
      <trkpt lat="43.60509" lon="2.6167">
        <ele>774</ele>
        <time>2021-07-07T11:03:10Z</time>
      </trkpt>
      <trkpt lat="43.60513" lon="2.61675">
        <ele>774.48</ele>
        <time>2021-07-07T11:03:12Z</time>
      </trkpt>
      <trkpt lat="43.60515" lon="2.61676">
        <ele>774.96</ele>
        <time>2021-07-07T11:03:13Z</time>
      </trkpt>
      <trkpt lat="43.60516" lon="2.61679">
        <ele>774.96</ele>
        <time>2021-07-07T11:03:14Z</time>
      </trkpt>
      <trkpt lat="43.60518" lon="2.61681">
        <ele>775.44</ele>
        <time>2021-07-07T11:03:15Z</time>
      </trkpt>
      <trkpt lat="43.60519" lon="2.61683">
        <ele>774.96</ele>
        <time>2021-07-07T11:03:16Z</time>
      </trkpt>
      <trkpt lat="43.60537" lon="2.61705">
        <ele>776.88</ele>
        <time>2021-07-07T11:03:28Z</time>
      </trkpt>
      <trkpt lat="43.60544" lon="2.61714">
        <ele>777.84</ele>
        <time>2021-07-07T11:03:33Z</time>
      </trkpt>
      <trkpt lat="43.60564" lon="2.61729">
        <ele>781.21</ele>
        <time>2021-07-07T11:03:45Z</time>
      </trkpt>
      <trkpt lat="43.6057" lon="2.61734">
        <ele>781.21</ele>
        <time>2021-07-07T11:03:50Z</time>
      </trkpt>
      <trkpt lat="43.60572" lon="2.61734">
        <ele>780.73</ele>
        <time>2021-07-07T11:03:51Z</time>
      </trkpt>
      <trkpt lat="43.60574" lon="2.61736">
        <ele>780.25</ele>
        <time>2021-07-07T11:03:52Z</time>
      </trkpt>
      <trkpt lat="43.60581" lon="2.6174">
        <ele>779.77</ele>
        <time>2021-07-07T11:03:56Z</time>
      </trkpt>
      <trkpt lat="43.60587" lon="2.61743">
        <ele>779.29</ele>
        <time>2021-07-07T11:04:00Z</time>
      </trkpt>
      <trkpt lat="43.6063" lon="2.61753">
        <ele>780.25</ele>
        <time>2021-07-07T11:04:12Z</time>
      </trkpt>
      <trkpt lat="43.60636" lon="2.61755">
        <ele>780.73</ele>
        <time>2021-07-07T11:04:14Z</time>
      </trkpt>
      <trkpt lat="43.6066" lon="2.61773">
        <ele>781.69</ele>
        <time>2021-07-07T11:04:25Z</time>
      </trkpt>
      <trkpt lat="43.60669" lon="2.61775">
        <ele>781.69</ele>
        <time>2021-07-07T11:04:28Z</time>
      </trkpt>
      <trkpt lat="43.60691" lon="2.61785">
        <ele>783.13</ele>
        <time>2021-07-07T11:04:38Z</time>
      </trkpt>
      <trkpt lat="43.60715" lon="2.61779">
        <ele>783.61</ele>
        <time>2021-07-07T11:04:49Z</time>
      </trkpt>
      <trkpt lat="43.60736" lon="2.6177">
        <ele>785.05</ele>
        <time>2021-07-07T11:04:59Z</time>
      </trkpt>
      <trkpt lat="43.60743" lon="2.6177">
        <ele>786.02</ele>
        <time>2021-07-07T11:05:03Z</time>
      </trkpt>
      <trkpt lat="43.60759" lon="2.61759">
        <ele>786.98</ele>
        <time>2021-07-07T11:05:13Z</time>
      </trkpt>
      <trkpt lat="43.60778" lon="2.6175">
        <ele>788.42</ele>
        <time>2021-07-07T11:05:24Z</time>
      </trkpt>
      <trkpt lat="43.60788" lon="2.61749">
        <ele>788.9</ele>
        <time>2021-07-07T11:05:30Z</time>
      </trkpt>
      <trkpt lat="43.60798" lon="2.61747">
        <ele>789.86</ele>
        <time>2021-07-07T11:05:36Z</time>
      </trkpt>
      <trkpt lat="43.60806" lon="2.61745">
        <ele>790.34</ele>
        <time>2021-07-07T11:05:41Z</time>
      </trkpt>
      <trkpt lat="43.60814" lon="2.61743">
        <ele>790.82</ele>
        <time>2021-07-07T11:05:48Z</time>
      </trkpt>
      <trkpt lat="43.60829" lon="2.61731">
        <ele>792.26</ele>
        <time>2021-07-07T11:05:57Z</time>
      </trkpt>
      <trkpt lat="43.60859" lon="2.61737">
        <ele>792.74</ele>
        <time>2021-07-07T11:06:12Z</time>
      </trkpt>
      <trkpt lat="43.60865" lon="2.6174">
        <ele>793.22</ele>
        <time>2021-07-07T11:06:16Z</time>
      </trkpt>
      <trkpt lat="43.60886" lon="2.61754">
        <ele>793.71</ele>
        <time>2021-07-07T11:06:29Z</time>
      </trkpt>
      <trkpt lat="43.60905" lon="2.61767">
        <ele>793.71</ele>
        <time>2021-07-07T11:06:39Z</time>
      </trkpt>
      <trkpt lat="43.60906" lon="2.6177">
        <ele>793.71</ele>
        <time>2021-07-07T11:06:40Z</time>
      </trkpt>
      <trkpt lat="43.60914" lon="2.61784">
        <ele>794.67</ele>
        <time>2021-07-07T11:06:46Z</time>
      </trkpt>
      <trkpt lat="43.60916" lon="2.61789">
        <ele>794.67</ele>
        <time>2021-07-07T11:06:48Z</time>
      </trkpt>
      <trkpt lat="43.60919" lon="2.61804">
        <ele>794.19</ele>
        <time>2021-07-07T11:06:53Z</time>
      </trkpt>
      <trkpt lat="43.60921" lon="2.61816">
        <ele>794.19</ele>
        <time>2021-07-07T11:06:57Z</time>
      </trkpt>
      <trkpt lat="43.60928" lon="2.61835">
        <ele>794.67</ele>
        <time>2021-07-07T11:07:04Z</time>
      </trkpt>
      <trkpt lat="43.60941" lon="2.61865">
        <ele>797.07</ele>
        <time>2021-07-07T11:07:19Z</time>
      </trkpt>
      <trkpt lat="43.60954" lon="2.61883">
        <ele>798.99</ele>
        <time>2021-07-07T11:07:31Z</time>
      </trkpt>
      <trkpt lat="43.60964" lon="2.61898">
        <ele>799.95</ele>
        <time>2021-07-07T11:07:40Z</time>
      </trkpt>
      <trkpt lat="43.60972" lon="2.61917">
        <ele>799.47</ele>
        <time>2021-07-07T11:07:49Z</time>
      </trkpt>
      <trkpt lat="43.60978" lon="2.61931">
        <ele>800.92</ele>
        <time>2021-07-07T11:07:54Z</time>
      </trkpt>
      <trkpt lat="43.60981" lon="2.61951">
        <ele>800.92</ele>
        <time>2021-07-07T11:08:01Z</time>
      </trkpt>
      <trkpt lat="43.60983" lon="2.61971">
        <ele>800.92</ele>
        <time>2021-07-07T11:08:10Z</time>
      </trkpt>
      <trkpt lat="43.60981" lon="2.6199">
        <ele>800.92</ele>
        <time>2021-07-07T11:08:18Z</time>
      </trkpt>
      <trkpt lat="43.60972" lon="2.62013">
        <ele>800.92</ele>
        <time>2021-07-07T11:08:25Z</time>
      </trkpt>
      <trkpt lat="43.60967" lon="2.62036">
        <ele>800.44</ele>
        <time>2021-07-07T11:08:32Z</time>
      </trkpt>
      <trkpt lat="43.60967" lon="2.62067">
        <ele>799.95</ele>
        <time>2021-07-07T11:08:43Z</time>
      </trkpt>
      <trkpt lat="43.60968" lon="2.62074">
        <ele>800.44</ele>
        <time>2021-07-07T11:08:46Z</time>
      </trkpt>
      <trkpt lat="43.6097" lon="2.62082">
        <ele>800.44</ele>
        <time>2021-07-07T11:08:50Z</time>
      </trkpt>
      <trkpt lat="43.60971" lon="2.62086">
        <ele>800.44</ele>
        <time>2021-07-07T11:08:52Z</time>
      </trkpt>
      <trkpt lat="43.60987" lon="2.62121">
        <ele>802.36</ele>
        <time>2021-07-07T11:09:06Z</time>
      </trkpt>
      <trkpt lat="43.61008" lon="2.62165">
        <ele>801.4</ele>
        <time>2021-07-07T11:09:19Z</time>
      </trkpt>
      <trkpt lat="43.61015" lon="2.62178">
        <ele>801.4</ele>
        <time>2021-07-07T11:09:28Z</time>
      </trkpt>
      <trkpt lat="43.61013" lon="2.62183">
        <ele>801.4</ele>
        <time>2021-07-07T11:09:56Z</time>
      </trkpt>
      <trkpt lat="43.61013" lon="2.62185">
        <ele>801.88</ele>
        <time>2021-07-07T11:10:23Z</time>
      </trkpt>
      <trkpt lat="43.61013" lon="2.62186">
        <ele>795.15</ele>
        <time>2021-07-07T11:10:34Z</time>
      </trkpt>
      <trkpt lat="43.61013" lon="2.62186">
        <ele>810.53</ele>
        <time>2021-07-07T11:10:35Z</time>
      </trkpt>
      <trkpt lat="43.61013" lon="2.62186">
        <ele>808.61</ele>
        <time>2021-07-07T11:10:36Z</time>
      </trkpt>
      <trkpt lat="43.61013" lon="2.62186">
        <ele>815.34</ele>
        <time>2021-07-07T11:10:38Z</time>
      </trkpt>
      <trkpt lat="43.61013" lon="2.62186">
        <ele>803.32</ele>
        <time>2021-07-07T11:10:39Z</time>
      </trkpt>
      <trkpt lat="43.61013" lon="2.62186">
        <ele>790.34</ele>
        <time>2021-07-07T11:10:40Z</time>
      </trkpt>
      <trkpt lat="43.61012" lon="2.62186">
        <ele>805.72</ele>
        <time>2021-07-07T11:10:43Z</time>
      </trkpt>
      <trkpt lat="43.61012" lon="2.62186">
        <ele>803.32</ele>
        <time>2021-07-07T11:10:44Z</time>
      </trkpt>
      <trkpt lat="43.61012" lon="2.62186">
        <ele>801.4</ele>
        <time>2021-07-07T11:10:47Z</time>
      </trkpt>
      <trkpt lat="43.61012" lon="2.62186">
        <ele>800.92</ele>
        <time>2021-07-07T11:10:49Z</time>
      </trkpt>
      <trkpt lat="43.6102" lon="2.62188">
        <ele>800.44</ele>
        <time>2021-07-07T11:10:53Z</time>
      </trkpt>
      <trkpt lat="43.61061" lon="2.62206">
        <ele>799.95</ele>
        <time>2021-07-07T11:11:05Z</time>
      </trkpt>
      <trkpt lat="43.61081" lon="2.62247">
        <ele>801.4</ele>
        <time>2021-07-07T11:11:19Z</time>
      </trkpt>
      <trkpt lat="43.6109" lon="2.6226">
        <ele>801.4</ele>
        <time>2021-07-07T11:11:25Z</time>
      </trkpt>
      <trkpt lat="43.61104" lon="2.62265">
        <ele>799.95</ele>
        <time>2021-07-07T11:11:31Z</time>
      </trkpt>
      <trkpt lat="43.61109" lon="2.62267">
        <ele>799.47</ele>
        <time>2021-07-07T11:11:33Z</time>
      </trkpt>
      <trkpt lat="43.61129" lon="2.62274">
        <ele>797.55</ele>
        <time>2021-07-07T11:11:39Z</time>
      </trkpt>
      <trkpt lat="43.61151" lon="2.62283">
        <ele>796.11</ele>
        <time>2021-07-07T11:11:45Z</time>
      </trkpt>
      <trkpt lat="43.61156" lon="2.62308">
        <ele>796.11</ele>
        <time>2021-07-07T11:11:50Z</time>
      </trkpt>
      <trkpt lat="43.61146" lon="2.62336">
        <ele>798.03</ele>
        <time>2021-07-07T11:12:00Z</time>
      </trkpt>
      <trkpt lat="43.61142" lon="2.62348">
        <ele>798.51</ele>
        <time>2021-07-07T11:12:05Z</time>
      </trkpt>
      <trkpt lat="43.61129" lon="2.62376">
        <ele>800.44</ele>
        <time>2021-07-07T11:12:19Z</time>
      </trkpt>
      <trkpt lat="43.61128" lon="2.62382">
        <ele>798.51</ele>
        <time>2021-07-07T11:12:30Z</time>
      </trkpt>
      <trkpt lat="43.61128" lon="2.62382">
        <ele>806.68</ele>
        <time>2021-07-07T11:12:31Z</time>
      </trkpt>
      <trkpt lat="43.61128" lon="2.62382">
        <ele>801.4</ele>
        <time>2021-07-07T11:12:32Z</time>
      </trkpt>
      <trkpt lat="43.61127" lon="2.62382">
        <ele>811.97</ele>
        <time>2021-07-07T11:12:35Z</time>
      </trkpt>
      <trkpt lat="43.61128" lon="2.62382">
        <ele>801.88</ele>
        <time>2021-07-07T11:12:36Z</time>
      </trkpt>
      <trkpt lat="43.61127" lon="2.62382">
        <ele>801.4</ele>
        <time>2021-07-07T11:12:38Z</time>
      </trkpt>
      <trkpt lat="43.61126" lon="2.62383">
        <ele>800.92</ele>
        <time>2021-07-07T11:12:51Z</time>
      </trkpt>
      <trkpt lat="43.61125" lon="2.624">
        <ele>801.88</ele>
        <time>2021-07-07T11:12:57Z</time>
      </trkpt>
      <trkpt lat="43.61124" lon="2.62407">
        <ele>801.88</ele>
        <time>2021-07-07T11:13:00Z</time>
      </trkpt>
      <trkpt lat="43.61127" lon="2.62425">
        <ele>788.42</ele>
        <time>2021-07-07T11:13:07Z</time>
      </trkpt>
      <trkpt lat="43.61127" lon="2.62428">
        <ele>811.97</ele>
        <time>2021-07-07T11:13:08Z</time>
      </trkpt>
      <trkpt lat="43.61128" lon="2.6243">
        <ele>775.44</ele>
        <time>2021-07-07T11:13:09Z</time>
      </trkpt>
      <trkpt lat="43.61128" lon="2.62431">
        <ele>808.13</ele>
        <time>2021-07-07T11:13:10Z</time>
      </trkpt>
      <trkpt lat="43.61129" lon="2.62433">
        <ele>804.28</ele>
        <time>2021-07-07T11:13:11Z</time>
      </trkpt>
      <trkpt lat="43.61131" lon="2.62444">
        <ele>804.76</ele>
        <time>2021-07-07T11:13:15Z</time>
      </trkpt>
      <trkpt lat="43.61135" lon="2.62457">
        <ele>805.24</ele>
        <time>2021-07-07T11:13:21Z</time>
      </trkpt>
      <trkpt lat="43.61137" lon="2.62472">
        <ele>807.16</ele>
        <time>2021-07-07T11:13:28Z</time>
      </trkpt>
      <trkpt lat="43.61144" lon="2.62492">
        <ele>809.09</ele>
        <time>2021-07-07T11:13:39Z</time>
      </trkpt>
      <trkpt lat="43.61149" lon="2.6251">
        <ele>811.01</ele>
        <time>2021-07-07T11:13:49Z</time>
      </trkpt>
      <trkpt lat="43.6115" lon="2.62512">
        <ele>811.01</ele>
        <time>2021-07-07T11:13:50Z</time>
      </trkpt>
      <trkpt lat="43.6115" lon="2.62521">
        <ele>811.49</ele>
        <time>2021-07-07T11:13:57Z</time>
      </trkpt>
      <trkpt lat="43.61155" lon="2.62546">
        <ele>812.45</ele>
        <time>2021-07-07T11:14:07Z</time>
      </trkpt>
      <trkpt lat="43.61156" lon="2.62555">
        <ele>812.93</ele>
        <time>2021-07-07T11:14:10Z</time>
      </trkpt>
      <trkpt lat="43.61156" lon="2.62583">
        <ele>813.41</ele>
        <time>2021-07-07T11:14:19Z</time>
      </trkpt>
      <trkpt lat="43.61161" lon="2.62611">
        <ele>814.37</ele>
        <time>2021-07-07T11:14:33Z</time>
      </trkpt>
      <trkpt lat="43.61161" lon="2.62612">
        <ele>806.2</ele>
        <time>2021-07-07T11:14:37Z</time>
      </trkpt>
      <trkpt lat="43.61161" lon="2.62612">
        <ele>817.74</ele>
        <time>2021-07-07T11:14:38Z</time>
      </trkpt>
      <trkpt lat="43.6116" lon="2.62612">
        <ele>824.95</ele>
        <time>2021-07-07T11:14:39Z</time>
      </trkpt>
      <trkpt lat="43.6116" lon="2.62613">
        <ele>816.3</ele>
        <time>2021-07-07T11:14:40Z</time>
      </trkpt>
      <trkpt lat="43.6116" lon="2.62613">
        <ele>811.97</ele>
        <time>2021-07-07T11:14:41Z</time>
      </trkpt>
      <trkpt lat="43.6116" lon="2.62614">
        <ele>817.74</ele>
        <time>2021-07-07T11:14:42Z</time>
      </trkpt>
      <trkpt lat="43.6116" lon="2.62614">
        <ele>814.37</ele>
        <time>2021-07-07T11:14:43Z</time>
      </trkpt>
      <trkpt lat="43.6116" lon="2.62614">
        <ele>814.37</ele>
        <time>2021-07-07T11:14:59Z</time>
      </trkpt>
      <trkpt lat="43.6116" lon="2.62615">
        <ele>797.07</ele>
        <time>2021-07-07T11:15:08Z</time>
      </trkpt>
      <trkpt lat="43.6116" lon="2.62615">
        <ele>819.66</ele>
        <time>2021-07-07T11:15:09Z</time>
      </trkpt>
      <trkpt lat="43.6116" lon="2.62615">
        <ele>815.34</ele>
        <time>2021-07-07T11:15:10Z</time>
      </trkpt>
      <trkpt lat="43.6116" lon="2.62616">
        <ele>821.58</ele>
        <time>2021-07-07T11:15:14Z</time>
      </trkpt>
      <trkpt lat="43.6116" lon="2.62617">
        <ele>815.34</ele>
        <time>2021-07-07T11:15:15Z</time>
      </trkpt>
      <trkpt lat="43.6116" lon="2.62617">
        <ele>826.87</ele>
        <time>2021-07-07T11:15:16Z</time>
      </trkpt>
      <trkpt lat="43.6116" lon="2.62617">
        <ele>816.3</ele>
        <time>2021-07-07T11:15:17Z</time>
      </trkpt>
      <trkpt lat="43.6116" lon="2.62616">
        <ele>814.85</ele>
        <time>2021-07-07T11:15:19Z</time>
      </trkpt>
      <trkpt lat="43.6116" lon="2.62613">
        <ele>836</ele>
        <time>2021-07-07T11:15:23Z</time>
      </trkpt>
      <trkpt lat="43.6116" lon="2.62613">
        <ele>801.88</ele>
        <time>2021-07-07T11:15:24Z</time>
      </trkpt>
      <trkpt lat="43.6116" lon="2.62613">
        <ele>817.74</ele>
        <time>2021-07-07T11:15:25Z</time>
      </trkpt>
      <trkpt lat="43.6116" lon="2.62613">
        <ele>813.41</ele>
        <time>2021-07-07T11:15:26Z</time>
      </trkpt>
      <trkpt lat="43.6116" lon="2.62613">
        <ele>844.18</ele>
        <time>2021-07-07T11:15:28Z</time>
      </trkpt>
      <trkpt lat="43.6116" lon="2.62613">
        <ele>815.82</ele>
        <time>2021-07-07T11:15:29Z</time>
      </trkpt>
      <trkpt lat="43.6116" lon="2.62613">
        <ele>808.61</ele>
        <time>2021-07-07T11:15:34Z</time>
      </trkpt>
      <trkpt lat="43.6116" lon="2.62613">
        <ele>816.78</ele>
        <time>2021-07-07T11:15:35Z</time>
      </trkpt>
      <trkpt lat="43.6116" lon="2.62612">
        <ele>811.49</ele>
        <time>2021-07-07T11:15:37Z</time>
      </trkpt>
      <trkpt lat="43.6116" lon="2.62612">
        <ele>810.05</ele>
        <time>2021-07-07T11:15:39Z</time>
      </trkpt>
      <trkpt lat="43.6116" lon="2.62612">
        <ele>815.82</ele>
        <time>2021-07-07T11:15:40Z</time>
      </trkpt>
      <trkpt lat="43.6116" lon="2.62612">
        <ele>834.08</ele>
        <time>2021-07-07T11:15:41Z</time>
      </trkpt>
      <trkpt lat="43.6116" lon="2.62612">
        <ele>806.68</ele>
        <time>2021-07-07T11:15:42Z</time>
      </trkpt>
      <trkpt lat="43.6116" lon="2.62612">
        <ele>814.37</ele>
        <time>2021-07-07T11:15:43Z</time>
      </trkpt>
      <trkpt lat="43.6116" lon="2.62612">
        <ele>823.03</ele>
        <time>2021-07-07T11:15:45Z</time>
      </trkpt>
      <trkpt lat="43.6116" lon="2.62612">
        <ele>815.82</ele>
        <time>2021-07-07T11:15:46Z</time>
      </trkpt>
      <trkpt lat="43.6116" lon="2.62612">
        <ele>814.85</ele>
        <time>2021-07-07T11:15:48Z</time>
      </trkpt>
      <trkpt lat="43.6116" lon="2.62613">
        <ele>814.37</ele>
        <time>2021-07-07T11:15:49Z</time>
      </trkpt>
      <trkpt lat="43.61159" lon="2.62617">
        <ele>814.37</ele>
        <time>2021-07-07T11:15:52Z</time>
      </trkpt>
      <trkpt lat="43.61157" lon="2.62628">
        <ele>812.93</ele>
        <time>2021-07-07T11:15:55Z</time>
      </trkpt>
      <trkpt lat="43.61154" lon="2.62649">
        <ele>811.01</ele>
        <time>2021-07-07T11:16:01Z</time>
      </trkpt>
      <trkpt lat="43.6115" lon="2.62689">
        <ele>808.13</ele>
        <time>2021-07-07T11:16:11Z</time>
      </trkpt>
      <trkpt lat="43.61143" lon="2.62714">
        <ele>804.28</ele>
        <time>2021-07-07T11:16:17Z</time>
      </trkpt>
      <trkpt lat="43.61139" lon="2.62728">
        <ele>801.4</ele>
        <time>2021-07-07T11:16:20Z</time>
      </trkpt>
      <trkpt lat="43.6114" lon="2.62742">
        <ele>798.99</ele>
        <time>2021-07-07T11:16:24Z</time>
      </trkpt>
      <trkpt lat="43.61139" lon="2.6278">
        <ele>795.63</ele>
        <time>2021-07-07T11:16:31Z</time>
      </trkpt>
      <trkpt lat="43.61133" lon="2.6279">
        <ele>794.19</ele>
        <time>2021-07-07T11:16:35Z</time>
      </trkpt>
      <trkpt lat="43.61127" lon="2.62813">
        <ele>792.26</ele>
        <time>2021-07-07T11:16:45Z</time>
      </trkpt>
      <trkpt lat="43.61126" lon="2.62819">
        <ele>793.22</ele>
        <time>2021-07-07T11:16:58Z</time>
      </trkpt>
      <trkpt lat="43.61125" lon="2.62818">
        <ele>792.74</ele>
        <time>2021-07-07T11:17:10Z</time>
      </trkpt>
      <trkpt lat="43.61129" lon="2.62848">
        <ele>789.86</ele>
        <time>2021-07-07T11:17:18Z</time>
      </trkpt>
      <trkpt lat="43.61127" lon="2.62854">
        <ele>789.86</ele>
        <time>2021-07-07T11:17:19Z</time>
      </trkpt>
      <trkpt lat="43.61126" lon="2.62858">
        <ele>789.38</ele>
        <time>2021-07-07T11:17:20Z</time>
      </trkpt>
      <trkpt lat="43.61124" lon="2.62862">
        <ele>789.38</ele>
        <time>2021-07-07T11:17:21Z</time>
      </trkpt>
      <trkpt lat="43.61122" lon="2.62866">
        <ele>789.38</ele>
        <time>2021-07-07T11:17:22Z</time>
      </trkpt>
      <trkpt lat="43.6112" lon="2.62868">
        <ele>789.38</ele>
        <time>2021-07-07T11:17:23Z</time>
      </trkpt>
      <trkpt lat="43.61118" lon="2.62871">
        <ele>789.38</ele>
        <time>2021-07-07T11:17:24Z</time>
      </trkpt>
      <trkpt lat="43.61117" lon="2.62873">
        <ele>789.38</ele>
        <time>2021-07-07T11:17:25Z</time>
      </trkpt>
      <trkpt lat="43.61116" lon="2.62875">
        <ele>789.38</ele>
        <time>2021-07-07T11:17:26Z</time>
      </trkpt>
      <trkpt lat="43.61114" lon="2.62878">
        <ele>789.86</ele>
        <time>2021-07-07T11:17:27Z</time>
      </trkpt>
      <trkpt lat="43.61113" lon="2.6288">
        <ele>789.38</ele>
        <time>2021-07-07T11:17:28Z</time>
      </trkpt>
      <trkpt lat="43.61099" lon="2.62905">
        <ele>789.86</ele>
        <time>2021-07-07T11:17:37Z</time>
      </trkpt>
      <trkpt lat="43.61079" lon="2.62927">
        <ele>789.86</ele>
        <time>2021-07-07T11:17:48Z</time>
      </trkpt>
      <trkpt lat="43.61078" lon="2.62928">
        <ele>789.86</ele>
        <time>2021-07-07T11:17:49Z</time>
      </trkpt>
      <trkpt lat="43.61076" lon="2.62931">
        <ele>790.82</ele>
        <time>2021-07-07T11:17:50Z</time>
      </trkpt>
      <trkpt lat="43.6106" lon="2.62954">
        <ele>791.78</ele>
        <time>2021-07-07T11:18:01Z</time>
      </trkpt>
      <trkpt lat="43.61058" lon="2.62955">
        <ele>790.82</ele>
        <time>2021-07-07T11:18:02Z</time>
      </trkpt>
      <trkpt lat="43.61047" lon="2.62963">
        <ele>793.22</ele>
        <time>2021-07-07T11:18:10Z</time>
      </trkpt>
      <trkpt lat="43.61033" lon="2.62968">
        <ele>794.67</ele>
        <time>2021-07-07T11:18:18Z</time>
      </trkpt>
      <trkpt lat="43.6103" lon="2.62968">
        <ele>795.15</ele>
        <time>2021-07-07T11:18:19Z</time>
      </trkpt>
      <trkpt lat="43.61028" lon="2.62969">
        <ele>795.15</ele>
        <time>2021-07-07T11:18:20Z</time>
      </trkpt>
      <trkpt lat="43.61025" lon="2.62969">
        <ele>795.15</ele>
        <time>2021-07-07T11:18:21Z</time>
      </trkpt>
      <trkpt lat="43.61023" lon="2.6297">
        <ele>795.15</ele>
        <time>2021-07-07T11:18:22Z</time>
      </trkpt>
      <trkpt lat="43.6102" lon="2.62971">
        <ele>795.15</ele>
        <time>2021-07-07T11:18:23Z</time>
      </trkpt>
      <trkpt lat="43.61016" lon="2.62972">
        <ele>795.63</ele>
        <time>2021-07-07T11:18:24Z</time>
      </trkpt>
      <trkpt lat="43.61012" lon="2.62974">
        <ele>795.15</ele>
        <time>2021-07-07T11:18:25Z</time>
      </trkpt>
      <trkpt lat="43.61008" lon="2.62974">
        <ele>795.63</ele>
        <time>2021-07-07T11:18:26Z</time>
      </trkpt>
      <trkpt lat="43.61004" lon="2.62976">
        <ele>795.63</ele>
        <time>2021-07-07T11:18:27Z</time>
      </trkpt>
      <trkpt lat="43.60991" lon="2.62984">
        <ele>795.63</ele>
        <time>2021-07-07T11:18:31Z</time>
      </trkpt>
      <trkpt lat="43.60988" lon="2.62985">
        <ele>796.11</ele>
        <time>2021-07-07T11:18:32Z</time>
      </trkpt>
      <trkpt lat="43.60986" lon="2.62985">
        <ele>796.11</ele>
        <time>2021-07-07T11:18:33Z</time>
      </trkpt>
      <trkpt lat="43.6097" lon="2.62984">
        <ele>796.11</ele>
        <time>2021-07-07T11:18:39Z</time>
      </trkpt>
      <trkpt lat="43.60968" lon="2.62985">
        <ele>797.55</ele>
        <time>2021-07-07T11:18:40Z</time>
      </trkpt>
      <trkpt lat="43.60965" lon="2.62984">
        <ele>796.59</ele>
        <time>2021-07-07T11:18:41Z</time>
      </trkpt>
      <trkpt lat="43.60963" lon="2.62983">
        <ele>796.59</ele>
        <time>2021-07-07T11:18:42Z</time>
      </trkpt>
      <trkpt lat="43.6096" lon="2.62982">
        <ele>797.07</ele>
        <time>2021-07-07T11:18:43Z</time>
      </trkpt>
      <trkpt lat="43.60958" lon="2.62982">
        <ele>797.07</ele>
        <time>2021-07-07T11:18:44Z</time>
      </trkpt>
      <trkpt lat="43.6093" lon="2.62981">
        <ele>799.47</ele>
        <time>2021-07-07T11:18:56Z</time>
      </trkpt>
      <trkpt lat="43.60926" lon="2.62983">
        <ele>799.95</ele>
        <time>2021-07-07T11:18:59Z</time>
      </trkpt>
      <trkpt lat="43.60924" lon="2.62985">
        <ele>799.95</ele>
        <time>2021-07-07T11:19:00Z</time>
      </trkpt>
      <trkpt lat="43.60917" lon="2.62988">
        <ele>800.92</ele>
        <time>2021-07-07T11:19:04Z</time>
      </trkpt>
      <trkpt lat="43.60915" lon="2.62987">
        <ele>800.92</ele>
        <time>2021-07-07T11:19:06Z</time>
      </trkpt>
      <trkpt lat="43.60913" lon="2.62989">
        <ele>800.92</ele>
        <time>2021-07-07T11:19:07Z</time>
      </trkpt>
      <trkpt lat="43.60911" lon="2.62989">
        <ele>800.92</ele>
        <time>2021-07-07T11:19:08Z</time>
      </trkpt>
      <trkpt lat="43.60909" lon="2.62989">
        <ele>800.92</ele>
        <time>2021-07-07T11:19:09Z</time>
      </trkpt>
      <trkpt lat="43.60907" lon="2.62989">
        <ele>800.92</ele>
        <time>2021-07-07T11:19:10Z</time>
      </trkpt>
      <trkpt lat="43.60905" lon="2.6299">
        <ele>801.88</ele>
        <time>2021-07-07T11:19:11Z</time>
      </trkpt>
      <trkpt lat="43.60903" lon="2.62991">
        <ele>801.4</ele>
        <time>2021-07-07T11:19:12Z</time>
      </trkpt>
      <trkpt lat="43.60901" lon="2.62992">
        <ele>801.88</ele>
        <time>2021-07-07T11:19:13Z</time>
      </trkpt>
      <trkpt lat="43.609" lon="2.62993">
        <ele>801.88</ele>
        <time>2021-07-07T11:19:14Z</time>
      </trkpt>
      <trkpt lat="43.60898" lon="2.62994">
        <ele>801.88</ele>
        <time>2021-07-07T11:19:15Z</time>
      </trkpt>
      <trkpt lat="43.60887" lon="2.63002">
        <ele>804.76</ele>
        <time>2021-07-07T11:19:22Z</time>
      </trkpt>
      <trkpt lat="43.60885" lon="2.63006">
        <ele>804.76</ele>
        <time>2021-07-07T11:19:24Z</time>
      </trkpt>
      <trkpt lat="43.60884" lon="2.63008">
        <ele>804.76</ele>
        <time>2021-07-07T11:19:25Z</time>
      </trkpt>
      <trkpt lat="43.60883" lon="2.6301">
        <ele>804.76</ele>
        <time>2021-07-07T11:19:26Z</time>
      </trkpt>
      <trkpt lat="43.60881" lon="2.63031">
        <ele>806.68</ele>
        <time>2021-07-07T11:19:37Z</time>
      </trkpt>
      <trkpt lat="43.60882" lon="2.63032">
        <ele>806.68</ele>
        <time>2021-07-07T11:19:38Z</time>
      </trkpt>
      <trkpt lat="43.60884" lon="2.63034">
        <ele>805.72</ele>
        <time>2021-07-07T11:19:39Z</time>
      </trkpt>
      <trkpt lat="43.60885" lon="2.63035">
        <ele>806.2</ele>
        <time>2021-07-07T11:19:40Z</time>
      </trkpt>
      <trkpt lat="43.60886" lon="2.63035">
        <ele>806.68</ele>
        <time>2021-07-07T11:19:41Z</time>
      </trkpt>
      <trkpt lat="43.60888" lon="2.63036">
        <ele>807.16</ele>
        <time>2021-07-07T11:19:42Z</time>
      </trkpt>
      <trkpt lat="43.6089" lon="2.63038">
        <ele>807.16</ele>
        <time>2021-07-07T11:19:45Z</time>
      </trkpt>
      <trkpt lat="43.60892" lon="2.63038">
        <ele>807.64</ele>
        <time>2021-07-07T11:19:46Z</time>
      </trkpt>
      <trkpt lat="43.60908" lon="2.63044">
        <ele>808.61</ele>
        <time>2021-07-07T11:19:58Z</time>
      </trkpt>
      <trkpt lat="43.60915" lon="2.63051">
        <ele>809.57</ele>
        <time>2021-07-07T11:20:06Z</time>
      </trkpt>
      <trkpt lat="43.60917" lon="2.63052">
        <ele>810.05</ele>
        <time>2021-07-07T11:20:07Z</time>
      </trkpt>
      <trkpt lat="43.60918" lon="2.63052">
        <ele>809.57</ele>
        <time>2021-07-07T11:20:08Z</time>
      </trkpt>
      <trkpt lat="43.60929" lon="2.63058">
        <ele>810.53</ele>
        <time>2021-07-07T11:20:16Z</time>
      </trkpt>
      <trkpt lat="43.6094" lon="2.63074">
        <ele>811.97</ele>
        <time>2021-07-07T11:20:26Z</time>
      </trkpt>
      <trkpt lat="43.60942" lon="2.63075">
        <ele>811.97</ele>
        <time>2021-07-07T11:20:27Z</time>
      </trkpt>
      <trkpt lat="43.60944" lon="2.63076">
        <ele>812.45</ele>
        <time>2021-07-07T11:20:28Z</time>
      </trkpt>
      <trkpt lat="43.60958" lon="2.63094">
        <ele>814.37</ele>
        <time>2021-07-07T11:20:40Z</time>
      </trkpt>
      <trkpt lat="43.60971" lon="2.63105">
        <ele>815.34</ele>
        <time>2021-07-07T11:20:51Z</time>
      </trkpt>
      <trkpt lat="43.60984" lon="2.63113">
        <ele>816.3</ele>
        <time>2021-07-07T11:21:01Z</time>
      </trkpt>
      <trkpt lat="43.61002" lon="2.63117">
        <ele>818.22</ele>
        <time>2021-07-07T11:21:14Z</time>
      </trkpt>
      <trkpt lat="43.61018" lon="2.63128">
        <ele>820.14</ele>
        <time>2021-07-07T11:21:26Z</time>
      </trkpt>
      <trkpt lat="43.61018" lon="2.63131">
        <ele>820.62</ele>
        <time>2021-07-07T11:21:27Z</time>
      </trkpt>
      <trkpt lat="43.61018" lon="2.63133">
        <ele>821.1</ele>
        <time>2021-07-07T11:21:28Z</time>
      </trkpt>
      <trkpt lat="43.61016" lon="2.63161">
        <ele>823.51</ele>
        <time>2021-07-07T11:21:40Z</time>
      </trkpt>
      <trkpt lat="43.61018" lon="2.63179">
        <ele>824.95</ele>
        <time>2021-07-07T11:21:53Z</time>
      </trkpt>
      <trkpt lat="43.61018" lon="2.63179">
        <ele>828.31</ele>
        <time>2021-07-07T11:21:54Z</time>
      </trkpt>
      <trkpt lat="43.61018" lon="2.6318">
        <ele>823.03</ele>
        <time>2021-07-07T11:21:55Z</time>
      </trkpt>
      <trkpt lat="43.61018" lon="2.6318">
        <ele>804.76</ele>
        <time>2021-07-07T11:21:56Z</time>
      </trkpt>
      <trkpt lat="43.61018" lon="2.6318">
        <ele>828.31</ele>
        <time>2021-07-07T11:21:57Z</time>
      </trkpt>
      <trkpt lat="43.61018" lon="2.6318">
        <ele>839.37</ele>
        <time>2021-07-07T11:21:58Z</time>
      </trkpt>
      <trkpt lat="43.61018" lon="2.6318">
        <ele>837.93</ele>
        <time>2021-07-07T11:21:59Z</time>
      </trkpt>
      <trkpt lat="43.61018" lon="2.6318">
        <ele>824.47</ele>
        <time>2021-07-07T11:22:00Z</time>
      </trkpt>
      <trkpt lat="43.61018" lon="2.6318">
        <ele>824.95</ele>
        <time>2021-07-07T11:22:01Z</time>
      </trkpt>
      <trkpt lat="43.61018" lon="2.63179">
        <ele>823.99</ele>
        <time>2021-07-07T11:22:14Z</time>
      </trkpt>
      <trkpt lat="43.61018" lon="2.63176">
        <ele>824.47</ele>
        <time>2021-07-07T11:22:24Z</time>
      </trkpt>
      <trkpt lat="43.61018" lon="2.63177">
        <ele>819.18</ele>
        <time>2021-07-07T11:22:34Z</time>
      </trkpt>
      <trkpt lat="43.61018" lon="2.63177">
        <ele>832.64</ele>
        <time>2021-07-07T11:22:35Z</time>
      </trkpt>
      <trkpt lat="43.61018" lon="2.63177">
        <ele>824.47</ele>
        <time>2021-07-07T11:22:36Z</time>
      </trkpt>
      <trkpt lat="43.61019" lon="2.63176">
        <ele>823.99</ele>
        <time>2021-07-07T11:22:58Z</time>
      </trkpt>
      <trkpt lat="43.61019" lon="2.63175">
        <ele>823.99</ele>
        <time>2021-07-07T11:23:14Z</time>
      </trkpt>
      <trkpt lat="43.61017" lon="2.63174">
        <ele>824.47</ele>
        <time>2021-07-07T11:23:35Z</time>
      </trkpt>
      <trkpt lat="43.61016" lon="2.63175">
        <ele>824.47</ele>
        <time>2021-07-07T11:23:58Z</time>
      </trkpt>
      <trkpt lat="43.61016" lon="2.63176">
        <ele>824.47</ele>
        <time>2021-07-07T11:24:24Z</time>
      </trkpt>
      <trkpt lat="43.61017" lon="2.63181">
        <ele>824.47</ele>
        <time>2021-07-07T11:24:35Z</time>
      </trkpt>
      <trkpt lat="43.6102" lon="2.63186">
        <ele>824.95</ele>
        <time>2021-07-07T11:24:47Z</time>
      </trkpt>
      <trkpt lat="43.61022" lon="2.63187">
        <ele>824.95</ele>
        <time>2021-07-07T11:24:48Z</time>
      </trkpt>
      <trkpt lat="43.61028" lon="2.63193">
        <ele>824.95</ele>
        <time>2021-07-07T11:24:53Z</time>
      </trkpt>
      <trkpt lat="43.61029" lon="2.63195">
        <ele>824.95</ele>
        <time>2021-07-07T11:24:55Z</time>
      </trkpt>
      <trkpt lat="43.61031" lon="2.63197">
        <ele>825.43</ele>
        <time>2021-07-07T11:24:56Z</time>
      </trkpt>
      <trkpt lat="43.61032" lon="2.63199">
        <ele>824.95</ele>
        <time>2021-07-07T11:24:57Z</time>
      </trkpt>
      <trkpt lat="43.61033" lon="2.63201">
        <ele>825.43</ele>
        <time>2021-07-07T11:24:58Z</time>
      </trkpt>
      <trkpt lat="43.61035" lon="2.63203">
        <ele>825.43</ele>
        <time>2021-07-07T11:24:59Z</time>
      </trkpt>
      <trkpt lat="43.61037" lon="2.63204">
        <ele>824.95</ele>
        <time>2021-07-07T11:25:00Z</time>
      </trkpt>
      <trkpt lat="43.61038" lon="2.63206">
        <ele>825.43</ele>
        <time>2021-07-07T11:25:01Z</time>
      </trkpt>
      <trkpt lat="43.61039" lon="2.63208">
        <ele>824.95</ele>
        <time>2021-07-07T11:25:02Z</time>
      </trkpt>
      <trkpt lat="43.61041" lon="2.6321">
        <ele>824.47</ele>
        <time>2021-07-07T11:25:03Z</time>
      </trkpt>
      <trkpt lat="43.61043" lon="2.63212">
        <ele>824.47</ele>
        <time>2021-07-07T11:25:04Z</time>
      </trkpt>
      <trkpt lat="43.61045" lon="2.63214">
        <ele>824.47</ele>
        <time>2021-07-07T11:25:05Z</time>
      </trkpt>
      <trkpt lat="43.61058" lon="2.63224">
        <ele>823.99</ele>
        <time>2021-07-07T11:25:11Z</time>
      </trkpt>
      <trkpt lat="43.6106" lon="2.63226">
        <ele>823.99</ele>
        <time>2021-07-07T11:25:12Z</time>
      </trkpt>
      <trkpt lat="43.61062" lon="2.63227">
        <ele>823.51</ele>
        <time>2021-07-07T11:25:13Z</time>
      </trkpt>
      <trkpt lat="43.61063" lon="2.63229">
        <ele>823.51</ele>
        <time>2021-07-07T11:25:14Z</time>
      </trkpt>
      <trkpt lat="43.61065" lon="2.63231">
        <ele>823.51</ele>
        <time>2021-07-07T11:25:15Z</time>
      </trkpt>
      <trkpt lat="43.61072" lon="2.63237">
        <ele>823.03</ele>
        <time>2021-07-07T11:25:18Z</time>
      </trkpt>
      <trkpt lat="43.61074" lon="2.63237">
        <ele>823.03</ele>
        <time>2021-07-07T11:25:19Z</time>
      </trkpt>
      <trkpt lat="43.61077" lon="2.63238">
        <ele>823.03</ele>
        <time>2021-07-07T11:25:20Z</time>
      </trkpt>
      <trkpt lat="43.6108" lon="2.63239">
        <ele>822.06</ele>
        <time>2021-07-07T11:25:21Z</time>
      </trkpt>
      <trkpt lat="43.61083" lon="2.63241">
        <ele>821.58</ele>
        <time>2021-07-07T11:25:22Z</time>
      </trkpt>
      <trkpt lat="43.61086" lon="2.63244">
        <ele>821.1</ele>
        <time>2021-07-07T11:25:23Z</time>
      </trkpt>
      <trkpt lat="43.6109" lon="2.63247">
        <ele>820.14</ele>
        <time>2021-07-07T11:25:24Z</time>
      </trkpt>
      <trkpt lat="43.61095" lon="2.63249">
        <ele>820.62</ele>
        <time>2021-07-07T11:25:25Z</time>
      </trkpt>
      <trkpt lat="43.611" lon="2.63253">
        <ele>820.62</ele>
        <time>2021-07-07T11:25:26Z</time>
      </trkpt>
      <trkpt lat="43.61141" lon="2.63269">
        <ele>817.74</ele>
        <time>2021-07-07T11:25:36Z</time>
      </trkpt>
      <trkpt lat="43.61143" lon="2.63272">
        <ele>817.26</ele>
        <time>2021-07-07T11:25:37Z</time>
      </trkpt>
      <trkpt lat="43.61147" lon="2.63275">
        <ele>817.74</ele>
        <time>2021-07-07T11:25:38Z</time>
      </trkpt>
      <trkpt lat="43.6115" lon="2.63277">
        <ele>818.22</ele>
        <time>2021-07-07T11:25:39Z</time>
      </trkpt>
      <trkpt lat="43.61187" lon="2.6331">
        <ele>814.85</ele>
        <time>2021-07-07T11:25:49Z</time>
      </trkpt>
      <trkpt lat="43.61201" lon="2.63324">
        <ele>813.89</ele>
        <time>2021-07-07T11:25:53Z</time>
      </trkpt>
      <trkpt lat="43.6121" lon="2.63342">
        <ele>811.97</ele>
        <time>2021-07-07T11:25:58Z</time>
      </trkpt>
      <trkpt lat="43.6121" lon="2.63344">
        <ele>811.49</ele>
        <time>2021-07-07T11:25:59Z</time>
      </trkpt>
      <trkpt lat="43.61212" lon="2.63357">
        <ele>809.09</ele>
        <time>2021-07-07T11:26:03Z</time>
      </trkpt>
      <trkpt lat="43.61215" lon="2.63365">
        <ele>807.64</ele>
        <time>2021-07-07T11:26:06Z</time>
      </trkpt>
      <trkpt lat="43.61217" lon="2.63367">
        <ele>807.64</ele>
        <time>2021-07-07T11:26:07Z</time>
      </trkpt>
      <trkpt lat="43.61218" lon="2.63368">
        <ele>807.16</ele>
        <time>2021-07-07T11:26:08Z</time>
      </trkpt>
      <trkpt lat="43.61221" lon="2.63371">
        <ele>806.2</ele>
        <time>2021-07-07T11:26:11Z</time>
      </trkpt>
      <trkpt lat="43.61225" lon="2.63378">
        <ele>803.32</ele>
        <time>2021-07-07T11:26:15Z</time>
      </trkpt>
      <trkpt lat="43.61226" lon="2.6338">
        <ele>803.8</ele>
        <time>2021-07-07T11:26:16Z</time>
      </trkpt>
      <trkpt lat="43.61228" lon="2.63384">
        <ele>802.36</ele>
        <time>2021-07-07T11:26:17Z</time>
      </trkpt>
      <trkpt lat="43.6123" lon="2.63389">
        <ele>802.36</ele>
        <time>2021-07-07T11:26:18Z</time>
      </trkpt>
      <trkpt lat="43.61231" lon="2.63393">
        <ele>801.88</ele>
        <time>2021-07-07T11:26:19Z</time>
      </trkpt>
      <trkpt lat="43.61232" lon="2.63397">
        <ele>800.92</ele>
        <time>2021-07-07T11:26:20Z</time>
      </trkpt>
      <trkpt lat="43.61253" lon="2.63425">
        <ele>799.95</ele>
        <time>2021-07-07T11:26:26Z</time>
      </trkpt>
      <trkpt lat="43.61257" lon="2.63427">
        <ele>800.44</ele>
        <time>2021-07-07T11:26:27Z</time>
      </trkpt>
      <trkpt lat="43.61292" lon="2.63456">
        <ele>800.92</ele>
        <time>2021-07-07T11:26:40Z</time>
      </trkpt>
      <trkpt lat="43.613" lon="2.63469">
        <ele>801.88</ele>
        <time>2021-07-07T11:26:45Z</time>
      </trkpt>
      <trkpt lat="43.61301" lon="2.63471">
        <ele>802.36</ele>
        <time>2021-07-07T11:26:46Z</time>
      </trkpt>
      <trkpt lat="43.61302" lon="2.63472">
        <ele>801.88</ele>
        <time>2021-07-07T11:26:47Z</time>
      </trkpt>
      <trkpt lat="43.61303" lon="2.63474">
        <ele>802.36</ele>
        <time>2021-07-07T11:26:48Z</time>
      </trkpt>
      <trkpt lat="43.61305" lon="2.63476">
        <ele>801.88</ele>
        <time>2021-07-07T11:26:49Z</time>
      </trkpt>
      <trkpt lat="43.61319" lon="2.63505">
        <ele>803.8</ele>
        <time>2021-07-07T11:27:01Z</time>
      </trkpt>
      <trkpt lat="43.61321" lon="2.63511">
        <ele>804.28</ele>
        <time>2021-07-07T11:27:04Z</time>
      </trkpt>
      <trkpt lat="43.61322" lon="2.63513">
        <ele>804.28</ele>
        <time>2021-07-07T11:27:05Z</time>
      </trkpt>
      <trkpt lat="43.61323" lon="2.63514">
        <ele>804.28</ele>
        <time>2021-07-07T11:27:06Z</time>
      </trkpt>
      <trkpt lat="43.61332" lon="2.63521">
        <ele>806.2</ele>
        <time>2021-07-07T11:27:13Z</time>
      </trkpt>
      <trkpt lat="43.61334" lon="2.63522">
        <ele>806.2</ele>
        <time>2021-07-07T11:27:14Z</time>
      </trkpt>
      <trkpt lat="43.61338" lon="2.63532">
        <ele>806.68</ele>
        <time>2021-07-07T11:27:19Z</time>
      </trkpt>
      <trkpt lat="43.61339" lon="2.63535">
        <ele>806.68</ele>
        <time>2021-07-07T11:27:20Z</time>
      </trkpt>
      <trkpt lat="43.6134" lon="2.63537">
        <ele>807.16</ele>
        <time>2021-07-07T11:27:21Z</time>
      </trkpt>
      <trkpt lat="43.61341" lon="2.63539">
        <ele>807.16</ele>
        <time>2021-07-07T11:27:22Z</time>
      </trkpt>
      <trkpt lat="43.61343" lon="2.63542">
        <ele>807.64</ele>
        <time>2021-07-07T11:27:23Z</time>
      </trkpt>
      <trkpt lat="43.61344" lon="2.63544">
        <ele>807.64</ele>
        <time>2021-07-07T11:27:24Z</time>
      </trkpt>
      <trkpt lat="43.61344" lon="2.63546">
        <ele>808.13</ele>
        <time>2021-07-07T11:27:25Z</time>
      </trkpt>
      <trkpt lat="43.61347" lon="2.63551">
        <ele>808.61</ele>
        <time>2021-07-07T11:27:28Z</time>
      </trkpt>
      <trkpt lat="43.61349" lon="2.63556">
        <ele>809.57</ele>
        <time>2021-07-07T11:27:31Z</time>
      </trkpt>
      <trkpt lat="43.61349" lon="2.63559">
        <ele>810.05</ele>
        <time>2021-07-07T11:27:32Z</time>
      </trkpt>
      <trkpt lat="43.61349" lon="2.63562">
        <ele>809.57</ele>
        <time>2021-07-07T11:27:33Z</time>
      </trkpt>
      <trkpt lat="43.61353" lon="2.63569">
        <ele>810.53</ele>
        <time>2021-07-07T11:27:36Z</time>
      </trkpt>
      <trkpt lat="43.61355" lon="2.63578">
        <ele>811.97</ele>
        <time>2021-07-07T11:27:39Z</time>
      </trkpt>
      <trkpt lat="43.61355" lon="2.6358">
        <ele>811.49</ele>
        <time>2021-07-07T11:27:40Z</time>
      </trkpt>
      <trkpt lat="43.61355" lon="2.63582">
        <ele>811.97</ele>
        <time>2021-07-07T11:27:41Z</time>
      </trkpt>
      <trkpt lat="43.61356" lon="2.63585">
        <ele>811.97</ele>
        <time>2021-07-07T11:27:42Z</time>
      </trkpt>
      <trkpt lat="43.61357" lon="2.63585">
        <ele>811.97</ele>
        <time>2021-07-07T11:27:43Z</time>
      </trkpt>
      <trkpt lat="43.61365" lon="2.63599">
        <ele>814.37</ele>
        <time>2021-07-07T11:27:53Z</time>
      </trkpt>
      <trkpt lat="43.61375" lon="2.63618">
        <ele>815.34</ele>
        <time>2021-07-07T11:28:05Z</time>
      </trkpt>
      <trkpt lat="43.6138" lon="2.63635">
        <ele>816.3</ele>
        <time>2021-07-07T11:28:14Z</time>
      </trkpt>
      <trkpt lat="43.61381" lon="2.63637">
        <ele>816.3</ele>
        <time>2021-07-07T11:28:15Z</time>
      </trkpt>
      <trkpt lat="43.61384" lon="2.63649">
        <ele>816.78</ele>
        <time>2021-07-07T11:28:21Z</time>
      </trkpt>
      <trkpt lat="43.61384" lon="2.63651">
        <ele>817.26</ele>
        <time>2021-07-07T11:28:22Z</time>
      </trkpt>
      <trkpt lat="43.61389" lon="2.63671">
        <ele>817.74</ele>
        <time>2021-07-07T11:28:32Z</time>
      </trkpt>
      <trkpt lat="43.61391" lon="2.63672">
        <ele>818.22</ele>
        <time>2021-07-07T11:28:33Z</time>
      </trkpt>
      <trkpt lat="43.61393" lon="2.63674">
        <ele>818.7</ele>
        <time>2021-07-07T11:28:36Z</time>
      </trkpt>
      <trkpt lat="43.61394" lon="2.63689">
        <ele>819.18</ele>
        <time>2021-07-07T11:28:42Z</time>
      </trkpt>
      <trkpt lat="43.61398" lon="2.63704">
        <ele>819.66</ele>
        <time>2021-07-07T11:28:49Z</time>
      </trkpt>
      <trkpt lat="43.614" lon="2.63741">
        <ele>819.66</ele>
        <time>2021-07-07T11:29:03Z</time>
      </trkpt>
      <trkpt lat="43.61399" lon="2.63746">
        <ele>820.14</ele>
        <time>2021-07-07T11:29:05Z</time>
      </trkpt>
      <trkpt lat="43.61401" lon="2.63783">
        <ele>820.62</ele>
        <time>2021-07-07T11:29:18Z</time>
      </trkpt>
      <trkpt lat="43.61401" lon="2.63786">
        <ele>821.1</ele>
        <time>2021-07-07T11:29:19Z</time>
      </trkpt>
      <trkpt lat="43.61399" lon="2.63803">
        <ele>821.1</ele>
        <time>2021-07-07T11:29:25Z</time>
      </trkpt>
      <trkpt lat="43.61399" lon="2.63821">
        <ele>822.55</ele>
        <time>2021-07-07T11:29:31Z</time>
      </trkpt>
      <trkpt lat="43.61396" lon="2.63828">
        <ele>822.06</ele>
        <time>2021-07-07T11:29:33Z</time>
      </trkpt>
      <trkpt lat="43.61398" lon="2.6384">
        <ele>822.55</ele>
        <time>2021-07-07T11:29:38Z</time>
      </trkpt>
      <trkpt lat="43.61403" lon="2.63872">
        <ele>822.55</ele>
        <time>2021-07-07T11:29:50Z</time>
      </trkpt>
      <trkpt lat="43.61406" lon="2.63884">
        <ele>823.03</ele>
        <time>2021-07-07T11:29:55Z</time>
      </trkpt>
      <trkpt lat="43.61407" lon="2.63903">
        <ele>823.51</ele>
        <time>2021-07-07T11:30:01Z</time>
      </trkpt>
      <trkpt lat="43.6141" lon="2.63938">
        <ele>824.95</ele>
        <time>2021-07-07T11:30:13Z</time>
      </trkpt>
      <trkpt lat="43.61407" lon="2.63968">
        <ele>825.91</ele>
        <time>2021-07-07T11:30:24Z</time>
      </trkpt>
      <trkpt lat="43.61405" lon="2.64001">
        <ele>826.87</ele>
        <time>2021-07-07T11:30:37Z</time>
      </trkpt>
      <trkpt lat="43.61404" lon="2.64012">
        <ele>827.35</ele>
        <time>2021-07-07T11:30:41Z</time>
      </trkpt>
      <trkpt lat="43.61403" lon="2.64028">
        <ele>828.79</ele>
        <time>2021-07-07T11:30:51Z</time>
      </trkpt>
      <trkpt lat="43.61403" lon="2.64031">
        <ele>828.31</ele>
        <time>2021-07-07T11:30:53Z</time>
      </trkpt>
      <trkpt lat="43.61401" lon="2.64041">
        <ele>815.82</ele>
        <time>2021-07-07T11:31:03Z</time>
      </trkpt>
      <trkpt lat="43.61401" lon="2.64041">
        <ele>851.87</ele>
        <time>2021-07-07T11:31:04Z</time>
      </trkpt>
      <trkpt lat="43.61401" lon="2.64041">
        <ele>823.03</ele>
        <time>2021-07-07T11:31:05Z</time>
      </trkpt>
      <trkpt lat="43.61401" lon="2.64041">
        <ele>830.24</ele>
        <time>2021-07-07T11:31:06Z</time>
      </trkpt>
      <trkpt lat="43.61401" lon="2.64041">
        <ele>803.32</ele>
        <time>2021-07-07T11:31:07Z</time>
      </trkpt>
      <trkpt lat="43.61401" lon="2.64042">
        <ele>833.6</ele>
        <time>2021-07-07T11:31:08Z</time>
      </trkpt>
      <trkpt lat="43.61401" lon="2.64042">
        <ele>843.21</ele>
        <time>2021-07-07T11:31:09Z</time>
      </trkpt>
      <trkpt lat="43.61401" lon="2.64042">
        <ele>829.27</ele>
        <time>2021-07-07T11:31:10Z</time>
      </trkpt>
      <trkpt lat="43.61401" lon="2.64042">
        <ele>837.93</ele>
        <time>2021-07-07T11:31:11Z</time>
      </trkpt>
      <trkpt lat="43.61401" lon="2.64042">
        <ele>829.76</ele>
        <time>2021-07-07T11:31:12Z</time>
      </trkpt>
      <trkpt lat="43.614" lon="2.64042">
        <ele>827.83</ele>
        <time>2021-07-07T11:31:24Z</time>
      </trkpt>
      <trkpt lat="43.61401" lon="2.64043">
        <ele>828.31</ele>
        <time>2021-07-07T11:31:39Z</time>
      </trkpt>
      <trkpt lat="43.61402" lon="2.64044">
        <ele>827.83</ele>
        <time>2021-07-07T11:31:54Z</time>
      </trkpt>
      <trkpt lat="43.61402" lon="2.64044">
        <ele>827.35</ele>
        <time>2021-07-07T11:32:09Z</time>
      </trkpt>
      <trkpt lat="43.614" lon="2.64046">
        <ele>828.31</ele>
        <time>2021-07-07T11:32:22Z</time>
      </trkpt>
      <trkpt lat="43.614" lon="2.64047">
        <ele>828.31</ele>
        <time>2021-07-07T11:32:38Z</time>
      </trkpt>
      <trkpt lat="43.61398" lon="2.64046">
        <ele>828.31</ele>
        <time>2021-07-07T11:33:03Z</time>
      </trkpt>
      <trkpt lat="43.61398" lon="2.64048">
        <ele>828.31</ele>
        <time>2021-07-07T11:33:17Z</time>
      </trkpt>
      <trkpt lat="43.61397" lon="2.6405">
        <ele>828.31</ele>
        <time>2021-07-07T11:33:35Z</time>
      </trkpt>
      <trkpt lat="43.61398" lon="2.64053">
        <ele>828.31</ele>
        <time>2021-07-07T11:33:52Z</time>
      </trkpt>
      <trkpt lat="43.61397" lon="2.64052">
        <ele>827.83</ele>
        <time>2021-07-07T11:34:05Z</time>
      </trkpt>
      <trkpt lat="43.61397" lon="2.64055">
        <ele>827.83</ele>
        <time>2021-07-07T11:34:19Z</time>
      </trkpt>
      <trkpt lat="43.61396" lon="2.64055">
        <ele>828.79</ele>
        <time>2021-07-07T11:34:29Z</time>
      </trkpt>
      <trkpt lat="43.61396" lon="2.64057">
        <ele>828.31</ele>
        <time>2021-07-07T11:34:43Z</time>
      </trkpt>
      <trkpt lat="43.61394" lon="2.64055">
        <ele>828.79</ele>
        <time>2021-07-07T11:34:55Z</time>
      </trkpt>
      <trkpt lat="43.61394" lon="2.64059">
        <ele>828.79</ele>
        <time>2021-07-07T11:35:14Z</time>
      </trkpt>
      <trkpt lat="43.61394" lon="2.64057">
        <ele>828.79</ele>
        <time>2021-07-07T11:35:25Z</time>
      </trkpt>
      <trkpt lat="43.61393" lon="2.64064">
        <ele>828.79</ele>
        <time>2021-07-07T11:35:33Z</time>
      </trkpt>
      <trkpt lat="43.61392" lon="2.6408">
        <ele>829.27</ele>
        <time>2021-07-07T11:35:39Z</time>
      </trkpt>
      <trkpt lat="43.61393" lon="2.64092">
        <ele>829.27</ele>
        <time>2021-07-07T11:35:44Z</time>
      </trkpt>
      <trkpt lat="43.61394" lon="2.64096">
        <ele>829.27</ele>
        <time>2021-07-07T11:35:47Z</time>
      </trkpt>
      <trkpt lat="43.61394" lon="2.64102">
        <ele>829.27</ele>
        <time>2021-07-07T11:35:50Z</time>
      </trkpt>
      <trkpt lat="43.61396" lon="2.6412">
        <ele>829.76</ele>
        <time>2021-07-07T11:35:57Z</time>
      </trkpt>
      <trkpt lat="43.61393" lon="2.64175">
        <ele>829.27</ele>
        <time>2021-07-07T11:36:09Z</time>
      </trkpt>
      <trkpt lat="43.61398" lon="2.6423">
        <ele>827.83</ele>
        <time>2021-07-07T11:36:20Z</time>
      </trkpt>
      <trkpt lat="43.61419" lon="2.64268">
        <ele>825.43</ele>
        <time>2021-07-07T11:36:29Z</time>
      </trkpt>
      <trkpt lat="43.61421" lon="2.64272">
        <ele>825.43</ele>
        <time>2021-07-07T11:36:30Z</time>
      </trkpt>
      <trkpt lat="43.61443" lon="2.64298">
        <ele>822.55</ele>
        <time>2021-07-07T11:36:38Z</time>
      </trkpt>
      <trkpt lat="43.61448" lon="2.64302">
        <ele>821.58</ele>
        <time>2021-07-07T11:36:40Z</time>
      </trkpt>
      <trkpt lat="43.61451" lon="2.64303">
        <ele>820.62</ele>
        <time>2021-07-07T11:36:42Z</time>
      </trkpt>
      <trkpt lat="43.61454" lon="2.64316">
        <ele>820.14</ele>
        <time>2021-07-07T11:36:45Z</time>
      </trkpt>
      <trkpt lat="43.61455" lon="2.64323">
        <ele>819.18</ele>
        <time>2021-07-07T11:36:46Z</time>
      </trkpt>
      <trkpt lat="43.61456" lon="2.6433">
        <ele>818.7</ele>
        <time>2021-07-07T11:36:47Z</time>
      </trkpt>
      <trkpt lat="43.61459" lon="2.64346">
        <ele>817.26</ele>
        <time>2021-07-07T11:36:49Z</time>
      </trkpt>
      <trkpt lat="43.6146" lon="2.64354">
        <ele>816.78</ele>
        <time>2021-07-07T11:36:50Z</time>
      </trkpt>
      <trkpt lat="43.61462" lon="2.64361">
        <ele>816.78</ele>
        <time>2021-07-07T11:36:51Z</time>
      </trkpt>
      <trkpt lat="43.61463" lon="2.64367">
        <ele>816.3</ele>
        <time>2021-07-07T11:36:52Z</time>
      </trkpt>
      <trkpt lat="43.61465" lon="2.64372">
        <ele>816.3</ele>
        <time>2021-07-07T11:36:53Z</time>
      </trkpt>
      <trkpt lat="43.61479" lon="2.64419">
        <ele>817.26</ele>
        <time>2021-07-07T11:37:03Z</time>
      </trkpt>
      <trkpt lat="43.6148" lon="2.64451">
        <ele>819.66</ele>
        <time>2021-07-07T11:37:13Z</time>
      </trkpt>
      <trkpt lat="43.61473" lon="2.64478">
        <ele>823.03</ele>
        <time>2021-07-07T11:37:24Z</time>
      </trkpt>
      <trkpt lat="43.61474" lon="2.64503">
        <ele>824.47</ele>
        <time>2021-07-07T11:37:35Z</time>
      </trkpt>
      <trkpt lat="43.61478" lon="2.64504">
        <ele>824.95</ele>
        <time>2021-07-07T11:37:38Z</time>
      </trkpt>
      <trkpt lat="43.6148" lon="2.64505">
        <ele>824.47</ele>
        <time>2021-07-07T11:37:39Z</time>
      </trkpt>
      <trkpt lat="43.61487" lon="2.64512">
        <ele>825.43</ele>
        <time>2021-07-07T11:37:44Z</time>
      </trkpt>
      <trkpt lat="43.61507" lon="2.64519">
        <ele>826.87</ele>
        <time>2021-07-07T11:37:57Z</time>
      </trkpt>
      <trkpt lat="43.61529" lon="2.6452">
        <ele>828.31</ele>
        <time>2021-07-07T11:38:09Z</time>
      </trkpt>
      <trkpt lat="43.61531" lon="2.64519">
        <ele>828.31</ele>
        <time>2021-07-07T11:38:10Z</time>
      </trkpt>
      <trkpt lat="43.61532" lon="2.64518">
        <ele>828.79</ele>
        <time>2021-07-07T11:38:11Z</time>
      </trkpt>
      <trkpt lat="43.61537" lon="2.64515">
        <ele>829.27</ele>
        <time>2021-07-07T11:38:14Z</time>
      </trkpt>
      <trkpt lat="43.61539" lon="2.64515">
        <ele>829.27</ele>
        <time>2021-07-07T11:38:15Z</time>
      </trkpt>
      <trkpt lat="43.61558" lon="2.64512">
        <ele>832.16</ele>
        <time>2021-07-07T11:38:29Z</time>
      </trkpt>
      <trkpt lat="43.61574" lon="2.64505">
        <ele>833.6</ele>
        <time>2021-07-07T11:38:40Z</time>
      </trkpt>
      <trkpt lat="43.61579" lon="2.64513">
        <ele>833.6</ele>
        <time>2021-07-07T11:38:44Z</time>
      </trkpt>
      <trkpt lat="43.6158" lon="2.64515">
        <ele>834.08</ele>
        <time>2021-07-07T11:38:45Z</time>
      </trkpt>
      <trkpt lat="43.61581" lon="2.64517">
        <ele>834.08</ele>
        <time>2021-07-07T11:38:46Z</time>
      </trkpt>
      <trkpt lat="43.61582" lon="2.64525">
        <ele>834.08</ele>
        <time>2021-07-07T11:38:49Z</time>
      </trkpt>
      <trkpt lat="43.61581" lon="2.64527">
        <ele>834.56</ele>
        <time>2021-07-07T11:38:50Z</time>
      </trkpt>
      <trkpt lat="43.61577" lon="2.64531">
        <ele>835.52</ele>
        <time>2021-07-07T11:38:55Z</time>
      </trkpt>
      <trkpt lat="43.61572" lon="2.64534">
        <ele>851.38</ele>
        <time>2021-07-07T11:38:59Z</time>
      </trkpt>
      <trkpt lat="43.6157" lon="2.64535">
        <ele>837.93</ele>
        <time>2021-07-07T11:39:00Z</time>
      </trkpt>
      <trkpt lat="43.61555" lon="2.64546">
        <ele>837.45</ele>
        <time>2021-07-07T11:39:12Z</time>
      </trkpt>
      <trkpt lat="43.61553" lon="2.64545">
        <ele>836.96</ele>
        <time>2021-07-07T11:39:13Z</time>
      </trkpt>
      <trkpt lat="43.61544" lon="2.6455">
        <ele>837.45</ele>
        <time>2021-07-07T11:39:18Z</time>
      </trkpt>
      <trkpt lat="43.61543" lon="2.64551">
        <ele>837.93</ele>
        <time>2021-07-07T11:39:19Z</time>
      </trkpt>
      <trkpt lat="43.61541" lon="2.64552">
        <ele>838.41</ele>
        <time>2021-07-07T11:39:20Z</time>
      </trkpt>
      <trkpt lat="43.61531" lon="2.64561">
        <ele>839.37</ele>
        <time>2021-07-07T11:39:26Z</time>
      </trkpt>
      <trkpt lat="43.6153" lon="2.64564">
        <ele>838.89</ele>
        <time>2021-07-07T11:39:27Z</time>
      </trkpt>
      <trkpt lat="43.61524" lon="2.64578">
        <ele>838.41</ele>
        <time>2021-07-07T11:39:35Z</time>
      </trkpt>
      <trkpt lat="43.61522" lon="2.64579">
        <ele>838.41</ele>
        <time>2021-07-07T11:39:36Z</time>
      </trkpt>
      <trkpt lat="43.61516" lon="2.64581">
        <ele>837.93</ele>
        <time>2021-07-07T11:39:40Z</time>
      </trkpt>
      <trkpt lat="43.61514" lon="2.64581">
        <ele>837.93</ele>
        <time>2021-07-07T11:39:41Z</time>
      </trkpt>
      <trkpt lat="43.61512" lon="2.64582">
        <ele>837.45</ele>
        <time>2021-07-07T11:39:42Z</time>
      </trkpt>
      <trkpt lat="43.61509" lon="2.64583">
        <ele>837.45</ele>
        <time>2021-07-07T11:39:43Z</time>
      </trkpt>
      <trkpt lat="43.61507" lon="2.64584">
        <ele>836.96</ele>
        <time>2021-07-07T11:39:44Z</time>
      </trkpt>
      <trkpt lat="43.61505" lon="2.64586">
        <ele>836.96</ele>
        <time>2021-07-07T11:39:45Z</time>
      </trkpt>
      <trkpt lat="43.61481" lon="2.64593">
        <ele>834.08</ele>
        <time>2021-07-07T11:39:53Z</time>
      </trkpt>
      <trkpt lat="43.61478" lon="2.64593">
        <ele>833.6</ele>
        <time>2021-07-07T11:39:54Z</time>
      </trkpt>
      <trkpt lat="43.61475" lon="2.64593">
        <ele>833.6</ele>
        <time>2021-07-07T11:39:55Z</time>
      </trkpt>
      <trkpt lat="43.61444" lon="2.64606">
        <ele>829.76</ele>
        <time>2021-07-07T11:40:05Z</time>
      </trkpt>
      <trkpt lat="43.61441" lon="2.64608">
        <ele>829.76</ele>
        <time>2021-07-07T11:40:06Z</time>
      </trkpt>
      <trkpt lat="43.61428" lon="2.64619">
        <ele>827.35</ele>
        <time>2021-07-07T11:40:10Z</time>
      </trkpt>
      <trkpt lat="43.61424" lon="2.64623">
        <ele>826.39</ele>
        <time>2021-07-07T11:40:11Z</time>
      </trkpt>
      <trkpt lat="43.61421" lon="2.64627">
        <ele>825.91</ele>
        <time>2021-07-07T11:40:12Z</time>
      </trkpt>
      <trkpt lat="43.61417" lon="2.64633">
        <ele>825.91</ele>
        <time>2021-07-07T11:40:13Z</time>
      </trkpt>
      <trkpt lat="43.6141" lon="2.64642">
        <ele>824.95</ele>
        <time>2021-07-07T11:40:15Z</time>
      </trkpt>
      <trkpt lat="43.61407" lon="2.64648">
        <ele>823.99</ele>
        <time>2021-07-07T11:40:16Z</time>
      </trkpt>
      <trkpt lat="43.61396" lon="2.6467">
        <ele>823.51</ele>
        <time>2021-07-07T11:40:22Z</time>
      </trkpt>
      <trkpt lat="43.61401" lon="2.64678">
        <ele>823.03</ele>
        <time>2021-07-07T11:40:28Z</time>
      </trkpt>
      <trkpt lat="43.61402" lon="2.64681">
        <ele>823.03</ele>
        <time>2021-07-07T11:40:30Z</time>
      </trkpt>
      <trkpt lat="43.61403" lon="2.64682">
        <ele>823.03</ele>
        <time>2021-07-07T11:40:31Z</time>
      </trkpt>
      <trkpt lat="43.61406" lon="2.64685">
        <ele>822.55</ele>
        <time>2021-07-07T11:40:33Z</time>
      </trkpt>
      <trkpt lat="43.61407" lon="2.64685">
        <ele>822.55</ele>
        <time>2021-07-07T11:40:34Z</time>
      </trkpt>
      <trkpt lat="43.61409" lon="2.64686">
        <ele>822.55</ele>
        <time>2021-07-07T11:40:35Z</time>
      </trkpt>
      <trkpt lat="43.61426" lon="2.64687">
        <ele>820.62</ele>
        <time>2021-07-07T11:40:45Z</time>
      </trkpt>
      <trkpt lat="43.61427" lon="2.64687">
        <ele>820.14</ele>
        <time>2021-07-07T11:40:46Z</time>
      </trkpt>
      <trkpt lat="43.61427" lon="2.64697">
        <ele>820.14</ele>
        <time>2021-07-07T11:40:47Z</time>
      </trkpt>
      <trkpt lat="43.61425" lon="2.64734">
        <ele>820.62</ele>
        <time>2021-07-07T11:40:52Z</time>
      </trkpt>
      <trkpt lat="43.61425" lon="2.64743">
        <ele>820.62</ele>
        <time>2021-07-07T11:40:53Z</time>
      </trkpt>
      <trkpt lat="43.61424" lon="2.64758">
        <ele>820.14</ele>
        <time>2021-07-07T11:40:55Z</time>
      </trkpt>
      <trkpt lat="43.61424" lon="2.64768">
        <ele>820.14</ele>
        <time>2021-07-07T11:40:56Z</time>
      </trkpt>
      <trkpt lat="43.61423" lon="2.64777">
        <ele>820.14</ele>
        <time>2021-07-07T11:40:57Z</time>
      </trkpt>
      <trkpt lat="43.61424" lon="2.64784">
        <ele>820.14</ele>
        <time>2021-07-07T11:40:58Z</time>
      </trkpt>
      <trkpt lat="43.61425" lon="2.64789">
        <ele>819.66</ele>
        <time>2021-07-07T11:40:59Z</time>
      </trkpt>
      <trkpt lat="43.6143" lon="2.64808">
        <ele>818.7</ele>
        <time>2021-07-07T11:41:02Z</time>
      </trkpt>
      <trkpt lat="43.61433" lon="2.64813">
        <ele>818.22</ele>
        <time>2021-07-07T11:41:03Z</time>
      </trkpt>
      <trkpt lat="43.61436" lon="2.6482">
        <ele>817.74</ele>
        <time>2021-07-07T11:41:04Z</time>
      </trkpt>
      <trkpt lat="43.61439" lon="2.64825">
        <ele>817.26</ele>
        <time>2021-07-07T11:41:05Z</time>
      </trkpt>
      <trkpt lat="43.61442" lon="2.64834">
        <ele>816.78</ele>
        <time>2021-07-07T11:41:06Z</time>
      </trkpt>
      <trkpt lat="43.61446" lon="2.64842">
        <ele>816.3</ele>
        <time>2021-07-07T11:41:07Z</time>
      </trkpt>
      <trkpt lat="43.61458" lon="2.64877">
        <ele>814.85</ele>
        <time>2021-07-07T11:41:11Z</time>
      </trkpt>
      <trkpt lat="43.6146" lon="2.64885">
        <ele>814.37</ele>
        <time>2021-07-07T11:41:12Z</time>
      </trkpt>
      <trkpt lat="43.61461" lon="2.64893">
        <ele>813.89</ele>
        <time>2021-07-07T11:41:13Z</time>
      </trkpt>
      <trkpt lat="43.61469" lon="2.64922">
        <ele>812.45</ele>
        <time>2021-07-07T11:41:17Z</time>
      </trkpt>
      <trkpt lat="43.61473" lon="2.64937">
        <ele>811.97</ele>
        <time>2021-07-07T11:41:19Z</time>
      </trkpt>
      <trkpt lat="43.61476" lon="2.64951">
        <ele>811.49</ele>
        <time>2021-07-07T11:41:21Z</time>
      </trkpt>
      <trkpt lat="43.61477" lon="2.64957">
        <ele>811.49</ele>
        <time>2021-07-07T11:41:22Z</time>
      </trkpt>
      <trkpt lat="43.61478" lon="2.64979">
        <ele>811.49</ele>
        <time>2021-07-07T11:41:25Z</time>
      </trkpt>
      <trkpt lat="43.61477" lon="2.65043">
        <ele>813.89</ele>
        <time>2021-07-07T11:41:37Z</time>
      </trkpt>
      <trkpt lat="43.61478" lon="2.65054">
        <ele>813.89</ele>
        <time>2021-07-07T11:41:47Z</time>
      </trkpt>
      <trkpt lat="43.61476" lon="2.65058">
        <ele>790.82</ele>
        <time>2021-07-07T11:41:59Z</time>
      </trkpt>
      <trkpt lat="43.61476" lon="2.65058">
        <ele>791.78</ele>
        <time>2021-07-07T11:42:00Z</time>
      </trkpt>
      <trkpt lat="43.61476" lon="2.65058">
        <ele>831.68</ele>
        <time>2021-07-07T11:42:01Z</time>
      </trkpt>
      <trkpt lat="43.61476" lon="2.65058">
        <ele>830.72</ele>
        <time>2021-07-07T11:42:02Z</time>
      </trkpt>
      <trkpt lat="43.61476" lon="2.65058">
        <ele>817.74</ele>
        <time>2021-07-07T11:42:03Z</time>
      </trkpt>
      <trkpt lat="43.61476" lon="2.65059">
        <ele>814.37</ele>
        <time>2021-07-07T11:42:04Z</time>
      </trkpt>
      <trkpt lat="43.61476" lon="2.65059">
        <ele>799.47</ele>
        <time>2021-07-07T11:42:05Z</time>
      </trkpt>
      <trkpt lat="43.61476" lon="2.6506">
        <ele>823.03</ele>
        <time>2021-07-07T11:42:06Z</time>
      </trkpt>
      <trkpt lat="43.61475" lon="2.6506">
        <ele>815.34</ele>
        <time>2021-07-07T11:42:07Z</time>
      </trkpt>
      <trkpt lat="43.61474" lon="2.65063">
        <ele>833.6</ele>
        <time>2021-07-07T11:42:11Z</time>
      </trkpt>
      <trkpt lat="43.61474" lon="2.65063">
        <ele>815.34</ele>
        <time>2021-07-07T11:42:12Z</time>
      </trkpt>
      <trkpt lat="43.61475" lon="2.65057">
        <ele>828.79</ele>
        <time>2021-07-07T11:42:19Z</time>
      </trkpt>
      <trkpt lat="43.61475" lon="2.65057">
        <ele>814.85</ele>
        <time>2021-07-07T11:42:20Z</time>
      </trkpt>
      <trkpt lat="43.61476" lon="2.65055">
        <ele>786.5</ele>
        <time>2021-07-07T11:42:26Z</time>
      </trkpt>
      <trkpt lat="43.61477" lon="2.65055">
        <ele>820.14</ele>
        <time>2021-07-07T11:42:27Z</time>
      </trkpt>
      <trkpt lat="43.61477" lon="2.65055">
        <ele>814.85</ele>
        <time>2021-07-07T11:42:28Z</time>
      </trkpt>
      <trkpt lat="43.61477" lon="2.65055">
        <ele>799.47</ele>
        <time>2021-07-07T11:42:29Z</time>
      </trkpt>
      <trkpt lat="43.61477" lon="2.65055">
        <ele>818.22</ele>
        <time>2021-07-07T11:42:30Z</time>
      </trkpt>
      <trkpt lat="43.61477" lon="2.65055">
        <ele>814.85</ele>
        <time>2021-07-07T11:42:31Z</time>
      </trkpt>
      <trkpt lat="43.61476" lon="2.65057">
        <ele>814.37</ele>
        <time>2021-07-07T11:42:51Z</time>
      </trkpt>
      <trkpt lat="43.61475" lon="2.65056">
        <ele>814.37</ele>
        <time>2021-07-07T11:43:09Z</time>
      </trkpt>
      <trkpt lat="43.61475" lon="2.65054">
        <ele>814.37</ele>
        <time>2021-07-07T11:43:24Z</time>
      </trkpt>
      <trkpt lat="43.61474" lon="2.65055">
        <ele>814.37</ele>
        <time>2021-07-07T11:43:47Z</time>
      </trkpt>
      <trkpt lat="43.61474" lon="2.65056">
        <ele>814.85</ele>
        <time>2021-07-07T11:44:05Z</time>
      </trkpt>
      <trkpt lat="43.61474" lon="2.65056">
        <ele>814.37</ele>
        <time>2021-07-07T11:44:28Z</time>
      </trkpt>
      <trkpt lat="43.61475" lon="2.65057">
        <ele>814.37</ele>
        <time>2021-07-07T11:44:48Z</time>
      </trkpt>
      <trkpt lat="43.61476" lon="2.65064">
        <ele>813.89</ele>
        <time>2021-07-07T11:45:14Z</time>
      </trkpt>
      <trkpt lat="43.61474" lon="2.65063">
        <ele>813.89</ele>
        <time>2021-07-07T11:45:31Z</time>
      </trkpt>
      <trkpt lat="43.61474" lon="2.65061">
        <ele>814.37</ele>
        <time>2021-07-07T11:45:50Z</time>
      </trkpt>
      <trkpt lat="43.61473" lon="2.6506">
        <ele>813.89</ele>
        <time>2021-07-07T11:46:12Z</time>
      </trkpt>
      <trkpt lat="43.61474" lon="2.65061">
        <ele>814.37</ele>
        <time>2021-07-07T11:46:35Z</time>
      </trkpt>
      <trkpt lat="43.61476" lon="2.65063">
        <ele>814.37</ele>
        <time>2021-07-07T11:46:54Z</time>
      </trkpt>
      <trkpt lat="43.61476" lon="2.65065">
        <ele>814.37</ele>
        <time>2021-07-07T11:46:55Z</time>
      </trkpt>
      <trkpt lat="43.61476" lon="2.65067">
        <ele>814.37</ele>
        <time>2021-07-07T11:46:56Z</time>
      </trkpt>
      <trkpt lat="43.61476" lon="2.65069">
        <ele>814.37</ele>
        <time>2021-07-07T11:46:57Z</time>
      </trkpt>
      <trkpt lat="43.61476" lon="2.65071">
        <ele>814.85</ele>
        <time>2021-07-07T11:46:58Z</time>
      </trkpt>
      <trkpt lat="43.61481" lon="2.65093">
        <ele>815.82</ele>
        <time>2021-07-07T11:47:07Z</time>
      </trkpt>
      <trkpt lat="43.61482" lon="2.65095">
        <ele>815.82</ele>
        <time>2021-07-07T11:47:08Z</time>
      </trkpt>
      <trkpt lat="43.61484" lon="2.65099">
        <ele>816.3</ele>
        <time>2021-07-07T11:47:09Z</time>
      </trkpt>
      <trkpt lat="43.61498" lon="2.65133">
        <ele>817.74</ele>
        <time>2021-07-07T11:47:20Z</time>
      </trkpt>
      <trkpt lat="43.61501" lon="2.65178">
        <ele>818.7</ele>
        <time>2021-07-07T11:47:32Z</time>
      </trkpt>
      <trkpt lat="43.6149" lon="2.65222">
        <ele>817.74</ele>
        <time>2021-07-07T11:47:44Z</time>
      </trkpt>
      <trkpt lat="43.61486" lon="2.65231">
        <ele>817.26</ele>
        <time>2021-07-07T11:47:46Z</time>
      </trkpt>
      <trkpt lat="43.61484" lon="2.65236">
        <ele>816.78</ele>
        <time>2021-07-07T11:47:47Z</time>
      </trkpt>
      <trkpt lat="43.61483" lon="2.65241">
        <ele>816.3</ele>
        <time>2021-07-07T11:47:48Z</time>
      </trkpt>
      <trkpt lat="43.61484" lon="2.65301">
        <ele>812.93</ele>
        <time>2021-07-07T11:47:56Z</time>
      </trkpt>
      <trkpt lat="43.61484" lon="2.65308">
        <ele>812.45</ele>
        <time>2021-07-07T11:47:57Z</time>
      </trkpt>
      <trkpt lat="43.61481" lon="2.65325">
        <ele>812.93</ele>
        <time>2021-07-07T11:48:05Z</time>
      </trkpt>
      <trkpt lat="43.61479" lon="2.65329">
        <ele>812.93</ele>
        <time>2021-07-07T11:48:20Z</time>
      </trkpt>
      <trkpt lat="43.61477" lon="2.65331">
        <ele>798.99</ele>
        <time>2021-07-07T11:48:36Z</time>
      </trkpt>
      <trkpt lat="43.61477" lon="2.65331">
        <ele>833.12</ele>
        <time>2021-07-07T11:48:37Z</time>
      </trkpt>
      <trkpt lat="43.61477" lon="2.65331">
        <ele>813.89</ele>
        <time>2021-07-07T11:48:38Z</time>
      </trkpt>
      <trkpt lat="43.61477" lon="2.65331">
        <ele>832.64</ele>
        <time>2021-07-07T11:48:39Z</time>
      </trkpt>
      <trkpt lat="43.61477" lon="2.65331">
        <ele>814.37</ele>
        <time>2021-07-07T11:48:40Z</time>
      </trkpt>
      <trkpt lat="43.61477" lon="2.65331">
        <ele>779.77</ele>
        <time>2021-07-07T11:48:41Z</time>
      </trkpt>
      <trkpt lat="43.61477" lon="2.65331">
        <ele>818.7</ele>
        <time>2021-07-07T11:48:42Z</time>
      </trkpt>
      <trkpt lat="43.61477" lon="2.65331">
        <ele>804.76</ele>
        <time>2021-07-07T11:48:43Z</time>
      </trkpt>
      <trkpt lat="43.61477" lon="2.6533">
        <ele>813.89</ele>
        <time>2021-07-07T11:48:44Z</time>
      </trkpt>
      <trkpt lat="43.61475" lon="2.65332">
        <ele>811.97</ele>
        <time>2021-07-07T11:48:47Z</time>
      </trkpt>
      <trkpt lat="43.61474" lon="2.65333">
        <ele>811.49</ele>
        <time>2021-07-07T11:48:48Z</time>
      </trkpt>
      <trkpt lat="43.61473" lon="2.65334">
        <ele>811.49</ele>
        <time>2021-07-07T11:48:49Z</time>
      </trkpt>
      <trkpt lat="43.61471" lon="2.65334">
        <ele>811.97</ele>
        <time>2021-07-07T11:48:50Z</time>
      </trkpt>
      <trkpt lat="43.6147" lon="2.65334">
        <ele>811.01</ele>
        <time>2021-07-07T11:48:51Z</time>
      </trkpt>
      <trkpt lat="43.61468" lon="2.65335">
        <ele>811.01</ele>
        <time>2021-07-07T11:48:53Z</time>
      </trkpt>
      <trkpt lat="43.61468" lon="2.65337">
        <ele>810.53</ele>
        <time>2021-07-07T11:48:54Z</time>
      </trkpt>
      <trkpt lat="43.61464" lon="2.65346">
        <ele>809.09</ele>
        <time>2021-07-07T11:48:59Z</time>
      </trkpt>
      <trkpt lat="43.61463" lon="2.65348">
        <ele>809.09</ele>
        <time>2021-07-07T11:49:00Z</time>
      </trkpt>
      <trkpt lat="43.61462" lon="2.6535">
        <ele>808.61</ele>
        <time>2021-07-07T11:49:01Z</time>
      </trkpt>
      <trkpt lat="43.61461" lon="2.65353">
        <ele>807.64</ele>
        <time>2021-07-07T11:49:03Z</time>
      </trkpt>
      <trkpt lat="43.61459" lon="2.65364">
        <ele>805.72</ele>
        <time>2021-07-07T11:49:09Z</time>
      </trkpt>
      <trkpt lat="43.6146" lon="2.65371">
        <ele>805.24</ele>
        <time>2021-07-07T11:49:12Z</time>
      </trkpt>
      <trkpt lat="43.6146" lon="2.65379">
        <ele>803.8</ele>
        <time>2021-07-07T11:49:16Z</time>
      </trkpt>
      <trkpt lat="43.61459" lon="2.65387">
        <ele>802.36</ele>
        <time>2021-07-07T11:49:19Z</time>
      </trkpt>
      <trkpt lat="43.6145" lon="2.65404">
        <ele>800.44</ele>
        <time>2021-07-07T11:49:24Z</time>
      </trkpt>
      <trkpt lat="43.61448" lon="2.65408">
        <ele>799.47</ele>
        <time>2021-07-07T11:49:26Z</time>
      </trkpt>
      <trkpt lat="43.61446" lon="2.65413">
        <ele>799.95</ele>
        <time>2021-07-07T11:49:27Z</time>
      </trkpt>
      <trkpt lat="43.61444" lon="2.65417">
        <ele>798.99</ele>
        <time>2021-07-07T11:49:28Z</time>
      </trkpt>
      <trkpt lat="43.61442" lon="2.6542">
        <ele>798.99</ele>
        <time>2021-07-07T11:49:29Z</time>
      </trkpt>
      <trkpt lat="43.6144" lon="2.65422">
        <ele>798.51</ele>
        <time>2021-07-07T11:49:30Z</time>
      </trkpt>
      <trkpt lat="43.61438" lon="2.65425">
        <ele>798.03</ele>
        <time>2021-07-07T11:49:31Z</time>
      </trkpt>
      <trkpt lat="43.61437" lon="2.65428">
        <ele>797.55</ele>
        <time>2021-07-07T11:49:32Z</time>
      </trkpt>
      <trkpt lat="43.61436" lon="2.65431">
        <ele>797.55</ele>
        <time>2021-07-07T11:49:33Z</time>
      </trkpt>
      <trkpt lat="43.61435" lon="2.65434">
        <ele>797.07</ele>
        <time>2021-07-07T11:49:34Z</time>
      </trkpt>
      <trkpt lat="43.61434" lon="2.65438">
        <ele>796.59</ele>
        <time>2021-07-07T11:49:35Z</time>
      </trkpt>
      <trkpt lat="43.61433" lon="2.65441">
        <ele>796.59</ele>
        <time>2021-07-07T11:49:36Z</time>
      </trkpt>
      <trkpt lat="43.61425" lon="2.65465">
        <ele>793.22</ele>
        <time>2021-07-07T11:49:45Z</time>
      </trkpt>
      <trkpt lat="43.61424" lon="2.65467">
        <ele>793.22</ele>
        <time>2021-07-07T11:49:46Z</time>
      </trkpt>
      <trkpt lat="43.61422" lon="2.65472">
        <ele>793.22</ele>
        <time>2021-07-07T11:49:48Z</time>
      </trkpt>
      <trkpt lat="43.61422" lon="2.65474">
        <ele>792.26</ele>
        <time>2021-07-07T11:49:49Z</time>
      </trkpt>
      <trkpt lat="43.61421" lon="2.65477">
        <ele>791.78</ele>
        <time>2021-07-07T11:49:50Z</time>
      </trkpt>
      <trkpt lat="43.6142" lon="2.65482">
        <ele>791.3</ele>
        <time>2021-07-07T11:49:52Z</time>
      </trkpt>
      <trkpt lat="43.61418" lon="2.6549">
        <ele>788.9</ele>
        <time>2021-07-07T11:49:56Z</time>
      </trkpt>
      <trkpt lat="43.61417" lon="2.65495">
        <ele>787.94</ele>
        <time>2021-07-07T11:49:58Z</time>
      </trkpt>
      <trkpt lat="43.61414" lon="2.65504">
        <ele>787.46</ele>
        <time>2021-07-07T11:50:01Z</time>
      </trkpt>
      <trkpt lat="43.6141" lon="2.65511">
        <ele>785.53</ele>
        <time>2021-07-07T11:50:05Z</time>
      </trkpt>
      <trkpt lat="43.61402" lon="2.65514">
        <ele>784.57</ele>
        <time>2021-07-07T11:50:09Z</time>
      </trkpt>
      <trkpt lat="43.614" lon="2.65516">
        <ele>783.13</ele>
        <time>2021-07-07T11:50:11Z</time>
      </trkpt>
      <trkpt lat="43.61395" lon="2.65523">
        <ele>781.69</ele>
        <time>2021-07-07T11:50:15Z</time>
      </trkpt>
      <trkpt lat="43.61388" lon="2.65531">
        <ele>779.29</ele>
        <time>2021-07-07T11:50:22Z</time>
      </trkpt>
      <trkpt lat="43.61383" lon="2.65549">
        <ele>776.4</ele>
        <time>2021-07-07T11:50:30Z</time>
      </trkpt>
      <trkpt lat="43.61381" lon="2.65552">
        <ele>775.92</ele>
        <time>2021-07-07T11:50:32Z</time>
      </trkpt>
      <trkpt lat="43.61381" lon="2.6557">
        <ele>774.48</ele>
        <time>2021-07-07T11:50:38Z</time>
      </trkpt>
      <trkpt lat="43.61384" lon="2.65585">
        <ele>773.52</ele>
        <time>2021-07-07T11:50:43Z</time>
      </trkpt>
      <trkpt lat="43.61388" lon="2.65611">
        <ele>772.08</ele>
        <time>2021-07-07T11:50:56Z</time>
      </trkpt>
      <trkpt lat="43.61389" lon="2.65615">
        <ele>771.6</ele>
        <time>2021-07-07T11:50:59Z</time>
      </trkpt>
      <trkpt lat="43.61392" lon="2.65649">
        <ele>769.19</ele>
        <time>2021-07-07T11:51:13Z</time>
      </trkpt>
      <trkpt lat="43.61398" lon="2.65661">
        <ele>768.23</ele>
        <time>2021-07-07T11:51:21Z</time>
      </trkpt>
      <trkpt lat="43.61404" lon="2.65668">
        <ele>765.83</ele>
        <time>2021-07-07T11:51:24Z</time>
      </trkpt>
      <trkpt lat="43.61407" lon="2.65671">
        <ele>766.31</ele>
        <time>2021-07-07T11:51:26Z</time>
      </trkpt>
      <trkpt lat="43.61409" lon="2.65676">
        <ele>790.34</ele>
        <time>2021-07-07T11:51:35Z</time>
      </trkpt>
      <trkpt lat="43.61409" lon="2.65676">
        <ele>763.9</ele>
        <time>2021-07-07T11:51:36Z</time>
      </trkpt>
      <trkpt lat="43.61409" lon="2.65676">
        <ele>767.75</ele>
        <time>2021-07-07T11:51:37Z</time>
      </trkpt>
      <trkpt lat="43.61409" lon="2.65677">
        <ele>772.56</ele>
        <time>2021-07-07T11:51:40Z</time>
      </trkpt>
      <trkpt lat="43.61409" lon="2.65678">
        <ele>767.27</ele>
        <time>2021-07-07T11:51:41Z</time>
      </trkpt>
      <trkpt lat="43.61409" lon="2.65678">
        <ele>766.79</ele>
        <time>2021-07-07T11:51:44Z</time>
      </trkpt>
      <trkpt lat="43.6141" lon="2.65692">
        <ele>764.87</ele>
        <time>2021-07-07T11:51:49Z</time>
      </trkpt>
      <trkpt lat="43.61424" lon="2.65703">
        <ele>761.98</ele>
        <time>2021-07-07T11:51:57Z</time>
      </trkpt>
      <trkpt lat="43.61425" lon="2.65707">
        <ele>761.98</ele>
        <time>2021-07-07T11:51:58Z</time>
      </trkpt>
      <trkpt lat="43.61438" lon="2.65748">
        <ele>759.1</ele>
        <time>2021-07-07T11:52:08Z</time>
      </trkpt>
      <trkpt lat="43.61425" lon="2.65794">
        <ele>757.18</ele>
        <time>2021-07-07T11:52:19Z</time>
      </trkpt>
      <trkpt lat="43.6142" lon="2.65807">
        <ele>756.69</ele>
        <time>2021-07-07T11:52:22Z</time>
      </trkpt>
      <trkpt lat="43.61408" lon="2.6584">
        <ele>756.21</ele>
        <time>2021-07-07T11:52:37Z</time>
      </trkpt>
      <trkpt lat="43.61402" lon="2.65872">
        <ele>754.77</ele>
        <time>2021-07-07T11:52:49Z</time>
      </trkpt>
      <trkpt lat="43.61399" lon="2.65924">
        <ele>752.85</ele>
        <time>2021-07-07T11:53:00Z</time>
      </trkpt>
      <trkpt lat="43.61397" lon="2.65957">
        <ele>749</ele>
        <time>2021-07-07T11:53:05Z</time>
      </trkpt>
      <trkpt lat="43.61396" lon="2.65974">
        <ele>748.04</ele>
        <time>2021-07-07T11:53:08Z</time>
      </trkpt>
      <trkpt lat="43.61398" lon="2.66023">
        <ele>746.12</ele>
        <time>2021-07-07T11:53:14Z</time>
      </trkpt>
      <trkpt lat="43.61402" lon="2.66039">
        <ele>744.68</ele>
        <time>2021-07-07T11:53:16Z</time>
      </trkpt>
      <trkpt lat="43.61407" lon="2.66051">
        <ele>743.72</ele>
        <time>2021-07-07T11:53:17Z</time>
      </trkpt>
      <trkpt lat="43.61417" lon="2.66074">
        <ele>742.28</ele>
        <time>2021-07-07T11:53:20Z</time>
      </trkpt>
      <trkpt lat="43.61421" lon="2.66081">
        <ele>741.79</ele>
        <time>2021-07-07T11:53:21Z</time>
      </trkpt>
      <trkpt lat="43.61427" lon="2.6609">
        <ele>740.83</ele>
        <time>2021-07-07T11:53:22Z</time>
      </trkpt>
      <trkpt lat="43.61464" lon="2.66129">
        <ele>738.91</ele>
        <time>2021-07-07T11:53:29Z</time>
      </trkpt>
      <trkpt lat="43.61468" lon="2.66148">
        <ele>739.87</ele>
        <time>2021-07-07T11:53:37Z</time>
      </trkpt>
      <trkpt lat="43.61465" lon="2.66145">
        <ele>744.2</ele>
        <time>2021-07-07T11:53:54Z</time>
      </trkpt>
      <trkpt lat="43.61465" lon="2.66145">
        <ele>775.44</ele>
        <time>2021-07-07T11:53:55Z</time>
      </trkpt>
      <trkpt lat="43.61465" lon="2.66145">
        <ele>742.28</ele>
        <time>2021-07-07T11:53:56Z</time>
      </trkpt>
      <trkpt lat="43.61465" lon="2.66144">
        <ele>739.87</ele>
        <time>2021-07-07T11:53:59Z</time>
      </trkpt>
      <trkpt lat="43.61466" lon="2.6614">
        <ele>764.87</ele>
        <time>2021-07-07T11:54:20Z</time>
      </trkpt>
      <trkpt lat="43.61466" lon="2.6614">
        <ele>742.28</ele>
        <time>2021-07-07T11:54:21Z</time>
      </trkpt>
      <trkpt lat="43.61468" lon="2.66153">
        <ele>739.39</ele>
        <time>2021-07-07T11:54:31Z</time>
      </trkpt>
      <trkpt lat="43.61468" lon="2.66155">
        <ele>739.87</ele>
        <time>2021-07-07T11:54:32Z</time>
      </trkpt>
      <trkpt lat="43.61468" lon="2.66157">
        <ele>739.39</ele>
        <time>2021-07-07T11:54:33Z</time>
      </trkpt>
      <trkpt lat="43.61469" lon="2.66177">
        <ele>736.51</ele>
        <time>2021-07-07T11:54:40Z</time>
      </trkpt>
      <trkpt lat="43.61469" lon="2.66193">
        <ele>735.07</ele>
        <time>2021-07-07T11:54:43Z</time>
      </trkpt>
      <trkpt lat="43.61467" lon="2.66198">
        <ele>734.1</ele>
        <time>2021-07-07T11:54:44Z</time>
      </trkpt>
      <trkpt lat="43.61466" lon="2.66203">
        <ele>734.1</ele>
        <time>2021-07-07T11:54:45Z</time>
      </trkpt>
      <trkpt lat="43.61464" lon="2.66206">
        <ele>733.14</ele>
        <time>2021-07-07T11:54:46Z</time>
      </trkpt>
      <trkpt lat="43.6146" lon="2.66208">
        <ele>733.14</ele>
        <time>2021-07-07T11:54:47Z</time>
      </trkpt>
      <trkpt lat="43.6143" lon="2.6622">
        <ele>729.3</ele>
        <time>2021-07-07T11:54:53Z</time>
      </trkpt>
      <trkpt lat="43.61424" lon="2.66222">
        <ele>729.3</ele>
        <time>2021-07-07T11:54:54Z</time>
      </trkpt>
      <trkpt lat="43.61381" lon="2.66232">
        <ele>727.86</ele>
        <time>2021-07-07T11:55:01Z</time>
      </trkpt>
      <trkpt lat="43.61378" lon="2.66234">
        <ele>727.37</ele>
        <time>2021-07-07T11:55:02Z</time>
      </trkpt>
      <trkpt lat="43.61375" lon="2.66234">
        <ele>726.89</ele>
        <time>2021-07-07T11:55:03Z</time>
      </trkpt>
      <trkpt lat="43.61373" lon="2.66234">
        <ele>726.89</ele>
        <time>2021-07-07T11:55:04Z</time>
      </trkpt>
      <trkpt lat="43.61372" lon="2.66233">
        <ele>726.89</ele>
        <time>2021-07-07T11:55:05Z</time>
      </trkpt>
      <trkpt lat="43.6137" lon="2.66233">
        <ele>727.37</ele>
        <time>2021-07-07T11:55:06Z</time>
      </trkpt>
      <trkpt lat="43.61339" lon="2.66234">
        <ele>724.97</ele>
        <time>2021-07-07T11:55:15Z</time>
      </trkpt>
      <trkpt lat="43.61317" lon="2.6624">
        <ele>701.42</ele>
        <time>2021-07-07T11:55:20Z</time>
      </trkpt>
      <trkpt lat="43.61313" lon="2.66242">
        <ele>731.7</ele>
        <time>2021-07-07T11:55:21Z</time>
      </trkpt>
      <trkpt lat="43.61309" lon="2.66243">
        <ele>725.45</ele>
        <time>2021-07-07T11:55:22Z</time>
      </trkpt>
      <trkpt lat="43.61301" lon="2.66247">
        <ele>723.05</ele>
        <time>2021-07-07T11:55:24Z</time>
      </trkpt>
      <trkpt lat="43.61276" lon="2.66251">
        <ele>720.65</ele>
        <time>2021-07-07T11:55:31Z</time>
      </trkpt>
      <trkpt lat="43.61272" lon="2.66253">
        <ele>720.65</ele>
        <time>2021-07-07T11:55:32Z</time>
      </trkpt>
      <trkpt lat="43.61221" lon="2.66289">
        <ele>717.76</ele>
        <time>2021-07-07T11:55:42Z</time>
      </trkpt>
      <trkpt lat="43.6119" lon="2.66306">
        <ele>717.76</ele>
        <time>2021-07-07T11:55:48Z</time>
      </trkpt>
      <trkpt lat="43.61186" lon="2.66307">
        <ele>718.24</ele>
        <time>2021-07-07T11:55:49Z</time>
      </trkpt>
      <trkpt lat="43.61164" lon="2.66322">
        <ele>717.76</ele>
        <time>2021-07-07T11:55:58Z</time>
      </trkpt>
      <trkpt lat="43.61158" lon="2.66329">
        <ele>717.28</ele>
        <time>2021-07-07T11:56:01Z</time>
      </trkpt>
      <trkpt lat="43.61158" lon="2.66332">
        <ele>717.28</ele>
        <time>2021-07-07T11:56:02Z</time>
      </trkpt>
      <trkpt lat="43.61158" lon="2.66335">
        <ele>716.8</ele>
        <time>2021-07-07T11:56:03Z</time>
      </trkpt>
      <trkpt lat="43.6116" lon="2.66337">
        <ele>717.28</ele>
        <time>2021-07-07T11:56:04Z</time>
      </trkpt>
      <trkpt lat="43.61161" lon="2.66339">
        <ele>717.28</ele>
        <time>2021-07-07T11:56:05Z</time>
      </trkpt>
      <trkpt lat="43.61164" lon="2.66344">
        <ele>744.68</ele>
        <time>2021-07-07T11:56:07Z</time>
      </trkpt>
      <trkpt lat="43.61165" lon="2.66347">
        <ele>730.26</ele>
        <time>2021-07-07T11:56:08Z</time>
      </trkpt>
      <trkpt lat="43.61165" lon="2.6635">
        <ele>717.28</ele>
        <time>2021-07-07T11:56:09Z</time>
      </trkpt>
      <trkpt lat="43.61166" lon="2.66354">
        <ele>716.8</ele>
        <time>2021-07-07T11:56:10Z</time>
      </trkpt>
      <trkpt lat="43.61165" lon="2.66363">
        <ele>716.32</ele>
        <time>2021-07-07T11:56:12Z</time>
      </trkpt>
      <trkpt lat="43.61165" lon="2.66368">
        <ele>694.69</ele>
        <time>2021-07-07T11:56:13Z</time>
      </trkpt>
      <trkpt lat="43.61165" lon="2.66373">
        <ele>718.72</ele>
        <time>2021-07-07T11:56:14Z</time>
      </trkpt>
      <trkpt lat="43.61166" lon="2.66377">
        <ele>715.84</ele>
        <time>2021-07-07T11:56:15Z</time>
      </trkpt>
      <trkpt lat="43.61167" lon="2.66403">
        <ele>714.4</ele>
        <time>2021-07-07T11:56:20Z</time>
      </trkpt>
      <trkpt lat="43.61168" lon="2.66409">
        <ele>713.92</ele>
        <time>2021-07-07T11:56:21Z</time>
      </trkpt>
      <trkpt lat="43.61169" lon="2.6642">
        <ele>712.95</ele>
        <time>2021-07-07T11:56:23Z</time>
      </trkpt>
      <trkpt lat="43.6117" lon="2.66426">
        <ele>740.83</ele>
        <time>2021-07-07T11:56:24Z</time>
      </trkpt>
      <trkpt lat="43.61171" lon="2.66432">
        <ele>713.92</ele>
        <time>2021-07-07T11:56:25Z</time>
      </trkpt>
      <trkpt lat="43.61172" lon="2.66438">
        <ele>712.47</ele>
        <time>2021-07-07T11:56:26Z</time>
      </trkpt>
      <trkpt lat="43.61172" lon="2.66451">
        <ele>701.9</ele>
        <time>2021-07-07T11:56:28Z</time>
      </trkpt>
      <trkpt lat="43.61172" lon="2.66457">
        <ele>712.47</ele>
        <time>2021-07-07T11:56:29Z</time>
      </trkpt>
      <trkpt lat="43.61172" lon="2.66465">
        <ele>701.42</ele>
        <time>2021-07-07T11:56:30Z</time>
      </trkpt>
      <trkpt lat="43.61171" lon="2.66472">
        <ele>712.47</ele>
        <time>2021-07-07T11:56:31Z</time>
      </trkpt>
      <trkpt lat="43.6117" lon="2.66479">
        <ele>710.07</ele>
        <time>2021-07-07T11:56:32Z</time>
      </trkpt>
      <trkpt lat="43.61163" lon="2.66513">
        <ele>706.23</ele>
        <time>2021-07-07T11:56:36Z</time>
      </trkpt>
      <trkpt lat="43.6116" lon="2.66523">
        <ele>706.23</ele>
        <time>2021-07-07T11:56:37Z</time>
      </trkpt>
      <trkpt lat="43.61159" lon="2.66534">
        <ele>705.75</ele>
        <time>2021-07-07T11:56:38Z</time>
      </trkpt>
      <trkpt lat="43.61158" lon="2.66545">
        <ele>705.26</ele>
        <time>2021-07-07T11:56:39Z</time>
      </trkpt>
      <trkpt lat="43.61159" lon="2.66556">
        <ele>705.26</ele>
        <time>2021-07-07T11:56:40Z</time>
      </trkpt>
      <trkpt lat="43.61161" lon="2.66567">
        <ele>704.3</ele>
        <time>2021-07-07T11:56:41Z</time>
      </trkpt>
      <trkpt lat="43.61164" lon="2.66578">
        <ele>703.82</ele>
        <time>2021-07-07T11:56:42Z</time>
      </trkpt>
      <trkpt lat="43.61169" lon="2.66589">
        <ele>703.82</ele>
        <time>2021-07-07T11:56:43Z</time>
      </trkpt>
      <trkpt lat="43.61174" lon="2.66598">
        <ele>702.86</ele>
        <time>2021-07-07T11:56:44Z</time>
      </trkpt>
      <trkpt lat="43.61181" lon="2.66606">
        <ele>702.38</ele>
        <time>2021-07-07T11:56:45Z</time>
      </trkpt>
      <trkpt lat="43.61188" lon="2.66614">
        <ele>700.94</ele>
        <time>2021-07-07T11:56:46Z</time>
      </trkpt>
      <trkpt lat="43.61196" lon="2.66619">
        <ele>700.46</ele>
        <time>2021-07-07T11:56:47Z</time>
      </trkpt>
      <trkpt lat="43.61204" lon="2.66621">
        <ele>699.5</ele>
        <time>2021-07-07T11:56:48Z</time>
      </trkpt>
      <trkpt lat="43.61212" lon="2.66621">
        <ele>698.53</ele>
        <time>2021-07-07T11:56:49Z</time>
      </trkpt>
      <trkpt lat="43.6122" lon="2.66619">
        <ele>697.57</ele>
        <time>2021-07-07T11:56:50Z</time>
      </trkpt>
      <trkpt lat="43.61228" lon="2.66616">
        <ele>696.61</ele>
        <time>2021-07-07T11:56:51Z</time>
      </trkpt>
      <trkpt lat="43.61235" lon="2.66614">
        <ele>696.61</ele>
        <time>2021-07-07T11:56:52Z</time>
      </trkpt>
      <trkpt lat="43.61243" lon="2.66611">
        <ele>696.13</ele>
        <time>2021-07-07T11:56:53Z</time>
      </trkpt>
      <trkpt lat="43.61258" lon="2.66601">
        <ele>695.17</ele>
        <time>2021-07-07T11:56:55Z</time>
      </trkpt>
      <trkpt lat="43.61282" lon="2.66572">
        <ele>695.65</ele>
        <time>2021-07-07T11:56:59Z</time>
      </trkpt>
      <trkpt lat="43.61284" lon="2.66574">
        <ele>694.69</ele>
        <time>2021-07-07T11:57:00Z</time>
      </trkpt>
      <trkpt lat="43.61284" lon="2.66577">
        <ele>694.69</ele>
        <time>2021-07-07T11:57:01Z</time>
      </trkpt>
      <trkpt lat="43.61284" lon="2.6658">
        <ele>693.73</ele>
        <time>2021-07-07T11:57:02Z</time>
      </trkpt>
      <trkpt lat="43.61283" lon="2.66585">
        <ele>693.25</ele>
        <time>2021-07-07T11:57:03Z</time>
      </trkpt>
      <trkpt lat="43.61282" lon="2.66588">
        <ele>692.29</ele>
        <time>2021-07-07T11:57:04Z</time>
      </trkpt>
      <trkpt lat="43.61267" lon="2.66623">
        <ele>688.92</ele>
        <time>2021-07-07T11:57:10Z</time>
      </trkpt>
      <trkpt lat="43.61238" lon="2.66677">
        <ele>686.04</ele>
        <time>2021-07-07T11:57:18Z</time>
      </trkpt>
      <trkpt lat="43.6122" lon="2.66709">
        <ele>686.04</ele>
        <time>2021-07-07T11:57:24Z</time>
      </trkpt>
      <trkpt lat="43.61217" lon="2.66713">
        <ele>686.52</ele>
        <time>2021-07-07T11:57:25Z</time>
      </trkpt>
      <trkpt lat="43.61215" lon="2.66717">
        <ele>686.04</ele>
        <time>2021-07-07T11:57:26Z</time>
      </trkpt>
      <trkpt lat="43.61201" lon="2.66745">
        <ele>687.48</ele>
        <time>2021-07-07T11:57:35Z</time>
      </trkpt>
      <trkpt lat="43.61192" lon="2.66779">
        <ele>688.92</ele>
        <time>2021-07-07T11:57:46Z</time>
      </trkpt>
      <trkpt lat="43.61185" lon="2.66799">
        <ele>689.4</ele>
        <time>2021-07-07T11:57:55Z</time>
      </trkpt>
      <trkpt lat="43.61176" lon="2.66831">
        <ele>690.84</ele>
        <time>2021-07-07T11:58:07Z</time>
      </trkpt>
      <trkpt lat="43.61175" lon="2.66833">
        <ele>690.36</ele>
        <time>2021-07-07T11:58:08Z</time>
      </trkpt>
      <trkpt lat="43.61173" lon="2.66836">
        <ele>690.84</ele>
        <time>2021-07-07T11:58:10Z</time>
      </trkpt>
      <trkpt lat="43.61172" lon="2.66839">
        <ele>690.84</ele>
        <time>2021-07-07T11:58:11Z</time>
      </trkpt>
      <trkpt lat="43.61172" lon="2.66841">
        <ele>691.33</ele>
        <time>2021-07-07T11:58:12Z</time>
      </trkpt>
      <trkpt lat="43.61171" lon="2.66844">
        <ele>690.84</ele>
        <time>2021-07-07T11:58:13Z</time>
      </trkpt>
      <trkpt lat="43.6117" lon="2.66846">
        <ele>691.33</ele>
        <time>2021-07-07T11:58:14Z</time>
      </trkpt>
      <trkpt lat="43.61166" lon="2.66858">
        <ele>692.29</ele>
        <time>2021-07-07T11:58:26Z</time>
      </trkpt>
      <trkpt lat="43.61165" lon="2.6686">
        <ele>691.33</ele>
        <time>2021-07-07T11:58:39Z</time>
      </trkpt>
      <trkpt lat="43.61166" lon="2.6686">
        <ele>691.81</ele>
        <time>2021-07-07T11:58:43Z</time>
      </trkpt>
      <trkpt lat="43.61164" lon="2.6686">
        <ele>691.81</ele>
        <time>2021-07-07T11:58:56Z</time>
      </trkpt>
      <trkpt lat="43.61164" lon="2.66862">
        <ele>691.33</ele>
        <time>2021-07-07T11:59:22Z</time>
      </trkpt>
      <trkpt lat="43.61165" lon="2.66861">
        <ele>691.33</ele>
        <time>2021-07-07T11:59:47Z</time>
      </trkpt>
      <trkpt lat="43.61165" lon="2.66861">
        <ele>691.33</ele>
        <time>2021-07-07T11:59:56Z</time>
      </trkpt>
      <trkpt lat="43.61164" lon="2.66862">
        <ele>691.33</ele>
        <time>2021-07-07T11:59:58Z</time>
      </trkpt>
      <trkpt lat="43.61162" lon="2.66864">
        <ele>691.33</ele>
        <time>2021-07-07T12:00:08Z</time>
      </trkpt>
      <trkpt lat="43.61161" lon="2.66864">
        <ele>709.59</ele>
        <time>2021-07-07T12:00:13Z</time>
      </trkpt>
      <trkpt lat="43.61161" lon="2.66864">
        <ele>694.21</ele>
        <time>2021-07-07T12:00:14Z</time>
      </trkpt>
      <trkpt lat="43.61162" lon="2.66864">
        <ele>679.79</ele>
        <time>2021-07-07T12:00:17Z</time>
      </trkpt>
      <trkpt lat="43.61162" lon="2.66864">
        <ele>694.69</ele>
        <time>2021-07-07T12:00:18Z</time>
      </trkpt>
      <trkpt lat="43.61162" lon="2.66864">
        <ele>669.22</ele>
        <time>2021-07-07T12:00:20Z</time>
      </trkpt>
      <trkpt lat="43.61162" lon="2.66864">
        <ele>696.13</ele>
        <time>2021-07-07T12:00:21Z</time>
      </trkpt>
      <trkpt lat="43.61162" lon="2.66864">
        <ele>691.81</ele>
        <time>2021-07-07T12:00:22Z</time>
      </trkpt>
      <trkpt lat="43.61163" lon="2.66864">
        <ele>691.33</ele>
        <time>2021-07-07T12:00:34Z</time>
      </trkpt>
      <trkpt lat="43.61163" lon="2.66866">
        <ele>691.81</ele>
        <time>2021-07-07T12:00:39Z</time>
      </trkpt>
      <trkpt lat="43.61155" lon="2.66893">
        <ele>692.77</ele>
        <time>2021-07-07T12:00:50Z</time>
      </trkpt>
      <trkpt lat="43.61143" lon="2.6692">
        <ele>694.69</ele>
        <time>2021-07-07T12:01:00Z</time>
      </trkpt>
      <trkpt lat="43.61138" lon="2.6693">
        <ele>695.17</ele>
        <time>2021-07-07T12:01:03Z</time>
      </trkpt>
      <trkpt lat="43.61133" lon="2.66934">
        <ele>696.13</ele>
        <time>2021-07-07T12:01:06Z</time>
      </trkpt>
      <trkpt lat="43.61128" lon="2.66943">
        <ele>696.61</ele>
        <time>2021-07-07T12:01:11Z</time>
      </trkpt>
      <trkpt lat="43.61124" lon="2.66953">
        <ele>696.61</ele>
        <time>2021-07-07T12:01:14Z</time>
      </trkpt>
      <trkpt lat="43.6112" lon="2.66958">
        <ele>697.57</ele>
        <time>2021-07-07T12:01:18Z</time>
      </trkpt>
      <trkpt lat="43.61118" lon="2.66962">
        <ele>698.05</ele>
        <time>2021-07-07T12:01:21Z</time>
      </trkpt>
      <trkpt lat="43.61103" lon="2.66986">
        <ele>699.98</ele>
        <time>2021-07-07T12:01:31Z</time>
      </trkpt>
      <trkpt lat="43.61089" lon="2.67013">
        <ele>700.94</ele>
        <time>2021-07-07T12:01:41Z</time>
      </trkpt>
      <trkpt lat="43.61079" lon="2.67025">
        <ele>701.9</ele>
        <time>2021-07-07T12:01:50Z</time>
      </trkpt>
      <trkpt lat="43.61078" lon="2.67026">
        <ele>701.9</ele>
        <time>2021-07-07T12:01:51Z</time>
      </trkpt>
      <trkpt lat="43.61078" lon="2.67027">
        <ele>702.38</ele>
        <time>2021-07-07T12:01:52Z</time>
      </trkpt>
      <trkpt lat="43.61074" lon="2.6703">
        <ele>702.86</ele>
        <time>2021-07-07T12:01:59Z</time>
      </trkpt>
      <trkpt lat="43.61071" lon="2.67034">
        <ele>702.38</ele>
        <time>2021-07-07T12:02:01Z</time>
      </trkpt>
      <trkpt lat="43.61062" lon="2.67052">
        <ele>704.3</ele>
        <time>2021-07-07T12:02:11Z</time>
      </trkpt>
      <trkpt lat="43.61059" lon="2.67056">
        <ele>704.78</ele>
        <time>2021-07-07T12:02:15Z</time>
      </trkpt>
      <trkpt lat="43.61058" lon="2.67059">
        <ele>704.78</ele>
        <time>2021-07-07T12:02:16Z</time>
      </trkpt>
      <trkpt lat="43.61055" lon="2.67063">
        <ele>705.26</ele>
        <time>2021-07-07T12:02:18Z</time>
      </trkpt>
      <trkpt lat="43.61053" lon="2.67066">
        <ele>705.26</ele>
        <time>2021-07-07T12:02:20Z</time>
      </trkpt>
      <trkpt lat="43.61047" lon="2.67073">
        <ele>705.26</ele>
        <time>2021-07-07T12:02:24Z</time>
      </trkpt>
      <trkpt lat="43.61032" lon="2.67099">
        <ele>704.3</ele>
        <time>2021-07-07T12:02:37Z</time>
      </trkpt>
      <trkpt lat="43.61031" lon="2.67104">
        <ele>703.82</ele>
        <time>2021-07-07T12:02:40Z</time>
      </trkpt>
      <trkpt lat="43.61029" lon="2.6711">
        <ele>703.34</ele>
        <time>2021-07-07T12:02:44Z</time>
      </trkpt>
      <trkpt lat="43.61011" lon="2.67113">
        <ele>699.98</ele>
        <time>2021-07-07T12:02:53Z</time>
      </trkpt>
      <trkpt lat="43.61012" lon="2.67103">
        <ele>698.05</ele>
        <time>2021-07-07T12:02:56Z</time>
      </trkpt>
      <trkpt lat="43.61006" lon="2.67079">
        <ele>694.69</ele>
        <time>2021-07-07T12:03:04Z</time>
      </trkpt>
      <trkpt lat="43.60997" lon="2.67065">
        <ele>690.84</ele>
        <time>2021-07-07T12:03:12Z</time>
      </trkpt>
      <trkpt lat="43.60987" lon="2.67056">
        <ele>687.96</ele>
        <time>2021-07-07T12:03:18Z</time>
      </trkpt>
      <trkpt lat="43.60978" lon="2.67055">
        <ele>686.52</ele>
        <time>2021-07-07T12:03:21Z</time>
      </trkpt>
      <trkpt lat="43.60972" lon="2.67054">
        <ele>685.56</ele>
        <time>2021-07-07T12:03:23Z</time>
      </trkpt>
      <trkpt lat="43.60938" lon="2.67055">
        <ele>682.19</ele>
        <time>2021-07-07T12:03:32Z</time>
      </trkpt>
      <trkpt lat="43.60926" lon="2.67069">
        <ele>682.67</ele>
        <time>2021-07-07T12:03:34Z</time>
      </trkpt>
      <trkpt lat="43.60922" lon="2.67073">
        <ele>682.19</ele>
        <time>2021-07-07T12:03:35Z</time>
      </trkpt>
      <trkpt lat="43.60919" lon="2.67077">
        <ele>682.67</ele>
        <time>2021-07-07T12:03:36Z</time>
      </trkpt>
      <trkpt lat="43.60915" lon="2.6708">
        <ele>681.71</ele>
        <time>2021-07-07T12:03:37Z</time>
      </trkpt>
      <trkpt lat="43.60912" lon="2.67084">
        <ele>681.23</ele>
        <time>2021-07-07T12:03:38Z</time>
      </trkpt>
      <trkpt lat="43.60909" lon="2.67088">
        <ele>681.71</ele>
        <time>2021-07-07T12:03:39Z</time>
      </trkpt>
      <trkpt lat="43.60907" lon="2.67092">
        <ele>681.23</ele>
        <time>2021-07-07T12:03:40Z</time>
      </trkpt>
      <trkpt lat="43.60892" lon="2.67115">
        <ele>678.35</ele>
        <time>2021-07-07T12:03:46Z</time>
      </trkpt>
      <trkpt lat="43.60867" lon="2.67162">
        <ele>678.35</ele>
        <time>2021-07-07T12:03:55Z</time>
      </trkpt>
      <trkpt lat="43.60845" lon="2.67196">
        <ele>680.27</ele>
        <time>2021-07-07T12:04:04Z</time>
      </trkpt>
      <trkpt lat="43.60815" lon="2.67219">
        <ele>682.19</ele>
        <time>2021-07-07T12:04:17Z</time>
      </trkpt>
      <trkpt lat="43.60813" lon="2.67221">
        <ele>681.71</ele>
        <time>2021-07-07T12:04:18Z</time>
      </trkpt>
      <trkpt lat="43.60784" lon="2.6727">
        <ele>683.15</ele>
        <time>2021-07-07T12:04:31Z</time>
      </trkpt>
      <trkpt lat="43.60764" lon="2.67306">
        <ele>684.12</ele>
        <time>2021-07-07T12:04:41Z</time>
      </trkpt>
      <trkpt lat="43.60764" lon="2.67308">
        <ele>684.12</ele>
        <time>2021-07-07T12:04:42Z</time>
      </trkpt>
      <trkpt lat="43.60755" lon="2.67331">
        <ele>686.04</ele>
        <time>2021-07-07T12:04:51Z</time>
      </trkpt>
      <trkpt lat="43.60743" lon="2.67379">
        <ele>687.96</ele>
        <time>2021-07-07T12:05:01Z</time>
      </trkpt>
      <trkpt lat="43.60737" lon="2.67406">
        <ele>690.36</ele>
        <time>2021-07-07T12:05:09Z</time>
      </trkpt>
      <trkpt lat="43.60737" lon="2.67408">
        <ele>690.84</ele>
        <time>2021-07-07T12:05:10Z</time>
      </trkpt>
      <trkpt lat="43.6074" lon="2.67419">
        <ele>691.33</ele>
        <time>2021-07-07T12:05:15Z</time>
      </trkpt>
      <trkpt lat="43.6074" lon="2.67421">
        <ele>691.33</ele>
        <time>2021-07-07T12:05:16Z</time>
      </trkpt>
      <trkpt lat="43.60744" lon="2.67458">
        <ele>692.77</ele>
        <time>2021-07-07T12:05:29Z</time>
      </trkpt>
      <trkpt lat="43.60744" lon="2.67494">
        <ele>694.69</ele>
        <time>2021-07-07T12:05:42Z</time>
      </trkpt>
      <trkpt lat="43.60745" lon="2.67501">
        <ele>695.17</ele>
        <time>2021-07-07T12:05:46Z</time>
      </trkpt>
      <trkpt lat="43.60745" lon="2.67503">
        <ele>695.17</ele>
        <time>2021-07-07T12:05:47Z</time>
      </trkpt>
      <trkpt lat="43.60746" lon="2.67512">
        <ele>695.65</ele>
        <time>2021-07-07T12:05:59Z</time>
      </trkpt>
      <trkpt lat="43.60745" lon="2.67513">
        <ele>712.47</ele>
        <time>2021-07-07T12:06:01Z</time>
      </trkpt>
      <trkpt lat="43.60745" lon="2.67514">
        <ele>699.98</ele>
        <time>2021-07-07T12:06:02Z</time>
      </trkpt>
      <trkpt lat="43.60745" lon="2.67514">
        <ele>674.98</ele>
        <time>2021-07-07T12:06:03Z</time>
      </trkpt>
      <trkpt lat="43.60745" lon="2.67514">
        <ele>701.9</ele>
        <time>2021-07-07T12:06:04Z</time>
      </trkpt>
      <trkpt lat="43.60745" lon="2.67515">
        <ele>695.65</ele>
        <time>2021-07-07T12:06:05Z</time>
      </trkpt>
      <trkpt lat="43.60746" lon="2.67512">
        <ele>695.17</ele>
        <time>2021-07-07T12:06:29Z</time>
      </trkpt>
      <trkpt lat="43.60745" lon="2.67512">
        <ele>695.17</ele>
        <time>2021-07-07T12:06:47Z</time>
      </trkpt>
      <trkpt lat="43.60745" lon="2.67514">
        <ele>694.69</ele>
        <time>2021-07-07T12:07:05Z</time>
      </trkpt>
      <trkpt lat="43.60743" lon="2.67517">
        <ele>695.17</ele>
        <time>2021-07-07T12:07:08Z</time>
      </trkpt>
      <trkpt lat="43.60742" lon="2.67519">
        <ele>694.69</ele>
        <time>2021-07-07T12:07:09Z</time>
      </trkpt>
      <trkpt lat="43.60741" lon="2.67521">
        <ele>694.69</ele>
        <time>2021-07-07T12:07:10Z</time>
      </trkpt>
      <trkpt lat="43.60739" lon="2.67525">
        <ele>694.21</ele>
        <time>2021-07-07T12:07:11Z</time>
      </trkpt>
      <trkpt lat="43.60738" lon="2.67529">
        <ele>693.73</ele>
        <time>2021-07-07T12:07:12Z</time>
      </trkpt>
      <trkpt lat="43.60738" lon="2.67534">
        <ele>693.73</ele>
        <time>2021-07-07T12:07:13Z</time>
      </trkpt>
      <trkpt lat="43.60737" lon="2.6754">
        <ele>693.25</ele>
        <time>2021-07-07T12:07:14Z</time>
      </trkpt>
      <trkpt lat="43.60736" lon="2.67546">
        <ele>692.77</ele>
        <time>2021-07-07T12:07:15Z</time>
      </trkpt>
      <trkpt lat="43.60733" lon="2.67551">
        <ele>692.29</ele>
        <time>2021-07-07T12:07:16Z</time>
      </trkpt>
      <trkpt lat="43.60731" lon="2.67557">
        <ele>692.29</ele>
        <time>2021-07-07T12:07:17Z</time>
      </trkpt>
      <trkpt lat="43.60728" lon="2.67562">
        <ele>692.29</ele>
        <time>2021-07-07T12:07:18Z</time>
      </trkpt>
      <trkpt lat="43.60724" lon="2.67566">
        <ele>691.33</ele>
        <time>2021-07-07T12:07:19Z</time>
      </trkpt>
      <trkpt lat="43.6072" lon="2.6757">
        <ele>690.84</ele>
        <time>2021-07-07T12:07:20Z</time>
      </trkpt>
      <trkpt lat="43.60715" lon="2.67573">
        <ele>690.36</ele>
        <time>2021-07-07T12:07:21Z</time>
      </trkpt>
      <trkpt lat="43.60709" lon="2.67576">
        <ele>689.88</ele>
        <time>2021-07-07T12:07:22Z</time>
      </trkpt>
      <trkpt lat="43.60702" lon="2.67578">
        <ele>689.88</ele>
        <time>2021-07-07T12:07:23Z</time>
      </trkpt>
      <trkpt lat="43.60694" lon="2.67579">
        <ele>688.92</ele>
        <time>2021-07-07T12:07:24Z</time>
      </trkpt>
      <trkpt lat="43.60671" lon="2.67582">
        <ele>687</ele>
        <time>2021-07-07T12:07:27Z</time>
      </trkpt>
      <trkpt lat="43.60656" lon="2.67586">
        <ele>685.56</ele>
        <time>2021-07-07T12:07:29Z</time>
      </trkpt>
      <trkpt lat="43.60631" lon="2.67596">
        <ele>682.19</ele>
        <time>2021-07-07T12:07:32Z</time>
      </trkpt>
      <trkpt lat="43.60595" lon="2.67612">
        <ele>678.83</ele>
        <time>2021-07-07T12:07:36Z</time>
      </trkpt>
      <trkpt lat="43.60586" lon="2.67614">
        <ele>678.83</ele>
        <time>2021-07-07T12:07:37Z</time>
      </trkpt>
      <trkpt lat="43.60549" lon="2.67616">
        <ele>676.42</ele>
        <time>2021-07-07T12:07:41Z</time>
      </trkpt>
      <trkpt lat="43.6054" lon="2.67614">
        <ele>675.94</ele>
        <time>2021-07-07T12:07:42Z</time>
      </trkpt>
      <trkpt lat="43.60531" lon="2.67612">
        <ele>675.94</ele>
        <time>2021-07-07T12:07:43Z</time>
      </trkpt>
      <trkpt lat="43.60485" lon="2.67603">
        <ele>674.02</ele>
        <time>2021-07-07T12:07:49Z</time>
      </trkpt>
      <trkpt lat="43.60479" lon="2.67608">
        <ele>673.54</ele>
        <time>2021-07-07T12:07:50Z</time>
      </trkpt>
      <trkpt lat="43.60475" lon="2.67614">
        <ele>673.54</ele>
        <time>2021-07-07T12:07:51Z</time>
      </trkpt>
      <trkpt lat="43.60471" lon="2.67622">
        <ele>673.54</ele>
        <time>2021-07-07T12:07:52Z</time>
      </trkpt>
      <trkpt lat="43.60469" lon="2.6763">
        <ele>672.58</ele>
        <time>2021-07-07T12:07:53Z</time>
      </trkpt>
      <trkpt lat="43.60466" lon="2.67638">
        <ele>673.06</ele>
        <time>2021-07-07T12:07:54Z</time>
      </trkpt>
      <trkpt lat="43.6045" lon="2.67707">
        <ele>673.06</ele>
        <time>2021-07-07T12:08:03Z</time>
      </trkpt>
      <trkpt lat="43.60441" lon="2.67737">
        <ele>672.58</ele>
        <time>2021-07-07T12:08:07Z</time>
      </trkpt>
      <trkpt lat="43.60438" lon="2.67743">
        <ele>672.1</ele>
        <time>2021-07-07T12:08:08Z</time>
      </trkpt>
      <trkpt lat="43.60433" lon="2.67749">
        <ele>672.58</ele>
        <time>2021-07-07T12:08:09Z</time>
      </trkpt>
      <trkpt lat="43.60429" lon="2.67753">
        <ele>672.58</ele>
        <time>2021-07-07T12:08:10Z</time>
      </trkpt>
      <trkpt lat="43.60424" lon="2.67756">
        <ele>673.06</ele>
        <time>2021-07-07T12:08:11Z</time>
      </trkpt>
      <trkpt lat="43.60419" lon="2.67758">
        <ele>673.54</ele>
        <time>2021-07-07T12:08:12Z</time>
      </trkpt>
      <trkpt lat="43.60414" lon="2.6776">
        <ele>673.54</ele>
        <time>2021-07-07T12:08:13Z</time>
      </trkpt>
      <trkpt lat="43.60409" lon="2.67762">
        <ele>674.02</ele>
        <time>2021-07-07T12:08:14Z</time>
      </trkpt>
      <trkpt lat="43.60395" lon="2.67768">
        <ele>674.5</ele>
        <time>2021-07-07T12:08:17Z</time>
      </trkpt>
      <trkpt lat="43.60391" lon="2.6777">
        <ele>674.98</ele>
        <time>2021-07-07T12:08:18Z</time>
      </trkpt>
      <trkpt lat="43.60387" lon="2.67773">
        <ele>674.98</ele>
        <time>2021-07-07T12:08:19Z</time>
      </trkpt>
      <trkpt lat="43.6038" lon="2.67781">
        <ele>674.98</ele>
        <time>2021-07-07T12:08:21Z</time>
      </trkpt>
      <trkpt lat="43.60377" lon="2.67785">
        <ele>675.46</ele>
        <time>2021-07-07T12:08:22Z</time>
      </trkpt>
      <trkpt lat="43.60375" lon="2.6779">
        <ele>675.94</ele>
        <time>2021-07-07T12:08:23Z</time>
      </trkpt>
      <trkpt lat="43.60373" lon="2.67795">
        <ele>675.94</ele>
        <time>2021-07-07T12:08:24Z</time>
      </trkpt>
      <trkpt lat="43.6037" lon="2.67801">
        <ele>675.94</ele>
        <time>2021-07-07T12:08:25Z</time>
      </trkpt>
      <trkpt lat="43.6035" lon="2.67854">
        <ele>677.87</ele>
        <time>2021-07-07T12:08:35Z</time>
      </trkpt>
      <trkpt lat="43.60348" lon="2.67859">
        <ele>678.35</ele>
        <time>2021-07-07T12:08:36Z</time>
      </trkpt>
      <trkpt lat="43.60343" lon="2.67899">
        <ele>679.31</ele>
        <time>2021-07-07T12:08:43Z</time>
      </trkpt>
      <trkpt lat="43.60336" lon="2.67946">
        <ele>681.23</ele>
        <time>2021-07-07T12:08:55Z</time>
      </trkpt>
      <trkpt lat="43.60324" lon="2.67962">
        <ele>680.27</ele>
        <time>2021-07-07T12:09:02Z</time>
      </trkpt>
      <trkpt lat="43.60322" lon="2.67967">
        <ele>679.79</ele>
        <time>2021-07-07T12:09:06Z</time>
      </trkpt>
      <trkpt lat="43.60321" lon="2.67969">
        <ele>679.79</ele>
        <time>2021-07-07T12:09:07Z</time>
      </trkpt>
      <trkpt lat="43.60319" lon="2.67974">
        <ele>679.31</ele>
        <time>2021-07-07T12:09:22Z</time>
      </trkpt>
      <trkpt lat="43.60319" lon="2.67973">
        <ele>679.79</ele>
        <time>2021-07-07T12:09:44Z</time>
      </trkpt>
      <trkpt lat="43.6032" lon="2.67971">
        <ele>679.79</ele>
        <time>2021-07-07T12:09:45Z</time>
      </trkpt>
      <trkpt lat="43.6032" lon="2.6797">
        <ele>679.79</ele>
        <time>2021-07-07T12:09:55Z</time>
      </trkpt>
      <trkpt lat="43.60321" lon="2.67968">
        <ele>679.79</ele>
        <time>2021-07-07T12:10:08Z</time>
      </trkpt>
      <trkpt lat="43.6032" lon="2.67969">
        <ele>678.83</ele>
        <time>2021-07-07T12:10:22Z</time>
      </trkpt>
      <trkpt lat="43.6032" lon="2.67969">
        <ele>679.79</ele>
        <time>2021-07-07T12:10:26Z</time>
      </trkpt>
      <trkpt lat="43.6032" lon="2.67969">
        <ele>681.23</ele>
        <time>2021-07-07T12:10:35Z</time>
      </trkpt>
      <trkpt lat="43.60319" lon="2.67968">
        <ele>679.79</ele>
        <time>2021-07-07T12:10:54Z</time>
      </trkpt>
      <trkpt lat="43.60319" lon="2.67965">
        <ele>679.79</ele>
        <time>2021-07-07T12:11:24Z</time>
      </trkpt>
      <trkpt lat="43.6032" lon="2.67966">
        <ele>679.79</ele>
        <time>2021-07-07T12:11:43Z</time>
      </trkpt>
      <trkpt lat="43.60321" lon="2.67967">
        <ele>680.27</ele>
        <time>2021-07-07T12:11:53Z</time>
      </trkpt>
      <trkpt lat="43.60321" lon="2.67967">
        <ele>680.27</ele>
        <time>2021-07-07T12:12:09Z</time>
      </trkpt>
      <trkpt lat="43.6032" lon="2.67967">
        <ele>680.27</ele>
        <time>2021-07-07T12:12:24Z</time>
      </trkpt>
      <trkpt lat="43.60319" lon="2.67967">
        <ele>680.27</ele>
        <time>2021-07-07T12:12:41Z</time>
      </trkpt>
      <trkpt lat="43.60319" lon="2.67967">
        <ele>679.31</ele>
        <time>2021-07-07T12:13:10Z</time>
      </trkpt>
      <trkpt lat="43.60318" lon="2.6797">
        <ele>679.31</ele>
        <time>2021-07-07T12:13:16Z</time>
      </trkpt>
      <trkpt lat="43.60318" lon="2.67974">
        <ele>678.83</ele>
        <time>2021-07-07T12:13:17Z</time>
      </trkpt>
      <trkpt lat="43.60317" lon="2.67978">
        <ele>678.35</ele>
        <time>2021-07-07T12:13:18Z</time>
      </trkpt>
      <trkpt lat="43.60315" lon="2.67984">
        <ele>677.39</ele>
        <time>2021-07-07T12:13:19Z</time>
      </trkpt>
      <trkpt lat="43.60313" lon="2.6799">
        <ele>676.91</ele>
        <time>2021-07-07T12:13:20Z</time>
      </trkpt>
      <trkpt lat="43.6031" lon="2.67998">
        <ele>676.42</ele>
        <time>2021-07-07T12:13:21Z</time>
      </trkpt>
      <trkpt lat="43.60308" lon="2.68005">
        <ele>675.94</ele>
        <time>2021-07-07T12:13:22Z</time>
      </trkpt>
      <trkpt lat="43.60307" lon="2.68013">
        <ele>676.42</ele>
        <time>2021-07-07T12:13:23Z</time>
      </trkpt>
      <trkpt lat="43.60305" lon="2.68021">
        <ele>676.42</ele>
        <time>2021-07-07T12:13:24Z</time>
      </trkpt>
      <trkpt lat="43.60302" lon="2.68029">
        <ele>675.94</ele>
        <time>2021-07-07T12:13:25Z</time>
      </trkpt>
      <trkpt lat="43.603" lon="2.68035">
        <ele>675.94</ele>
        <time>2021-07-07T12:13:26Z</time>
      </trkpt>
      <trkpt lat="43.60292" lon="2.68053">
        <ele>676.91</ele>
        <time>2021-07-07T12:13:30Z</time>
      </trkpt>
      <trkpt lat="43.60288" lon="2.68065">
        <ele>677.39</ele>
        <time>2021-07-07T12:13:40Z</time>
      </trkpt>
      <trkpt lat="43.60284" lon="2.6806">
        <ele>676.42</ele>
        <time>2021-07-07T12:13:54Z</time>
      </trkpt>
      <trkpt lat="43.60285" lon="2.68064">
        <ele>676.42</ele>
        <time>2021-07-07T12:14:03Z</time>
      </trkpt>
      <trkpt lat="43.60284" lon="2.68065">
        <ele>676.42</ele>
        <time>2021-07-07T12:14:15Z</time>
      </trkpt>
      <trkpt lat="43.60283" lon="2.68064">
        <ele>676.91</ele>
        <time>2021-07-07T12:14:18Z</time>
      </trkpt>
      <trkpt lat="43.60283" lon="2.68064">
        <ele>676.42</ele>
        <time>2021-07-07T12:14:29Z</time>
      </trkpt>
      <trkpt lat="43.60283" lon="2.68066">
        <ele>676.42</ele>
        <time>2021-07-07T12:14:35Z</time>
      </trkpt>
    </trkseg>
  </trk>
</gpx>